<?xml version="1.0" encoding="UTF-8" standalone="no" ?>
<gpx xmlns="http://www.topografix.com/GPX/1/1" xmlns:xsi="http://www.w3.org/2001/XMLSchema-instance" xsi:schemaLocation="http://www.topografix.com/GPX/1/1 http://www.topografix.com/GPX/1/1/gpx.xsd" version="1.1" creator="VisuGPX - https://www.visugpx.com">
  <metadata>
    <name>Edirne-Mostar</name>
  </metadata>
  <trk>
    <name><![CDATA[Tour d'Europe: étape 666]]></name>
    <extensions>
      <line xmlns="http://www.topografix.com/GPX/gpx_style/0/2">
        <color>FFFF00</color>
        <width>4</width>
      </line>
    </extensions>
    <trkseg>
      <trkpt lat="41.79015" lon="20.90829">
        <ele>580.190296</ele>
        <time>2022-04-25T08:00:54.991Z</time>
      </trkpt>
      <trkpt lat="41.78978" lon="20.90829">
        <ele>580.190296</ele>
        <time>2022-04-25T08:00:55.889Z</time>
      </trkpt>
      <trkpt lat="41.78941" lon="20.90825">
        <ele>580.190296</ele>
        <time>2022-04-25T08:01:01.915Z</time>
      </trkpt>
      <trkpt lat="41.78941" lon="20.90805">
        <ele>580.190296</ele>
        <time>2022-04-25T08:04:52.972Z</time>
      </trkpt>
      <trkpt lat="41.7895" lon="20.908">
        <ele>580.60668</ele>
        <time>2022-04-25T08:04:55.893Z</time>
      </trkpt>
      <trkpt lat="41.78962" lon="20.908">
        <ele>581.186556</ele>
        <time>2022-04-25T08:04:58.888Z</time>
      </trkpt>
      <trkpt lat="41.7897" lon="20.9079">
        <ele>581.673932</ele>
        <time>2022-04-25T08:05:03.968Z</time>
      </trkpt>
      <trkpt lat="41.78976" lon="20.90782">
        <ele>582.108921</ele>
        <time>2022-04-25T08:05:08.899Z</time>
      </trkpt>
      <trkpt lat="41.78981" lon="20.9077">
        <ele>582.603553</ele>
        <time>2022-04-25T08:05:13.904Z</time>
      </trkpt>
      <trkpt lat="41.78984" lon="20.90756">
        <ele>583.123726</ele>
        <time>2022-04-25T08:05:18.904Z</time>
      </trkpt>
      <trkpt lat="41.78988" lon="20.90745">
        <ele>583.558874</ele>
        <time>2022-04-25T08:05:22.899Z</time>
      </trkpt>
      <trkpt lat="41.78991" lon="20.90733">
        <ele>584.020831</ele>
        <time>2022-04-25T08:05:26.897Z</time>
      </trkpt>
      <trkpt lat="41.78995" lon="20.90721">
        <ele>584.459476</ele>
        <time>2022-04-25T08:05:30.890Z</time>
      </trkpt>
      <trkpt lat="41.78999" lon="20.90709">
        <ele>584.956541</ele>
        <time>2022-04-25T08:05:35.882Z</time>
      </trkpt>
      <trkpt lat="41.79005" lon="20.90687">
        <ele>585.786753</ele>
        <time>2022-04-25T08:06:16.911Z</time>
      </trkpt>
      <trkpt lat="41.79009" lon="20.90673">
        <ele>586.312442</ele>
        <time>2022-04-25T08:06:20.930Z</time>
      </trkpt>
      <trkpt lat="41.79012" lon="20.90658">
        <ele>586.873496</ele>
        <time>2022-04-25T08:06:24.879Z</time>
      </trkpt>
      <trkpt lat="41.79015" lon="20.90644">
        <ele>587.401195</ele>
        <time>2022-04-25T08:06:28.888Z</time>
      </trkpt>
      <trkpt lat="41.79016" lon="20.9063">
        <ele>587.887621</ele>
        <time>2022-04-25T08:06:32.891Z</time>
      </trkpt>
      <trkpt lat="41.79019" lon="20.90615">
        <ele>588.456259</ele>
        <time>2022-04-25T08:06:36.897Z</time>
      </trkpt>
      <trkpt lat="41.79021" lon="20.90602">
        <ele>588.812675</ele>
        <time>2022-04-25T08:06:39.886Z</time>
      </trkpt>
      <trkpt lat="41.79022" lon="20.9059">
        <ele>588.829743</ele>
        <time>2022-04-25T08:06:42.929Z</time>
      </trkpt>
      <trkpt lat="41.79024" lon="20.90575">
        <ele>588.85109</ele>
        <time>2022-04-25T08:06:46.891Z</time>
      </trkpt>
      <trkpt lat="41.79024" lon="20.90559">
        <ele>588.87389</ele>
        <time>2022-04-25T08:06:50.886Z</time>
      </trkpt>
      <trkpt lat="41.79025" lon="20.90544">
        <ele>588.894435</ele>
        <time>2022-04-25T08:06:53.944Z</time>
      </trkpt>
      <trkpt lat="41.79027" lon="20.90531">
        <ele>588.913619</ele>
        <time>2022-04-25T08:06:56.884Z</time>
      </trkpt>
      <trkpt lat="41.79029" lon="20.90518">
        <ele>588.933076</ele>
        <time>2022-04-25T08:06:59.882Z</time>
      </trkpt>
      <trkpt lat="41.79032" lon="20.90506">
        <ele>588.950395</ele>
        <time>2022-04-25T08:07:02.899Z</time>
      </trkpt>
      <trkpt lat="41.79034" lon="20.9049">
        <ele>588.972775</ele>
        <time>2022-04-25T08:07:06.877Z</time>
      </trkpt>
      <trkpt lat="41.79033" lon="20.90475">
        <ele>588.994273</ele>
        <time>2022-04-25T08:07:09.890Z</time>
      </trkpt>
      <trkpt lat="41.79034" lon="20.90459">
        <ele>589.015497</ele>
        <time>2022-04-25T08:07:12.898Z</time>
      </trkpt>
      <trkpt lat="41.79034" lon="20.90444">
        <ele>589.036895</ele>
        <time>2022-04-25T08:07:15.884Z</time>
      </trkpt>
      <trkpt lat="41.79035" lon="20.9043">
        <ele>589.05685</ele>
        <time>2022-04-25T08:07:18.900Z</time>
      </trkpt>
      <trkpt lat="41.79036" lon="20.90415">
        <ele>589.078753</ele>
        <time>2022-04-25T08:07:22.893Z</time>
      </trkpt>
      <trkpt lat="41.79039" lon="20.90403">
        <ele>589.096041</ele>
        <time>2022-04-25T08:07:25.917Z</time>
      </trkpt>
      <trkpt lat="41.79041" lon="20.9039">
        <ele>589.115183</ele>
        <time>2022-04-25T08:07:28.930Z</time>
      </trkpt>
      <trkpt lat="41.79042" lon="20.90377">
        <ele>589.132891</ele>
        <time>2022-04-25T08:07:31.910Z</time>
      </trkpt>
      <trkpt lat="41.79042" lon="20.90364">
        <ele>589.135347</ele>
        <time>2022-04-25T08:07:34.935Z</time>
      </trkpt>
      <trkpt lat="41.79043" lon="20.90352">
        <ele>589.073491</ele>
        <time>2022-04-25T08:07:37.891Z</time>
      </trkpt>
      <trkpt lat="41.79043" lon="20.90338">
        <ele>589.008628</ele>
        <time>2022-04-25T08:07:40.921Z</time>
      </trkpt>
      <trkpt lat="41.79044" lon="20.90326">
        <ele>588.945503</ele>
        <time>2022-04-25T08:07:43.900Z</time>
      </trkpt>
      <trkpt lat="41.79046" lon="20.90313">
        <ele>588.881254</ele>
        <time>2022-04-25T08:07:46.903Z</time>
      </trkpt>
      <trkpt lat="41.79047" lon="20.903">
        <ele>588.820014</ele>
        <time>2022-04-25T08:07:49.901Z</time>
      </trkpt>
      <trkpt lat="41.79051" lon="20.90285">
        <ele>588.74105</ele>
        <time>2022-04-25T08:07:53.885Z</time>
      </trkpt>
      <trkpt lat="41.79053" lon="20.90273">
        <ele>588.68004</ele>
        <time>2022-04-25T08:07:56.896Z</time>
      </trkpt>
      <trkpt lat="41.79055" lon="20.90258">
        <ele>588.605324</ele>
        <time>2022-04-25T08:08:00.912Z</time>
      </trkpt>
      <trkpt lat="41.79056" lon="20.90246">
        <ele>588.546016</ele>
        <time>2022-04-25T08:08:03.906Z</time>
      </trkpt>
      <trkpt lat="41.79057" lon="20.90234">
        <ele>588.48514</ele>
        <time>2022-04-25T08:08:06.907Z</time>
      </trkpt>
      <trkpt lat="41.79058" lon="20.90221">
        <ele>588.425179</ele>
        <time>2022-04-25T08:08:09.918Z</time>
      </trkpt>
      <trkpt lat="41.79059" lon="20.90209">
        <ele>588.362719</ele>
        <time>2022-04-25T08:08:12.938Z</time>
      </trkpt>
      <trkpt lat="41.7906" lon="20.90196">
        <ele>588.298198</ele>
        <time>2022-04-25T08:08:15.889Z</time>
      </trkpt>
      <trkpt lat="41.79062" lon="20.90182">
        <ele>588.230668</ele>
        <time>2022-04-25T08:08:18.900Z</time>
      </trkpt>
      <trkpt lat="41.79063" lon="20.90169">
        <ele>588.163816</ele>
        <time>2022-04-25T08:08:21.901Z</time>
      </trkpt>
      <trkpt lat="41.79064" lon="20.90156">
        <ele>588.102155</ele>
        <time>2022-04-25T08:08:24.889Z</time>
      </trkpt>
      <trkpt lat="41.79065" lon="20.90144">
        <ele>588.040981</ele>
        <time>2022-04-25T08:08:27.887Z</time>
      </trkpt>
      <trkpt lat="41.79066" lon="20.90132">
        <ele>587.981543</ele>
        <time>2022-04-25T08:08:30.904Z</time>
      </trkpt>
      <trkpt lat="41.79067" lon="20.90119">
        <ele>587.778042</ele>
        <time>2022-04-25T08:08:33.900Z</time>
      </trkpt>
      <trkpt lat="41.79069" lon="20.90107">
        <ele>587.506307</ele>
        <time>2022-04-25T08:08:36.922Z</time>
      </trkpt>
      <trkpt lat="41.79071" lon="20.90094">
        <ele>587.236623</ele>
        <time>2022-04-25T08:08:39.905Z</time>
      </trkpt>
      <trkpt lat="41.79073" lon="20.90081">
        <ele>586.970492</ele>
        <time>2022-04-25T08:08:42.883Z</time>
      </trkpt>
      <trkpt lat="41.79075" lon="20.90069">
        <ele>586.704361</ele>
        <time>2022-04-25T08:08:45.904Z</time>
      </trkpt>
      <trkpt lat="41.79076" lon="20.90057">
        <ele>586.444793</ele>
        <time>2022-04-25T08:08:48.929Z</time>
      </trkpt>
      <trkpt lat="41.79077" lon="20.90041">
        <ele>586.117628</ele>
        <time>2022-04-25T08:08:52.909Z</time>
      </trkpt>
      <trkpt lat="41.79079" lon="20.90026">
        <ele>585.802803</ele>
        <time>2022-04-25T08:08:56.918Z</time>
      </trkpt>
      <trkpt lat="41.79083" lon="20.90013">
        <ele>585.50466</ele>
        <time>2022-04-25T08:09:00.901Z</time>
      </trkpt>
      <trkpt lat="41.79091" lon="20.90003">
        <ele>585.197842</ele>
        <time>2022-04-25T08:09:04.910Z</time>
      </trkpt>
      <trkpt lat="41.791" lon="20.89998">
        <ele>584.927885</ele>
        <time>2022-04-25T08:09:07.909Z</time>
      </trkpt>
      <trkpt lat="41.7911" lon="20.89995">
        <ele>584.660876</ele>
        <time>2022-04-25T08:09:10.887Z</time>
      </trkpt>
      <trkpt lat="41.79119" lon="20.89992">
        <ele>584.395462</ele>
        <time>2022-04-25T08:09:13.903Z</time>
      </trkpt>
      <trkpt lat="41.79128" lon="20.89989">
        <ele>584.125107</ele>
        <time>2022-04-25T08:09:16.906Z</time>
      </trkpt>
      <trkpt lat="41.79138" lon="20.89986">
        <ele>583.848736</ele>
        <time>2022-04-25T08:09:19.902Z</time>
      </trkpt>
      <trkpt lat="41.79147" lon="20.89984">
        <ele>583.575112</ele>
        <time>2022-04-25T08:09:22.899Z</time>
      </trkpt>
      <trkpt lat="41.79158" lon="20.89981">
        <ele>583.284212</ele>
        <time>2022-04-25T08:09:25.908Z</time>
      </trkpt>
      <trkpt lat="41.79168" lon="20.89979">
        <ele>582.996622</ele>
        <time>2022-04-25T08:09:28.901Z</time>
      </trkpt>
      <trkpt lat="41.79177" lon="20.89978">
        <ele>583.186835</ele>
        <time>2022-04-25T08:09:31.884Z</time>
      </trkpt>
      <trkpt lat="41.79188" lon="20.89976">
        <ele>583.563885</ele>
        <time>2022-04-25T08:09:35.904Z</time>
      </trkpt>
      <trkpt lat="41.79199" lon="20.89974">
        <ele>583.945502</ele>
        <time>2022-04-25T08:09:39.899Z</time>
      </trkpt>
      <trkpt lat="41.7921" lon="20.89972">
        <ele>584.358687</ele>
        <time>2022-04-25T08:09:43.904Z</time>
      </trkpt>
      <trkpt lat="41.7922" lon="20.8997">
        <ele>584.694048</ele>
        <time>2022-04-25T08:09:46.903Z</time>
      </trkpt>
      <trkpt lat="41.7923" lon="20.89967">
        <ele>585.073623</ele>
        <time>2022-04-25T08:09:49.908Z</time>
      </trkpt>
      <trkpt lat="41.79241" lon="20.89964">
        <ele>585.469901</ele>
        <time>2022-04-25T08:09:52.897Z</time>
      </trkpt>
      <trkpt lat="41.79253" lon="20.8996">
        <ele>585.898134</ele>
        <time>2022-04-25T08:09:55.900Z</time>
      </trkpt>
      <trkpt lat="41.79265" lon="20.89956">
        <ele>586.341127</ele>
        <time>2022-04-25T08:09:58.885Z</time>
      </trkpt>
      <trkpt lat="41.79275" lon="20.89955">
        <ele>586.690856</ele>
        <time>2022-04-25T08:10:00.899Z</time>
      </trkpt>
      <trkpt lat="41.79286" lon="20.89949">
        <ele>587.124813</ele>
        <time>2022-04-25T08:10:02.890Z</time>
      </trkpt>
      <trkpt lat="41.79299" lon="20.89943">
        <ele>587.617593</ele>
        <time>2022-04-25T08:10:05.893Z</time>
      </trkpt>
      <trkpt lat="41.79308" lon="20.89939">
        <ele>587.956176</ele>
        <time>2022-04-25T08:10:07.879Z</time>
      </trkpt>
      <trkpt lat="41.7932" lon="20.89937">
        <ele>588.362343</ele>
        <time>2022-04-25T08:10:10.932Z</time>
      </trkpt>
      <trkpt lat="41.79332" lon="20.89933">
        <ele>588.809833</ele>
        <time>2022-04-25T08:10:13.886Z</time>
      </trkpt>
      <trkpt lat="41.79343" lon="20.89933">
        <ele>589.181116</ele>
        <time>2022-04-25T08:10:16.887Z</time>
      </trkpt>
      <trkpt lat="41.79354" lon="20.89932">
        <ele>589.544953</ele>
        <time>2022-04-25T08:10:19.888Z</time>
      </trkpt>
      <trkpt lat="41.79365" lon="20.8993">
        <ele>589.890901</ele>
        <time>2022-04-25T08:10:23.892Z</time>
      </trkpt>
      <trkpt lat="41.79375" lon="20.89929">
        <ele>590.211753</ele>
        <time>2022-04-25T08:10:27.978Z</time>
      </trkpt>
      <trkpt lat="41.79386" lon="20.89925">
        <ele>590.566472</ele>
        <time>2022-04-25T08:10:31.904Z</time>
      </trkpt>
      <trkpt lat="41.79396" lon="20.89925">
        <ele>590.878982</ele>
        <time>2022-04-25T08:10:34.909Z</time>
      </trkpt>
      <trkpt lat="41.79408" lon="20.89922">
        <ele>591.251591</ele>
        <time>2022-04-25T08:10:38.907Z</time>
      </trkpt>
      <trkpt lat="41.79417" lon="20.8992">
        <ele>591.536241</ele>
        <time>2022-04-25T08:10:41.887Z</time>
      </trkpt>
      <trkpt lat="41.79426" lon="20.8992">
        <ele>591.817439</ele>
        <time>2022-04-25T08:10:43.975Z</time>
      </trkpt>
      <trkpt lat="41.79435" lon="20.89918">
        <ele>592.104496</ele>
        <time>2022-04-25T08:10:46.971Z</time>
      </trkpt>
      <trkpt lat="41.79445" lon="20.89917">
        <ele>592.427512</ele>
        <time>2022-04-25T08:10:50.901Z</time>
      </trkpt>
      <trkpt lat="41.79455" lon="20.89915">
        <ele>592.731409</ele>
        <time>2022-04-25T08:10:54.925Z</time>
      </trkpt>
      <trkpt lat="41.79463" lon="20.8991">
        <ele>593.016675</ele>
        <time>2022-04-25T08:10:59.909Z</time>
      </trkpt>
      <trkpt lat="41.79473" lon="20.89907">
        <ele>593.321466</ele>
        <time>2022-04-25T08:11:09.981Z</time>
      </trkpt>
      <trkpt lat="41.79483" lon="20.89905">
        <ele>593.638258</ele>
        <time>2022-04-25T08:11:14.888Z</time>
      </trkpt>
      <trkpt lat="41.79494" lon="20.89903">
        <ele>593.989912</ele>
        <time>2022-04-25T08:11:18.904Z</time>
      </trkpt>
      <trkpt lat="41.79503" lon="20.89901">
        <ele>594.280391</ele>
        <time>2022-04-25T08:11:21.909Z</time>
      </trkpt>
      <trkpt lat="41.79512" lon="20.89897">
        <ele>594.582551</ele>
        <time>2022-04-25T08:11:24.897Z</time>
      </trkpt>
      <trkpt lat="41.79514" lon="20.89884">
        <ele>594.896938</ele>
        <time>2022-04-25T08:11:28.887Z</time>
      </trkpt>
      <trkpt lat="41.79512" lon="20.89872">
        <ele>595.11243</ele>
        <time>2022-04-25T08:11:31.921Z</time>
      </trkpt>
      <trkpt lat="41.79508" lon="20.89858">
        <ele>595.37656</ele>
        <time>2022-04-25T08:11:35.907Z</time>
      </trkpt>
      <trkpt lat="41.79506" lon="20.89844">
        <ele>595.626202</ele>
        <time>2022-04-25T08:11:39.893Z</time>
      </trkpt>
      <trkpt lat="41.79504" lon="20.89828">
        <ele>595.901685</ele>
        <time>2022-04-25T08:11:43.885Z</time>
      </trkpt>
      <trkpt lat="41.79501" lon="20.89814">
        <ele>596.140036</ele>
        <time>2022-04-25T08:11:46.882Z</time>
      </trkpt>
      <trkpt lat="41.79497" lon="20.89802">
        <ele>596.364579</ele>
        <time>2022-04-25T08:11:49.870Z</time>
      </trkpt>
      <trkpt lat="41.79495" lon="20.89788">
        <ele>596.613633</ele>
        <time>2022-04-25T08:11:52.895Z</time>
      </trkpt>
      <trkpt lat="41.79493" lon="20.89775">
        <ele>596.851939</ele>
        <time>2022-04-25T08:11:55.946Z</time>
      </trkpt>
      <trkpt lat="41.7949" lon="20.89761">
        <ele>597.090411</ele>
        <time>2022-04-25T08:11:58.909Z</time>
      </trkpt>
      <trkpt lat="41.79488" lon="20.89748">
        <ele>597.322815</ele>
        <time>2022-04-25T08:12:01.887Z</time>
      </trkpt>
      <trkpt lat="41.79486" lon="20.89734">
        <ele>597.56963</ele>
        <time>2022-04-25T08:12:04.899Z</time>
      </trkpt>
      <trkpt lat="41.79484" lon="20.89721">
        <ele>597.799221</ele>
        <time>2022-04-25T08:12:07.896Z</time>
      </trkpt>
      <trkpt lat="41.79483" lon="20.89709">
        <ele>598.017013</ele>
        <time>2022-04-25T08:12:10.909Z</time>
      </trkpt>
      <trkpt lat="41.79481" lon="20.89696">
        <ele>598.237144</ele>
        <time>2022-04-25T08:12:13.907Z</time>
      </trkpt>
      <trkpt lat="41.79479" lon="20.89683">
        <ele>598.466562</ele>
        <time>2022-04-25T08:12:16.892Z</time>
      </trkpt>
      <trkpt lat="41.79478" lon="20.8967">
        <ele>598.683931</ele>
        <time>2022-04-25T08:12:19.887Z</time>
      </trkpt>
      <trkpt lat="41.79477" lon="20.89657">
        <ele>598.91565</ele>
        <time>2022-04-25T08:12:22.900Z</time>
      </trkpt>
      <trkpt lat="41.79477" lon="20.89643">
        <ele>598.992265</ele>
        <time>2022-04-25T08:12:25.892Z</time>
      </trkpt>
      <trkpt lat="41.79475" lon="20.89631">
        <ele>598.815117</ele>
        <time>2022-04-25T08:12:28.927Z</time>
      </trkpt>
      <trkpt lat="41.79474" lon="20.89618">
        <ele>598.62203</ele>
        <time>2022-04-25T08:12:31.898Z</time>
      </trkpt>
      <trkpt lat="41.79474" lon="20.89604">
        <ele>598.425077</ele>
        <time>2022-04-25T08:12:34.893Z</time>
      </trkpt>
      <trkpt lat="41.79472" lon="20.89588">
        <ele>598.199342</ele>
        <time>2022-04-25T08:12:38.903Z</time>
      </trkpt>
      <trkpt lat="41.79471" lon="20.89575">
        <ele>598.010857</ele>
        <time>2022-04-25T08:12:41.895Z</time>
      </trkpt>
      <trkpt lat="41.79472" lon="20.89561">
        <ele>597.811336</ele>
        <time>2022-04-25T08:12:44.882Z</time>
      </trkpt>
      <trkpt lat="41.79472" lon="20.89547">
        <ele>597.603019</ele>
        <time>2022-04-25T08:12:47.878Z</time>
      </trkpt>
      <trkpt lat="41.7947" lon="20.89531">
        <ele>597.375826</ele>
        <time>2022-04-25T08:12:50.882Z</time>
      </trkpt>
      <trkpt lat="41.79469" lon="20.89517">
        <ele>597.164545</ele>
        <time>2022-04-25T08:12:53.906Z</time>
      </trkpt>
      <trkpt lat="41.79469" lon="20.89503">
        <ele>596.964829</ele>
        <time>2022-04-25T08:12:56.889Z</time>
      </trkpt>
      <trkpt lat="41.79467" lon="20.8949">
        <ele>596.773987</ele>
        <time>2022-04-25T08:12:59.889Z</time>
      </trkpt>
      <trkpt lat="41.79467" lon="20.89475">
        <ele>596.56103</ele>
        <time>2022-04-25T08:13:02.918Z</time>
      </trkpt>
      <trkpt lat="41.79467" lon="20.8946">
        <ele>596.355661</ele>
        <time>2022-04-25T08:13:05.887Z</time>
      </trkpt>
      <trkpt lat="41.79467" lon="20.89446">
        <ele>596.154705</ele>
        <time>2022-04-25T08:13:08.882Z</time>
      </trkpt>
      <trkpt lat="41.79468" lon="20.89433">
        <ele>595.962309</ele>
        <time>2022-04-25T08:13:11.914Z</time>
      </trkpt>
      <trkpt lat="41.79468" lon="20.8942">
        <ele>595.771349</ele>
        <time>2022-04-25T08:13:14.903Z</time>
      </trkpt>
      <trkpt lat="41.79468" lon="20.89407">
        <ele>595.633252</ele>
        <time>2022-04-25T08:13:17.900Z</time>
      </trkpt>
      <trkpt lat="41.79467" lon="20.89395">
        <ele>596.102084</ele>
        <time>2022-04-25T08:13:20.895Z</time>
      </trkpt>
      <trkpt lat="41.79467" lon="20.89382">
        <ele>596.573988</ele>
        <time>2022-04-25T08:13:23.936Z</time>
      </trkpt>
      <trkpt lat="41.79468" lon="20.89367">
        <ele>597.150957</ele>
        <time>2022-04-25T08:13:27.893Z</time>
      </trkpt>
      <trkpt lat="41.79469" lon="20.89353">
        <ele>597.684703</ele>
        <time>2022-04-25T08:13:31.892Z</time>
      </trkpt>
      <trkpt lat="41.79466" lon="20.89338">
        <ele>598.235229</ele>
        <time>2022-04-25T08:13:35.885Z</time>
      </trkpt>
      <trkpt lat="41.79463" lon="20.89326">
        <ele>598.714668</ele>
        <time>2022-04-25T08:13:39.913Z</time>
      </trkpt>
      <trkpt lat="41.79459" lon="20.89315">
        <ele>599.18335</ele>
        <time>2022-04-25T08:13:42.898Z</time>
      </trkpt>
      <trkpt lat="41.79458" lon="20.89298">
        <ele>599.797313</ele>
        <time>2022-04-25T08:13:46.908Z</time>
      </trkpt>
      <trkpt lat="41.79459" lon="20.89283">
        <ele>600.363941</ele>
        <time>2022-04-25T08:13:49.897Z</time>
      </trkpt>
      <trkpt lat="41.79459" lon="20.89271">
        <ele>600.829333</ele>
        <time>2022-04-25T08:13:52.900Z</time>
      </trkpt>
      <trkpt lat="41.7946" lon="20.89258">
        <ele>601.300742</ele>
        <time>2022-04-25T08:13:55.954Z</time>
      </trkpt>
      <trkpt lat="41.7946" lon="20.89243">
        <ele>601.870046</ele>
        <time>2022-04-25T08:13:59.921Z</time>
      </trkpt>
      <trkpt lat="41.79461" lon="20.89227">
        <ele>602.477113</ele>
        <time>2022-04-25T08:14:02.945Z</time>
      </trkpt>
      <trkpt lat="41.79459" lon="20.89211">
        <ele>603.068331</ele>
        <time>2022-04-25T08:14:06.906Z</time>
      </trkpt>
      <trkpt lat="41.79457" lon="20.89198">
        <ele>603.595093</ele>
        <time>2022-04-25T08:14:10.892Z</time>
      </trkpt>
      <trkpt lat="41.79455" lon="20.89183">
        <ele>604.144634</ele>
        <time>2022-04-25T08:14:14.910Z</time>
      </trkpt>
      <trkpt lat="41.79453" lon="20.89168">
        <ele>604.634794</ele>
        <time>2022-04-25T08:14:18.911Z</time>
      </trkpt>
      <trkpt lat="41.79451" lon="20.89151">
        <ele>604.601448</ele>
        <time>2022-04-25T08:14:22.904Z</time>
      </trkpt>
      <trkpt lat="41.79451" lon="20.89135">
        <ele>604.569579</ele>
        <time>2022-04-25T08:14:25.952Z</time>
      </trkpt>
      <trkpt lat="41.7945" lon="20.8912">
        <ele>604.540744</ele>
        <time>2022-04-25T08:14:28.885Z</time>
      </trkpt>
      <trkpt lat="41.79448" lon="20.89104">
        <ele>604.508257</ele>
        <time>2022-04-25T08:14:31.895Z</time>
      </trkpt>
      <trkpt lat="41.79446" lon="20.8909">
        <ele>604.480041</ele>
        <time>2022-04-25T08:14:34.935Z</time>
      </trkpt>
      <trkpt lat="41.79443" lon="20.89076">
        <ele>604.451635</ele>
        <time>2022-04-25T08:14:38.900Z</time>
      </trkpt>
      <trkpt lat="41.79441" lon="20.8906">
        <ele>604.420076</ele>
        <time>2022-04-25T08:14:42.911Z</time>
      </trkpt>
      <trkpt lat="41.7944" lon="20.89048">
        <ele>604.396244</ele>
        <time>2022-04-25T08:14:45.897Z</time>
      </trkpt>
      <trkpt lat="41.79437" lon="20.89036">
        <ele>604.371698</ele>
        <time>2022-04-25T08:14:48.885Z</time>
      </trkpt>
      <trkpt lat="41.79435" lon="20.89023">
        <ele>604.346528</ele>
        <time>2022-04-25T08:14:51.912Z</time>
      </trkpt>
      <trkpt lat="41.79432" lon="20.8901">
        <ele>604.319813</ele>
        <time>2022-04-25T08:14:54.898Z</time>
      </trkpt>
      <trkpt lat="41.79428" lon="20.88998">
        <ele>604.294258</ele>
        <time>2022-04-25T08:14:57.878Z</time>
      </trkpt>
      <trkpt lat="41.79427" lon="20.88985">
        <ele>604.269463</ele>
        <time>2022-04-25T08:15:00.907Z</time>
      </trkpt>
      <trkpt lat="41.79424" lon="20.88972">
        <ele>604.242749</ele>
        <time>2022-04-25T08:15:03.949Z</time>
      </trkpt>
      <trkpt lat="41.79422" lon="20.8896">
        <ele>604.218957</ele>
        <time>2022-04-25T08:15:06.884Z</time>
      </trkpt>
      <trkpt lat="41.79421" lon="20.88948">
        <ele>604.194157</ele>
        <time>2022-04-25T08:15:09.893Z</time>
      </trkpt>
      <trkpt lat="41.7942" lon="20.88935">
        <ele>604.169744</ele>
        <time>2022-04-25T08:15:12.908Z</time>
      </trkpt>
      <trkpt lat="41.79418" lon="20.8892">
        <ele>604.030728</ele>
        <time>2022-04-25T08:15:16.900Z</time>
      </trkpt>
      <trkpt lat="41.79416" lon="20.88907">
        <ele>603.901592</ele>
        <time>2022-04-25T08:15:19.897Z</time>
      </trkpt>
      <trkpt lat="41.79412" lon="20.88892">
        <ele>603.748996</ele>
        <time>2022-04-25T08:15:23.916Z</time>
      </trkpt>
      <trkpt lat="41.7941" lon="20.88877">
        <ele>603.604516</ele>
        <time>2022-04-25T08:15:26.984Z</time>
      </trkpt>
      <trkpt lat="41.79408" lon="20.88862">
        <ele>603.453629</ele>
        <time>2022-04-25T08:15:29.901Z</time>
      </trkpt>
      <trkpt lat="41.79406" lon="20.88848">
        <ele>603.319057</ele>
        <time>2022-04-25T08:15:32.909Z</time>
      </trkpt>
      <trkpt lat="41.79405" lon="20.88833">
        <ele>603.179055</ele>
        <time>2022-04-25T08:15:35.890Z</time>
      </trkpt>
      <trkpt lat="41.79404" lon="20.88821">
        <ele>603.061802</ele>
        <time>2022-04-25T08:15:38.900Z</time>
      </trkpt>
      <trkpt lat="41.79403" lon="20.88806">
        <ele>602.916476</ele>
        <time>2022-04-25T08:15:42.891Z</time>
      </trkpt>
      <trkpt lat="41.79404" lon="20.88793">
        <ele>602.79022</ele>
        <time>2022-04-25T08:15:45.890Z</time>
      </trkpt>
      <trkpt lat="41.79405" lon="20.8878">
        <ele>602.667895</ele>
        <time>2022-04-25T08:15:48.902Z</time>
      </trkpt>
      <trkpt lat="41.79405" lon="20.88766">
        <ele>602.533261</ele>
        <time>2022-04-25T08:15:51.908Z</time>
      </trkpt>
      <trkpt lat="41.79407" lon="20.88753">
        <ele>602.408221</ele>
        <time>2022-04-25T08:15:54.937Z</time>
      </trkpt>
      <trkpt lat="41.7941" lon="20.88741">
        <ele>602.27681</ele>
        <time>2022-04-25T08:15:57.877Z</time>
      </trkpt>
      <trkpt lat="41.79414" lon="20.88729">
        <ele>602.154364</ele>
        <time>2022-04-25T08:16:00.931Z</time>
      </trkpt>
      <trkpt lat="41.7942" lon="20.88718">
        <ele>602.022314</ele>
        <time>2022-04-25T08:16:03.914Z</time>
      </trkpt>
      <trkpt lat="41.79426" lon="20.88706">
        <ele>601.889799</ele>
        <time>2022-04-25T08:16:06.900Z</time>
      </trkpt>
      <trkpt lat="41.79432" lon="20.88695">
        <ele>601.512515</ele>
        <time>2022-04-25T08:16:09.918Z</time>
      </trkpt>
      <trkpt lat="41.79437" lon="20.88684">
        <ele>601.070004</ele>
        <time>2022-04-25T08:16:12.906Z</time>
      </trkpt>
      <trkpt lat="41.79444" lon="20.88673">
        <ele>600.571532</ele>
        <time>2022-04-25T08:16:15.892Z</time>
      </trkpt>
      <trkpt lat="41.79451" lon="20.88663">
        <ele>600.120753</ele>
        <time>2022-04-25T08:16:18.915Z</time>
      </trkpt>
      <trkpt lat="41.79458" lon="20.8865">
        <ele>599.575861</ele>
        <time>2022-04-25T08:16:22.927Z</time>
      </trkpt>
      <trkpt lat="41.79462" lon="20.88639">
        <ele>599.156745</ele>
        <time>2022-04-25T08:16:25.904Z</time>
      </trkpt>
      <trkpt lat="41.79468" lon="20.88626">
        <ele>598.657238</ele>
        <time>2022-04-25T08:16:29.911Z</time>
      </trkpt>
      <trkpt lat="41.79472" lon="20.88614">
        <ele>598.189285</ele>
        <time>2022-04-25T08:16:34.041Z</time>
      </trkpt>
      <trkpt lat="41.79473" lon="20.886">
        <ele>597.722582</ele>
        <time>2022-04-25T08:16:36.892Z</time>
      </trkpt>
      <trkpt lat="41.79468" lon="20.88586">
        <ele>597.23108</ele>
        <time>2022-04-25T08:16:39.907Z</time>
      </trkpt>
      <trkpt lat="41.79463" lon="20.88575">
        <ele>596.770509</ele>
        <time>2022-04-25T08:16:42.907Z</time>
      </trkpt>
      <trkpt lat="41.79457" lon="20.88563">
        <ele>596.30127</ele>
        <time>2022-04-25T08:16:45.903Z</time>
      </trkpt>
      <trkpt lat="41.79452" lon="20.88552">
        <ele>595.858759</ele>
        <time>2022-04-25T08:16:48.898Z</time>
      </trkpt>
      <trkpt lat="41.79447" lon="20.88541">
        <ele>595.413063</ele>
        <time>2022-04-25T08:16:51.890Z</time>
      </trkpt>
      <trkpt lat="41.79442" lon="20.88531">
        <ele>594.991341</ele>
        <time>2022-04-25T08:16:54.901Z</time>
      </trkpt>
      <trkpt lat="41.79437" lon="20.8852">
        <ele>594.577351</ele>
        <time>2022-04-25T08:16:57.898Z</time>
      </trkpt>
      <trkpt lat="41.79433" lon="20.88509">
        <ele>594.157383</ele>
        <time>2022-04-25T08:17:00.917Z</time>
      </trkpt>
      <trkpt lat="41.79428" lon="20.88498">
        <ele>593.73514</ele>
        <time>2022-04-25T08:17:03.908Z</time>
      </trkpt>
      <trkpt lat="41.79424" lon="20.88487">
        <ele>593.871539</ele>
        <time>2022-04-25T08:17:06.907Z</time>
      </trkpt>
      <trkpt lat="41.79419" lon="20.88476">
        <ele>594.072939</ele>
        <time>2022-04-25T08:17:09.910Z</time>
      </trkpt>
      <trkpt lat="41.79414" lon="20.88465">
        <ele>594.266594</ele>
        <time>2022-04-25T08:17:12.902Z</time>
      </trkpt>
      <trkpt lat="41.7941" lon="20.88454">
        <ele>594.452222</ele>
        <time>2022-04-25T08:17:15.890Z</time>
      </trkpt>
      <trkpt lat="41.79405" lon="20.88443">
        <ele>594.643947</ele>
        <time>2022-04-25T08:17:18.922Z</time>
      </trkpt>
      <trkpt lat="41.79401" lon="20.88431">
        <ele>594.84022</ele>
        <time>2022-04-25T08:17:21.905Z</time>
      </trkpt>
      <trkpt lat="41.79397" lon="20.8842">
        <ele>595.044732</ele>
        <time>2022-04-25T08:17:24.901Z</time>
      </trkpt>
      <trkpt lat="41.79392" lon="20.88409">
        <ele>595.231131</ele>
        <time>2022-04-25T08:17:27.885Z</time>
      </trkpt>
      <trkpt lat="41.79387" lon="20.88396">
        <ele>595.459001</ele>
        <time>2022-04-25T08:17:31.897Z</time>
      </trkpt>
      <trkpt lat="41.79381" lon="20.88382">
        <ele>595.700192</ele>
        <time>2022-04-25T08:17:35.930Z</time>
      </trkpt>
      <trkpt lat="41.79375" lon="20.88368">
        <ele>595.948728</ele>
        <time>2022-04-25T08:17:39.903Z</time>
      </trkpt>
      <trkpt lat="41.79371" lon="20.88356">
        <ele>596.146876</ele>
        <time>2022-04-25T08:17:42.901Z</time>
      </trkpt>
      <trkpt lat="41.79367" lon="20.88345">
        <ele>596.341327</ele>
        <time>2022-04-25T08:17:45.894Z</time>
      </trkpt>
      <trkpt lat="41.79361" lon="20.88331">
        <ele>596.585649</ele>
        <time>2022-04-25T08:17:49.887Z</time>
      </trkpt>
      <trkpt lat="41.79357" lon="20.8832">
        <ele>596.770482</ele>
        <time>2022-04-25T08:17:52.900Z</time>
      </trkpt>
      <trkpt lat="41.79353" lon="20.88309">
        <ele>596.96747</ele>
        <time>2022-04-25T08:17:55.906Z</time>
      </trkpt>
      <trkpt lat="41.79348" lon="20.88297">
        <ele>597.16885</ele>
        <time>2022-04-25T08:17:58.906Z</time>
      </trkpt>
      <trkpt lat="41.79343" lon="20.88286">
        <ele>597.361844</ele>
        <time>2022-04-25T08:18:01.904Z</time>
      </trkpt>
      <trkpt lat="41.79337" lon="20.88272">
        <ele>597.500896</ele>
        <time>2022-04-25T08:18:05.919Z</time>
      </trkpt>
      <trkpt lat="41.79333" lon="20.88262">
        <ele>597.598834</ele>
        <time>2022-04-25T08:18:08.970Z</time>
      </trkpt>
      <trkpt lat="41.79328" lon="20.88251">
        <ele>597.697859</ele>
        <time>2022-04-25T08:18:11.906Z</time>
      </trkpt>
      <trkpt lat="41.79323" lon="20.8824">
        <ele>597.798876</ele>
        <time>2022-04-25T08:18:14.930Z</time>
      </trkpt>
      <trkpt lat="41.79317" lon="20.88229">
        <ele>597.897064</ele>
        <time>2022-04-25T08:18:17.889Z</time>
      </trkpt>
      <trkpt lat="41.79311" lon="20.88216">
        <ele>598.022001</ele>
        <time>2022-04-25T08:18:21.892Z</time>
      </trkpt>
      <trkpt lat="41.79305" lon="20.88206">
        <ele>598.116331</ele>
        <time>2022-04-25T08:18:24.898Z</time>
      </trkpt>
      <trkpt lat="41.79298" lon="20.88193">
        <ele>598.239367</ele>
        <time>2022-04-25T08:18:28.914Z</time>
      </trkpt>
      <trkpt lat="41.79292" lon="20.88181">
        <ele>598.359918</ele>
        <time>2022-04-25T08:18:32.912Z</time>
      </trkpt>
      <trkpt lat="41.79285" lon="20.88168">
        <ele>598.483566</ele>
        <time>2022-04-25T08:18:36.886Z</time>
      </trkpt>
      <trkpt lat="41.79278" lon="20.88159">
        <ele>598.580165</ele>
        <time>2022-04-25T08:18:39.904Z</time>
      </trkpt>
      <trkpt lat="41.79272" lon="20.88151">
        <ele>598.675223</ele>
        <time>2022-04-25T08:18:42.931Z</time>
      </trkpt>
      <trkpt lat="41.79265" lon="20.88142">
        <ele>598.769746</ele>
        <time>2022-04-25T08:18:45.909Z</time>
      </trkpt>
      <trkpt lat="41.79258" lon="20.88134">
        <ele>598.865547</ele>
        <time>2022-04-25T08:18:48.944Z</time>
      </trkpt>
      <trkpt lat="41.7925" lon="20.88125">
        <ele>598.982265</ele>
        <time>2022-04-25T08:18:52.898Z</time>
      </trkpt>
      <trkpt lat="41.79241" lon="20.88115">
        <ele>599.101269</ele>
        <time>2022-04-25T08:18:56.892Z</time>
      </trkpt>
      <trkpt lat="41.79231" lon="20.88105">
        <ele>599.226959</ele>
        <time>2022-04-25T08:19:00.912Z</time>
      </trkpt>
      <trkpt lat="41.79222" lon="20.88096">
        <ele>599.418582</ele>
        <time>2022-04-25T08:19:04.899Z</time>
      </trkpt>
      <trkpt lat="41.79212" lon="20.88087">
        <ele>599.651173</ele>
        <time>2022-04-25T08:19:08.901Z</time>
      </trkpt>
      <trkpt lat="41.79202" lon="20.88078">
        <ele>599.887359</ele>
        <time>2022-04-25T08:19:12.929Z</time>
      </trkpt>
      <trkpt lat="41.79192" lon="20.88071">
        <ele>600.110258</ele>
        <time>2022-04-25T08:19:16.891Z</time>
      </trkpt>
      <trkpt lat="41.79182" lon="20.88064">
        <ele>600.336321</ele>
        <time>2022-04-25T08:19:20.904Z</time>
      </trkpt>
      <trkpt lat="41.79173" lon="20.88059">
        <ele>600.51684</ele>
        <time>2022-04-25T08:19:23.916Z</time>
      </trkpt>
      <trkpt lat="41.79162" lon="20.88054">
        <ele>600.74801</ele>
        <time>2022-04-25T08:19:27.888Z</time>
      </trkpt>
      <trkpt lat="41.79153" lon="20.8805">
        <ele>600.936475</ele>
        <time>2022-04-25T08:19:30.901Z</time>
      </trkpt>
      <trkpt lat="41.79142" lon="20.88046">
        <ele>601.162673</ele>
        <time>2022-04-25T08:19:34.898Z</time>
      </trkpt>
      <trkpt lat="41.79133" lon="20.88042">
        <ele>601.340803</ele>
        <time>2022-04-25T08:19:37.884Z</time>
      </trkpt>
      <trkpt lat="41.79123" lon="20.88039">
        <ele>601.539353</ele>
        <time>2022-04-25T08:19:40.893Z</time>
      </trkpt>
      <trkpt lat="41.79114" lon="20.88036">
        <ele>601.727559</ele>
        <time>2022-04-25T08:19:43.920Z</time>
      </trkpt>
      <trkpt lat="41.79104" lon="20.88033">
        <ele>601.917987</ele>
        <time>2022-04-25T08:19:46.891Z</time>
      </trkpt>
      <trkpt lat="41.79095" lon="20.8803">
        <ele>602.10822</ele>
        <time>2022-04-25T08:19:49.894Z</time>
      </trkpt>
      <trkpt lat="41.79085" lon="20.88026">
        <ele>602.300015</ele>
        <time>2022-04-25T08:19:52.901Z</time>
      </trkpt>
      <trkpt lat="41.79076" lon="20.88023">
        <ele>602.485355</ele>
        <time>2022-04-25T08:19:55.900Z</time>
      </trkpt>
      <trkpt lat="41.79067" lon="20.88019">
        <ele>602.681652</ele>
        <time>2022-04-25T08:19:58.894Z</time>
      </trkpt>
      <trkpt lat="41.79058" lon="20.88014">
        <ele>602.797267</ele>
        <time>2022-04-25T08:20:01.914Z</time>
      </trkpt>
      <trkpt lat="41.79048" lon="20.88009">
        <ele>602.812081</ele>
        <time>2022-04-25T08:20:04.895Z</time>
      </trkpt>
      <trkpt lat="41.79039" lon="20.88003">
        <ele>602.827895</ele>
        <time>2022-04-25T08:20:07.892Z</time>
      </trkpt>
      <trkpt lat="41.7903" lon="20.87995">
        <ele>602.843714</ele>
        <time>2022-04-25T08:20:10.903Z</time>
      </trkpt>
      <trkpt lat="41.79022" lon="20.87988">
        <ele>602.858524</ele>
        <time>2022-04-25T08:20:13.908Z</time>
      </trkpt>
      <trkpt lat="41.79015" lon="20.87979">
        <ele>602.87339</ele>
        <time>2022-04-25T08:20:16.893Z</time>
      </trkpt>
      <trkpt lat="41.79006" lon="20.87968">
        <ele>602.891233</ele>
        <time>2022-04-25T08:20:20.910Z</time>
      </trkpt>
      <trkpt lat="41.79" lon="20.87959">
        <ele>602.904999</ele>
        <time>2022-04-25T08:20:23.901Z</time>
      </trkpt>
      <trkpt lat="41.78995" lon="20.87949">
        <ele>602.919086</ele>
        <time>2022-04-25T08:20:26.903Z</time>
      </trkpt>
      <trkpt lat="41.78988" lon="20.87936">
        <ele>602.936644</ele>
        <time>2022-04-25T08:20:30.890Z</time>
      </trkpt>
      <trkpt lat="41.78983" lon="20.87923">
        <ele>602.953389</ele>
        <time>2022-04-25T08:20:34.878Z</time>
      </trkpt>
      <trkpt lat="41.78979" lon="20.87908">
        <ele>602.970605</ele>
        <time>2022-04-25T08:20:38.916Z</time>
      </trkpt>
      <trkpt lat="41.78976" lon="20.87895">
        <ele>602.986279</ele>
        <time>2022-04-25T08:20:42.921Z</time>
      </trkpt>
      <trkpt lat="41.78972" lon="20.87883">
        <ele>603.001321</ele>
        <time>2022-04-25T08:20:46.893Z</time>
      </trkpt>
      <trkpt lat="41.78969" lon="20.8787">
        <ele>603.01652</ele>
        <time>2022-04-25T08:20:50.927Z</time>
      </trkpt>
      <trkpt lat="41.78965" lon="20.87857">
        <ele>603.032685</ele>
        <time>2022-04-25T08:20:54.907Z</time>
      </trkpt>
      <trkpt lat="41.78962" lon="20.87845">
        <ele>603.046679</ele>
        <time>2022-04-25T08:20:58.909Z</time>
      </trkpt>
      <trkpt lat="41.78957" lon="20.87833">
        <ele>603.062195</ele>
        <time>2022-04-25T08:21:02.903Z</time>
      </trkpt>
      <trkpt lat="41.78953" lon="20.8782">
        <ele>603.544199</ele>
        <time>2022-04-25T08:21:06.905Z</time>
      </trkpt>
      <trkpt lat="41.78945" lon="20.87809">
        <ele>604.047985</ele>
        <time>2022-04-25T08:21:10.908Z</time>
      </trkpt>
      <trkpt lat="41.78936" lon="20.87799">
        <ele>604.583362</ele>
        <time>2022-04-25T08:21:14.896Z</time>
      </trkpt>
      <trkpt lat="41.78927" lon="20.87789">
        <ele>605.089591</ele>
        <time>2022-04-25T08:21:18.957Z</time>
      </trkpt>
      <trkpt lat="41.78918" lon="20.87781">
        <ele>605.599122</ele>
        <time>2022-04-25T08:21:22.901Z</time>
      </trkpt>
      <trkpt lat="41.78909" lon="20.87772">
        <ele>606.095558</ele>
        <time>2022-04-25T08:21:26.895Z</time>
      </trkpt>
      <trkpt lat="41.789" lon="20.87765">
        <ele>606.576994</ele>
        <time>2022-04-25T08:21:30.890Z</time>
      </trkpt>
      <trkpt lat="41.7889" lon="20.87757">
        <ele>607.095932</ele>
        <time>2022-04-25T08:21:34.901Z</time>
      </trkpt>
      <trkpt lat="41.78882" lon="20.8775">
        <ele>607.553017</ele>
        <time>2022-04-25T08:21:38.914Z</time>
      </trkpt>
      <trkpt lat="41.78872" lon="20.87743">
        <ele>608.03924</ele>
        <time>2022-04-25T08:21:42.886Z</time>
      </trkpt>
      <trkpt lat="41.78864" lon="20.87737">
        <ele>608.468124</ele>
        <time>2022-04-25T08:21:45.902Z</time>
      </trkpt>
      <trkpt lat="41.78856" lon="20.8773">
        <ele>608.883332</ele>
        <time>2022-04-25T08:21:48.924Z</time>
      </trkpt>
      <trkpt lat="41.78847" lon="20.87722">
        <ele>609.411662</ele>
        <time>2022-04-25T08:21:52.891Z</time>
      </trkpt>
      <trkpt lat="41.78838" lon="20.87713">
        <ele>609.910072</ele>
        <time>2022-04-25T08:21:56.899Z</time>
      </trkpt>
      <trkpt lat="41.78829" lon="20.87704">
        <ele>610.414158</ele>
        <time>2022-04-25T08:22:00.896Z</time>
      </trkpt>
      <trkpt lat="41.78821" lon="20.87695">
        <ele>610.890716</ele>
        <time>2022-04-25T08:22:04.912Z</time>
      </trkpt>
      <trkpt lat="41.78813" lon="20.87687">
        <ele>611.254597</ele>
        <time>2022-04-25T08:22:08.890Z</time>
      </trkpt>
      <trkpt lat="41.78805" lon="20.87678">
        <ele>611.353252</ele>
        <time>2022-04-25T08:22:12.904Z</time>
      </trkpt>
      <trkpt lat="41.78797" lon="20.87668">
        <ele>611.447587</ele>
        <time>2022-04-25T08:22:16.905Z</time>
      </trkpt>
      <trkpt lat="41.7879" lon="20.87659">
        <ele>611.540162</ele>
        <time>2022-04-25T08:22:20.880Z</time>
      </trkpt>
      <trkpt lat="41.78782" lon="20.87649">
        <ele>611.637738</ele>
        <time>2022-04-25T08:22:24.907Z</time>
      </trkpt>
      <trkpt lat="41.78776" lon="20.8764">
        <ele>611.723251</ele>
        <time>2022-04-25T08:22:28.882Z</time>
      </trkpt>
      <trkpt lat="41.7877" lon="20.87627">
        <ele>611.826059</ele>
        <time>2022-04-25T08:22:33.906Z</time>
      </trkpt>
      <trkpt lat="41.78763" lon="20.87615">
        <ele>611.928312</ele>
        <time>2022-04-25T08:22:37.876Z</time>
      </trkpt>
      <trkpt lat="41.78756" lon="20.87604">
        <ele>612.027408</ele>
        <time>2022-04-25T08:22:41.926Z</time>
      </trkpt>
      <trkpt lat="41.78749" lon="20.87593">
        <ele>612.128665</ele>
        <time>2022-04-25T08:22:45.897Z</time>
      </trkpt>
      <trkpt lat="41.78743" lon="20.87584">
        <ele>612.211623</ele>
        <time>2022-04-25T08:22:48.924Z</time>
      </trkpt>
      <trkpt lat="41.78737" lon="20.87573">
        <ele>612.300776</ele>
        <time>2022-04-25T08:22:51.903Z</time>
      </trkpt>
      <trkpt lat="41.78729" lon="20.87562">
        <ele>612.408649</ele>
        <time>2022-04-25T08:22:55.903Z</time>
      </trkpt>
      <trkpt lat="41.78721" lon="20.87551">
        <ele>612.513566</ele>
        <time>2022-04-25T08:22:59.902Z</time>
      </trkpt>
      <trkpt lat="41.78714" lon="20.87539">
        <ele>612.611452</ele>
        <time>2022-04-25T08:23:03.891Z</time>
      </trkpt>
      <trkpt lat="41.78708" lon="20.87528">
        <ele>612.710548</ele>
        <time>2022-04-25T08:23:07.901Z</time>
      </trkpt>
      <trkpt lat="41.78701" lon="20.87517">
        <ele>612.805698</ele>
        <time>2022-04-25T08:23:11.891Z</time>
      </trkpt>
      <trkpt lat="41.78695" lon="20.87507">
        <ele>612.925529</ele>
        <time>2022-04-25T08:23:15.896Z</time>
      </trkpt>
      <trkpt lat="41.78688" lon="20.87496">
        <ele>613.291539</ele>
        <time>2022-04-25T08:23:19.891Z</time>
      </trkpt>
      <trkpt lat="41.7868" lon="20.87487">
        <ele>613.633481</ele>
        <time>2022-04-25T08:23:23.895Z</time>
      </trkpt>
      <trkpt lat="41.78673" lon="20.87476">
        <ele>614.003179</ele>
        <time>2022-04-25T08:23:27.889Z</time>
      </trkpt>
      <trkpt lat="41.78666" lon="20.87464">
        <ele>614.377857</ele>
        <time>2022-04-25T08:23:31.942Z</time>
      </trkpt>
      <trkpt lat="41.78658" lon="20.87453">
        <ele>614.748848</ele>
        <time>2022-04-25T08:23:35.905Z</time>
      </trkpt>
      <trkpt lat="41.78651" lon="20.87443">
        <ele>615.106646</ele>
        <time>2022-04-25T08:23:39.899Z</time>
      </trkpt>
      <trkpt lat="41.78643" lon="20.87434">
        <ele>615.459176</ele>
        <time>2022-04-25T08:23:43.905Z</time>
      </trkpt>
      <trkpt lat="41.78635" lon="20.87425">
        <ele>615.793095</ele>
        <time>2022-04-25T08:23:47.888Z</time>
      </trkpt>
      <trkpt lat="41.78627" lon="20.87417">
        <ele>616.130364</ele>
        <time>2022-04-25T08:23:51.892Z</time>
      </trkpt>
      <trkpt lat="41.78619" lon="20.87409">
        <ele>616.478428</ele>
        <time>2022-04-25T08:23:55.902Z</time>
      </trkpt>
      <trkpt lat="41.78609" lon="20.87402">
        <ele>616.840251</ele>
        <time>2022-04-25T08:23:59.898Z</time>
      </trkpt>
      <trkpt lat="41.78601" lon="20.87396">
        <ele>617.161575</ele>
        <time>2022-04-25T08:24:03.887Z</time>
      </trkpt>
      <trkpt lat="41.78592" lon="20.8739">
        <ele>617.480804</ele>
        <time>2022-04-25T08:24:07.889Z</time>
      </trkpt>
      <trkpt lat="41.78584" lon="20.87384">
        <ele>617.782748</ele>
        <time>2022-04-25T08:24:11.890Z</time>
      </trkpt>
      <trkpt lat="41.78576" lon="20.87379">
        <ele>618.094606</ele>
        <time>2022-04-25T08:24:15.938Z</time>
      </trkpt>
      <trkpt lat="41.78565" lon="20.87374">
        <ele>618.472024</ele>
        <time>2022-04-25T08:24:20.895Z</time>
      </trkpt>
      <trkpt lat="41.78556" lon="20.8737">
        <ele>618.797283</ele>
        <time>2022-04-25T08:24:24.917Z</time>
      </trkpt>
      <trkpt lat="41.78546" lon="20.87366">
        <ele>619.013601</ele>
        <time>2022-04-25T08:24:28.915Z</time>
      </trkpt>
      <trkpt lat="41.78536" lon="20.87362">
        <ele>619.187523</ele>
        <time>2022-04-25T08:24:32.896Z</time>
      </trkpt>
      <trkpt lat="41.78525" lon="20.87357">
        <ele>619.36737</ele>
        <time>2022-04-25T08:24:36.886Z</time>
      </trkpt>
      <trkpt lat="41.78517" lon="20.87353">
        <ele>619.519923</ele>
        <time>2022-04-25T08:24:40.906Z</time>
      </trkpt>
      <trkpt lat="41.78508" lon="20.87349">
        <ele>619.67049</ele>
        <time>2022-04-25T08:24:44.920Z</time>
      </trkpt>
      <trkpt lat="41.785" lon="20.87343">
        <ele>619.826386</ele>
        <time>2022-04-25T08:24:48.878Z</time>
      </trkpt>
      <trkpt lat="41.7849" lon="20.87337">
        <ele>619.996401</ele>
        <time>2022-04-25T08:24:52.884Z</time>
      </trkpt>
      <trkpt lat="41.78481" lon="20.87331">
        <ele>620.166782</ele>
        <time>2022-04-25T08:24:56.905Z</time>
      </trkpt>
      <trkpt lat="41.78473" lon="20.87324">
        <ele>620.333813</ele>
        <time>2022-04-25T08:25:00.947Z</time>
      </trkpt>
      <trkpt lat="41.78464" lon="20.87316">
        <ele>620.503778</ele>
        <time>2022-04-25T08:25:04.907Z</time>
      </trkpt>
      <trkpt lat="41.78456" lon="20.87307">
        <ele>620.672985</ele>
        <time>2022-04-25T08:25:08.912Z</time>
      </trkpt>
      <trkpt lat="41.78448" lon="20.87299">
        <ele>620.841133</ele>
        <time>2022-04-25T08:25:12.897Z</time>
      </trkpt>
      <trkpt lat="41.78441" lon="20.87289">
        <ele>621.012792</ele>
        <time>2022-04-25T08:25:16.909Z</time>
      </trkpt>
      <trkpt lat="41.78434" lon="20.87281">
        <ele>621.172557</ele>
        <time>2022-04-25T08:25:20.904Z</time>
      </trkpt>
      <trkpt lat="41.78426" lon="20.87272">
        <ele>621.334766</ele>
        <time>2022-04-25T08:25:24.900Z</time>
      </trkpt>
      <trkpt lat="41.78418" lon="20.87262">
        <ele>621.508479</ele>
        <time>2022-04-25T08:25:28.908Z</time>
      </trkpt>
      <trkpt lat="41.78411" lon="20.87254">
        <ele>621.676133</ele>
        <time>2022-04-25T08:25:32.912Z</time>
      </trkpt>
      <trkpt lat="41.78403" lon="20.87245">
        <ele>621.837581</ele>
        <time>2022-04-25T08:25:36.926Z</time>
      </trkpt>
      <trkpt lat="41.78396" lon="20.87236">
        <ele>622.302567</ele>
        <time>2022-04-25T08:25:40.902Z</time>
      </trkpt>
      <trkpt lat="41.78389" lon="20.87227">
        <ele>622.80268</ele>
        <time>2022-04-25T08:25:44.889Z</time>
      </trkpt>
      <trkpt lat="41.78381" lon="20.87218">
        <ele>623.289068</ele>
        <time>2022-04-25T08:25:48.904Z</time>
      </trkpt>
      <trkpt lat="41.78373" lon="20.8721">
        <ele>623.81857</ele>
        <time>2022-04-25T08:25:52.921Z</time>
      </trkpt>
      <trkpt lat="41.78366" lon="20.87201">
        <ele>624.314912</ele>
        <time>2022-04-25T08:25:56.943Z</time>
      </trkpt>
      <trkpt lat="41.78359" lon="20.87193">
        <ele>624.776635</ele>
        <time>2022-04-25T08:26:00.899Z</time>
      </trkpt>
      <trkpt lat="41.78351" lon="20.87186">
        <ele>625.278541</ele>
        <time>2022-04-25T08:26:04.892Z</time>
      </trkpt>
      <trkpt lat="41.78342" lon="20.87178">
        <ele>625.824554</ele>
        <time>2022-04-25T08:26:08.896Z</time>
      </trkpt>
      <trkpt lat="41.78333" lon="20.87168">
        <ele>626.378487</ele>
        <time>2022-04-25T08:26:12.925Z</time>
      </trkpt>
      <trkpt lat="41.78324" lon="20.87161">
        <ele>626.918176</ele>
        <time>2022-04-25T08:26:16.920Z</time>
      </trkpt>
      <trkpt lat="41.78316" lon="20.87155">
        <ele>627.376839</ele>
        <time>2022-04-25T08:26:19.908Z</time>
      </trkpt>
      <trkpt lat="41.78307" lon="20.87152">
        <ele>627.835063</ele>
        <time>2022-04-25T08:26:22.901Z</time>
      </trkpt>
      <trkpt lat="41.78297" lon="20.87146">
        <ele>628.432118</ele>
        <time>2022-04-25T08:26:26.901Z</time>
      </trkpt>
      <trkpt lat="41.78287" lon="20.87138">
        <ele>628.97512</ele>
        <time>2022-04-25T08:26:30.915Z</time>
      </trkpt>
      <trkpt lat="41.78277" lon="20.87131">
        <ele>629.550079</ele>
        <time>2022-04-25T08:26:34.901Z</time>
      </trkpt>
      <trkpt lat="41.78268" lon="20.87124">
        <ele>630.075899</ele>
        <time>2022-04-25T08:26:38.930Z</time>
      </trkpt>
      <trkpt lat="41.78259" lon="20.87117">
        <ele>630.600114</ele>
        <time>2022-04-25T08:26:42.910Z</time>
      </trkpt>
      <trkpt lat="41.7825" lon="20.87111">
        <ele>631.04355</ele>
        <time>2022-04-25T08:26:46.945Z</time>
      </trkpt>
      <trkpt lat="41.78241" lon="20.87104">
        <ele>631.316594</ele>
        <time>2022-04-25T08:26:50.903Z</time>
      </trkpt>
      <trkpt lat="41.78231" lon="20.87097">
        <ele>631.600759</ele>
        <time>2022-04-25T08:26:54.918Z</time>
      </trkpt>
      <trkpt lat="41.78221" lon="20.87091">
        <ele>631.886121</ele>
        <time>2022-04-25T08:26:58.882Z</time>
      </trkpt>
      <trkpt lat="41.78211" lon="20.87084">
        <ele>632.18697</ele>
        <time>2022-04-25T08:27:02.891Z</time>
      </trkpt>
      <trkpt lat="41.78201" lon="20.87076">
        <ele>632.487819</ele>
        <time>2022-04-25T08:27:06.890Z</time>
      </trkpt>
      <trkpt lat="41.78191" lon="20.87069">
        <ele>632.786777</ele>
        <time>2022-04-25T08:27:10.898Z</time>
      </trkpt>
      <trkpt lat="41.78183" lon="20.87062">
        <ele>633.05444</ele>
        <time>2022-04-25T08:27:14.898Z</time>
      </trkpt>
      <trkpt lat="41.78174" lon="20.87055">
        <ele>633.310402</ele>
        <time>2022-04-25T08:27:18.896Z</time>
      </trkpt>
      <trkpt lat="41.78166" lon="20.87049">
        <ele>633.571557</ele>
        <time>2022-04-25T08:27:22.908Z</time>
      </trkpt>
      <trkpt lat="41.78156" lon="20.87041">
        <ele>633.858345</ele>
        <time>2022-04-25T08:27:26.882Z</time>
      </trkpt>
      <trkpt lat="41.78147" lon="20.87034">
        <ele>634.139278</ele>
        <time>2022-04-25T08:27:30.892Z</time>
      </trkpt>
      <trkpt lat="41.78137" lon="20.87027">
        <ele>634.435472</ele>
        <time>2022-04-25T08:27:34.932Z</time>
      </trkpt>
      <trkpt lat="41.78127" lon="20.8702">
        <ele>634.726106</ele>
        <time>2022-04-25T08:27:38.900Z</time>
      </trkpt>
      <trkpt lat="41.78118" lon="20.87013">
        <ele>634.999294</ele>
        <time>2022-04-25T08:27:42.881Z</time>
      </trkpt>
      <trkpt lat="41.78109" lon="20.87004">
        <ele>635.299192</ele>
        <time>2022-04-25T08:27:46.898Z</time>
      </trkpt>
      <trkpt lat="41.781" lon="20.86996">
        <ele>635.578411</ele>
        <time>2022-04-25T08:27:50.902Z</time>
      </trkpt>
      <trkpt lat="41.78091" lon="20.86988">
        <ele>635.630099</ele>
        <time>2022-04-25T08:27:54.911Z</time>
      </trkpt>
      <trkpt lat="41.78082" lon="20.86979">
        <ele>635.559859</ele>
        <time>2022-04-25T08:27:58.944Z</time>
      </trkpt>
      <trkpt lat="41.78074" lon="20.8697">
        <ele>635.494539</ele>
        <time>2022-04-25T08:28:02.898Z</time>
      </trkpt>
      <trkpt lat="41.78066" lon="20.86961">
        <ele>635.430055</ele>
        <time>2022-04-25T08:28:06.885Z</time>
      </trkpt>
      <trkpt lat="41.78058" lon="20.86953">
        <ele>635.369366</ele>
        <time>2022-04-25T08:28:10.934Z</time>
      </trkpt>
      <trkpt lat="41.7805" lon="20.86945">
        <ele>635.306737</ele>
        <time>2022-04-25T08:28:14.895Z</time>
      </trkpt>
      <trkpt lat="41.78042" lon="20.86935">
        <ele>635.242253</ele>
        <time>2022-04-25T08:28:18.905Z</time>
      </trkpt>
      <trkpt lat="41.78035" lon="20.86926">
        <ele>635.176838</ele>
        <time>2022-04-25T08:28:22.901Z</time>
      </trkpt>
      <trkpt lat="41.78027" lon="20.86916">
        <ele>635.108978</ele>
        <time>2022-04-25T08:28:26.916Z</time>
      </trkpt>
      <trkpt lat="41.7802" lon="20.86906">
        <ele>635.046319</ele>
        <time>2022-04-25T08:28:30.900Z</time>
      </trkpt>
      <trkpt lat="41.78012" lon="20.86896">
        <ele>634.982136</ele>
        <time>2022-04-25T08:28:34.918Z</time>
      </trkpt>
      <trkpt lat="41.78006" lon="20.86886">
        <ele>634.922264</ele>
        <time>2022-04-25T08:28:38.927Z</time>
      </trkpt>
      <trkpt lat="41.77999" lon="20.86876">
        <ele>634.861012</ele>
        <time>2022-04-25T08:28:42.929Z</time>
      </trkpt>
      <trkpt lat="41.77993" lon="20.86866">
        <ele>634.800213</ele>
        <time>2022-04-25T08:28:46.905Z</time>
      </trkpt>
      <trkpt lat="41.77986" lon="20.86857">
        <ele>634.739502</ele>
        <time>2022-04-25T08:28:50.906Z</time>
      </trkpt>
      <trkpt lat="41.77979" lon="20.86847">
        <ele>634.676255</ele>
        <time>2022-04-25T08:28:54.912Z</time>
      </trkpt>
      <trkpt lat="41.77974" lon="20.86837">
        <ele>634.619876</ele>
        <time>2022-04-25T08:28:58.878Z</time>
      </trkpt>
      <trkpt lat="41.77968" lon="20.86828">
        <ele>634.562869</ele>
        <time>2022-04-25T08:29:02.890Z</time>
      </trkpt>
      <trkpt lat="41.77962" lon="20.86818">
        <ele>634.906821</ele>
        <time>2022-04-25T08:29:06.907Z</time>
      </trkpt>
      <trkpt lat="41.77955" lon="20.86807">
        <ele>635.328491</ele>
        <time>2022-04-25T08:29:11.894Z</time>
      </trkpt>
      <trkpt lat="41.77949" lon="20.86796">
        <ele>635.772614</ele>
        <time>2022-04-25T08:29:16.911Z</time>
      </trkpt>
      <trkpt lat="41.77943" lon="20.86786">
        <ele>636.145218</ele>
        <time>2022-04-25T08:29:20.895Z</time>
      </trkpt>
      <trkpt lat="41.77937" lon="20.86775">
        <ele>636.544595</ele>
        <time>2022-04-25T08:29:24.885Z</time>
      </trkpt>
      <trkpt lat="41.77931" lon="20.86765">
        <ele>636.922645</ele>
        <time>2022-04-25T08:29:28.910Z</time>
      </trkpt>
      <trkpt lat="41.77924" lon="20.86756">
        <ele>637.332355</ele>
        <time>2022-04-25T08:29:33.878Z</time>
      </trkpt>
      <trkpt lat="41.77916" lon="20.86746">
        <ele>637.735021</ele>
        <time>2022-04-25T08:29:38.898Z</time>
      </trkpt>
      <trkpt lat="41.77911" lon="20.86735">
        <ele>638.146258</ele>
        <time>2022-04-25T08:29:43.930Z</time>
      </trkpt>
      <trkpt lat="41.77905" lon="20.86724">
        <ele>638.516499</ele>
        <time>2022-04-25T08:29:47.885Z</time>
      </trkpt>
      <trkpt lat="41.779" lon="20.86713">
        <ele>638.902249</ele>
        <time>2022-04-25T08:29:51.901Z</time>
      </trkpt>
      <trkpt lat="41.77894" lon="20.86703">
        <ele>639.293847</ele>
        <time>2022-04-25T08:29:55.891Z</time>
      </trkpt>
      <trkpt lat="41.77888" lon="20.86691">
        <ele>639.733175</ele>
        <time>2022-04-25T08:30:00.949Z</time>
      </trkpt>
      <trkpt lat="41.77881" lon="20.8668">
        <ele>640.161258</ele>
        <time>2022-04-25T08:30:05.901Z</time>
      </trkpt>
      <trkpt lat="41.77875" lon="20.86669">
        <ele>640.569531</ele>
        <time>2022-04-25T08:30:10.936Z</time>
      </trkpt>
      <trkpt lat="41.77867" lon="20.86659">
        <ele>640.994345</ele>
        <time>2022-04-25T08:30:15.901Z</time>
      </trkpt>
      <trkpt lat="41.77861" lon="20.8665">
        <ele>641.374537</ele>
        <time>2022-04-25T08:30:19.913Z</time>
      </trkpt>
      <trkpt lat="41.77854" lon="20.86641">
        <ele>641.747538</ele>
        <time>2022-04-25T08:30:23.886Z</time>
      </trkpt>
      <trkpt lat="41.77848" lon="20.86632">
        <ele>642.320257</ele>
        <time>2022-04-25T08:30:27.894Z</time>
      </trkpt>
      <trkpt lat="41.77841" lon="20.86623">
        <ele>642.884516</ele>
        <time>2022-04-25T08:30:31.901Z</time>
      </trkpt>
      <trkpt lat="41.77834" lon="20.86613">
        <ele>643.535255</ele>
        <time>2022-04-25T08:30:36.896Z</time>
      </trkpt>
      <trkpt lat="41.77826" lon="20.86605">
        <ele>644.140838</ele>
        <time>2022-04-25T08:30:41.897Z</time>
      </trkpt>
      <trkpt lat="41.77818" lon="20.86596">
        <ele>644.763669</ele>
        <time>2022-04-25T08:30:46.900Z</time>
      </trkpt>
      <trkpt lat="41.77809" lon="20.86588">
        <ele>645.431666</ele>
        <time>2022-04-25T08:30:51.910Z</time>
      </trkpt>
      <trkpt lat="41.778" lon="20.86579">
        <ele>646.101183</ele>
        <time>2022-04-25T08:30:56.915Z</time>
      </trkpt>
      <trkpt lat="41.77791" lon="20.86572">
        <ele>646.745287</ele>
        <time>2022-04-25T08:31:01.940Z</time>
      </trkpt>
      <trkpt lat="41.77783" lon="20.86563">
        <ele>647.40478</ele>
        <time>2022-04-25T08:31:06.909Z</time>
      </trkpt>
      <trkpt lat="41.77775" lon="20.86555">
        <ele>648.023285</ele>
        <time>2022-04-25T08:31:11.903Z</time>
      </trkpt>
      <trkpt lat="41.77766" lon="20.86546">
        <ele>648.672517</ele>
        <time>2022-04-25T08:31:17.890Z</time>
      </trkpt>
      <trkpt lat="41.77759" lon="20.86539">
        <ele>649.228587</ele>
        <time>2022-04-25T08:31:22.893Z</time>
      </trkpt>
      <trkpt lat="41.77751" lon="20.86532">
        <ele>649.837245</ele>
        <time>2022-04-25T08:31:27.879Z</time>
      </trkpt>
      <trkpt lat="41.77743" lon="20.86525">
        <ele>650.397378</ele>
        <time>2022-04-25T08:31:32.915Z</time>
      </trkpt>
      <trkpt lat="41.77735" lon="20.86518">
        <ele>651.023741</ele>
        <time>2022-04-25T08:31:38.910Z</time>
      </trkpt>
      <trkpt lat="41.77727" lon="20.86509">
        <ele>651.635097</ele>
        <time>2022-04-25T08:31:44.905Z</time>
      </trkpt>
      <trkpt lat="41.7772" lon="20.86501">
        <ele>652.19423</ele>
        <time>2022-04-25T08:31:49.917Z</time>
      </trkpt>
      <trkpt lat="41.77712" lon="20.86493">
        <ele>652.769358</ele>
        <time>2022-04-25T08:31:54.901Z</time>
      </trkpt>
      <trkpt lat="41.77703" lon="20.86486">
        <ele>652.801162</ele>
        <time>2022-04-25T08:32:00.905Z</time>
      </trkpt>
      <trkpt lat="41.77696" lon="20.86478">
        <ele>652.828591</ele>
        <time>2022-04-25T08:32:05.911Z</time>
      </trkpt>
      <trkpt lat="41.77689" lon="20.86471">
        <ele>652.855586</ele>
        <time>2022-04-25T08:32:10.903Z</time>
      </trkpt>
      <trkpt lat="41.7768" lon="20.86464">
        <ele>652.885415</ele>
        <time>2022-04-25T08:32:15.901Z</time>
      </trkpt>
      <trkpt lat="41.77673" lon="20.86457">
        <ele>652.912051</ele>
        <time>2022-04-25T08:32:20.911Z</time>
      </trkpt>
      <trkpt lat="41.77665" lon="20.86448">
        <ele>652.941372</ele>
        <time>2022-04-25T08:32:25.893Z</time>
      </trkpt>
      <trkpt lat="41.77658" lon="20.86441">
        <ele>652.968122</ele>
        <time>2022-04-25T08:32:30.904Z</time>
      </trkpt>
      <trkpt lat="41.7765" lon="20.86435">
        <ele>652.996737</ele>
        <time>2022-04-25T08:32:35.910Z</time>
      </trkpt>
      <trkpt lat="41.77642" lon="20.86427">
        <ele>653.025224</ele>
        <time>2022-04-25T08:32:40.922Z</time>
      </trkpt>
      <trkpt lat="41.77634" lon="20.86419">
        <ele>653.053667</ele>
        <time>2022-04-25T08:32:45.890Z</time>
      </trkpt>
      <trkpt lat="41.77627" lon="20.86412">
        <ele>653.082282</ele>
        <time>2022-04-25T08:32:50.908Z</time>
      </trkpt>
      <trkpt lat="41.77619" lon="20.86405">
        <ele>653.108907</ele>
        <time>2022-04-25T08:32:55.909Z</time>
      </trkpt>
      <trkpt lat="41.77611" lon="20.86398">
        <ele>653.137628</ele>
        <time>2022-04-25T08:33:00.915Z</time>
      </trkpt>
      <trkpt lat="41.77604" lon="20.86391">
        <ele>653.164893</ele>
        <time>2022-04-25T08:33:05.890Z</time>
      </trkpt>
      <trkpt lat="41.77596" lon="20.86383">
        <ele>653.191899</ele>
        <time>2022-04-25T08:33:10.926Z</time>
      </trkpt>
      <trkpt lat="41.77588" lon="20.86375">
        <ele>653.222848</ele>
        <time>2022-04-25T08:33:16.890Z</time>
      </trkpt>
      <trkpt lat="41.77581" lon="20.86367">
        <ele>653.250372</ele>
        <time>2022-04-25T08:33:21.890Z</time>
      </trkpt>
      <trkpt lat="41.77573" lon="20.8636">
        <ele>653.277982</ele>
        <time>2022-04-25T08:33:26.909Z</time>
      </trkpt>
      <trkpt lat="41.77565" lon="20.86353">
        <ele>653.346877</ele>
        <time>2022-04-25T08:33:31.911Z</time>
      </trkpt>
      <trkpt lat="41.77557" lon="20.86347">
        <ele>653.746672</ele>
        <time>2022-04-25T08:33:36.901Z</time>
      </trkpt>
      <trkpt lat="41.77549" lon="20.86341">
        <ele>654.125512</ele>
        <time>2022-04-25T08:33:41.930Z</time>
      </trkpt>
      <trkpt lat="41.77541" lon="20.86332">
        <ele>654.549784</ele>
        <time>2022-04-25T08:33:47.891Z</time>
      </trkpt>
      <trkpt lat="41.77532" lon="20.86326">
        <ele>654.959587</ele>
        <time>2022-04-25T08:33:52.923Z</time>
      </trkpt>
      <trkpt lat="41.77525" lon="20.86319">
        <ele>655.343438</ele>
        <time>2022-04-25T08:33:57.904Z</time>
      </trkpt>
      <trkpt lat="41.77517" lon="20.86311">
        <ele>655.767502</ele>
        <time>2022-04-25T08:34:03.956Z</time>
      </trkpt>
      <trkpt lat="41.77508" lon="20.86303">
        <ele>656.193808</ele>
        <time>2022-04-25T08:34:09.902Z</time>
      </trkpt>
      <trkpt lat="41.77501" lon="20.86295">
        <ele>656.60968</ele>
        <time>2022-04-25T08:34:15.906Z</time>
      </trkpt>
      <trkpt lat="41.77492" lon="20.86288">
        <ele>657.038855</ele>
        <time>2022-04-25T08:34:21.897Z</time>
      </trkpt>
      <trkpt lat="41.77483" lon="20.86279">
        <ele>657.486984</ele>
        <time>2022-04-25T08:34:27.886Z</time>
      </trkpt>
      <trkpt lat="41.77476" lon="20.86272">
        <ele>657.867342</ele>
        <time>2022-04-25T08:34:32.898Z</time>
      </trkpt>
      <trkpt lat="41.77467" lon="20.86268">
        <ele>658.269672</ele>
        <time>2022-04-25T08:34:37.887Z</time>
      </trkpt>
      <trkpt lat="41.77457" lon="20.86261">
        <ele>658.714263</ele>
        <time>2022-04-25T08:34:43.899Z</time>
      </trkpt>
      <trkpt lat="41.77449" lon="20.86255">
        <ele>659.114202</ele>
        <time>2022-04-25T08:34:49.913Z</time>
      </trkpt>
      <trkpt lat="41.7744" lon="20.86248">
        <ele>659.558673</ele>
        <time>2022-04-25T08:34:55.903Z</time>
      </trkpt>
      <trkpt lat="41.77431" lon="20.86243">
        <ele>659.940469</ele>
        <time>2022-04-25T08:35:00.900Z</time>
      </trkpt>
      <trkpt lat="41.77423" lon="20.86238">
        <ele>660.325392</ele>
        <time>2022-04-25T08:35:05.898Z</time>
      </trkpt>
      <trkpt lat="41.77413" lon="20.86233">
        <ele>660.761953</ele>
        <time>2022-04-25T08:35:11.918Z</time>
      </trkpt>
      <trkpt lat="41.77403" lon="20.86227">
        <ele>661.243979</ele>
        <time>2022-04-25T08:35:17.886Z</time>
      </trkpt>
      <trkpt lat="41.77393" lon="20.86222">
        <ele>661.737957</ele>
        <time>2022-04-25T08:35:23.905Z</time>
      </trkpt>
      <trkpt lat="41.77384" lon="20.86218">
        <ele>662.161232</ele>
        <time>2022-04-25T08:35:28.905Z</time>
      </trkpt>
      <trkpt lat="41.77375" lon="20.86213">
        <ele>662.601922</ele>
        <time>2022-04-25T08:35:34.911Z</time>
      </trkpt>
      <trkpt lat="41.77366" lon="20.86209">
        <ele>663.02416</ele>
        <time>2022-04-25T08:35:40.908Z</time>
      </trkpt>
      <trkpt lat="41.77357" lon="20.86206">
        <ele>663.462794</ele>
        <time>2022-04-25T08:35:46.909Z</time>
      </trkpt>
      <trkpt lat="41.77348" lon="20.86203">
        <ele>663.897718</ele>
        <time>2022-04-25T08:35:52.901Z</time>
      </trkpt>
      <trkpt lat="41.77338" lon="20.862">
        <ele>664.354777</ele>
        <time>2022-04-25T08:35:58.909Z</time>
      </trkpt>
      <trkpt lat="41.77328" lon="20.86196">
        <ele>664.827655</ele>
        <time>2022-04-25T08:36:05.909Z</time>
      </trkpt>
      <trkpt lat="41.77318" lon="20.86194">
        <ele>665.264515</ele>
        <time>2022-04-25T08:36:11.924Z</time>
      </trkpt>
      <trkpt lat="41.77308" lon="20.86191">
        <ele>665.73438</ele>
        <time>2022-04-25T08:36:18.903Z</time>
      </trkpt>
      <trkpt lat="41.77299" lon="20.86188">
        <ele>666.176645</ele>
        <time>2022-04-25T08:36:24.888Z</time>
      </trkpt>
      <trkpt lat="41.77289" lon="20.86186">
        <ele>666.602697</ele>
        <time>2022-04-25T08:36:30.904Z</time>
      </trkpt>
      <trkpt lat="41.7728" lon="20.86184">
        <ele>667.038995</ele>
        <time>2022-04-25T08:36:36.908Z</time>
      </trkpt>
      <trkpt lat="41.7727" lon="20.86181">
        <ele>667.507766</ele>
        <time>2022-04-25T08:36:42.884Z</time>
      </trkpt>
      <trkpt lat="41.7726" lon="20.86179">
        <ele>667.947017</ele>
        <time>2022-04-25T08:36:48.910Z</time>
      </trkpt>
      <trkpt lat="41.77251" lon="20.86177">
        <ele>668.382778</ele>
        <time>2022-04-25T08:36:55.918Z</time>
      </trkpt>
      <trkpt lat="41.77241" lon="20.86177">
        <ele>668.840466</ele>
        <time>2022-04-25T08:37:01.926Z</time>
      </trkpt>
      <trkpt lat="41.77231" lon="20.86175">
        <ele>669.235096</ele>
        <time>2022-04-25T08:37:07.940Z</time>
      </trkpt>
      <trkpt lat="41.77222" lon="20.86171">
        <ele>669.632312</ele>
        <time>2022-04-25T08:37:13.904Z</time>
      </trkpt>
      <trkpt lat="41.77212" lon="20.86167">
        <ele>670.038424</ele>
        <time>2022-04-25T08:37:19.916Z</time>
      </trkpt>
      <trkpt lat="41.77203" lon="20.86165">
        <ele>670.406399</ele>
        <time>2022-04-25T08:37:25.920Z</time>
      </trkpt>
      <trkpt lat="41.77194" lon="20.86163">
        <ele>670.779947</ele>
        <time>2022-04-25T08:37:31.912Z</time>
      </trkpt>
      <trkpt lat="41.77185" lon="20.86159">
        <ele>671.184313</ele>
        <time>2022-04-25T08:37:37.881Z</time>
      </trkpt>
      <trkpt lat="41.77175" lon="20.86154">
        <ele>671.605799</ele>
        <time>2022-04-25T08:37:43.905Z</time>
      </trkpt>
      <trkpt lat="41.77166" lon="20.8615">
        <ele>671.989</ele>
        <time>2022-04-25T08:37:49.907Z</time>
      </trkpt>
      <trkpt lat="41.77157" lon="20.86144">
        <ele>672.376288</ele>
        <time>2022-04-25T08:37:55.908Z</time>
      </trkpt>
      <trkpt lat="41.77149" lon="20.86139">
        <ele>672.753011</ele>
        <time>2022-04-25T08:38:01.898Z</time>
      </trkpt>
      <trkpt lat="41.77141" lon="20.86132">
        <ele>673.144103</ele>
        <time>2022-04-25T08:38:07.888Z</time>
      </trkpt>
      <trkpt lat="41.77132" lon="20.86123">
        <ele>673.57411</ele>
        <time>2022-04-25T08:38:13.876Z</time>
      </trkpt>
      <trkpt lat="41.77126" lon="20.86113">
        <ele>673.965862</ele>
        <time>2022-04-25T08:38:19.901Z</time>
      </trkpt>
      <trkpt lat="41.77119" lon="20.86104">
        <ele>674.343327</ele>
        <time>2022-04-25T08:38:25.903Z</time>
      </trkpt>
      <trkpt lat="41.77114" lon="20.86094">
        <ele>674.719534</ele>
        <time>2022-04-25T08:38:31.903Z</time>
      </trkpt>
      <trkpt lat="41.7711" lon="20.86081">
        <ele>675.124379</ele>
        <time>2022-04-25T08:38:38.941Z</time>
      </trkpt>
      <trkpt lat="41.77107" lon="20.86068">
        <ele>675.540798</ele>
        <time>2022-04-25T08:38:45.899Z</time>
      </trkpt>
      <trkpt lat="41.77104" lon="20.86057">
        <ele>675.904341</ele>
        <time>2022-04-25T08:38:51.889Z</time>
      </trkpt>
      <trkpt lat="41.77102" lon="20.86044">
        <ele>676.298509</ele>
        <time>2022-04-25T08:38:57.905Z</time>
      </trkpt>
      <trkpt lat="41.771" lon="20.86032">
        <ele>676.774536</ele>
        <time>2022-04-25T08:39:03.900Z</time>
      </trkpt>
      <trkpt lat="41.77099" lon="20.86019">
        <ele>677.272521</ele>
        <time>2022-04-25T08:39:10.882Z</time>
      </trkpt>
      <trkpt lat="41.77098" lon="20.86007">
        <ele>677.728012</ele>
        <time>2022-04-25T08:39:16.888Z</time>
      </trkpt>
      <trkpt lat="41.77098" lon="20.85994">
        <ele>678.194692</ele>
        <time>2022-04-25T08:39:22.882Z</time>
      </trkpt>
      <trkpt lat="41.77097" lon="20.85981">
        <ele>678.700925</ele>
        <time>2022-04-25T08:39:29.912Z</time>
      </trkpt>
      <trkpt lat="41.77096" lon="20.85968">
        <ele>679.154208</ele>
        <time>2022-04-25T08:39:35.892Z</time>
      </trkpt>
      <trkpt lat="41.77095" lon="20.85955">
        <ele>679.666505</ele>
        <time>2022-04-25T08:39:42.902Z</time>
      </trkpt>
      <trkpt lat="41.77094" lon="20.85941">
        <ele>680.176966</ele>
        <time>2022-04-25T08:39:49.915Z</time>
      </trkpt>
      <trkpt lat="41.77091" lon="20.8593">
        <ele>680.632521</ele>
        <time>2022-04-25T08:39:55.902Z</time>
      </trkpt>
      <trkpt lat="41.77088" lon="20.85918">
        <ele>681.090662</ele>
        <time>2022-04-25T08:40:01.909Z</time>
      </trkpt>
      <trkpt lat="41.77083" lon="20.85906">
        <ele>681.611982</ele>
        <time>2022-04-25T08:40:08.914Z</time>
      </trkpt>
      <trkpt lat="41.77079" lon="20.85893">
        <ele>682.122261</ele>
        <time>2022-04-25T08:40:15.904Z</time>
      </trkpt>
      <trkpt lat="41.77073" lon="20.85882">
        <ele>682.61616</ele>
        <time>2022-04-25T08:40:21.897Z</time>
      </trkpt>
      <trkpt lat="41.77067" lon="20.85872">
        <ele>683.121935</ele>
        <time>2022-04-25T08:40:28.907Z</time>
      </trkpt>
      <trkpt lat="41.7706" lon="20.85862">
        <ele>683.619436</ele>
        <time>2022-04-25T08:40:34.942Z</time>
      </trkpt>
      <trkpt lat="41.77053" lon="20.85854">
        <ele>684.09591</ele>
        <time>2022-04-25T08:40:40.891Z</time>
      </trkpt>
      <trkpt lat="41.77046" lon="20.85845">
        <ele>684.596111</ele>
        <time>2022-04-25T08:40:47.893Z</time>
      </trkpt>
      <trkpt lat="41.77038" lon="20.85836">
        <ele>685.099006</ele>
        <time>2022-04-25T08:40:54.904Z</time>
      </trkpt>
      <trkpt lat="41.77031" lon="20.85827">
        <ele>685.532146</ele>
        <time>2022-04-25T08:41:02.939Z</time>
      </trkpt>
      <trkpt lat="41.77023" lon="20.85821">
        <ele>685.937238</ele>
        <time>2022-04-25T08:41:08.899Z</time>
      </trkpt>
      <trkpt lat="41.77015" lon="20.85814">
        <ele>686.389068</ele>
        <time>2022-04-25T08:41:14.887Z</time>
      </trkpt>
      <trkpt lat="41.77007" lon="20.85808">
        <ele>686.791372</ele>
        <time>2022-04-25T08:41:20.929Z</time>
      </trkpt>
      <trkpt lat="41.76999" lon="20.858">
        <ele>687.228001</ele>
        <time>2022-04-25T08:41:27.891Z</time>
      </trkpt>
      <trkpt lat="41.7699" lon="20.85794">
        <ele>687.683008</ele>
        <time>2022-04-25T08:41:34.902Z</time>
      </trkpt>
      <trkpt lat="41.76981" lon="20.85787">
        <ele>688.140344</ele>
        <time>2022-04-25T08:41:41.950Z</time>
      </trkpt>
      <trkpt lat="41.76972" lon="20.85782">
        <ele>688.589642</ele>
        <time>2022-04-25T08:41:48.885Z</time>
      </trkpt>
      <trkpt lat="41.76962" lon="20.85778">
        <ele>689.031868</ele>
        <time>2022-04-25T08:41:54.899Z</time>
      </trkpt>
      <trkpt lat="41.76953" lon="20.85775">
        <ele>689.484518</ele>
        <time>2022-04-25T08:42:00.905Z</time>
      </trkpt>
      <trkpt lat="41.76943" lon="20.85772">
        <ele>689.927726</ele>
        <time>2022-04-25T08:42:06.916Z</time>
      </trkpt>
      <trkpt lat="41.76934" lon="20.8577">
        <ele>690.349057</ele>
        <time>2022-04-25T08:42:13.919Z</time>
      </trkpt>
      <trkpt lat="41.76925" lon="20.85768">
        <ele>690.750356</ele>
        <time>2022-04-25T08:42:20.903Z</time>
      </trkpt>
      <trkpt lat="41.76915" lon="20.85769">
        <ele>691.204283</ele>
        <time>2022-04-25T08:42:27.887Z</time>
      </trkpt>
      <trkpt lat="41.76904" lon="20.8577">
        <ele>691.669603</ele>
        <time>2022-04-25T08:42:33.886Z</time>
      </trkpt>
      <trkpt lat="41.76895" lon="20.8577">
        <ele>692.099201</ele>
        <time>2022-04-25T08:42:39.904Z</time>
      </trkpt>
      <trkpt lat="41.76884" lon="20.8577">
        <ele>692.573526</ele>
        <time>2022-04-25T08:42:46.911Z</time>
      </trkpt>
      <trkpt lat="41.76875" lon="20.8577">
        <ele>692.98964</ele>
        <time>2022-04-25T08:42:52.899Z</time>
      </trkpt>
      <trkpt lat="41.76865" lon="20.85771">
        <ele>693.490982</ele>
        <time>2022-04-25T08:42:58.914Z</time>
      </trkpt>
      <trkpt lat="41.76856" lon="20.85773">
        <ele>694.147807</ele>
        <time>2022-04-25T08:43:04.902Z</time>
      </trkpt>
      <trkpt lat="41.76845" lon="20.85772">
        <ele>694.884955</ele>
        <time>2022-04-25T08:43:11.916Z</time>
      </trkpt>
      <trkpt lat="41.76835" lon="20.8577">
        <ele>695.55187</ele>
        <time>2022-04-25T08:43:17.894Z</time>
      </trkpt>
      <trkpt lat="41.76826" lon="20.85767">
        <ele>696.216252</ele>
        <time>2022-04-25T08:43:23.905Z</time>
      </trkpt>
      <trkpt lat="41.76816" lon="20.85765">
        <ele>696.876931</ele>
        <time>2022-04-25T08:43:29.908Z</time>
      </trkpt>
      <trkpt lat="41.76808" lon="20.8576">
        <ele>697.506891</ele>
        <time>2022-04-25T08:43:35.925Z</time>
      </trkpt>
      <trkpt lat="41.76799" lon="20.85754">
        <ele>698.184749</ele>
        <time>2022-04-25T08:43:42.906Z</time>
      </trkpt>
      <trkpt lat="41.76791" lon="20.85746">
        <ele>698.908803</ele>
        <time>2022-04-25T08:43:49.903Z</time>
      </trkpt>
      <trkpt lat="41.76784" lon="20.85737">
        <ele>699.560609</ele>
        <time>2022-04-25T08:43:55.902Z</time>
      </trkpt>
      <trkpt lat="41.76778" lon="20.85726">
        <ele>700.255146</ele>
        <time>2022-04-25T08:44:01.931Z</time>
      </trkpt>
      <trkpt lat="41.76773" lon="20.85714">
        <ele>700.96121</ele>
        <time>2022-04-25T08:44:07.897Z</time>
      </trkpt>
      <trkpt lat="41.76767" lon="20.85703">
        <ele>701.650558</ele>
        <time>2022-04-25T08:44:14.892Z</time>
      </trkpt>
      <trkpt lat="41.76762" lon="20.85692">
        <ele>702.284806</ele>
        <time>2022-04-25T08:44:20.914Z</time>
      </trkpt>
      <trkpt lat="41.76754" lon="20.85665">
        <ele>703.777009</ele>
        <time>2022-04-25T08:50:03.906Z</time>
      </trkpt>
      <trkpt lat="41.76749" lon="20.85653">
        <ele>704.506813</ele>
        <time>2022-04-25T08:50:08.886Z</time>
      </trkpt>
      <trkpt lat="41.76745" lon="20.8564">
        <ele>705.20612</ele>
        <time>2022-04-25T08:50:14.946Z</time>
      </trkpt>
      <trkpt lat="41.76741" lon="20.85629">
        <ele>705.789142</ele>
        <time>2022-04-25T08:50:20.894Z</time>
      </trkpt>
      <trkpt lat="41.76736" lon="20.85618">
        <ele>706.210979</ele>
        <time>2022-04-25T08:50:25.898Z</time>
      </trkpt>
      <trkpt lat="41.76731" lon="20.85606">
        <ele>706.680166</ele>
        <time>2022-04-25T08:50:31.909Z</time>
      </trkpt>
      <trkpt lat="41.76726" lon="20.85595">
        <ele>707.124343</ele>
        <time>2022-04-25T08:50:37.886Z</time>
      </trkpt>
      <trkpt lat="41.7672" lon="20.85584">
        <ele>707.574698</ele>
        <time>2022-04-25T08:50:43.891Z</time>
      </trkpt>
      <trkpt lat="41.76716" lon="20.85571">
        <ele>708.042544</ele>
        <time>2022-04-25T08:50:50.902Z</time>
      </trkpt>
      <trkpt lat="41.7671" lon="20.85562">
        <ele>708.453132</ele>
        <time>2022-04-25T08:50:56.903Z</time>
      </trkpt>
      <trkpt lat="41.76704" lon="20.85551">
        <ele>708.896308</ele>
        <time>2022-04-25T08:51:02.901Z</time>
      </trkpt>
      <trkpt lat="41.76697" lon="20.85542">
        <ele>709.359684</ele>
        <time>2022-04-25T08:51:08.914Z</time>
      </trkpt>
      <trkpt lat="41.76691" lon="20.85533">
        <ele>709.770591</ele>
        <time>2022-04-25T08:51:14.888Z</time>
      </trkpt>
      <trkpt lat="41.76684" lon="20.85523">
        <ele>710.250067</ele>
        <time>2022-04-25T08:51:21.896Z</time>
      </trkpt>
      <trkpt lat="41.76677" lon="20.85515">
        <ele>710.667128</ele>
        <time>2022-04-25T08:51:27.885Z</time>
      </trkpt>
      <trkpt lat="41.76669" lon="20.85505">
        <ele>711.131703</ele>
        <time>2022-04-25T08:51:34.894Z</time>
      </trkpt>
      <trkpt lat="41.76663" lon="20.85497">
        <ele>711.554487</ele>
        <time>2022-04-25T08:51:40.895Z</time>
      </trkpt>
      <trkpt lat="41.76656" lon="20.85487">
        <ele>711.98678</ele>
        <time>2022-04-25T08:51:46.898Z</time>
      </trkpt>
      <trkpt lat="41.76648" lon="20.85479">
        <ele>712.447417</ele>
        <time>2022-04-25T08:51:52.900Z</time>
      </trkpt>
      <trkpt lat="41.7664" lon="20.8547">
        <ele>712.921058</ele>
        <time>2022-04-25T08:51:59.882Z</time>
      </trkpt>
      <trkpt lat="41.76633" lon="20.85462">
        <ele>713.364051</ele>
        <time>2022-04-25T08:52:06.898Z</time>
      </trkpt>
      <trkpt lat="41.76626" lon="20.85454">
        <ele>713.771015</ele>
        <time>2022-04-25T08:52:12.901Z</time>
      </trkpt>
      <trkpt lat="41.76618" lon="20.85445">
        <ele>714.408135</ele>
        <time>2022-04-25T08:52:19.891Z</time>
      </trkpt>
      <trkpt lat="41.7661" lon="20.85436">
        <ele>715.067298</ele>
        <time>2022-04-25T08:52:26.903Z</time>
      </trkpt>
      <trkpt lat="41.76603" lon="20.85429">
        <ele>715.690134</ele>
        <time>2022-04-25T08:52:33.926Z</time>
      </trkpt>
      <trkpt lat="41.76596" lon="20.85421">
        <ele>716.280593</ele>
        <time>2022-04-25T08:52:39.886Z</time>
      </trkpt>
      <trkpt lat="41.76589" lon="20.85412">
        <ele>716.877158</ele>
        <time>2022-04-25T08:52:45.898Z</time>
      </trkpt>
      <trkpt lat="41.76581" lon="20.85404">
        <ele>717.537093</ele>
        <time>2022-04-25T08:52:52.929Z</time>
      </trkpt>
      <trkpt lat="41.76573" lon="20.85397">
        <ele>718.174955</ele>
        <time>2022-04-25T08:52:58.930Z</time>
      </trkpt>
      <trkpt lat="41.76565" lon="20.8539">
        <ele>718.761963</ele>
        <time>2022-04-25T08:53:04.907Z</time>
      </trkpt>
      <trkpt lat="41.76557" lon="20.85384">
        <ele>719.384347</ele>
        <time>2022-04-25T08:53:10.896Z</time>
      </trkpt>
      <trkpt lat="41.76548" lon="20.85376">
        <ele>720.073523</ele>
        <time>2022-04-25T08:53:17.885Z</time>
      </trkpt>
      <trkpt lat="41.76539" lon="20.8537">
        <ele>720.715167</ele>
        <time>2022-04-25T08:53:23.904Z</time>
      </trkpt>
      <trkpt lat="41.7653" lon="20.85365">
        <ele>721.368785</ele>
        <time>2022-04-25T08:53:30.900Z</time>
      </trkpt>
      <trkpt lat="41.76521" lon="20.85361">
        <ele>722.003636</ele>
        <time>2022-04-25T08:53:38.893Z</time>
      </trkpt>
      <trkpt lat="41.76511" lon="20.85359">
        <ele>722.635847</ele>
        <time>2022-04-25T08:53:45.920Z</time>
      </trkpt>
      <trkpt lat="41.76501" lon="20.85359">
        <ele>723.299677</ele>
        <time>2022-04-25T08:53:52.908Z</time>
      </trkpt>
      <trkpt lat="41.76491" lon="20.85359">
        <ele>723.931197</ele>
        <time>2022-04-25T08:53:58.890Z</time>
      </trkpt>
      <trkpt lat="41.76482" lon="20.85359">
        <ele>724.555911</ele>
        <time>2022-04-25T08:54:04.899Z</time>
      </trkpt>
      <trkpt lat="41.76472" lon="20.85359">
        <ele>725.220113</ele>
        <time>2022-04-25T08:54:10.895Z</time>
      </trkpt>
      <trkpt lat="41.76462" lon="20.8536">
        <ele>725.793717</ele>
        <time>2022-04-25T08:54:17.885Z</time>
      </trkpt>
      <trkpt lat="41.76452" lon="20.85361">
        <ele>726.306849</ele>
        <time>2022-04-25T08:54:23.880Z</time>
      </trkpt>
      <trkpt lat="41.76443" lon="20.85362">
        <ele>726.785519</ele>
        <time>2022-04-25T08:54:29.873Z</time>
      </trkpt>
      <trkpt lat="41.76434" lon="20.85362">
        <ele>727.264267</ele>
        <time>2022-04-25T08:54:35.897Z</time>
      </trkpt>
      <trkpt lat="41.76424" lon="20.85362">
        <ele>727.779422</ele>
        <time>2022-04-25T08:54:41.870Z</time>
      </trkpt>
      <trkpt lat="41.76413" lon="20.85362">
        <ele>728.310051</ele>
        <time>2022-04-25T08:54:48.873Z</time>
      </trkpt>
      <trkpt lat="41.76404" lon="20.85362">
        <ele>728.783519</ele>
        <time>2022-04-25T08:54:54.886Z</time>
      </trkpt>
      <trkpt lat="41.76394" lon="20.85361">
        <ele>729.305824</ele>
        <time>2022-04-25T08:55:01.867Z</time>
      </trkpt>
      <trkpt lat="41.76385" lon="20.85357">
        <ele>729.823377</ele>
        <time>2022-04-25T08:55:07.871Z</time>
      </trkpt>
      <trkpt lat="41.76375" lon="20.85353">
        <ele>730.343947</ele>
        <time>2022-04-25T08:55:13.874Z</time>
      </trkpt>
      <trkpt lat="41.76366" lon="20.85347">
        <ele>730.863943</ele>
        <time>2022-04-25T08:55:20.875Z</time>
      </trkpt>
      <trkpt lat="41.76359" lon="20.85339">
        <ele>731.358722</ele>
        <time>2022-04-25T08:55:26.871Z</time>
      </trkpt>
      <trkpt lat="41.76352" lon="20.85329">
        <ele>731.880315</ele>
        <time>2022-04-25T08:55:33.871Z</time>
      </trkpt>
      <trkpt lat="41.76345" lon="20.85321">
        <ele>732.359995</ele>
        <time>2022-04-25T08:55:38.870Z</time>
      </trkpt>
      <trkpt lat="41.76338" lon="20.85312">
        <ele>732.858109</ele>
        <time>2022-04-25T08:55:44.877Z</time>
      </trkpt>
      <trkpt lat="41.76333" lon="20.85303">
        <ele>733.32778</ele>
        <time>2022-04-25T08:55:50.870Z</time>
      </trkpt>
      <trkpt lat="41.76326" lon="20.85292">
        <ele>733.859798</ele>
        <time>2022-04-25T08:55:57.879Z</time>
      </trkpt>
      <trkpt lat="41.76321" lon="20.85282">
        <ele>734.332823</ele>
        <time>2022-04-25T08:56:04.868Z</time>
      </trkpt>
      <trkpt lat="41.76316" lon="20.8527">
        <ele>734.86131</ele>
        <time>2022-04-25T08:56:11.885Z</time>
      </trkpt>
      <trkpt lat="41.76311" lon="20.85258">
        <ele>735.329334</ele>
        <time>2022-04-25T08:56:18.886Z</time>
      </trkpt>
      <trkpt lat="41.76306" lon="20.85247">
        <ele>735.7784</ele>
        <time>2022-04-25T08:56:24.882Z</time>
      </trkpt>
      <trkpt lat="41.763" lon="20.85237">
        <ele>736.240745</ele>
        <time>2022-04-25T08:56:30.877Z</time>
      </trkpt>
      <trkpt lat="41.76293" lon="20.85226">
        <ele>736.708088</ele>
        <time>2022-04-25T08:56:36.884Z</time>
      </trkpt>
      <trkpt lat="41.76288" lon="20.85214">
        <ele>737.196928</ele>
        <time>2022-04-25T08:56:43.870Z</time>
      </trkpt>
      <trkpt lat="41.76282" lon="20.85202">
        <ele>737.678187</ele>
        <time>2022-04-25T08:56:50.877Z</time>
      </trkpt>
      <trkpt lat="41.76277" lon="20.85191">
        <ele>738.118998</ele>
        <time>2022-04-25T08:56:56.880Z</time>
      </trkpt>
      <trkpt lat="41.76271" lon="20.85181">
        <ele>738.553537</ele>
        <time>2022-04-25T08:57:02.880Z</time>
      </trkpt>
      <trkpt lat="41.76266" lon="20.85171">
        <ele>738.974103</ele>
        <time>2022-04-25T08:57:08.882Z</time>
      </trkpt>
      <trkpt lat="41.76261" lon="20.85161">
        <ele>739.386524</ele>
        <time>2022-04-25T08:57:14.878Z</time>
      </trkpt>
      <trkpt lat="41.76255" lon="20.85151">
        <ele>739.826329</ele>
        <time>2022-04-25T08:57:21.895Z</time>
      </trkpt>
      <trkpt lat="41.7625" lon="20.85141">
        <ele>740.252838</ele>
        <time>2022-04-25T08:57:27.895Z</time>
      </trkpt>
      <trkpt lat="41.76244" lon="20.8513">
        <ele>740.709333</ele>
        <time>2022-04-25T08:57:34.881Z</time>
      </trkpt>
      <trkpt lat="41.76239" lon="20.8512">
        <ele>741.136144</ele>
        <time>2022-04-25T08:57:40.877Z</time>
      </trkpt>
      <trkpt lat="41.76234" lon="20.85107">
        <ele>741.623261</ele>
        <time>2022-04-25T08:57:47.873Z</time>
      </trkpt>
      <trkpt lat="41.76229" lon="20.85097">
        <ele>742.036102</ele>
        <time>2022-04-25T08:57:53.869Z</time>
      </trkpt>
      <trkpt lat="41.76223" lon="20.85086">
        <ele>742.496754</ele>
        <time>2022-04-25T08:58:00.887Z</time>
      </trkpt>
      <trkpt lat="41.76217" lon="20.85074">
        <ele>742.978225</ele>
        <time>2022-04-25T08:58:07.870Z</time>
      </trkpt>
      <trkpt lat="41.76213" lon="20.85063">
        <ele>743.665786</ele>
        <time>2022-04-25T08:58:13.872Z</time>
      </trkpt>
      <trkpt lat="41.76207" lon="20.85052">
        <ele>744.591892</ele>
        <time>2022-04-25T08:58:20.868Z</time>
      </trkpt>
      <trkpt lat="41.76202" lon="20.85041">
        <ele>745.517107</ele>
        <time>2022-04-25T08:58:27.871Z</time>
      </trkpt>
      <trkpt lat="41.76197" lon="20.85031">
        <ele>746.357525</ele>
        <time>2022-04-25T08:58:33.866Z</time>
      </trkpt>
      <trkpt lat="41.76191" lon="20.8502">
        <ele>747.270525</ele>
        <time>2022-04-25T08:58:40.889Z</time>
      </trkpt>
      <trkpt lat="41.76183" lon="20.8501">
        <ele>748.223784</ele>
        <time>2022-04-25T08:58:47.880Z</time>
      </trkpt>
      <trkpt lat="41.76176" lon="20.85001">
        <ele>749.139522</ele>
        <time>2022-04-25T08:58:54.878Z</time>
      </trkpt>
      <trkpt lat="41.76169" lon="20.84992">
        <ele>750.017093</ele>
        <time>2022-04-25T08:59:00.866Z</time>
      </trkpt>
      <trkpt lat="41.76161" lon="20.84984">
        <ele>750.984981</ele>
        <time>2022-04-25T08:59:07.878Z</time>
      </trkpt>
      <trkpt lat="41.76152" lon="20.84979">
        <ele>751.896599</ele>
        <time>2022-04-25T08:59:14.898Z</time>
      </trkpt>
      <trkpt lat="41.76143" lon="20.84974">
        <ele>752.729366</ele>
        <time>2022-04-25T08:59:21.867Z</time>
      </trkpt>
      <trkpt lat="41.76134" lon="20.8497">
        <ele>753.644338</ele>
        <time>2022-04-25T08:59:29.880Z</time>
      </trkpt>
      <trkpt lat="41.76125" lon="20.84967">
        <ele>754.501541</ele>
        <time>2022-04-25T08:59:36.870Z</time>
      </trkpt>
      <trkpt lat="41.76115" lon="20.84966">
        <ele>755.447337</ele>
        <time>2022-04-25T08:59:43.867Z</time>
      </trkpt>
      <trkpt lat="41.76105" lon="20.84967">
        <ele>756.390717</ele>
        <time>2022-04-25T08:59:50.866Z</time>
      </trkpt>
      <trkpt lat="41.76095" lon="20.84968">
        <ele>757.314116</ele>
        <time>2022-04-25T08:59:57.870Z</time>
      </trkpt>
      <trkpt lat="41.76085" lon="20.84974">
        <ele>758.273434</ele>
        <time>2022-04-25T09:00:03.874Z</time>
      </trkpt>
      <trkpt lat="41.76076" lon="20.84981">
        <ele>759.25101</ele>
        <time>2022-04-25T09:00:09.882Z</time>
      </trkpt>
      <trkpt lat="41.76068" lon="20.84988">
        <ele>760.03034</ele>
        <time>2022-04-25T09:00:15.903Z</time>
      </trkpt>
      <trkpt lat="41.7606" lon="20.84995">
        <ele>760.626871</ele>
        <time>2022-04-25T09:00:21.869Z</time>
      </trkpt>
      <trkpt lat="41.76052" lon="20.85002">
        <ele>761.18787</ele>
        <time>2022-04-25T09:00:27.874Z</time>
      </trkpt>
      <trkpt lat="41.76044" lon="20.8501">
        <ele>761.815333</ele>
        <time>2022-04-25T09:00:34.881Z</time>
      </trkpt>
      <trkpt lat="41.76035" lon="20.85017">
        <ele>762.419559</ele>
        <time>2022-04-25T09:00:41.872Z</time>
      </trkpt>
      <trkpt lat="41.76028" lon="20.85023">
        <ele>762.968536</ele>
        <time>2022-04-25T09:00:47.868Z</time>
      </trkpt>
      <trkpt lat="41.76019" lon="20.85028">
        <ele>763.524685</ele>
        <time>2022-04-25T09:00:54.874Z</time>
      </trkpt>
      <trkpt lat="41.76011" lon="20.85031">
        <ele>764.077003</ele>
        <time>2022-04-25T09:01:00.876Z</time>
      </trkpt>
      <trkpt lat="41.76001" lon="20.85032">
        <ele>764.690634</ele>
        <time>2022-04-25T09:01:07.871Z</time>
      </trkpt>
      <trkpt lat="41.75991" lon="20.85032">
        <ele>765.29655</ele>
        <time>2022-04-25T09:01:14.877Z</time>
      </trkpt>
      <trkpt lat="41.7598" lon="20.85031">
        <ele>765.922358</ele>
        <time>2022-04-25T09:01:20.882Z</time>
      </trkpt>
      <trkpt lat="41.75971" lon="20.85028">
        <ele>766.538833</ele>
        <time>2022-04-25T09:01:27.899Z</time>
      </trkpt>
      <trkpt lat="41.75962" lon="20.85023">
        <ele>767.134265</ele>
        <time>2022-04-25T09:01:34.890Z</time>
      </trkpt>
      <trkpt lat="41.75953" lon="20.85017">
        <ele>767.74263</ele>
        <time>2022-04-25T09:01:41.887Z</time>
      </trkpt>
      <trkpt lat="41.75944" lon="20.85009">
        <ele>768.367424</ele>
        <time>2022-04-25T09:01:48.878Z</time>
      </trkpt>
      <trkpt lat="41.75937" lon="20.85001">
        <ele>768.924986</ele>
        <time>2022-04-25T09:01:54.870Z</time>
      </trkpt>
      <trkpt lat="41.7593" lon="20.84992">
        <ele>769.532605</ele>
        <time>2022-04-25T09:02:01.895Z</time>
      </trkpt>
      <trkpt lat="41.75923" lon="20.84984">
        <ele>770.120593</ele>
        <time>2022-04-25T09:02:08.879Z</time>
      </trkpt>
      <trkpt lat="41.75916" lon="20.84976">
        <ele>770.667488</ele>
        <time>2022-04-25T09:02:14.888Z</time>
      </trkpt>
      <trkpt lat="41.75908" lon="20.84968">
        <ele>771.143988</ele>
        <time>2022-04-25T09:02:21.882Z</time>
      </trkpt>
      <trkpt lat="41.75901" lon="20.8496">
        <ele>771.5667</ele>
        <time>2022-04-25T09:02:27.868Z</time>
      </trkpt>
      <trkpt lat="41.75894" lon="20.84952">
        <ele>771.97823</ele>
        <time>2022-04-25T09:02:33.871Z</time>
      </trkpt>
      <trkpt lat="41.75888" lon="20.84943">
        <ele>772.404471</ele>
        <time>2022-04-25T09:02:39.866Z</time>
      </trkpt>
      <trkpt lat="41.75879" lon="20.84936">
        <ele>772.851263</ele>
        <time>2022-04-25T09:02:46.876Z</time>
      </trkpt>
      <trkpt lat="41.75872" lon="20.84928">
        <ele>773.278885</ele>
        <time>2022-04-25T09:02:52.908Z</time>
      </trkpt>
      <trkpt lat="41.75864" lon="20.8492">
        <ele>773.732016</ele>
        <time>2022-04-25T09:02:59.880Z</time>
      </trkpt>
      <trkpt lat="41.75856" lon="20.84912">
        <ele>774.178481</ele>
        <time>2022-04-25T09:03:06.885Z</time>
      </trkpt>
      <trkpt lat="41.75848" lon="20.84906">
        <ele>774.593234</ele>
        <time>2022-04-25T09:03:13.868Z</time>
      </trkpt>
      <trkpt lat="41.7584" lon="20.84898">
        <ele>775.067972</ele>
        <time>2022-04-25T09:03:21.893Z</time>
      </trkpt>
      <trkpt lat="41.75831" lon="20.84891">
        <ele>775.535537</ele>
        <time>2022-04-25T09:03:28.872Z</time>
      </trkpt>
      <trkpt lat="41.75822" lon="20.84884">
        <ele>776.003519</ele>
        <time>2022-04-25T09:03:35.871Z</time>
      </trkpt>
      <trkpt lat="41.75814" lon="20.84878">
        <ele>776.415312</ele>
        <time>2022-04-25T09:03:41.872Z</time>
      </trkpt>
      <trkpt lat="41.75805" lon="20.84874">
        <ele>776.852909</ele>
        <time>2022-04-25T09:03:48.872Z</time>
      </trkpt>
      <trkpt lat="41.75796" lon="20.84868">
        <ele>777.291838</ele>
        <time>2022-04-25T09:03:55.895Z</time>
      </trkpt>
      <trkpt lat="41.75788" lon="20.84864">
        <ele>777.707563</ele>
        <time>2022-04-25T09:04:02.875Z</time>
      </trkpt>
      <trkpt lat="41.75779" lon="20.84859">
        <ele>778.129277</ele>
        <time>2022-04-25T09:04:09.867Z</time>
      </trkpt>
      <trkpt lat="41.7577" lon="20.84854">
        <ele>778.583713</ele>
        <time>2022-04-25T09:04:16.890Z</time>
      </trkpt>
      <trkpt lat="41.75761" lon="20.8485">
        <ele>778.997523</ele>
        <time>2022-04-25T09:04:23.894Z</time>
      </trkpt>
      <trkpt lat="41.75751" lon="20.84847">
        <ele>779.469804</ele>
        <time>2022-04-25T09:04:30.882Z</time>
      </trkpt>
      <trkpt lat="41.75742" lon="20.84844">
        <ele>779.897636</ele>
        <time>2022-04-25T09:04:37.876Z</time>
      </trkpt>
      <trkpt lat="41.75733" lon="20.84841">
        <ele>780.32381</ele>
        <time>2022-04-25T09:04:43.878Z</time>
      </trkpt>
      <trkpt lat="41.75724" lon="20.84838">
        <ele>780.74273</ele>
        <time>2022-04-25T09:04:49.866Z</time>
      </trkpt>
      <trkpt lat="41.75715" lon="20.84835">
        <ele>781.15915</ele>
        <time>2022-04-25T09:04:55.872Z</time>
      </trkpt>
      <trkpt lat="41.75706" lon="20.84832">
        <ele>781.600373</ele>
        <time>2022-04-25T09:05:01.882Z</time>
      </trkpt>
      <trkpt lat="41.75697" lon="20.8483">
        <ele>782.024401</ele>
        <time>2022-04-25T09:05:07.897Z</time>
      </trkpt>
      <trkpt lat="41.75688" lon="20.84825">
        <ele>782.482815</ele>
        <time>2022-04-25T09:05:14.878Z</time>
      </trkpt>
      <trkpt lat="41.75679" lon="20.84822">
        <ele>782.90744</ele>
        <time>2022-04-25T09:05:21.868Z</time>
      </trkpt>
      <trkpt lat="41.7567" lon="20.84818">
        <ele>783.337952</ele>
        <time>2022-04-25T09:05:28.878Z</time>
      </trkpt>
      <trkpt lat="41.7566" lon="20.84814">
        <ele>783.800715</ele>
        <time>2022-04-25T09:05:35.885Z</time>
      </trkpt>
      <trkpt lat="41.75651" lon="20.84809">
        <ele>784.265767</ele>
        <time>2022-04-25T09:05:43.863Z</time>
      </trkpt>
      <trkpt lat="41.75642" lon="20.84804">
        <ele>784.721167</ele>
        <time>2022-04-25T09:05:50.899Z</time>
      </trkpt>
      <trkpt lat="41.75632" lon="20.84799">
        <ele>785.192908</ele>
        <time>2022-04-25T09:05:57.868Z</time>
      </trkpt>
      <trkpt lat="41.75623" lon="20.84794">
        <ele>785.641456</ele>
        <time>2022-04-25T09:06:04.890Z</time>
      </trkpt>
      <trkpt lat="41.75614" lon="20.84789">
        <ele>786.076334</ele>
        <time>2022-04-25T09:06:10.886Z</time>
      </trkpt>
      <trkpt lat="41.75606" lon="20.84784">
        <ele>786.50675</ele>
        <time>2022-04-25T09:06:16.881Z</time>
      </trkpt>
      <trkpt lat="41.75598" lon="20.84778">
        <ele>786.935687</ele>
        <time>2022-04-25T09:06:22.883Z</time>
      </trkpt>
      <trkpt lat="41.75591" lon="20.8477">
        <ele>787.377555</ele>
        <time>2022-04-25T09:06:28.878Z</time>
      </trkpt>
      <trkpt lat="41.75584" lon="20.84761">
        <ele>787.887034</ele>
        <time>2022-04-25T09:06:34.902Z</time>
      </trkpt>
      <trkpt lat="41.75578" lon="20.84752">
        <ele>788.391063</ele>
        <time>2022-04-25T09:06:40.887Z</time>
      </trkpt>
      <trkpt lat="41.75571" lon="20.84741">
        <ele>788.947479</ele>
        <time>2022-04-25T09:06:47.872Z</time>
      </trkpt>
      <trkpt lat="41.75566" lon="20.84729">
        <ele>789.505979</ele>
        <time>2022-04-25T09:06:54.872Z</time>
      </trkpt>
      <trkpt lat="41.75563" lon="20.84716">
        <ele>790.054914</ele>
        <time>2022-04-25T09:07:01.867Z</time>
      </trkpt>
      <trkpt lat="41.7556" lon="20.84703">
        <ele>790.604079</ele>
        <time>2022-04-25T09:07:09.870Z</time>
      </trkpt>
      <trkpt lat="41.75557" lon="20.8469">
        <ele>791.132479</ele>
        <time>2022-04-25T09:07:16.888Z</time>
      </trkpt>
      <trkpt lat="41.75553" lon="20.8468">
        <ele>791.619866</ele>
        <time>2022-04-25T09:07:23.875Z</time>
      </trkpt>
      <trkpt lat="41.75551" lon="20.84667">
        <ele>792.144579</ele>
        <time>2022-04-25T09:07:30.889Z</time>
      </trkpt>
      <trkpt lat="41.75549" lon="20.84653">
        <ele>792.699391</ele>
        <time>2022-04-25T09:07:37.867Z</time>
      </trkpt>
      <trkpt lat="41.75548" lon="20.8464">
        <ele>793.227742</ele>
        <time>2022-04-25T09:07:44.888Z</time>
      </trkpt>
      <trkpt lat="41.75547" lon="20.84627">
        <ele>793.73341</ele>
        <time>2022-04-25T09:07:51.884Z</time>
      </trkpt>
      <trkpt lat="41.75546" lon="20.84615">
        <ele>794.245351</ele>
        <time>2022-04-25T09:07:58.863Z</time>
      </trkpt>
      <trkpt lat="41.75543" lon="20.84602">
        <ele>794.755531</ele>
        <time>2022-04-25T09:08:05.901Z</time>
      </trkpt>
      <trkpt lat="41.75542" lon="20.84589">
        <ele>795.307131</ele>
        <time>2022-04-25T09:08:12.876Z</time>
      </trkpt>
      <trkpt lat="41.7554" lon="20.84577">
        <ele>795.787359</ele>
        <time>2022-04-25T09:08:18.880Z</time>
      </trkpt>
      <trkpt lat="41.75537" lon="20.84564">
        <ele>796.34717</ele>
        <time>2022-04-25T09:08:25.870Z</time>
      </trkpt>
      <trkpt lat="41.75534" lon="20.84551">
        <ele>796.909395</ele>
        <time>2022-04-25T09:08:32.866Z</time>
      </trkpt>
      <trkpt lat="41.7553" lon="20.84539">
        <ele>797.443564</ele>
        <time>2022-04-25T09:08:38.900Z</time>
      </trkpt>
      <trkpt lat="41.75525" lon="20.84527">
        <ele>798.055418</ele>
        <time>2022-04-25T09:08:45.871Z</time>
      </trkpt>
      <trkpt lat="41.75519" lon="20.84516">
        <ele>798.610042</ele>
        <time>2022-04-25T09:08:51.863Z</time>
      </trkpt>
      <trkpt lat="41.75515" lon="20.84505">
        <ele>799.149961</ele>
        <time>2022-04-25T09:08:57.880Z</time>
      </trkpt>
      <trkpt lat="41.75509" lon="20.84495">
        <ele>799.711116</ele>
        <time>2022-04-25T09:09:04.875Z</time>
      </trkpt>
      <trkpt lat="41.75503" lon="20.84485">
        <ele>800.261482</ele>
        <time>2022-04-25T09:09:11.874Z</time>
      </trkpt>
      <trkpt lat="41.75497" lon="20.84475">
        <ele>800.815642</ele>
        <time>2022-04-25T09:09:18.867Z</time>
      </trkpt>
      <trkpt lat="41.75491" lon="20.84465">
        <ele>801.390325</ele>
        <time>2022-04-25T09:09:25.874Z</time>
      </trkpt>
      <trkpt lat="41.75485" lon="20.84455">
        <ele>801.91709</ele>
        <time>2022-04-25T09:09:31.872Z</time>
      </trkpt>
      <trkpt lat="41.75479" lon="20.84446">
        <ele>802.44471</ele>
        <time>2022-04-25T09:09:37.870Z</time>
      </trkpt>
      <trkpt lat="41.75471" lon="20.84438">
        <ele>803.02932</ele>
        <time>2022-04-25T09:09:45.867Z</time>
      </trkpt>
      <trkpt lat="41.75463" lon="20.8443">
        <ele>803.588673</ele>
        <time>2022-04-25T09:09:53.872Z</time>
      </trkpt>
      <trkpt lat="41.75456" lon="20.84423">
        <ele>804.122438</ele>
        <time>2022-04-25T09:09:59.880Z</time>
      </trkpt>
      <trkpt lat="41.75447" lon="20.84416">
        <ele>804.726406</ele>
        <time>2022-04-25T09:10:06.866Z</time>
      </trkpt>
      <trkpt lat="41.75438" lon="20.84409">
        <ele>805.306574</ele>
        <time>2022-04-25T09:10:13.894Z</time>
      </trkpt>
      <trkpt lat="41.7543" lon="20.84402">
        <ele>805.881022</ele>
        <time>2022-04-25T09:10:20.885Z</time>
      </trkpt>
      <trkpt lat="41.75421" lon="20.84395">
        <ele>806.471154</ele>
        <time>2022-04-25T09:10:27.868Z</time>
      </trkpt>
      <trkpt lat="41.75412" lon="20.84389">
        <ele>807.067067</ele>
        <time>2022-04-25T09:10:34.877Z</time>
      </trkpt>
      <trkpt lat="41.75403" lon="20.84383">
        <ele>807.635873</ele>
        <time>2022-04-25T09:10:41.906Z</time>
      </trkpt>
      <trkpt lat="41.75393" lon="20.84379">
        <ele>808.23604</ele>
        <time>2022-04-25T09:10:48.877Z</time>
      </trkpt>
      <trkpt lat="41.75383" lon="20.84375">
        <ele>808.831243</ele>
        <time>2022-04-25T09:10:55.877Z</time>
      </trkpt>
      <trkpt lat="41.75375" lon="20.84372">
        <ele>809.367535</ele>
        <time>2022-04-25T09:11:01.872Z</time>
      </trkpt>
      <trkpt lat="41.75365" lon="20.84368">
        <ele>809.923182</ele>
        <time>2022-04-25T09:11:08.873Z</time>
      </trkpt>
      <trkpt lat="41.75356" lon="20.84367">
        <ele>810.462782</ele>
        <time>2022-04-25T09:11:15.870Z</time>
      </trkpt>
      <trkpt lat="41.75346" lon="20.84366">
        <ele>811.078843</ele>
        <time>2022-04-25T09:11:22.874Z</time>
      </trkpt>
      <trkpt lat="41.75335" lon="20.84364">
        <ele>811.684256</ele>
        <time>2022-04-25T09:11:29.875Z</time>
      </trkpt>
      <trkpt lat="41.75327" lon="20.84361">
        <ele>812.219705</ele>
        <time>2022-04-25T09:11:35.867Z</time>
      </trkpt>
      <trkpt lat="41.75317" lon="20.84358">
        <ele>812.807851</ele>
        <time>2022-04-25T09:11:42.872Z</time>
      </trkpt>
      <trkpt lat="41.75308" lon="20.84357">
        <ele>813.346255</ele>
        <time>2022-04-25T09:11:49.866Z</time>
      </trkpt>
      <trkpt lat="41.75298" lon="20.84355">
        <ele>813.899164</ele>
        <time>2022-04-25T09:11:55.867Z</time>
      </trkpt>
      <trkpt lat="41.75288" lon="20.84353">
        <ele>814.500605</ele>
        <time>2022-04-25T09:12:02.874Z</time>
      </trkpt>
      <trkpt lat="41.75278" lon="20.84352">
        <ele>815.084663</ele>
        <time>2022-04-25T09:12:09.908Z</time>
      </trkpt>
      <trkpt lat="41.75269" lon="20.8435">
        <ele>815.63807</ele>
        <time>2022-04-25T09:12:15.872Z</time>
      </trkpt>
      <trkpt lat="41.75259" lon="20.84348">
        <ele>816.204166</ele>
        <time>2022-04-25T09:12:22.881Z</time>
      </trkpt>
      <trkpt lat="41.7525" lon="20.84345">
        <ele>816.755794</ele>
        <time>2022-04-25T09:12:29.870Z</time>
      </trkpt>
      <trkpt lat="41.7524" lon="20.84341">
        <ele>817.337402</ele>
        <time>2022-04-25T09:12:36.875Z</time>
      </trkpt>
      <trkpt lat="41.75231" lon="20.84338">
        <ele>817.914661</ele>
        <time>2022-04-25T09:12:43.867Z</time>
      </trkpt>
      <trkpt lat="41.75221" lon="20.84334">
        <ele>818.426667</ele>
        <time>2022-04-25T09:12:49.875Z</time>
      </trkpt>
      <trkpt lat="41.75212" lon="20.8433">
        <ele>818.931442</ele>
        <time>2022-04-25T09:12:55.875Z</time>
      </trkpt>
      <trkpt lat="41.75204" lon="20.84324">
        <ele>819.416788</ele>
        <time>2022-04-25T09:13:01.867Z</time>
      </trkpt>
      <trkpt lat="41.75196" lon="20.84317">
        <ele>819.911696</ele>
        <time>2022-04-25T09:13:07.867Z</time>
      </trkpt>
      <trkpt lat="41.75188" lon="20.8431">
        <ele>820.389321</ele>
        <time>2022-04-25T09:13:14.883Z</time>
      </trkpt>
      <trkpt lat="41.75181" lon="20.843">
        <ele>820.944412</ele>
        <time>2022-04-25T09:13:21.869Z</time>
      </trkpt>
      <trkpt lat="41.75175" lon="20.84289">
        <ele>821.476599</ele>
        <time>2022-04-25T09:13:28.873Z</time>
      </trkpt>
      <trkpt lat="41.75169" lon="20.84279">
        <ele>821.95592</ele>
        <time>2022-04-25T09:13:34.882Z</time>
      </trkpt>
      <trkpt lat="41.75165" lon="20.84268">
        <ele>822.427292</ele>
        <time>2022-04-25T09:13:41.870Z</time>
      </trkpt>
      <trkpt lat="41.75161" lon="20.84257">
        <ele>822.910432</ele>
        <time>2022-04-25T09:13:47.880Z</time>
      </trkpt>
      <trkpt lat="41.75159" lon="20.84244">
        <ele>823.434267</ele>
        <time>2022-04-25T09:13:54.869Z</time>
      </trkpt>
      <trkpt lat="41.75157" lon="20.84231">
        <ele>823.952315</ele>
        <time>2022-04-25T09:14:01.906Z</time>
      </trkpt>
      <trkpt lat="41.75155" lon="20.84218">
        <ele>824.457946</ele>
        <time>2022-04-25T09:14:08.876Z</time>
      </trkpt>
      <trkpt lat="41.75154" lon="20.84205">
        <ele>824.980714</ele>
        <time>2022-04-25T09:14:15.872Z</time>
      </trkpt>
      <trkpt lat="41.75151" lon="20.84192">
        <ele>825.500812</ele>
        <time>2022-04-25T09:14:22.878Z</time>
      </trkpt>
      <trkpt lat="41.75149" lon="20.84178">
        <ele>826.042047</ele>
        <time>2022-04-25T09:14:29.868Z</time>
      </trkpt>
      <trkpt lat="41.75148" lon="20.84166">
        <ele>826.520228</ele>
        <time>2022-04-25T09:14:36.892Z</time>
      </trkpt>
      <trkpt lat="41.75147" lon="20.84152">
        <ele>827.056331</ele>
        <time>2022-04-25T09:14:43.880Z</time>
      </trkpt>
      <trkpt lat="41.75146" lon="20.8414">
        <ele>827.633771</ele>
        <time>2022-04-25T09:14:50.873Z</time>
      </trkpt>
      <trkpt lat="41.75146" lon="20.84127">
        <ele>828.317087</ele>
        <time>2022-04-25T09:14:57.905Z</time>
      </trkpt>
      <trkpt lat="41.75145" lon="20.84114">
        <ele>829.000507</ele>
        <time>2022-04-25T09:15:04.878Z</time>
      </trkpt>
      <trkpt lat="41.75144" lon="20.84101">
        <ele>829.669257</ele>
        <time>2022-04-25T09:15:11.887Z</time>
      </trkpt>
      <trkpt lat="41.75143" lon="20.84087">
        <ele>830.380363</ele>
        <time>2022-04-25T09:15:18.885Z</time>
      </trkpt>
      <trkpt lat="41.75141" lon="20.84075">
        <ele>831.025182</ele>
        <time>2022-04-25T09:15:25.869Z</time>
      </trkpt>
      <trkpt lat="41.75137" lon="20.84064">
        <ele>831.647732</ele>
        <time>2022-04-25T09:15:31.868Z</time>
      </trkpt>
      <trkpt lat="41.75131" lon="20.84052">
        <ele>832.377994</ele>
        <time>2022-04-25T09:15:37.907Z</time>
      </trkpt>
      <trkpt lat="41.75126" lon="20.84042">
        <ele>833.02055</ele>
        <time>2022-04-25T09:15:43.872Z</time>
      </trkpt>
      <trkpt lat="41.7512" lon="20.84031">
        <ele>833.716473</ele>
        <time>2022-04-25T09:15:50.882Z</time>
      </trkpt>
      <trkpt lat="41.75113" lon="20.84021">
        <ele>834.405129</ele>
        <time>2022-04-25T09:15:57.875Z</time>
      </trkpt>
      <trkpt lat="41.75107" lon="20.84011">
        <ele>835.048526</ele>
        <time>2022-04-25T09:16:03.877Z</time>
      </trkpt>
      <trkpt lat="41.751" lon="20.84003">
        <ele>835.68354</ele>
        <time>2022-04-25T09:16:10.886Z</time>
      </trkpt>
      <trkpt lat="41.75093" lon="20.83995">
        <ele>836.327552</ele>
        <time>2022-04-25T09:16:17.874Z</time>
      </trkpt>
      <trkpt lat="41.75086" lon="20.83986">
        <ele>837.025903</ele>
        <time>2022-04-25T09:16:24.872Z</time>
      </trkpt>
      <trkpt lat="41.75078" lon="20.83978">
        <ele>837.716312</ele>
        <time>2022-04-25T09:16:31.877Z</time>
      </trkpt>
      <trkpt lat="41.7507" lon="20.8397">
        <ele>838.361422</ele>
        <time>2022-04-25T09:16:38.879Z</time>
      </trkpt>
      <trkpt lat="41.75063" lon="20.83962">
        <ele>839.039253</ele>
        <time>2022-04-25T09:16:45.868Z</time>
      </trkpt>
      <trkpt lat="41.75056" lon="20.83952">
        <ele>839.722056</ele>
        <time>2022-04-25T09:16:52.883Z</time>
      </trkpt>
      <trkpt lat="41.75049" lon="20.83944">
        <ele>840.513711</ele>
        <time>2022-04-25T09:16:59.865Z</time>
      </trkpt>
      <trkpt lat="41.75041" lon="20.83936">
        <ele>841.333688</ele>
        <time>2022-04-25T09:17:06.900Z</time>
      </trkpt>
      <trkpt lat="41.75034" lon="20.83928">
        <ele>842.102192</ele>
        <time>2022-04-25T09:17:12.886Z</time>
      </trkpt>
      <trkpt lat="41.75026" lon="20.83919">
        <ele>842.962137</ele>
        <time>2022-04-25T09:17:19.869Z</time>
      </trkpt>
      <trkpt lat="41.75017" lon="20.83914">
        <ele>843.722242</ele>
        <time>2022-04-25T09:17:26.879Z</time>
      </trkpt>
      <trkpt lat="41.75009" lon="20.83908">
        <ele>844.507032</ele>
        <time>2022-04-25T09:17:33.870Z</time>
      </trkpt>
      <trkpt lat="41.75001" lon="20.83902">
        <ele>845.252456</ele>
        <time>2022-04-25T09:17:39.889Z</time>
      </trkpt>
      <trkpt lat="41.74992" lon="20.83898">
        <ele>846.051461</ele>
        <time>2022-04-25T09:17:46.865Z</time>
      </trkpt>
      <trkpt lat="41.74982" lon="20.83894">
        <ele>846.886133</ele>
        <time>2022-04-25T09:17:53.871Z</time>
      </trkpt>
      <trkpt lat="41.74973" lon="20.83892">
        <ele>847.663121</ele>
        <time>2022-04-25T09:17:59.864Z</time>
      </trkpt>
      <trkpt lat="41.74964" lon="20.8389">
        <ele>848.455557</ele>
        <time>2022-04-25T09:18:06.864Z</time>
      </trkpt>
      <trkpt lat="41.74954" lon="20.83891">
        <ele>849.224292</ele>
        <time>2022-04-25T09:18:13.881Z</time>
      </trkpt>
      <trkpt lat="41.74945" lon="20.83892">
        <ele>850.010885</ele>
        <time>2022-04-25T09:18:20.874Z</time>
      </trkpt>
      <trkpt lat="41.74935" lon="20.83893">
        <ele>850.784543</ele>
        <time>2022-04-25T09:18:27.865Z</time>
      </trkpt>
      <trkpt lat="41.74926" lon="20.83897">
        <ele>851.582363</ele>
        <time>2022-04-25T09:18:34.877Z</time>
      </trkpt>
      <trkpt lat="41.74917" lon="20.83899">
        <ele>852.34502</ele>
        <time>2022-04-25T09:18:41.867Z</time>
      </trkpt>
      <trkpt lat="41.74908" lon="20.83902">
        <ele>853.152467</ele>
        <time>2022-04-25T09:18:48.865Z</time>
      </trkpt>
      <trkpt lat="41.74899" lon="20.83906">
        <ele>853.939696</ele>
        <time>2022-04-25T09:18:55.873Z</time>
      </trkpt>
      <trkpt lat="41.74889" lon="20.83909">
        <ele>854.543232</ele>
        <time>2022-04-25T09:19:01.866Z</time>
      </trkpt>
      <trkpt lat="41.7488" lon="20.83912">
        <ele>854.889004</ele>
        <time>2022-04-25T09:19:08.884Z</time>
      </trkpt>
      <trkpt lat="41.74871" lon="20.83913">
        <ele>855.230818</ele>
        <time>2022-04-25T09:19:15.866Z</time>
      </trkpt>
      <trkpt lat="41.74861" lon="20.83914">
        <ele>855.565062</ele>
        <time>2022-04-25T09:19:22.881Z</time>
      </trkpt>
      <trkpt lat="41.74851" lon="20.83913">
        <ele>855.927274</ele>
        <time>2022-04-25T09:19:29.869Z</time>
      </trkpt>
      <trkpt lat="41.74842" lon="20.83912">
        <ele>856.268868</ele>
        <time>2022-04-25T09:19:35.865Z</time>
      </trkpt>
      <trkpt lat="41.74831" lon="20.8391">
        <ele>856.640098</ele>
        <time>2022-04-25T09:19:42.876Z</time>
      </trkpt>
      <trkpt lat="41.74822" lon="20.83906">
        <ele>856.985991</ele>
        <time>2022-04-25T09:19:49.866Z</time>
      </trkpt>
      <trkpt lat="41.74813" lon="20.83899">
        <ele>857.368336</ele>
        <time>2022-04-25T09:19:56.878Z</time>
      </trkpt>
      <trkpt lat="41.74805" lon="20.83892">
        <ele>857.719739</ele>
        <time>2022-04-25T09:20:03.869Z</time>
      </trkpt>
      <trkpt lat="41.74798" lon="20.83883">
        <ele>858.052261</ele>
        <time>2022-04-25T09:20:09.870Z</time>
      </trkpt>
      <trkpt lat="41.74791" lon="20.83874">
        <ele>858.408805</ele>
        <time>2022-04-25T09:20:16.883Z</time>
      </trkpt>
      <trkpt lat="41.74783" lon="20.83867">
        <ele>858.74554</ele>
        <time>2022-04-25T09:20:23.877Z</time>
      </trkpt>
      <trkpt lat="41.74775" lon="20.83858">
        <ele>859.118777</ele>
        <time>2022-04-25T09:20:30.890Z</time>
      </trkpt>
      <trkpt lat="41.74768" lon="20.83849">
        <ele>859.467252</ele>
        <time>2022-04-25T09:20:37.867Z</time>
      </trkpt>
      <trkpt lat="41.7476" lon="20.8384">
        <ele>859.849506</ele>
        <time>2022-04-25T09:20:45.865Z</time>
      </trkpt>
      <trkpt lat="41.74753" lon="20.8383">
        <ele>860.216822</ele>
        <time>2022-04-25T09:20:52.873Z</time>
      </trkpt>
      <trkpt lat="41.74746" lon="20.8382">
        <ele>860.560218</ele>
        <time>2022-04-25T09:20:58.870Z</time>
      </trkpt>
      <trkpt lat="41.74739" lon="20.83812">
        <ele>860.894402</ele>
        <time>2022-04-25T09:21:05.877Z</time>
      </trkpt>
      <trkpt lat="41.74733" lon="20.83802">
        <ele>861.126531</ele>
        <time>2022-04-25T09:21:12.871Z</time>
      </trkpt>
      <trkpt lat="41.74727" lon="20.83792">
        <ele>861.36023</ele>
        <time>2022-04-25T09:21:19.865Z</time>
      </trkpt>
      <trkpt lat="41.74721" lon="20.83782">
        <ele>861.597992</ele>
        <time>2022-04-25T09:21:27.867Z</time>
      </trkpt>
      <trkpt lat="41.74715" lon="20.83771">
        <ele>861.832744</ele>
        <time>2022-04-25T09:21:35.866Z</time>
      </trkpt>
      <trkpt lat="41.74709" lon="20.83761">
        <ele>862.074788</ele>
        <time>2022-04-25T09:21:42.874Z</time>
      </trkpt>
      <trkpt lat="41.74703" lon="20.8375">
        <ele>862.315343</ele>
        <time>2022-04-25T09:21:49.868Z</time>
      </trkpt>
      <trkpt lat="41.74698" lon="20.83738">
        <ele>862.56148</ele>
        <time>2022-04-25T09:21:57.872Z</time>
      </trkpt>
      <trkpt lat="41.74694" lon="20.83727">
        <ele>862.789652</ele>
        <time>2022-04-25T09:22:04.888Z</time>
      </trkpt>
      <trkpt lat="41.74688" lon="20.83717">
        <ele>863.021603</ele>
        <time>2022-04-25T09:22:12.882Z</time>
      </trkpt>
      <trkpt lat="41.74683" lon="20.83707">
        <ele>863.246444</ele>
        <time>2022-04-25T09:22:19.900Z</time>
      </trkpt>
      <trkpt lat="41.74678" lon="20.83695">
        <ele>863.490892</ele>
        <time>2022-04-25T09:22:26.888Z</time>
      </trkpt>
      <trkpt lat="41.74672" lon="20.83684">
        <ele>863.743174</ele>
        <time>2022-04-25T09:22:33.899Z</time>
      </trkpt>
      <trkpt lat="41.74665" lon="20.83674">
        <ele>863.98854</ele>
        <time>2022-04-25T09:22:40.891Z</time>
      </trkpt>
      <trkpt lat="41.74659" lon="20.83663">
        <ele>864.235715</ele>
        <time>2022-04-25T09:22:47.909Z</time>
      </trkpt>
      <trkpt lat="41.74652" lon="20.83654">
        <ele>864.472165</ele>
        <time>2022-04-25T09:22:54.905Z</time>
      </trkpt>
      <trkpt lat="41.74645" lon="20.83646">
        <ele>864.696972</ele>
        <time>2022-04-25T09:23:01.904Z</time>
      </trkpt>
      <trkpt lat="41.74637" lon="20.83639">
        <ele>864.933974</ele>
        <time>2022-04-25T09:23:08.902Z</time>
      </trkpt>
      <trkpt lat="41.74629" lon="20.83631">
        <ele>865.165394</ele>
        <time>2022-04-25T09:23:14.898Z</time>
      </trkpt>
      <trkpt lat="41.74621" lon="20.83625">
        <ele>865.622719</ele>
        <time>2022-04-25T09:23:20.946Z</time>
      </trkpt>
      <trkpt lat="41.74613" lon="20.8362">
        <ele>866.245403</ele>
        <time>2022-04-25T09:23:27.892Z</time>
      </trkpt>
      <trkpt lat="41.74604" lon="20.83615">
        <ele>866.83851</ele>
        <time>2022-04-25T09:23:33.899Z</time>
      </trkpt>
      <trkpt lat="41.74596" lon="20.8361">
        <ele>867.459393</ele>
        <time>2022-04-25T09:23:40.910Z</time>
      </trkpt>
      <trkpt lat="41.74586" lon="20.83605">
        <ele>868.110503</ele>
        <time>2022-04-25T09:23:47.884Z</time>
      </trkpt>
      <trkpt lat="41.74578" lon="20.83601">
        <ele>868.702069</ele>
        <time>2022-04-25T09:23:53.905Z</time>
      </trkpt>
      <trkpt lat="41.74568" lon="20.83599">
        <ele>869.323824</ele>
        <time>2022-04-25T09:24:00.918Z</time>
      </trkpt>
      <trkpt lat="41.74559" lon="20.83595">
        <ele>869.938657</ele>
        <time>2022-04-25T09:24:06.905Z</time>
      </trkpt>
      <trkpt lat="41.74549" lon="20.83594">
        <ele>870.611543</ele>
        <time>2022-04-25T09:24:12.891Z</time>
      </trkpt>
      <trkpt lat="41.7454" lon="20.83592">
        <ele>871.19731</ele>
        <time>2022-04-25T09:24:18.901Z</time>
      </trkpt>
      <trkpt lat="41.74531" lon="20.8359">
        <ele>871.827212</ele>
        <time>2022-04-25T09:24:25.892Z</time>
      </trkpt>
      <trkpt lat="41.74521" lon="20.83588">
        <ele>872.487513</ele>
        <time>2022-04-25T09:24:32.894Z</time>
      </trkpt>
      <trkpt lat="41.74511" lon="20.83585">
        <ele>873.109668</ele>
        <time>2022-04-25T09:24:39.897Z</time>
      </trkpt>
      <trkpt lat="41.74502" lon="20.83583">
        <ele>873.699356</ele>
        <time>2022-04-25T09:24:45.902Z</time>
      </trkpt>
      <trkpt lat="41.74493" lon="20.83581">
        <ele>874.293009</ele>
        <time>2022-04-25T09:24:51.884Z</time>
      </trkpt>
      <trkpt lat="41.74484" lon="20.83579">
        <ele>874.895516</ele>
        <time>2022-04-25T09:24:57.928Z</time>
      </trkpt>
      <trkpt lat="41.74474" lon="20.83577">
        <ele>875.560757</ele>
        <time>2022-04-25T09:25:04.905Z</time>
      </trkpt>
      <trkpt lat="41.74465" lon="20.83574">
        <ele>876.156854</ele>
        <time>2022-04-25T09:25:10.892Z</time>
      </trkpt>
      <trkpt lat="41.74455" lon="20.83572">
        <ele>876.814187</ele>
        <time>2022-04-25T09:25:17.898Z</time>
      </trkpt>
      <trkpt lat="41.74446" lon="20.83569">
        <ele>877.430256</ele>
        <time>2022-04-25T09:25:25.907Z</time>
      </trkpt>
      <trkpt lat="41.74437" lon="20.83566">
        <ele>877.996102</ele>
        <time>2022-04-25T09:25:31.891Z</time>
      </trkpt>
      <trkpt lat="41.74427" lon="20.83563">
        <ele>878.607464</ele>
        <time>2022-04-25T09:25:37.891Z</time>
      </trkpt>
      <trkpt lat="41.74417" lon="20.83559">
        <ele>879.242901</ele>
        <time>2022-04-25T09:25:43.985Z</time>
      </trkpt>
      <trkpt lat="41.74408" lon="20.83556">
        <ele>879.805616</ele>
        <time>2022-04-25T09:25:49.892Z</time>
      </trkpt>
      <trkpt lat="41.74399" lon="20.83551">
        <ele>880.388581</ele>
        <time>2022-04-25T09:25:56.907Z</time>
      </trkpt>
      <trkpt lat="41.74391" lon="20.83546">
        <ele>880.955042</ele>
        <time>2022-04-25T09:26:02.892Z</time>
      </trkpt>
      <trkpt lat="41.74381" lon="20.83543">
        <ele>881.532737</ele>
        <time>2022-04-25T09:26:08.893Z</time>
      </trkpt>
      <trkpt lat="41.74373" lon="20.83536">
        <ele>882.154786</ele>
        <time>2022-04-25T09:26:15.892Z</time>
      </trkpt>
      <trkpt lat="41.74364" lon="20.83528">
        <ele>882.781742</ele>
        <time>2022-04-25T09:26:22.886Z</time>
      </trkpt>
      <trkpt lat="41.74356" lon="20.83522">
        <ele>883.350761</ele>
        <time>2022-04-25T09:26:29.889Z</time>
      </trkpt>
      <trkpt lat="41.74347" lon="20.83516">
        <ele>883.962749</ele>
        <time>2022-04-25T09:26:36.890Z</time>
      </trkpt>
      <trkpt lat="41.74339" lon="20.8351">
        <ele>884.531166</ele>
        <time>2022-04-25T09:26:43.913Z</time>
      </trkpt>
      <trkpt lat="41.74331" lon="20.83503">
        <ele>885.099393</ele>
        <time>2022-04-25T09:26:51.906Z</time>
      </trkpt>
      <trkpt lat="41.74323" lon="20.83497">
        <ele>885.702731</ele>
        <time>2022-04-25T09:26:59.892Z</time>
      </trkpt>
      <trkpt lat="41.74313" lon="20.83491">
        <ele>886.321127</ele>
        <time>2022-04-25T09:27:06.908Z</time>
      </trkpt>
      <trkpt lat="41.74305" lon="20.83485">
        <ele>886.912926</ele>
        <time>2022-04-25T09:27:13.876Z</time>
      </trkpt>
      <trkpt lat="41.74297" lon="20.83478">
        <ele>887.500226</ele>
        <time>2022-04-25T09:27:20.907Z</time>
      </trkpt>
      <trkpt lat="41.74289" lon="20.83472">
        <ele>888.07713</ele>
        <time>2022-04-25T09:27:28.939Z</time>
      </trkpt>
      <trkpt lat="41.7428" lon="20.83465">
        <ele>888.828488</ele>
        <time>2022-04-25T09:27:35.892Z</time>
      </trkpt>
      <trkpt lat="41.74273" lon="20.83457">
        <ele>889.510053</ele>
        <time>2022-04-25T09:27:41.907Z</time>
      </trkpt>
      <trkpt lat="41.74265" lon="20.83451">
        <ele>890.20498</ele>
        <time>2022-04-25T09:27:47.906Z</time>
      </trkpt>
      <trkpt lat="41.74256" lon="20.83445">
        <ele>890.924984</ele>
        <time>2022-04-25T09:27:53.889Z</time>
      </trkpt>
      <trkpt lat="41.74246" lon="20.8344">
        <ele>891.710123</ele>
        <time>2022-04-25T09:27:59.891Z</time>
      </trkpt>
      <trkpt lat="41.74237" lon="20.83437">
        <ele>892.454986</ele>
        <time>2022-04-25T09:28:05.903Z</time>
      </trkpt>
      <trkpt lat="41.74227" lon="20.83435">
        <ele>893.183956</ele>
        <time>2022-04-25T09:28:11.883Z</time>
      </trkpt>
      <trkpt lat="41.74217" lon="20.83433">
        <ele>893.884765</ele>
        <time>2022-04-25T09:28:17.930Z</time>
      </trkpt>
      <trkpt lat="41.74208" lon="20.83432">
        <ele>894.569688</ele>
        <time>2022-04-25T09:28:23.910Z</time>
      </trkpt>
      <trkpt lat="41.74198" lon="20.83432">
        <ele>895.340486</ele>
        <time>2022-04-25T09:28:30.897Z</time>
      </trkpt>
      <trkpt lat="41.74188" lon="20.83433">
        <ele>896.06136</ele>
        <time>2022-04-25T09:28:36.886Z</time>
      </trkpt>
      <trkpt lat="41.74179" lon="20.83436">
        <ele>896.754821</ele>
        <time>2022-04-25T09:28:42.898Z</time>
      </trkpt>
      <trkpt lat="41.74169" lon="20.83437">
        <ele>897.500428</ele>
        <time>2022-04-25T09:28:49.890Z</time>
      </trkpt>
      <trkpt lat="41.7416" lon="20.8344">
        <ele>898.180384</ele>
        <time>2022-04-25T09:28:56.894Z</time>
      </trkpt>
      <trkpt lat="41.74151" lon="20.83444">
        <ele>898.885228</ele>
        <time>2022-04-25T09:29:03.901Z</time>
      </trkpt>
      <trkpt lat="41.74142" lon="20.83448">
        <ele>899.624758</ele>
        <time>2022-04-25T09:29:11.899Z</time>
      </trkpt>
      <trkpt lat="41.74132" lon="20.83453">
        <ele>900.357784</ele>
        <time>2022-04-25T09:29:19.901Z</time>
      </trkpt>
      <trkpt lat="41.74125" lon="20.8346">
        <ele>901.044245</ele>
        <time>2022-04-25T09:29:26.905Z</time>
      </trkpt>
      <trkpt lat="41.74117" lon="20.83468">
        <ele>901.808343</ele>
        <time>2022-04-25T09:29:35.897Z</time>
      </trkpt>
      <trkpt lat="41.74109" lon="20.83476">
        <ele>902.66994</ele>
        <time>2022-04-25T09:29:43.904Z</time>
      </trkpt>
      <trkpt lat="41.74101" lon="20.83483">
        <ele>903.471557</ele>
        <time>2022-04-25T09:29:50.944Z</time>
      </trkpt>
      <trkpt lat="41.74092" lon="20.83489">
        <ele>904.310987</ele>
        <time>2022-04-25T09:29:56.891Z</time>
      </trkpt>
      <trkpt lat="41.74084" lon="20.83495">
        <ele>905.109203</ele>
        <time>2022-04-25T09:30:02.889Z</time>
      </trkpt>
      <trkpt lat="41.74076" lon="20.83502">
        <ele>905.882827</ele>
        <time>2022-04-25T09:30:08.896Z</time>
      </trkpt>
      <trkpt lat="41.74067" lon="20.8351">
        <ele>906.764957</ele>
        <time>2022-04-25T09:30:14.895Z</time>
      </trkpt>
      <trkpt lat="41.7406" lon="20.83518">
        <ele>907.55896</ele>
        <time>2022-04-25T09:30:20.901Z</time>
      </trkpt>
      <trkpt lat="41.74053" lon="20.83526">
        <ele>908.351189</ele>
        <time>2022-04-25T09:30:27.881Z</time>
      </trkpt>
      <trkpt lat="41.74046" lon="20.83535">
        <ele>909.176649</ele>
        <time>2022-04-25T09:30:35.946Z</time>
      </trkpt>
      <trkpt lat="41.74039" lon="20.83544">
        <ele>909.948086</ele>
        <time>2022-04-25T09:30:43.906Z</time>
      </trkpt>
      <trkpt lat="41.74032" lon="20.83553">
        <ele>910.788289</ele>
        <time>2022-04-25T09:30:51.906Z</time>
      </trkpt>
      <trkpt lat="41.74024" lon="20.83562">
        <ele>911.663961</ele>
        <time>2022-04-25T09:30:59.912Z</time>
      </trkpt>
      <trkpt lat="41.74016" lon="20.83569">
        <ele>912.48675</ele>
        <time>2022-04-25T09:31:06.902Z</time>
      </trkpt>
      <trkpt lat="41.74009" lon="20.83578">
        <ele>913.301726</ele>
        <time>2022-04-25T09:31:13.903Z</time>
      </trkpt>
      <trkpt lat="41.74001" lon="20.83586">
        <ele>914.159672</ele>
        <time>2022-04-25T09:31:21.898Z</time>
      </trkpt>
      <trkpt lat="41.73993" lon="20.83594">
        <ele>914.997946</ele>
        <time>2022-04-25T09:31:28.884Z</time>
      </trkpt>
      <trkpt lat="41.73985" lon="20.83602">
        <ele>915.847816</ele>
        <time>2022-04-25T09:31:35.899Z</time>
      </trkpt>
      <trkpt lat="41.73977" lon="20.83609">
        <ele>916.580962</ele>
        <time>2022-04-25T09:31:42.898Z</time>
      </trkpt>
      <trkpt lat="41.73968" lon="20.83615">
        <ele>917.145555</ele>
        <time>2022-04-25T09:31:50.912Z</time>
      </trkpt>
      <trkpt lat="41.73959" lon="20.83619">
        <ele>917.707861</ele>
        <time>2022-04-25T09:31:58.902Z</time>
      </trkpt>
      <trkpt lat="41.73951" lon="20.83625">
        <ele>918.242943</ele>
        <time>2022-04-25T09:32:07.898Z</time>
      </trkpt>
      <trkpt lat="41.73942" lon="20.83628">
        <ele>918.788393</ele>
        <time>2022-04-25T09:32:15.880Z</time>
      </trkpt>
      <trkpt lat="41.73932" lon="20.83631">
        <ele>919.374283</ele>
        <time>2022-04-25T09:32:23.932Z</time>
      </trkpt>
      <trkpt lat="41.73923" lon="20.83633">
        <ele>919.90321</ele>
        <time>2022-04-25T09:32:30.898Z</time>
      </trkpt>
      <trkpt lat="41.73914" lon="20.83635">
        <ele>920.434421</ele>
        <time>2022-04-25T09:32:37.872Z</time>
      </trkpt>
      <trkpt lat="41.73904" lon="20.83635">
        <ele>920.978043</ele>
        <time>2022-04-25T09:32:44.900Z</time>
      </trkpt>
      <trkpt lat="41.73895" lon="20.83635">
        <ele>921.510805</ele>
        <time>2022-04-25T09:32:53.899Z</time>
      </trkpt>
      <trkpt lat="41.73885" lon="20.83634">
        <ele>922.077417</ele>
        <time>2022-04-25T09:33:03.890Z</time>
      </trkpt>
      <trkpt lat="41.73876" lon="20.83636">
        <ele>922.640234</ele>
        <time>2022-04-25T09:33:11.893Z</time>
      </trkpt>
      <trkpt lat="41.73866" lon="20.83635">
        <ele>923.172157</ele>
        <time>2022-04-25T09:33:20.905Z</time>
      </trkpt>
      <trkpt lat="41.73857" lon="20.83635">
        <ele>923.704919</ele>
        <time>2022-04-25T09:33:30.889Z</time>
      </trkpt>
      <trkpt lat="41.73847" lon="20.83635">
        <ele>924.277361</ele>
        <time>2022-04-25T09:33:37.900Z</time>
      </trkpt>
      <trkpt lat="41.73837" lon="20.83634">
        <ele>924.873629</ele>
        <time>2022-04-25T09:33:45.906Z</time>
      </trkpt>
      <trkpt lat="41.73827" lon="20.83634">
        <ele>925.440634</ele>
        <time>2022-04-25T09:33:54.882Z</time>
      </trkpt>
      <trkpt lat="41.73818" lon="20.83633">
        <ele>925.9672</ele>
        <time>2022-04-25T09:34:03.893Z</time>
      </trkpt>
      <trkpt lat="41.73809" lon="20.83633">
        <ele>926.516518</ele>
        <time>2022-04-25T09:34:12.893Z</time>
      </trkpt>
      <trkpt lat="41.73798" lon="20.83636">
        <ele>927.107627</ele>
        <time>2022-04-25T09:34:21.881Z</time>
      </trkpt>
      <trkpt lat="41.7379" lon="20.83641">
        <ele>927.643009</ele>
        <time>2022-04-25T09:34:28.941Z</time>
      </trkpt>
      <trkpt lat="41.73781" lon="20.83645">
        <ele>928.162933</ele>
        <time>2022-04-25T09:34:35.891Z</time>
      </trkpt>
      <trkpt lat="41.73773" lon="20.8365">
        <ele>928.7103</ele>
        <time>2022-04-25T09:34:42.879Z</time>
      </trkpt>
      <trkpt lat="41.73763" lon="20.83655">
        <ele>929.294783</ele>
        <time>2022-04-25T09:34:52.884Z</time>
      </trkpt>
      <trkpt lat="41.73754" lon="20.83659">
        <ele>929.854179</ele>
        <time>2022-04-25T09:34:59.898Z</time>
      </trkpt>
      <trkpt lat="41.73745" lon="20.83666">
        <ele>930.422523</ele>
        <time>2022-04-25T09:35:08.894Z</time>
      </trkpt>
      <trkpt lat="41.73736" lon="20.8367">
        <ele>930.961909</ele>
        <time>2022-04-25T09:35:17.888Z</time>
      </trkpt>
      <trkpt lat="41.73728" lon="20.83676">
        <ele>931.488421</ele>
        <time>2022-04-25T09:35:25.906Z</time>
      </trkpt>
      <trkpt lat="41.7372" lon="20.83682">
        <ele>932.037594</ele>
        <time>2022-04-25T09:35:35.923Z</time>
      </trkpt>
      <trkpt lat="41.73711" lon="20.83687">
        <ele>932.560486</ele>
        <time>2022-04-25T09:35:45.872Z</time>
      </trkpt>
      <trkpt lat="41.73702" lon="20.83693">
        <ele>933.153434</ele>
        <time>2022-04-25T09:35:54.903Z</time>
      </trkpt>
      <trkpt lat="41.73694" lon="20.83698">
        <ele>933.673084</ele>
        <time>2022-04-25T09:36:01.898Z</time>
      </trkpt>
      <trkpt lat="41.73684" lon="20.83702">
        <ele>934.237878</ele>
        <time>2022-04-25T09:36:10.903Z</time>
      </trkpt>
      <trkpt lat="41.73675" lon="20.83707">
        <ele>934.830506</ele>
        <time>2022-04-25T09:36:18.895Z</time>
      </trkpt>
      <trkpt lat="41.73665" lon="20.8371">
        <ele>935.395013</ele>
        <time>2022-04-25T09:36:26.900Z</time>
      </trkpt>
      <trkpt lat="41.73656" lon="20.83712">
        <ele>935.952858</ele>
        <time>2022-04-25T09:36:34.897Z</time>
      </trkpt>
      <trkpt lat="41.73646" lon="20.83712">
        <ele>936.479778</ele>
        <time>2022-04-25T09:36:42.887Z</time>
      </trkpt>
      <trkpt lat="41.73636" lon="20.83711">
        <ele>937.053016</ele>
        <time>2022-04-25T09:36:49.930Z</time>
      </trkpt>
      <trkpt lat="41.73628" lon="20.83715">
        <ele>937.087774</ele>
        <time>2022-04-25T09:36:58.901Z</time>
      </trkpt>
      <trkpt lat="41.73619" lon="20.83721">
        <ele>937.044078</ele>
        <time>2022-04-25T09:37:07.906Z</time>
      </trkpt>
      <trkpt lat="41.73599" lon="20.83702">
        <ele>936.927908</ele>
        <time>2022-04-25T09:47:56.929Z</time>
      </trkpt>
      <trkpt lat="41.73591" lon="20.83696">
        <ele>936.885573</ele>
        <time>2022-04-25T09:48:01.894Z</time>
      </trkpt>
      <trkpt lat="41.73583" lon="20.83687">
        <ele>936.834786</ele>
        <time>2022-04-25T09:48:06.890Z</time>
      </trkpt>
      <trkpt lat="41.73574" lon="20.83678">
        <ele>936.786856</ele>
        <time>2022-04-25T09:48:10.869Z</time>
      </trkpt>
      <trkpt lat="41.73569" lon="20.83668">
        <ele>936.743857</ele>
        <time>2022-04-25T09:48:13.893Z</time>
      </trkpt>
      <trkpt lat="41.73564" lon="20.83657">
        <ele>936.69899</ele>
        <time>2022-04-25T09:48:16.942Z</time>
      </trkpt>
      <trkpt lat="41.7356" lon="20.83645">
        <ele>936.649962</ele>
        <time>2022-04-25T09:48:19.890Z</time>
      </trkpt>
      <trkpt lat="41.73556" lon="20.83629">
        <ele>936.592831</ele>
        <time>2022-04-25T09:48:22.919Z</time>
      </trkpt>
      <trkpt lat="41.73553" lon="20.83617">
        <ele>936.549076</ele>
        <time>2022-04-25T09:48:24.901Z</time>
      </trkpt>
      <trkpt lat="41.7355" lon="20.83605">
        <ele>936.503537</ele>
        <time>2022-04-25T09:48:26.898Z</time>
      </trkpt>
      <trkpt lat="41.73548" lon="20.83591">
        <ele>936.454889</ele>
        <time>2022-04-25T09:48:28.900Z</time>
      </trkpt>
      <trkpt lat="41.73547" lon="20.83576">
        <ele>936.402726</ele>
        <time>2022-04-25T09:48:30.901Z</time>
      </trkpt>
      <trkpt lat="41.73545" lon="20.8356">
        <ele>936.347079</ele>
        <time>2022-04-25T09:48:32.901Z</time>
      </trkpt>
      <trkpt lat="41.73542" lon="20.83544">
        <ele>936.289357</ele>
        <time>2022-04-25T09:48:34.885Z</time>
      </trkpt>
      <trkpt lat="41.73539" lon="20.83527">
        <ele>935.675354</ele>
        <time>2022-04-25T09:48:36.870Z</time>
      </trkpt>
      <trkpt lat="41.73535" lon="20.83509">
        <ele>934.995354</ele>
        <time>2022-04-25T09:48:38.869Z</time>
      </trkpt>
      <trkpt lat="41.73529" lon="20.83492">
        <ele>934.289354</ele>
        <time>2022-04-25T09:48:40.874Z</time>
      </trkpt>
      <trkpt lat="41.7352" lon="20.83476">
        <ele>933.55153</ele>
        <time>2022-04-25T09:48:42.980Z</time>
      </trkpt>
      <trkpt lat="41.7351" lon="20.8346">
        <ele>932.768115</ele>
        <time>2022-04-25T09:48:44.872Z</time>
      </trkpt>
      <trkpt lat="41.73499" lon="20.83442">
        <ele>931.917717</ele>
        <time>2022-04-25T09:48:46.873Z</time>
      </trkpt>
      <trkpt lat="41.73488" lon="20.83425">
        <ele>931.077827</ele>
        <time>2022-04-25T09:48:48.866Z</time>
      </trkpt>
      <trkpt lat="41.73476" lon="20.83408">
        <ele>930.223069</ele>
        <time>2022-04-25T09:48:50.871Z</time>
      </trkpt>
      <trkpt lat="41.73465" lon="20.8339">
        <ele>929.362513</ele>
        <time>2022-04-25T09:48:52.876Z</time>
      </trkpt>
      <trkpt lat="41.73455" lon="20.83372">
        <ele>928.53553</ele>
        <time>2022-04-25T09:48:54.874Z</time>
      </trkpt>
      <trkpt lat="41.73448" lon="20.83357">
        <ele>927.87455</ele>
        <time>2022-04-25T09:48:56.877Z</time>
      </trkpt>
      <trkpt lat="41.73441" lon="20.83344">
        <ele>927.311913</ele>
        <time>2022-04-25T09:48:58.870Z</time>
      </trkpt>
      <trkpt lat="41.73433" lon="20.83331">
        <ele>926.840709</ele>
        <time>2022-04-25T09:49:00.886Z</time>
      </trkpt>
      <trkpt lat="41.73426" lon="20.83319">
        <ele>926.388171</ele>
        <time>2022-04-25T09:49:02.870Z</time>
      </trkpt>
      <trkpt lat="41.73421" lon="20.83307">
        <ele>925.976638</ele>
        <time>2022-04-25T09:49:04.879Z</time>
      </trkpt>
      <trkpt lat="41.73414" lon="20.83297">
        <ele>925.595907</ele>
        <time>2022-04-25T09:49:06.871Z</time>
      </trkpt>
      <trkpt lat="41.73408" lon="20.83286">
        <ele>925.201402</ele>
        <time>2022-04-25T09:49:08.863Z</time>
      </trkpt>
      <trkpt lat="41.73401" lon="20.83274">
        <ele>924.766762</ele>
        <time>2022-04-25T09:49:10.869Z</time>
      </trkpt>
      <trkpt lat="41.73392" lon="20.83263">
        <ele>924.297856</ele>
        <time>2022-04-25T09:49:12.904Z</time>
      </trkpt>
      <trkpt lat="41.73382" lon="20.83255">
        <ele>923.82189</ele>
        <time>2022-04-25T09:49:14.869Z</time>
      </trkpt>
      <trkpt lat="41.73371" lon="20.8325">
        <ele>923.382194</ele>
        <time>2022-04-25T09:49:16.863Z</time>
      </trkpt>
      <trkpt lat="41.7336" lon="20.83247">
        <ele>922.947303</ele>
        <time>2022-04-25T09:49:18.872Z</time>
      </trkpt>
      <trkpt lat="41.7335" lon="20.83244">
        <ele>922.548796</ele>
        <time>2022-04-25T09:49:20.862Z</time>
      </trkpt>
      <trkpt lat="41.73341" lon="20.83245">
        <ele>922.194958</ele>
        <time>2022-04-25T09:49:22.938Z</time>
      </trkpt>
      <trkpt lat="41.7333" lon="20.83249">
        <ele>921.766914</ele>
        <time>2022-04-25T09:49:25.865Z</time>
      </trkpt>
      <trkpt lat="41.7332" lon="20.83254">
        <ele>921.339419</ele>
        <time>2022-04-25T09:49:29.888Z</time>
      </trkpt>
      <trkpt lat="41.73313" lon="20.83263">
        <ele>920.96983</ele>
        <time>2022-04-25T09:49:33.862Z</time>
      </trkpt>
      <trkpt lat="41.73305" lon="20.83273">
        <ele>920.548178</ele>
        <time>2022-04-25T09:49:38.869Z</time>
      </trkpt>
      <trkpt lat="41.73299" lon="20.83282">
        <ele>920.88996</ele>
        <time>2022-04-25T09:49:42.865Z</time>
      </trkpt>
      <trkpt lat="41.73293" lon="20.83291">
        <ele>921.740989</ele>
        <time>2022-04-25T09:49:46.872Z</time>
      </trkpt>
      <trkpt lat="41.73287" lon="20.83301">
        <ele>922.597785</ele>
        <time>2022-04-25T09:49:50.866Z</time>
      </trkpt>
      <trkpt lat="41.73284" lon="20.83313">
        <ele>923.434959</ele>
        <time>2022-04-25T09:49:55.862Z</time>
      </trkpt>
      <trkpt lat="41.73282" lon="20.83326">
        <ele>924.352348</ele>
        <time>2022-04-25T09:50:01.861Z</time>
      </trkpt>
      <trkpt lat="41.73282" lon="20.83338">
        <ele>925.182635</ele>
        <time>2022-04-25T09:50:07.867Z</time>
      </trkpt>
      <trkpt lat="41.73285" lon="20.83349">
        <ele>926.021136</ele>
        <time>2022-04-25T09:50:12.878Z</time>
      </trkpt>
      <trkpt lat="41.73287" lon="20.83363">
        <ele>926.93827</ele>
        <time>2022-04-25T09:50:19.860Z</time>
      </trkpt>
      <trkpt lat="41.73288" lon="20.83375">
        <ele>927.768496</ele>
        <time>2022-04-25T09:50:26.875Z</time>
      </trkpt>
      <trkpt lat="41.7329" lon="20.83387">
        <ele>928.6345</ele>
        <time>2022-04-25T09:50:33.862Z</time>
      </trkpt>
      <trkpt lat="41.73294" lon="20.834">
        <ele>929.584625</ele>
        <time>2022-04-25T09:50:40.864Z</time>
      </trkpt>
      <trkpt lat="41.73297" lon="20.83411">
        <ele>930.416585</ele>
        <time>2022-04-25T09:50:47.864Z</time>
      </trkpt>
      <trkpt lat="41.73299" lon="20.83423">
        <ele>931.267192</ele>
        <time>2022-04-25T09:50:54.866Z</time>
      </trkpt>
      <trkpt lat="41.73303" lon="20.83436">
        <ele>932.178114</ele>
        <time>2022-04-25T09:51:01.869Z</time>
      </trkpt>
      <trkpt lat="41.73305" lon="20.83449">
        <ele>933.103903</ele>
        <time>2022-04-25T09:51:08.887Z</time>
      </trkpt>
      <trkpt lat="41.73307" lon="20.83462">
        <ele>934.036114</ele>
        <time>2022-04-25T09:51:16.886Z</time>
      </trkpt>
      <trkpt lat="41.73309" lon="20.83476">
        <ele>934.969992</ele>
        <time>2022-04-25T09:51:24.866Z</time>
      </trkpt>
      <trkpt lat="41.7331" lon="20.83489">
        <ele>935.896532</ele>
        <time>2022-04-25T09:51:31.870Z</time>
      </trkpt>
      <trkpt lat="41.7331" lon="20.83502">
        <ele>936.786799</ele>
        <time>2022-04-25T09:51:37.867Z</time>
      </trkpt>
      <trkpt lat="41.7331" lon="20.83516">
        <ele>937.639754</ele>
        <time>2022-04-25T09:51:44.879Z</time>
      </trkpt>
      <trkpt lat="41.7331" lon="20.83529">
        <ele>938.470239</ele>
        <time>2022-04-25T09:51:52.894Z</time>
      </trkpt>
      <trkpt lat="41.73308" lon="20.83541">
        <ele>939.272247</ele>
        <time>2022-04-25T09:51:59.863Z</time>
      </trkpt>
      <trkpt lat="41.73305" lon="20.83554">
        <ele>940.098563</ele>
        <time>2022-04-25T09:52:06.885Z</time>
      </trkpt>
      <trkpt lat="41.73302" lon="20.83567">
        <ele>940.946156</ele>
        <time>2022-04-25T09:52:14.865Z</time>
      </trkpt>
      <trkpt lat="41.73297" lon="20.83577">
        <ele>941.762966</ele>
        <time>2022-04-25T09:52:22.865Z</time>
      </trkpt>
      <trkpt lat="41.73292" lon="20.83588">
        <ele>942.530193</ele>
        <time>2022-04-25T09:52:29.860Z</time>
      </trkpt>
      <trkpt lat="41.73286" lon="20.83598">
        <ele>943.36213</ele>
        <time>2022-04-25T09:52:37.887Z</time>
      </trkpt>
      <trkpt lat="41.73281" lon="20.8361">
        <ele>944.217193</ele>
        <time>2022-04-25T09:52:44.871Z</time>
      </trkpt>
      <trkpt lat="41.73273" lon="20.83619">
        <ele>945.113366</ele>
        <time>2022-04-25T09:52:50.870Z</time>
      </trkpt>
      <trkpt lat="41.73267" lon="20.83628">
        <ele>945.881303</ele>
        <time>2022-04-25T09:52:56.877Z</time>
      </trkpt>
      <trkpt lat="41.73264" lon="20.83641">
        <ele>946.692111</ele>
        <time>2022-04-25T09:53:03.866Z</time>
      </trkpt>
      <trkpt lat="41.73263" lon="20.83654">
        <ele>947.518448</ele>
        <time>2022-04-25T09:53:11.882Z</time>
      </trkpt>
      <trkpt lat="41.73265" lon="20.83666">
        <ele>948.339519</ele>
        <time>2022-04-25T09:53:20.877Z</time>
      </trkpt>
      <trkpt lat="41.73269" lon="20.83678">
        <ele>949.132305</ele>
        <time>2022-04-25T09:53:28.873Z</time>
      </trkpt>
      <trkpt lat="41.73272" lon="20.8369">
        <ele>949.95751</ele>
        <time>2022-04-25T09:53:35.876Z</time>
      </trkpt>
      <trkpt lat="41.73274" lon="20.83704">
        <ele>950.853546</ele>
        <time>2022-04-25T09:53:42.870Z</time>
      </trkpt>
      <trkpt lat="41.73274" lon="20.83718">
        <ele>951.702866</ele>
        <time>2022-04-25T09:53:48.870Z</time>
      </trkpt>
      <trkpt lat="41.73272" lon="20.83731">
        <ele>952.328084</ele>
        <time>2022-04-25T09:53:56.869Z</time>
      </trkpt>
      <trkpt lat="41.7327" lon="20.83743">
        <ele>952.785657</ele>
        <time>2022-04-25T09:54:03.863Z</time>
      </trkpt>
      <trkpt lat="41.7327" lon="20.83756">
        <ele>953.254537</ele>
        <time>2022-04-25T09:54:10.880Z</time>
      </trkpt>
      <trkpt lat="41.73269" lon="20.8377">
        <ele>953.736722</ele>
        <time>2022-04-25T09:54:17.869Z</time>
      </trkpt>
      <trkpt lat="41.73264" lon="20.83782">
        <ele>954.228166</ele>
        <time>2022-04-25T09:54:24.867Z</time>
      </trkpt>
      <trkpt lat="41.73257" lon="20.83791">
        <ele>954.682432</ele>
        <time>2022-04-25T09:54:30.863Z</time>
      </trkpt>
      <trkpt lat="41.7325" lon="20.838">
        <ele>955.167285</ele>
        <time>2022-04-25T09:54:38.872Z</time>
      </trkpt>
      <trkpt lat="41.73243" lon="20.83809">
        <ele>955.626462</ele>
        <time>2022-04-25T09:54:45.873Z</time>
      </trkpt>
      <trkpt lat="41.73235" lon="20.83817">
        <ele>956.105876</ele>
        <time>2022-04-25T09:54:53.865Z</time>
      </trkpt>
      <trkpt lat="41.73229" lon="20.83827">
        <ele>956.577844</ele>
        <time>2022-04-25T09:55:01.867Z</time>
      </trkpt>
      <trkpt lat="41.73224" lon="20.83838">
        <ele>957.019162</ele>
        <time>2022-04-25T09:55:09.863Z</time>
      </trkpt>
      <trkpt lat="41.73219" lon="20.83848">
        <ele>957.45248</ele>
        <time>2022-04-25T09:55:15.871Z</time>
      </trkpt>
      <trkpt lat="41.73214" lon="20.83858">
        <ele>957.885869</ele>
        <time>2022-04-25T09:55:21.866Z</time>
      </trkpt>
      <trkpt lat="41.7321" lon="20.83869">
        <ele>958.321667</ele>
        <time>2022-04-25T09:55:27.862Z</time>
      </trkpt>
      <trkpt lat="41.73204" lon="20.83879">
        <ele>958.783602</ele>
        <time>2022-04-25T09:55:34.878Z</time>
      </trkpt>
      <trkpt lat="41.73201" lon="20.83892">
        <ele>959.244893</ele>
        <time>2022-04-25T09:55:41.865Z</time>
      </trkpt>
      <trkpt lat="41.732" lon="20.83904">
        <ele>959.704394</ele>
        <time>2022-04-25T09:55:49.878Z</time>
      </trkpt>
      <trkpt lat="41.73198" lon="20.83917">
        <ele>960.157551</ele>
        <time>2022-04-25T09:55:56.863Z</time>
      </trkpt>
      <trkpt lat="41.73197" lon="20.83929">
        <ele>960.593048</ele>
        <time>2022-04-25T09:56:02.864Z</time>
      </trkpt>
      <trkpt lat="41.73193" lon="20.83942">
        <ele>961.01353</ele>
        <time>2022-04-25T09:56:09.862Z</time>
      </trkpt>
      <trkpt lat="41.73186" lon="20.83951">
        <ele>961.419093</ele>
        <time>2022-04-25T09:56:16.870Z</time>
      </trkpt>
      <trkpt lat="41.73181" lon="20.83963">
        <ele>961.82466</ele>
        <time>2022-04-25T09:56:23.873Z</time>
      </trkpt>
      <trkpt lat="41.73174" lon="20.83972">
        <ele>962.216479</ele>
        <time>2022-04-25T09:56:30.878Z</time>
      </trkpt>
      <trkpt lat="41.73167" lon="20.83981">
        <ele>962.596335</ele>
        <time>2022-04-25T09:56:37.862Z</time>
      </trkpt>
      <trkpt lat="41.7316" lon="20.83989">
        <ele>962.96129</ele>
        <time>2022-04-25T09:56:44.872Z</time>
      </trkpt>
      <trkpt lat="41.73152" lon="20.83996">
        <ele>963.367606</ele>
        <time>2022-04-25T09:56:51.870Z</time>
      </trkpt>
      <trkpt lat="41.73142" lon="20.84002">
        <ele>963.774281</ele>
        <time>2022-04-25T09:56:58.888Z</time>
      </trkpt>
      <trkpt lat="41.73133" lon="20.84006">
        <ele>964.168769</ele>
        <time>2022-04-25T09:57:07.872Z</time>
      </trkpt>
      <trkpt lat="41.73123" lon="20.84006">
        <ele>964.564762</ele>
        <time>2022-04-25T09:57:15.870Z</time>
      </trkpt>
      <trkpt lat="41.73114" lon="20.84004">
        <ele>964.956447</ele>
        <time>2022-04-25T09:57:21.867Z</time>
      </trkpt>
      <trkpt lat="41.73104" lon="20.83999">
        <ele>965.361861</ele>
        <time>2022-04-25T09:57:28.863Z</time>
      </trkpt>
      <trkpt lat="41.73096" lon="20.83991">
        <ele>965.75567</ele>
        <time>2022-04-25T09:57:36.867Z</time>
      </trkpt>
      <trkpt lat="41.73089" lon="20.83982">
        <ele>966.133793</ele>
        <time>2022-04-25T09:57:43.873Z</time>
      </trkpt>
      <trkpt lat="41.73084" lon="20.83972">
        <ele>966.506986</ele>
        <time>2022-04-25T09:57:51.866Z</time>
      </trkpt>
      <trkpt lat="41.73078" lon="20.83963">
        <ele>966.866014</ele>
        <time>2022-04-25T09:57:59.894Z</time>
      </trkpt>
      <trkpt lat="41.73072" lon="20.83952">
        <ele>967.280166</ele>
        <time>2022-04-25T09:58:07.866Z</time>
      </trkpt>
      <trkpt lat="41.73066" lon="20.83942">
        <ele>967.677363</ele>
        <time>2022-04-25T09:58:15.865Z</time>
      </trkpt>
      <trkpt lat="41.7306" lon="20.83932">
        <ele>968.258488</ele>
        <time>2022-04-25T09:58:23.867Z</time>
      </trkpt>
      <trkpt lat="41.73055" lon="20.8392">
        <ele>969.162559</ele>
        <time>2022-04-25T09:58:31.866Z</time>
      </trkpt>
      <trkpt lat="41.73052" lon="20.83909">
        <ele>969.997434</ele>
        <time>2022-04-25T09:58:38.866Z</time>
      </trkpt>
      <trkpt lat="41.73046" lon="20.83899">
        <ele>970.879964</ele>
        <time>2022-04-25T09:58:47.876Z</time>
      </trkpt>
      <trkpt lat="41.7304" lon="20.83888">
        <ele>971.790838</ele>
        <time>2022-04-25T09:58:55.895Z</time>
      </trkpt>
      <trkpt lat="41.73033" lon="20.8388">
        <ele>972.61978</ele>
        <time>2022-04-25T09:59:02.867Z</time>
      </trkpt>
      <trkpt lat="41.73024" lon="20.83873">
        <ele>973.578985</ele>
        <time>2022-04-25T09:59:10.865Z</time>
      </trkpt>
      <trkpt lat="41.73015" lon="20.8387">
        <ele>974.483579</ele>
        <time>2022-04-25T09:59:17.892Z</time>
      </trkpt>
      <trkpt lat="41.73005" lon="20.83869">
        <ele>975.339456</ele>
        <time>2022-04-25T09:59:25.876Z</time>
      </trkpt>
      <trkpt lat="41.72996" lon="20.83868">
        <ele>976.219538</ele>
        <time>2022-04-25T09:59:32.877Z</time>
      </trkpt>
      <trkpt lat="41.72986" lon="20.83868">
        <ele>977.136007</ele>
        <time>2022-04-25T09:59:41.877Z</time>
      </trkpt>
      <trkpt lat="41.72976" lon="20.83873">
        <ele>978.079522</ele>
        <time>2022-04-25T09:59:48.883Z</time>
      </trkpt>
      <trkpt lat="41.72967" lon="20.83878">
        <ele>978.957846</ele>
        <time>2022-04-25T09:59:54.865Z</time>
      </trkpt>
      <trkpt lat="41.72958" lon="20.83884">
        <ele>979.884877</ele>
        <time>2022-04-25T10:00:01.890Z</time>
      </trkpt>
      <trkpt lat="41.72953" lon="20.83894">
        <ele>980.750714</ele>
        <time>2022-04-25T10:00:09.865Z</time>
      </trkpt>
      <trkpt lat="41.72946" lon="20.83905">
        <ele>981.666993</ele>
        <time>2022-04-25T10:00:17.862Z</time>
      </trkpt>
      <trkpt lat="41.72941" lon="20.83916">
        <ele>982.561841</ele>
        <time>2022-04-25T10:00:24.885Z</time>
      </trkpt>
      <trkpt lat="41.72937" lon="20.83928">
        <ele>983.467964</ele>
        <time>2022-04-25T10:00:32.863Z</time>
      </trkpt>
      <trkpt lat="41.72936" lon="20.83941">
        <ele>984.367886</ele>
        <time>2022-04-25T10:00:40.876Z</time>
      </trkpt>
      <trkpt lat="41.72936" lon="20.83954">
        <ele>985.075872</ele>
        <time>2022-04-25T10:00:47.884Z</time>
      </trkpt>
      <trkpt lat="41.72937" lon="20.83966">
        <ele>985.762423</ele>
        <time>2022-04-25T10:00:54.868Z</time>
      </trkpt>
      <trkpt lat="41.7294" lon="20.83979">
        <ele>986.527708</ele>
        <time>2022-04-25T10:01:01.876Z</time>
      </trkpt>
      <trkpt lat="41.72941" lon="20.83993">
        <ele>987.299463</ele>
        <time>2022-04-25T10:01:09.861Z</time>
      </trkpt>
      <trkpt lat="41.72941" lon="20.84005">
        <ele>987.97905</ele>
        <time>2022-04-25T10:01:16.866Z</time>
      </trkpt>
      <trkpt lat="41.72944" lon="20.84017">
        <ele>988.697522</ele>
        <time>2022-04-25T10:01:23.861Z</time>
      </trkpt>
      <trkpt lat="41.72943" lon="20.8403">
        <ele>989.449899</ele>
        <time>2022-04-25T10:01:30.874Z</time>
      </trkpt>
      <trkpt lat="41.72941" lon="20.84042">
        <ele>990.134949</ele>
        <time>2022-04-25T10:01:36.864Z</time>
      </trkpt>
      <trkpt lat="41.72939" lon="20.84055">
        <ele>990.887229</ele>
        <time>2022-04-25T10:01:43.863Z</time>
      </trkpt>
      <trkpt lat="41.72939" lon="20.84068">
        <ele>991.622974</ele>
        <time>2022-04-25T10:01:50.866Z</time>
      </trkpt>
      <trkpt lat="41.72936" lon="20.84081">
        <ele>992.335524</ele>
        <time>2022-04-25T10:01:57.863Z</time>
      </trkpt>
      <trkpt lat="41.72932" lon="20.84091">
        <ele>993.018338</ele>
        <time>2022-04-25T10:02:04.866Z</time>
      </trkpt>
      <trkpt lat="41.72925" lon="20.84101">
        <ele>993.740507</ele>
        <time>2022-04-25T10:02:10.887Z</time>
      </trkpt>
      <trkpt lat="41.72918" lon="20.84109">
        <ele>994.477648</ele>
        <time>2022-04-25T10:02:16.895Z</time>
      </trkpt>
      <trkpt lat="41.72911" lon="20.84117">
        <ele>995.172136</ele>
        <time>2022-04-25T10:02:24.886Z</time>
      </trkpt>
      <trkpt lat="41.72903" lon="20.84125">
        <ele>995.881811</ele>
        <time>2022-04-25T10:02:32.864Z</time>
      </trkpt>
      <trkpt lat="41.72895" lon="20.8413">
        <ele>996.584972</ele>
        <time>2022-04-25T10:02:39.870Z</time>
      </trkpt>
      <trkpt lat="41.72886" lon="20.84136">
        <ele>997.361409</ele>
        <time>2022-04-25T10:02:48.867Z</time>
      </trkpt>
      <trkpt lat="41.72875" lon="20.84137">
        <ele>998.153876</ele>
        <time>2022-04-25T10:02:55.861Z</time>
      </trkpt>
      <trkpt lat="41.72865" lon="20.84136">
        <ele>998.847848</ele>
        <time>2022-04-25T10:03:02.868Z</time>
      </trkpt>
      <trkpt lat="41.72856" lon="20.84138">
        <ele>999.511254</ele>
        <time>2022-04-25T10:03:09.885Z</time>
      </trkpt>
      <trkpt lat="41.72846" lon="20.84137">
        <ele>1000.257268</ele>
        <time>2022-04-25T10:03:16.862Z</time>
      </trkpt>
      <trkpt lat="41.72837" lon="20.84134">
        <ele>1000.907936</ele>
        <time>2022-04-25T10:03:24.863Z</time>
      </trkpt>
      <trkpt lat="41.72829" lon="20.84127">
        <ele>1001.583868</ele>
        <time>2022-04-25T10:03:31.867Z</time>
      </trkpt>
      <trkpt lat="41.7282" lon="20.84122">
        <ele>1002.233224</ele>
        <time>2022-04-25T10:03:38.894Z</time>
      </trkpt>
      <trkpt lat="41.72812" lon="20.84117">
        <ele>1002.881957</ele>
        <time>2022-04-25T10:03:45.861Z</time>
      </trkpt>
      <trkpt lat="41.72803" lon="20.84113">
        <ele>1003.550634</ele>
        <time>2022-04-25T10:03:52.866Z</time>
      </trkpt>
      <trkpt lat="41.72795" lon="20.84108">
        <ele>1004.232743</ele>
        <time>2022-04-25T10:03:59.869Z</time>
      </trkpt>
      <trkpt lat="41.72785" lon="20.84105">
        <ele>1004.913214</ele>
        <time>2022-04-25T10:04:08.873Z</time>
      </trkpt>
      <trkpt lat="41.72776" lon="20.84102">
        <ele>1005.602992</ele>
        <time>2022-04-25T10:04:14.877Z</time>
      </trkpt>
      <trkpt lat="41.72766" lon="20.84099">
        <ele>1006.311444</ele>
        <time>2022-04-25T10:04:21.866Z</time>
      </trkpt>
      <trkpt lat="41.72757" lon="20.84099">
        <ele>1007.005272</ele>
        <time>2022-04-25T10:04:30.918Z</time>
      </trkpt>
      <trkpt lat="41.72747" lon="20.84097">
        <ele>1007.718348</ele>
        <time>2022-04-25T10:04:38.863Z</time>
      </trkpt>
      <trkpt lat="41.72737" lon="20.84101">
        <ele>1008.421506</ele>
        <time>2022-04-25T10:04:46.881Z</time>
      </trkpt>
      <trkpt lat="41.72728" lon="20.84105">
        <ele>1009.086014</ele>
        <time>2022-04-25T10:04:52.883Z</time>
      </trkpt>
      <trkpt lat="41.72719" lon="20.84106">
        <ele>1009.774578</ele>
        <time>2022-04-25T10:04:58.881Z</time>
      </trkpt>
      <trkpt lat="41.7271" lon="20.84099">
        <ele>1010.494139</ele>
        <time>2022-04-25T10:05:05.860Z</time>
      </trkpt>
      <trkpt lat="41.72706" lon="20.84087">
        <ele>1011.350915</ele>
        <time>2022-04-25T10:05:12.906Z</time>
      </trkpt>
      <trkpt lat="41.72708" lon="20.84075">
        <ele>1012.275364</ele>
        <time>2022-04-25T10:05:18.874Z</time>
      </trkpt>
      <trkpt lat="41.72716" lon="20.84069">
        <ele>1013.202879</ele>
        <time>2022-04-25T10:05:24.859Z</time>
      </trkpt>
      <trkpt lat="41.72726" lon="20.84068">
        <ele>1014.202753</ele>
        <time>2022-04-25T10:05:29.872Z</time>
      </trkpt>
      <trkpt lat="41.72735" lon="20.84074">
        <ele>1015.150658</ele>
        <time>2022-04-25T10:05:37.863Z</time>
      </trkpt>
      <trkpt lat="41.72744" lon="20.84076">
        <ele>1016.067597</ele>
        <time>2022-04-25T10:05:44.864Z</time>
      </trkpt>
      <trkpt lat="41.72753" lon="20.84077">
        <ele>1017.032404</ele>
        <time>2022-04-25T10:05:53.860Z</time>
      </trkpt>
      <trkpt lat="41.72763" lon="20.84079">
        <ele>1018.058136</ele>
        <time>2022-04-25T10:06:01.857Z</time>
      </trkpt>
      <trkpt lat="41.72772" lon="20.84081">
        <ele>1018.999828</ele>
        <time>2022-04-25T10:06:08.874Z</time>
      </trkpt>
      <trkpt lat="41.72782" lon="20.84082">
        <ele>1020.020919</ele>
        <time>2022-04-25T10:06:14.865Z</time>
      </trkpt>
      <trkpt lat="41.72792" lon="20.84081">
        <ele>1020.960481</ele>
        <time>2022-04-25T10:06:21.860Z</time>
      </trkpt>
      <trkpt lat="41.72801" lon="20.84078">
        <ele>1021.932462</ele>
        <time>2022-04-25T10:06:31.870Z</time>
      </trkpt>
      <trkpt lat="41.7281" lon="20.84075">
        <ele>1022.86925</ele>
        <time>2022-04-25T10:06:39.871Z</time>
      </trkpt>
      <trkpt lat="41.72818" lon="20.84067">
        <ele>1023.890801</ele>
        <time>2022-04-25T10:06:48.882Z</time>
      </trkpt>
      <trkpt lat="41.72825" lon="20.84057">
        <ele>1024.916384</ele>
        <time>2022-04-25T10:06:56.873Z</time>
      </trkpt>
      <trkpt lat="41.72827" lon="20.84044">
        <ele>1025.945968</ele>
        <time>2022-04-25T10:07:04.882Z</time>
      </trkpt>
      <trkpt lat="41.72829" lon="20.84031">
        <ele>1026.906847</ele>
        <time>2022-04-25T10:07:11.866Z</time>
      </trkpt>
      <trkpt lat="41.72829" lon="20.84019">
        <ele>1027.863246</ele>
        <time>2022-04-25T10:07:18.862Z</time>
      </trkpt>
      <trkpt lat="41.7283" lon="20.84006">
        <ele>1028.83612</ele>
        <time>2022-04-25T10:07:26.863Z</time>
      </trkpt>
      <trkpt lat="41.72829" lon="20.83993">
        <ele>1029.643425</ele>
        <time>2022-04-25T10:07:34.864Z</time>
      </trkpt>
      <trkpt lat="41.7283" lon="20.8398">
        <ele>1030.433846</ele>
        <time>2022-04-25T10:07:41.892Z</time>
      </trkpt>
      <trkpt lat="41.7283" lon="20.83968">
        <ele>1031.217995</ele>
        <time>2022-04-25T10:07:47.923Z</time>
      </trkpt>
      <trkpt lat="41.72829" lon="20.83954">
        <ele>1032.076095</ele>
        <time>2022-04-25T10:07:54.882Z</time>
      </trkpt>
      <trkpt lat="41.72827" lon="20.83942">
        <ele>1032.864007</ele>
        <time>2022-04-25T10:08:01.884Z</time>
      </trkpt>
      <trkpt lat="41.72822" lon="20.83932">
        <ele>1033.618097</ele>
        <time>2022-04-25T10:08:08.878Z</time>
      </trkpt>
      <trkpt lat="41.72816" lon="20.83923">
        <ele>1034.394753</ele>
        <time>2022-04-25T10:08:16.904Z</time>
      </trkpt>
      <trkpt lat="41.72808" lon="20.83914">
        <ele>1035.245183</ele>
        <time>2022-04-25T10:08:23.903Z</time>
      </trkpt>
      <trkpt lat="41.72802" lon="20.83904">
        <ele>1036.019626</ele>
        <time>2022-04-25T10:08:30.903Z</time>
      </trkpt>
      <trkpt lat="41.72795" lon="20.83896">
        <ele>1036.830957</ele>
        <time>2022-04-25T10:08:38.877Z</time>
      </trkpt>
      <trkpt lat="41.72788" lon="20.83888">
        <ele>1037.589736</ele>
        <time>2022-04-25T10:08:45.931Z</time>
      </trkpt>
      <trkpt lat="41.7278" lon="20.8388">
        <ele>1038.436314</ele>
        <time>2022-04-25T10:08:53.920Z</time>
      </trkpt>
      <trkpt lat="41.72774" lon="20.8387">
        <ele>1039.247672</ele>
        <time>2022-04-25T10:09:01.892Z</time>
      </trkpt>
      <trkpt lat="41.72767" lon="20.83861">
        <ele>1040.071028</ele>
        <time>2022-04-25T10:09:09.900Z</time>
      </trkpt>
      <trkpt lat="41.7276" lon="20.83853">
        <ele>1040.846725</ele>
        <time>2022-04-25T10:09:16.934Z</time>
      </trkpt>
      <trkpt lat="41.72753" lon="20.83844">
        <ele>1041.618688</ele>
        <time>2022-04-25T10:09:23.889Z</time>
      </trkpt>
      <trkpt lat="41.72746" lon="20.83835">
        <ele>1042.440185</ele>
        <time>2022-04-25T10:09:31.897Z</time>
      </trkpt>
      <trkpt lat="41.72742" lon="20.83823">
        <ele>1043.275204</ele>
        <time>2022-04-25T10:09:39.928Z</time>
      </trkpt>
      <trkpt lat="41.72738" lon="20.83811">
        <ele>1044.053605</ele>
        <time>2022-04-25T10:09:47.872Z</time>
      </trkpt>
      <trkpt lat="41.72733" lon="20.838">
        <ele>1044.382632</ele>
        <time>2022-04-25T10:09:54.892Z</time>
      </trkpt>
      <trkpt lat="41.72728" lon="20.83789">
        <ele>1044.716146</ele>
        <time>2022-04-25T10:10:01.873Z</time>
      </trkpt>
      <trkpt lat="41.72724" lon="20.83777">
        <ele>1045.054105</ele>
        <time>2022-04-25T10:10:09.883Z</time>
      </trkpt>
      <trkpt lat="41.72722" lon="20.83764">
        <ele>1045.398898</ele>
        <time>2022-04-25T10:10:17.876Z</time>
      </trkpt>
      <trkpt lat="41.72719" lon="20.83752">
        <ele>1045.721154</ele>
        <time>2022-04-25T10:10:24.886Z</time>
      </trkpt>
      <trkpt lat="41.72719" lon="20.83738">
        <ele>1046.086967</ele>
        <time>2022-04-25T10:10:32.929Z</time>
      </trkpt>
      <trkpt lat="41.72721" lon="20.83726">
        <ele>1046.423973</ele>
        <time>2022-04-25T10:10:39.894Z</time>
      </trkpt>
      <trkpt lat="41.72727" lon="20.83716">
        <ele>1046.769674</ele>
        <time>2022-04-25T10:10:47.882Z</time>
      </trkpt>
      <trkpt lat="41.72734" lon="20.83708">
        <ele>1047.088899</ele>
        <time>2022-04-25T10:10:54.912Z</time>
      </trkpt>
      <trkpt lat="41.72741" lon="20.83698">
        <ele>1047.422095</ele>
        <time>2022-04-25T10:11:01.925Z</time>
      </trkpt>
      <trkpt lat="41.72749" lon="20.83691">
        <ele>1047.768233</ele>
        <time>2022-04-25T10:11:10.909Z</time>
      </trkpt>
      <trkpt lat="41.72758" lon="20.83684">
        <ele>1048.112977</ele>
        <time>2022-04-25T10:11:19.917Z</time>
      </trkpt>
      <trkpt lat="41.72767" lon="20.8368">
        <ele>1048.448149</ele>
        <time>2022-04-25T10:11:25.922Z</time>
      </trkpt>
      <trkpt lat="41.72776" lon="20.83676">
        <ele>1048.807272</ele>
        <time>2022-04-25T10:11:32.894Z</time>
      </trkpt>
      <trkpt lat="41.72786" lon="20.83675">
        <ele>1049.139724</ele>
        <time>2022-04-25T10:11:40.939Z</time>
      </trkpt>
      <trkpt lat="41.72794" lon="20.83669">
        <ele>1049.489494</ele>
        <time>2022-04-25T10:11:48.902Z</time>
      </trkpt>
      <trkpt lat="41.72803" lon="20.83663">
        <ele>1049.815443</ele>
        <time>2022-04-25T10:11:55.900Z</time>
      </trkpt>
      <trkpt lat="41.72811" lon="20.83657">
        <ele>1050.146136</ele>
        <time>2022-04-25T10:12:03.913Z</time>
      </trkpt>
      <trkpt lat="41.72818" lon="20.83648">
        <ele>1050.798858</ele>
        <time>2022-04-25T10:12:12.870Z</time>
      </trkpt>
      <trkpt lat="41.72823" lon="20.83638">
        <ele>1051.731406</ele>
        <time>2022-04-25T10:12:22.880Z</time>
      </trkpt>
      <trkpt lat="41.72828" lon="20.83627">
        <ele>1052.671447</ele>
        <time>2022-04-25T10:12:30.894Z</time>
      </trkpt>
      <trkpt lat="41.72831" lon="20.83616">
        <ele>1053.580019</ele>
        <time>2022-04-25T10:12:38.913Z</time>
      </trkpt>
      <trkpt lat="41.72834" lon="20.83604">
        <ele>1054.548375</ele>
        <time>2022-04-25T10:12:46.890Z</time>
      </trkpt>
      <trkpt lat="41.72836" lon="20.83592">
        <ele>1055.478746</ele>
        <time>2022-04-25T10:12:54.900Z</time>
      </trkpt>
      <trkpt lat="41.72836" lon="20.83578">
        <ele>1056.493451</ele>
        <time>2022-04-25T10:13:03.876Z</time>
      </trkpt>
      <trkpt lat="41.72838" lon="20.83565">
        <ele>1057.484638</ele>
        <time>2022-04-25T10:13:11.892Z</time>
      </trkpt>
      <trkpt lat="41.72837" lon="20.83552">
        <ele>1058.496656</ele>
        <time>2022-04-25T10:13:20.886Z</time>
      </trkpt>
      <trkpt lat="41.72836" lon="20.83539">
        <ele>1059.46695</ele>
        <time>2022-04-25T10:13:27.881Z</time>
      </trkpt>
      <trkpt lat="41.72834" lon="20.83527">
        <ele>1060.394585</ele>
        <time>2022-04-25T10:13:36.938Z</time>
      </trkpt>
      <trkpt lat="41.72831" lon="20.83516">
        <ele>1061.293782</ele>
        <time>2022-04-25T10:13:44.889Z</time>
      </trkpt>
      <trkpt lat="41.72827" lon="20.83504">
        <ele>1062.266717</ele>
        <time>2022-04-25T10:13:52.930Z</time>
      </trkpt>
      <trkpt lat="41.72823" lon="20.83492">
        <ele>1063.227864</ele>
        <time>2022-04-25T10:14:00.894Z</time>
      </trkpt>
      <trkpt lat="41.72818" lon="20.83482">
        <ele>1064.152234</ele>
        <time>2022-04-25T10:14:08.878Z</time>
      </trkpt>
      <trkpt lat="41.72815" lon="20.8347">
        <ele>1065.070142</ele>
        <time>2022-04-25T10:14:15.900Z</time>
      </trkpt>
      <trkpt lat="41.72809" lon="20.8346">
        <ele>1066.083597</ele>
        <time>2022-04-25T10:14:23.897Z</time>
      </trkpt>
      <trkpt lat="41.72803" lon="20.83449">
        <ele>1067.094405</ele>
        <time>2022-04-25T10:14:31.931Z</time>
      </trkpt>
      <trkpt lat="41.72795" lon="20.83442">
        <ele>1068.014314</ele>
        <time>2022-04-25T10:14:39.880Z</time>
      </trkpt>
      <trkpt lat="41.72788" lon="20.83435">
        <ele>1068.64474</ele>
        <time>2022-04-25T10:14:48.886Z</time>
      </trkpt>
      <trkpt lat="41.72778" lon="20.83429">
        <ele>1069.116244</ele>
        <time>2022-04-25T10:14:56.890Z</time>
      </trkpt>
      <trkpt lat="41.72771" lon="20.83422">
        <ele>1069.557883</ele>
        <time>2022-04-25T10:15:03.894Z</time>
      </trkpt>
      <trkpt lat="41.72764" lon="20.83413">
        <ele>1069.996869</ele>
        <time>2022-04-25T10:15:11.897Z</time>
      </trkpt>
      <trkpt lat="41.72757" lon="20.83403">
        <ele>1070.477083</ele>
        <time>2022-04-25T10:15:21.903Z</time>
      </trkpt>
      <trkpt lat="41.7275" lon="20.83395">
        <ele>1070.905415</ele>
        <time>2022-04-25T10:15:28.899Z</time>
      </trkpt>
      <trkpt lat="41.72742" lon="20.83389">
        <ele>1071.330307</ele>
        <time>2022-04-25T10:15:35.893Z</time>
      </trkpt>
      <trkpt lat="41.72735" lon="20.83381">
        <ele>1071.766563</ele>
        <time>2022-04-25T10:15:43.939Z</time>
      </trkpt>
      <trkpt lat="41.72728" lon="20.83373">
        <ele>1072.223936</ele>
        <time>2022-04-25T10:15:52.892Z</time>
      </trkpt>
      <trkpt lat="41.72719" lon="20.83367">
        <ele>1072.687524</ele>
        <time>2022-04-25T10:15:59.877Z</time>
      </trkpt>
      <trkpt lat="41.7271" lon="20.83361">
        <ele>1073.123918</ele>
        <time>2022-04-25T10:16:06.885Z</time>
      </trkpt>
      <trkpt lat="41.72704" lon="20.83351">
        <ele>1073.591859</ele>
        <time>2022-04-25T10:16:14.898Z</time>
      </trkpt>
      <trkpt lat="41.72698" lon="20.83342">
        <ele>1074.018097</ele>
        <time>2022-04-25T10:16:21.896Z</time>
      </trkpt>
      <trkpt lat="41.72692" lon="20.83332">
        <ele>1074.452687</ele>
        <time>2022-04-25T10:16:29.905Z</time>
      </trkpt>
      <trkpt lat="41.72684" lon="20.83324">
        <ele>1074.897097</ele>
        <time>2022-04-25T10:16:38.935Z</time>
      </trkpt>
      <trkpt lat="41.72678" lon="20.83314">
        <ele>1075.358633</ele>
        <time>2022-04-25T10:16:46.882Z</time>
      </trkpt>
      <trkpt lat="41.72673" lon="20.83303">
        <ele>1075.806811</ele>
        <time>2022-04-25T10:16:54.894Z</time>
      </trkpt>
      <trkpt lat="41.72669" lon="20.83291">
        <ele>1076.266445</ele>
        <time>2022-04-25T10:17:01.875Z</time>
      </trkpt>
      <trkpt lat="41.72665" lon="20.8328">
        <ele>1076.700555</ele>
        <time>2022-04-25T10:17:09.899Z</time>
      </trkpt>
      <trkpt lat="41.7266" lon="20.83268">
        <ele>1077.131113</ele>
        <time>2022-04-25T10:17:18.889Z</time>
      </trkpt>
      <trkpt lat="41.72655" lon="20.83258">
        <ele>1077.515518</ele>
        <time>2022-04-25T10:17:25.893Z</time>
      </trkpt>
      <trkpt lat="41.72651" lon="20.83245">
        <ele>1077.934427</ele>
        <time>2022-04-25T10:17:33.932Z</time>
      </trkpt>
      <trkpt lat="41.7265" lon="20.83233">
        <ele>1078.328195</ele>
        <time>2022-04-25T10:17:41.898Z</time>
      </trkpt>
      <trkpt lat="41.72647" lon="20.83221">
        <ele>1078.707672</ele>
        <time>2022-04-25T10:17:49.913Z</time>
      </trkpt>
      <trkpt lat="41.72644" lon="20.8321">
        <ele>1079.090948</ele>
        <time>2022-04-25T10:17:57.883Z</time>
      </trkpt>
      <trkpt lat="41.72642" lon="20.83198">
        <ele>1079.467134</ele>
        <time>2022-04-25T10:18:05.895Z</time>
      </trkpt>
      <trkpt lat="41.72641" lon="20.83185">
        <ele>1079.862987</ele>
        <time>2022-04-25T10:18:14.918Z</time>
      </trkpt>
      <trkpt lat="41.7264" lon="20.83173">
        <ele>1080.251585</ele>
        <time>2022-04-25T10:18:22.903Z</time>
      </trkpt>
      <trkpt lat="41.7264" lon="20.8316">
        <ele>1080.639056</ele>
        <time>2022-04-25T10:18:31.891Z</time>
      </trkpt>
      <trkpt lat="41.72636" lon="20.83148">
        <ele>1081.034687</ele>
        <time>2022-04-25T10:18:39.891Z</time>
      </trkpt>
      <trkpt lat="41.72633" lon="20.83137">
        <ele>1081.407335</ele>
        <time>2022-04-25T10:18:46.882Z</time>
      </trkpt>
      <trkpt lat="41.72634" lon="20.83124">
        <ele>1081.809943</ele>
        <time>2022-04-25T10:18:54.901Z</time>
      </trkpt>
      <trkpt lat="41.72634" lon="20.83111">
        <ele>1082.211869</ele>
        <time>2022-04-25T10:19:03.900Z</time>
      </trkpt>
      <trkpt lat="41.72635" lon="20.83097">
        <ele>1082.623733</ele>
        <time>2022-04-25T10:19:11.924Z</time>
      </trkpt>
      <trkpt lat="41.72633" lon="20.83085">
        <ele>1083.028651</ele>
        <time>2022-04-25T10:19:19.904Z</time>
      </trkpt>
      <trkpt lat="41.72634" lon="20.83072">
        <ele>1083.413896</ele>
        <time>2022-04-25T10:19:28.891Z</time>
      </trkpt>
      <trkpt lat="41.72635" lon="20.83059">
        <ele>1083.828287</ele>
        <time>2022-04-25T10:19:36.889Z</time>
      </trkpt>
      <trkpt lat="41.72637" lon="20.83047">
        <ele>1084.207472</ele>
        <time>2022-04-25T10:19:44.888Z</time>
      </trkpt>
      <trkpt lat="41.72638" lon="20.83035">
        <ele>1084.874197</ele>
        <time>2022-04-25T10:19:52.913Z</time>
      </trkpt>
      <trkpt lat="41.7264" lon="20.83023">
        <ele>1085.589259</ele>
        <time>2022-04-25T10:20:00.913Z</time>
      </trkpt>
      <trkpt lat="41.72641" lon="20.83011">
        <ele>1086.327149</ele>
        <time>2022-04-25T10:20:07.884Z</time>
      </trkpt>
      <trkpt lat="41.72645" lon="20.82999">
        <ele>1087.065213</ele>
        <time>2022-04-25T10:20:16.931Z</time>
      </trkpt>
      <trkpt lat="41.72652" lon="20.8299">
        <ele>1087.811301</ele>
        <time>2022-04-25T10:20:24.901Z</time>
      </trkpt>
      <trkpt lat="41.7266" lon="20.82983">
        <ele>1088.585787</ele>
        <time>2022-04-25T10:20:31.889Z</time>
      </trkpt>
      <trkpt lat="41.72666" lon="20.82972">
        <ele>1089.331319</ele>
        <time>2022-04-25T10:20:39.920Z</time>
      </trkpt>
      <trkpt lat="41.7267" lon="20.8296">
        <ele>1090.087023</ele>
        <time>2022-04-25T10:20:47.885Z</time>
      </trkpt>
      <trkpt lat="41.72676" lon="20.8295">
        <ele>1090.87902</ele>
        <time>2022-04-25T10:20:56.899Z</time>
      </trkpt>
      <trkpt lat="41.72683" lon="20.82941">
        <ele>1091.613286</ele>
        <time>2022-04-25T10:21:04.897Z</time>
      </trkpt>
      <trkpt lat="41.72689" lon="20.82932">
        <ele>1092.351121</ele>
        <time>2022-04-25T10:21:12.883Z</time>
      </trkpt>
      <trkpt lat="41.72695" lon="20.82923">
        <ele>1093.077925</ele>
        <time>2022-04-25T10:21:21.878Z</time>
      </trkpt>
      <trkpt lat="41.72703" lon="20.82915">
        <ele>1093.825275</ele>
        <time>2022-04-25T10:21:31.890Z</time>
      </trkpt>
      <trkpt lat="41.72711" lon="20.82907">
        <ele>1094.616031</ele>
        <time>2022-04-25T10:21:39.883Z</time>
      </trkpt>
      <trkpt lat="41.72717" lon="20.82898">
        <ele>1095.320792</ele>
        <time>2022-04-25T10:21:49.908Z</time>
      </trkpt>
      <trkpt lat="41.72723" lon="20.82888">
        <ele>1096.056635</ele>
        <time>2022-04-25T10:21:58.885Z</time>
      </trkpt>
      <trkpt lat="41.72727" lon="20.82876">
        <ele>1096.847455</ele>
        <time>2022-04-25T10:22:06.921Z</time>
      </trkpt>
      <trkpt lat="41.72732" lon="20.82866">
        <ele>1097.551755</ele>
        <time>2022-04-25T10:22:14.886Z</time>
      </trkpt>
      <trkpt lat="41.72734" lon="20.82854">
        <ele>1098.26888</ele>
        <time>2022-04-25T10:22:23.871Z</time>
      </trkpt>
      <trkpt lat="41.72736" lon="20.82842">
        <ele>1099.129972</ele>
        <time>2022-04-25T10:22:32.930Z</time>
      </trkpt>
      <trkpt lat="41.72737" lon="20.82829">
        <ele>1100.007163</ele>
        <time>2022-04-25T10:22:41.901Z</time>
      </trkpt>
      <trkpt lat="41.72737" lon="20.82816">
        <ele>1100.918112</ele>
        <time>2022-04-25T10:22:51.882Z</time>
      </trkpt>
      <trkpt lat="41.72736" lon="20.82802">
        <ele>1101.85336</ele>
        <time>2022-04-25T10:22:59.889Z</time>
      </trkpt>
      <trkpt lat="41.72734" lon="20.82789">
        <ele>1102.752282</ele>
        <time>2022-04-25T10:23:07.892Z</time>
      </trkpt>
      <trkpt lat="41.72732" lon="20.82777">
        <ele>1103.609114</ele>
        <time>2022-04-25T10:23:15.881Z</time>
      </trkpt>
      <trkpt lat="41.72727" lon="20.82766">
        <ele>1104.478893</ele>
        <time>2022-04-25T10:23:22.910Z</time>
      </trkpt>
      <trkpt lat="41.72722" lon="20.82756">
        <ele>1105.329926</ele>
        <time>2022-04-25T10:23:30.899Z</time>
      </trkpt>
      <trkpt lat="41.72715" lon="20.82747">
        <ele>1106.194068</ele>
        <time>2022-04-25T10:23:38.886Z</time>
      </trkpt>
      <trkpt lat="41.72707" lon="20.8274">
        <ele>1107.07046</ele>
        <time>2022-04-25T10:23:45.892Z</time>
      </trkpt>
      <trkpt lat="41.72699" lon="20.82732">
        <ele>1107.96394</ele>
        <time>2022-04-25T10:23:55.885Z</time>
      </trkpt>
      <trkpt lat="41.72692" lon="20.82724">
        <ele>1108.840157</ele>
        <time>2022-04-25T10:24:05.905Z</time>
      </trkpt>
      <trkpt lat="41.72684" lon="20.82717">
        <ele>1109.693673</ele>
        <time>2022-04-25T10:24:13.882Z</time>
      </trkpt>
      <trkpt lat="41.72676" lon="20.82709">
        <ele>1110.577566</ele>
        <time>2022-04-25T10:24:22.894Z</time>
      </trkpt>
      <trkpt lat="41.72669" lon="20.82701">
        <ele>1111.448168</ele>
        <time>2022-04-25T10:24:30.889Z</time>
      </trkpt>
      <trkpt lat="41.72662" lon="20.82692">
        <ele>1112.331421</ele>
        <time>2022-04-25T10:24:39.892Z</time>
      </trkpt>
      <trkpt lat="41.72655" lon="20.82682">
        <ele>1113.243556</ele>
        <time>2022-04-25T10:24:47.943Z</time>
      </trkpt>
      <trkpt lat="41.72649" lon="20.82674">
        <ele>1114.084466</ele>
        <time>2022-04-25T10:24:55.914Z</time>
      </trkpt>
      <trkpt lat="41.72643" lon="20.82664">
        <ele>1114.906781</ele>
        <time>2022-04-25T10:25:03.899Z</time>
      </trkpt>
      <trkpt lat="41.72636" lon="20.82655">
        <ele>1115.565514</ele>
        <time>2022-04-25T10:25:12.890Z</time>
      </trkpt>
      <trkpt lat="41.7263" lon="20.82646">
        <ele>1116.202404</ele>
        <time>2022-04-25T10:25:20.888Z</time>
      </trkpt>
      <trkpt lat="41.72625" lon="20.82636">
        <ele>1116.842912</ele>
        <time>2022-04-25T10:25:27.905Z</time>
      </trkpt>
      <trkpt lat="41.72624" lon="20.82624">
        <ele>1117.477704</ele>
        <time>2022-04-25T10:25:34.888Z</time>
      </trkpt>
      <trkpt lat="41.72622" lon="20.82612">
        <ele>1118.10482</ele>
        <time>2022-04-25T10:25:43.889Z</time>
      </trkpt>
      <trkpt lat="41.7262" lon="20.82599">
        <ele>1118.766648</ele>
        <time>2022-04-25T10:25:53.901Z</time>
      </trkpt>
      <trkpt lat="41.72621" lon="20.82587">
        <ele>1119.406826</ele>
        <time>2022-04-25T10:26:02.918Z</time>
      </trkpt>
      <trkpt lat="41.72622" lon="20.82574">
        <ele>1120.077321</ele>
        <time>2022-04-25T10:26:10.902Z</time>
      </trkpt>
      <trkpt lat="41.72623" lon="20.82561">
        <ele>1120.746418</ele>
        <time>2022-04-25T10:26:19.931Z</time>
      </trkpt>
      <trkpt lat="41.72625" lon="20.82548">
        <ele>1121.430429</ele>
        <time>2022-04-25T10:26:28.887Z</time>
      </trkpt>
      <trkpt lat="41.72627" lon="20.82536">
        <ele>1122.071381</ele>
        <time>2022-04-25T10:26:37.918Z</time>
      </trkpt>
      <trkpt lat="41.72627" lon="20.82523">
        <ele>1122.741626</ele>
        <time>2022-04-25T10:26:45.881Z</time>
      </trkpt>
      <trkpt lat="41.72629" lon="20.8251">
        <ele>1123.411962</ele>
        <time>2022-04-25T10:26:53.887Z</time>
      </trkpt>
      <trkpt lat="41.72634" lon="20.82499">
        <ele>1124.078618</ele>
        <time>2022-04-25T10:27:00.893Z</time>
      </trkpt>
      <trkpt lat="41.72638" lon="20.82487">
        <ele>1124.781355</ele>
        <time>2022-04-25T10:27:08.880Z</time>
      </trkpt>
      <trkpt lat="41.72639" lon="20.82473">
        <ele>1125.475336</ele>
        <time>2022-04-25T10:27:17.910Z</time>
      </trkpt>
      <trkpt lat="41.72642" lon="20.8246">
        <ele>1126.179485</ele>
        <time>2022-04-25T10:27:28.886Z</time>
      </trkpt>
      <trkpt lat="41.72646" lon="20.82447">
        <ele>1126.88984</ele>
        <time>2022-04-25T10:27:35.887Z</time>
      </trkpt>
      <trkpt lat="41.72651" lon="20.82437">
        <ele>1127.56138</ele>
        <time>2022-04-25T10:27:43.899Z</time>
      </trkpt>
      <trkpt lat="41.72657" lon="20.82427">
        <ele>1128.226857</ele>
        <time>2022-04-25T10:27:51.888Z</time>
      </trkpt>
      <trkpt lat="41.72662" lon="20.82416">
        <ele>1128.907975</ele>
        <time>2022-04-25T10:28:00.903Z</time>
      </trkpt>
      <trkpt lat="41.72667" lon="20.82405">
        <ele>1129.541356</ele>
        <time>2022-04-25T10:28:07.874Z</time>
      </trkpt>
      <trkpt lat="41.72669" lon="20.82392">
        <ele>1130.246646</ele>
        <time>2022-04-25T10:28:16.878Z</time>
      </trkpt>
      <trkpt lat="41.72671" lon="20.82381">
        <ele>1130.882083</ele>
        <time>2022-04-25T10:28:24.884Z</time>
      </trkpt>
      <trkpt lat="41.72673" lon="20.82369">
        <ele>1131.514116</ele>
        <time>2022-04-25T10:28:32.879Z</time>
      </trkpt>
      <trkpt lat="41.72672" lon="20.82355">
        <ele>1132.206786</ele>
        <time>2022-04-25T10:28:41.922Z</time>
      </trkpt>
      <trkpt lat="41.72672" lon="20.82342">
        <ele>1132.889725</ele>
        <time>2022-04-25T10:28:50.890Z</time>
      </trkpt>
      <trkpt lat="41.72672" lon="20.8233">
        <ele>1133.525164</ele>
        <time>2022-04-25T10:28:58.884Z</time>
      </trkpt>
      <trkpt lat="41.72674" lon="20.82318">
        <ele>1134.195713</ele>
        <time>2022-04-25T10:29:07.886Z</time>
      </trkpt>
      <trkpt lat="41.72673" lon="20.82305">
        <ele>1134.891124</ele>
        <time>2022-04-25T10:29:17.903Z</time>
      </trkpt>
      <trkpt lat="41.72668" lon="20.82286">
        <ele>1135.920888</ele>
        <time>2022-04-25T10:56:01.903Z</time>
      </trkpt>
      <trkpt lat="41.72662" lon="20.82275">
        <ele>1136.624851</ele>
        <time>2022-04-25T10:56:11.896Z</time>
      </trkpt>
      <trkpt lat="41.72657" lon="20.82264">
        <ele>1137.323863</ele>
        <time>2022-04-25T10:56:19.886Z</time>
      </trkpt>
      <trkpt lat="41.72653" lon="20.82253">
        <ele>1137.967443</ele>
        <time>2022-04-25T10:56:28.872Z</time>
      </trkpt>
      <trkpt lat="41.72647" lon="20.82242">
        <ele>1138.632479</ele>
        <time>2022-04-25T10:56:35.880Z</time>
      </trkpt>
      <trkpt lat="41.72642" lon="20.82233">
        <ele>1139.284927</ele>
        <time>2022-04-25T10:56:43.880Z</time>
      </trkpt>
      <trkpt lat="41.72634" lon="20.82223">
        <ele>1140.031636</ele>
        <time>2022-04-25T10:56:52.869Z</time>
      </trkpt>
      <trkpt lat="41.72628" lon="20.82214">
        <ele>1140.889601</ele>
        <time>2022-04-25T10:56:59.890Z</time>
      </trkpt>
      <trkpt lat="41.72621" lon="20.82206">
        <ele>1141.780999</ele>
        <time>2022-04-25T10:57:06.885Z</time>
      </trkpt>
      <trkpt lat="41.72615" lon="20.82197">
        <ele>1142.636715</ele>
        <time>2022-04-25T10:57:13.876Z</time>
      </trkpt>
      <trkpt lat="41.72611" lon="20.82185">
        <ele>1143.56551</ele>
        <time>2022-04-25T10:57:21.883Z</time>
      </trkpt>
      <trkpt lat="41.72607" lon="20.82174">
        <ele>1144.418589</ele>
        <time>2022-04-25T10:57:28.890Z</time>
      </trkpt>
      <trkpt lat="41.72605" lon="20.82161">
        <ele>1145.295638</ele>
        <time>2022-04-25T10:57:37.877Z</time>
      </trkpt>
      <trkpt lat="41.72605" lon="20.82149">
        <ele>1146.144545</ele>
        <time>2022-04-25T10:57:46.870Z</time>
      </trkpt>
      <trkpt lat="41.72606" lon="20.82136">
        <ele>1147.082875</ele>
        <time>2022-04-25T10:57:55.885Z</time>
      </trkpt>
      <trkpt lat="41.7261" lon="20.82123">
        <ele>1148.064048</ele>
        <time>2022-04-25T10:58:04.880Z</time>
      </trkpt>
      <trkpt lat="41.72613" lon="20.82111">
        <ele>1148.983132</ele>
        <time>2022-04-25T10:58:12.887Z</time>
      </trkpt>
      <trkpt lat="41.72617" lon="20.82099">
        <ele>1149.887149</ele>
        <time>2022-04-25T10:58:19.885Z</time>
      </trkpt>
      <trkpt lat="41.72622" lon="20.82088">
        <ele>1150.776498</ele>
        <time>2022-04-25T10:58:27.898Z</time>
      </trkpt>
      <trkpt lat="41.72628" lon="20.82078">
        <ele>1151.629959</ele>
        <time>2022-04-25T10:58:34.948Z</time>
      </trkpt>
      <trkpt lat="41.72633" lon="20.82068">
        <ele>1152.50836</ele>
        <time>2022-04-25T10:58:42.891Z</time>
      </trkpt>
      <trkpt lat="41.72637" lon="20.82056">
        <ele>1153.449754</ele>
        <time>2022-04-25T10:58:50.902Z</time>
      </trkpt>
      <trkpt lat="41.7264" lon="20.82044">
        <ele>1154.321018</ele>
        <time>2022-04-25T10:58:58.874Z</time>
      </trkpt>
      <trkpt lat="41.72645" lon="20.82033">
        <ele>1155.244083</ele>
        <time>2022-04-25T10:59:07.878Z</time>
      </trkpt>
      <trkpt lat="41.7265" lon="20.82021">
        <ele>1156.176385</ele>
        <time>2022-04-25T10:59:16.883Z</time>
      </trkpt>
      <trkpt lat="41.72656" lon="20.82011">
        <ele>1156.960361</ele>
        <time>2022-04-25T10:59:24.932Z</time>
      </trkpt>
      <trkpt lat="41.72662" lon="20.82002">
        <ele>1157.497976</ele>
        <time>2022-04-25T10:59:31.889Z</time>
      </trkpt>
      <trkpt lat="41.72666" lon="20.8199">
        <ele>1158.076398</ele>
        <time>2022-04-25T10:59:39.889Z</time>
      </trkpt>
      <trkpt lat="41.72672" lon="20.81979">
        <ele>1158.679868</ele>
        <time>2022-04-25T10:59:48.884Z</time>
      </trkpt>
      <trkpt lat="41.72677" lon="20.81969">
        <ele>1159.230113</ele>
        <time>2022-04-25T10:59:55.897Z</time>
      </trkpt>
      <trkpt lat="41.72684" lon="20.81959">
        <ele>1159.827187</ele>
        <time>2022-04-25T11:00:03.888Z</time>
      </trkpt>
      <trkpt lat="41.72689" lon="20.81949">
        <ele>1160.377188</ele>
        <time>2022-04-25T11:00:10.890Z</time>
      </trkpt>
      <trkpt lat="41.72694" lon="20.81939">
        <ele>1160.914662</ele>
        <time>2022-04-25T11:00:19.886Z</time>
      </trkpt>
      <trkpt lat="41.72697" lon="20.81927">
        <ele>1161.463545</ele>
        <time>2022-04-25T11:00:27.889Z</time>
      </trkpt>
      <trkpt lat="41.72701" lon="20.81916">
        <ele>1162.006805</ele>
        <time>2022-04-25T11:00:35.890Z</time>
      </trkpt>
      <trkpt lat="41.72704" lon="20.81904">
        <ele>1162.587102</ele>
        <time>2022-04-25T11:00:43.887Z</time>
      </trkpt>
      <trkpt lat="41.72706" lon="20.81891">
        <ele>1163.173779</ele>
        <time>2022-04-25T11:00:51.893Z</time>
      </trkpt>
      <trkpt lat="41.72708" lon="20.81878">
        <ele>1163.763328</ele>
        <time>2022-04-25T11:00:59.878Z</time>
      </trkpt>
      <trkpt lat="41.7271" lon="20.81866">
        <ele>1164.319787</ele>
        <time>2022-04-25T11:01:07.889Z</time>
      </trkpt>
      <trkpt lat="41.72713" lon="20.81854">
        <ele>1164.894437</ele>
        <time>2022-04-25T11:01:16.877Z</time>
      </trkpt>
      <trkpt lat="41.72715" lon="20.8184">
        <ele>1165.49681</ele>
        <time>2022-04-25T11:01:24.882Z</time>
      </trkpt>
      <trkpt lat="41.72718" lon="20.81828">
        <ele>1166.055168</ele>
        <time>2022-04-25T11:01:31.887Z</time>
      </trkpt>
      <trkpt lat="41.7272" lon="20.81816">
        <ele>1166.627832</ele>
        <time>2022-04-25T11:01:39.897Z</time>
      </trkpt>
      <trkpt lat="41.72723" lon="20.81804">
        <ele>1167.216418</ele>
        <time>2022-04-25T11:01:46.915Z</time>
      </trkpt>
      <trkpt lat="41.72725" lon="20.81791">
        <ele>1167.808786</ele>
        <time>2022-04-25T11:01:53.886Z</time>
      </trkpt>
      <trkpt lat="41.72725" lon="20.81778">
        <ele>1168.389936</ele>
        <time>2022-04-25T11:02:02.881Z</time>
      </trkpt>
      <trkpt lat="41.72725" lon="20.81766">
        <ele>1168.961214</ele>
        <time>2022-04-25T11:02:10.916Z</time>
      </trkpt>
      <trkpt lat="41.72725" lon="20.81754">
        <ele>1169.551319</ele>
        <time>2022-04-25T11:02:18.892Z</time>
      </trkpt>
      <trkpt lat="41.72726" lon="20.8174">
        <ele>1170.176087</ele>
        <time>2022-04-25T11:02:27.895Z</time>
      </trkpt>
      <trkpt lat="41.72727" lon="20.81727">
        <ele>1170.780135</ele>
        <time>2022-04-25T11:02:35.898Z</time>
      </trkpt>
      <trkpt lat="41.72727" lon="20.81715">
        <ele>1171.346695</ele>
        <time>2022-04-25T11:02:42.884Z</time>
      </trkpt>
      <trkpt lat="41.72728" lon="20.81703">
        <ele>1171.930683</ele>
        <time>2022-04-25T11:02:49.880Z</time>
      </trkpt>
      <trkpt lat="41.72726" lon="20.81691">
        <ele>1172.527471</ele>
        <time>2022-04-25T11:02:57.872Z</time>
      </trkpt>
      <trkpt lat="41.72725" lon="20.81678">
        <ele>1173.132332</ele>
        <time>2022-04-25T11:03:06.875Z</time>
      </trkpt>
      <trkpt lat="41.72725" lon="20.81666">
        <ele>1173.703575</ele>
        <time>2022-04-25T11:03:15.872Z</time>
      </trkpt>
      <trkpt lat="41.72725" lon="20.81653">
        <ele>1174.272355</ele>
        <time>2022-04-25T11:03:24.883Z</time>
      </trkpt>
      <trkpt lat="41.72727" lon="20.81641">
        <ele>1174.862678</ele>
        <time>2022-04-25T11:03:32.892Z</time>
      </trkpt>
      <trkpt lat="41.72727" lon="20.81629">
        <ele>1175.448808</ele>
        <time>2022-04-25T11:03:40.889Z</time>
      </trkpt>
      <trkpt lat="41.72727" lon="20.81615">
        <ele>1176.076364</ele>
        <time>2022-04-25T11:03:47.871Z</time>
      </trkpt>
      <trkpt lat="41.72726" lon="20.81603">
        <ele>1176.655697</ele>
        <time>2022-04-25T11:03:54.881Z</time>
      </trkpt>
      <trkpt lat="41.72724" lon="20.81589">
        <ele>1177.294777</ele>
        <time>2022-04-25T11:04:03.892Z</time>
      </trkpt>
      <trkpt lat="41.7272" lon="20.81577">
        <ele>1177.934098</ele>
        <time>2022-04-25T11:04:10.883Z</time>
      </trkpt>
      <trkpt lat="41.72717" lon="20.81564">
        <ele>1178.573117</ele>
        <time>2022-04-25T11:04:18.884Z</time>
      </trkpt>
      <trkpt lat="41.72715" lon="20.81552">
        <ele>1178.907191</ele>
        <time>2022-04-25T11:04:25.886Z</time>
      </trkpt>
      <trkpt lat="41.72714" lon="20.81539">
        <ele>1179.093392</ele>
        <time>2022-04-25T11:04:34.930Z</time>
      </trkpt>
      <trkpt lat="41.72715" lon="20.81526">
        <ele>1179.264881</ele>
        <time>2022-04-25T11:04:42.873Z</time>
      </trkpt>
      <trkpt lat="41.72718" lon="20.81515">
        <ele>1179.445589</ele>
        <time>2022-04-25T11:04:50.891Z</time>
      </trkpt>
      <trkpt lat="41.7272" lon="20.81503">
        <ele>1179.617759</ele>
        <time>2022-04-25T11:04:57.879Z</time>
      </trkpt>
      <trkpt lat="41.72724" lon="20.8149">
        <ele>1179.80537</ele>
        <time>2022-04-25T11:05:04.889Z</time>
      </trkpt>
      <trkpt lat="41.72729" lon="20.81479">
        <ele>1179.982143</ele>
        <time>2022-04-25T11:05:12.894Z</time>
      </trkpt>
      <trkpt lat="41.72735" lon="20.8147">
        <ele>1180.156279</ele>
        <time>2022-04-25T11:05:19.927Z</time>
      </trkpt>
      <trkpt lat="41.72742" lon="20.8146">
        <ele>1180.348535</ele>
        <time>2022-04-25T11:05:27.896Z</time>
      </trkpt>
      <trkpt lat="41.72747" lon="20.8145">
        <ele>1180.520276</ele>
        <time>2022-04-25T11:05:34.886Z</time>
      </trkpt>
      <trkpt lat="41.72753" lon="20.8144">
        <ele>1180.696511</ele>
        <time>2022-04-25T11:05:41.859Z</time>
      </trkpt>
      <trkpt lat="41.7276" lon="20.81432">
        <ele>1180.875236</ele>
        <time>2022-04-25T11:05:49.884Z</time>
      </trkpt>
      <trkpt lat="41.72766" lon="20.81422">
        <ele>1181.046315</ele>
        <time>2022-04-25T11:05:57.885Z</time>
      </trkpt>
      <trkpt lat="41.72773" lon="20.81414">
        <ele>1181.219044</ele>
        <time>2022-04-25T11:06:04.887Z</time>
      </trkpt>
      <trkpt lat="41.72779" lon="20.81406">
        <ele>1181.38887</ele>
        <time>2022-04-25T11:06:11.871Z</time>
      </trkpt>
      <trkpt lat="41.72788" lon="20.81398">
        <ele>1181.576698</ele>
        <time>2022-04-25T11:06:19.891Z</time>
      </trkpt>
      <trkpt lat="41.72796" lon="20.81391">
        <ele>1181.767821</ele>
        <time>2022-04-25T11:06:26.936Z</time>
      </trkpt>
      <trkpt lat="41.72804" lon="20.81381">
        <ele>1181.960379</ele>
        <time>2022-04-25T11:06:34.892Z</time>
      </trkpt>
      <trkpt lat="41.72809" lon="20.81371">
        <ele>1182.133459</ele>
        <time>2022-04-25T11:06:41.869Z</time>
      </trkpt>
      <trkpt lat="41.7281" lon="20.81359">
        <ele>1182.644473</ele>
        <time>2022-04-25T11:06:48.916Z</time>
      </trkpt>
      <trkpt lat="41.72812" lon="20.81347">
        <ele>1183.261665</ele>
        <time>2022-04-25T11:06:55.873Z</time>
      </trkpt>
      <trkpt lat="41.72815" lon="20.81334">
        <ele>1183.945169</ele>
        <time>2022-04-25T11:07:03.903Z</time>
      </trkpt>
      <trkpt lat="41.72819" lon="20.81323">
        <ele>1184.604684</ele>
        <time>2022-04-25T11:07:11.895Z</time>
      </trkpt>
      <trkpt lat="41.72823" lon="20.8131">
        <ele>1185.307808</ele>
        <time>2022-04-25T11:07:19.874Z</time>
      </trkpt>
      <trkpt lat="41.72827" lon="20.81298">
        <ele>1185.968986</ele>
        <time>2022-04-25T11:07:26.886Z</time>
      </trkpt>
      <trkpt lat="41.7283" lon="20.81287">
        <ele>1186.582495</ele>
        <time>2022-04-25T11:07:33.920Z</time>
      </trkpt>
      <trkpt lat="41.72833" lon="20.81274">
        <ele>1187.263898</ele>
        <time>2022-04-25T11:07:41.896Z</time>
      </trkpt>
      <trkpt lat="41.72837" lon="20.81263">
        <ele>1187.897893</ele>
        <time>2022-04-25T11:07:49.871Z</time>
      </trkpt>
      <trkpt lat="41.72843" lon="20.81253">
        <ele>1188.554232</ele>
        <time>2022-04-25T11:07:57.887Z</time>
      </trkpt>
      <trkpt lat="41.7285" lon="20.81245">
        <ele>1189.200044</ele>
        <time>2022-04-25T11:08:05.884Z</time>
      </trkpt>
      <trkpt lat="41.72858" lon="20.81237">
        <ele>1189.871989</ele>
        <time>2022-04-25T11:08:13.898Z</time>
      </trkpt>
      <trkpt lat="41.72867" lon="20.8123">
        <ele>1190.566692</ele>
        <time>2022-04-25T11:08:21.887Z</time>
      </trkpt>
      <trkpt lat="41.72876" lon="20.81224">
        <ele>1191.249562</ele>
        <time>2022-04-25T11:08:28.907Z</time>
      </trkpt>
      <trkpt lat="41.72884" lon="20.81218">
        <ele>1191.90493</ele>
        <time>2022-04-25T11:08:36.886Z</time>
      </trkpt>
      <trkpt lat="41.72893" lon="20.81213">
        <ele>1192.555803</ele>
        <time>2022-04-25T11:08:43.882Z</time>
      </trkpt>
      <trkpt lat="41.72902" lon="20.81208">
        <ele>1193.254802</ele>
        <time>2022-04-25T11:08:50.921Z</time>
      </trkpt>
      <trkpt lat="41.72911" lon="20.812">
        <ele>1193.946733</ele>
        <time>2022-04-25T11:08:59.895Z</time>
      </trkpt>
      <trkpt lat="41.72918" lon="20.81191">
        <ele>1194.582555</ele>
        <time>2022-04-25T11:09:06.885Z</time>
      </trkpt>
      <trkpt lat="41.72926" lon="20.81183">
        <ele>1194.978689</ele>
        <time>2022-04-25T11:09:14.882Z</time>
      </trkpt>
      <trkpt lat="41.72933" lon="20.81174">
        <ele>1195.394228</ele>
        <time>2022-04-25T11:09:24.883Z</time>
      </trkpt>
      <trkpt lat="41.72938" lon="20.81164">
        <ele>1195.765767</ele>
        <time>2022-04-25T11:09:31.886Z</time>
      </trkpt>
      <trkpt lat="41.72945" lon="20.81153">
        <ele>1196.191311</ele>
        <time>2022-04-25T11:09:39.884Z</time>
      </trkpt>
      <trkpt lat="41.72951" lon="20.81143">
        <ele>1196.595608</ele>
        <time>2022-04-25T11:09:46.907Z</time>
      </trkpt>
      <trkpt lat="41.72958" lon="20.81133">
        <ele>1197.00761</ele>
        <time>2022-04-25T11:09:53.926Z</time>
      </trkpt>
      <trkpt lat="41.72964" lon="20.81123">
        <ele>1197.414449</ele>
        <time>2022-04-25T11:10:01.880Z</time>
      </trkpt>
      <trkpt lat="41.72971" lon="20.81113">
        <ele>1197.806092</ele>
        <time>2022-04-25T11:10:09.879Z</time>
      </trkpt>
      <trkpt lat="41.72979" lon="20.81106">
        <ele>1198.211153</ele>
        <time>2022-04-25T11:10:16.866Z</time>
      </trkpt>
      <trkpt lat="41.72986" lon="20.81099">
        <ele>1198.598948</ele>
        <time>2022-04-25T11:10:23.889Z</time>
      </trkpt>
      <trkpt lat="41.72995" lon="20.81092">
        <ele>1199.016263</ele>
        <time>2022-04-25T11:10:30.879Z</time>
      </trkpt>
      <trkpt lat="41.73003" lon="20.81086">
        <ele>1199.404088</ele>
        <time>2022-04-25T11:10:37.880Z</time>
      </trkpt>
      <trkpt lat="41.73012" lon="20.81079">
        <ele>1199.815838</ele>
        <time>2022-04-25T11:10:44.904Z</time>
      </trkpt>
      <trkpt lat="41.7302" lon="20.81073">
        <ele>1200.196847</ele>
        <time>2022-04-25T11:10:50.890Z</time>
      </trkpt>
      <trkpt lat="41.73029" lon="20.81068">
        <ele>1200.592532</ele>
        <time>2022-04-25T11:10:57.867Z</time>
      </trkpt>
      <trkpt lat="41.73038" lon="20.81064">
        <ele>1200.99322</ele>
        <time>2022-04-25T11:11:05.889Z</time>
      </trkpt>
      <trkpt lat="41.73047" lon="20.81061">
        <ele>1201.382595</ele>
        <time>2022-04-25T11:11:13.890Z</time>
      </trkpt>
      <trkpt lat="41.73057" lon="20.81059">
        <ele>1201.764101</ele>
        <time>2022-04-25T11:11:20.887Z</time>
      </trkpt>
      <trkpt lat="41.73066" lon="20.81058">
        <ele>1202.357814</ele>
        <time>2022-04-25T11:11:28.879Z</time>
      </trkpt>
      <trkpt lat="41.73075" lon="20.81057">
        <ele>1202.989372</ele>
        <time>2022-04-25T11:11:35.864Z</time>
      </trkpt>
      <trkpt lat="41.73085" lon="20.81057">
        <ele>1203.655672</ele>
        <time>2022-04-25T11:11:42.912Z</time>
      </trkpt>
      <trkpt lat="41.73095" lon="20.81056">
        <ele>1204.353331</ele>
        <time>2022-04-25T11:11:51.893Z</time>
      </trkpt>
      <trkpt lat="41.73104" lon="20.81052">
        <ele>1205.015107</ele>
        <time>2022-04-25T11:12:00.912Z</time>
      </trkpt>
      <trkpt lat="41.73114" lon="20.81052">
        <ele>1205.716532</ele>
        <time>2022-04-25T11:12:09.883Z</time>
      </trkpt>
      <trkpt lat="41.73123" lon="20.81047">
        <ele>1206.380064</ele>
        <time>2022-04-25T11:12:17.864Z</time>
      </trkpt>
      <trkpt lat="41.73132" lon="20.81045">
        <ele>1207.07187</ele>
        <time>2022-04-25T11:12:24.867Z</time>
      </trkpt>
      <trkpt lat="41.73141" lon="20.81041">
        <ele>1207.728597</ele>
        <time>2022-04-25T11:12:31.900Z</time>
      </trkpt>
      <trkpt lat="41.7315" lon="20.81037">
        <ele>1208.383716</ele>
        <time>2022-04-25T11:12:37.886Z</time>
      </trkpt>
      <trkpt lat="41.73159" lon="20.81035">
        <ele>1209.023711</ele>
        <time>2022-04-25T11:12:44.964Z</time>
      </trkpt>
      <trkpt lat="41.73168" lon="20.81032">
        <ele>1209.671712</ele>
        <time>2022-04-25T11:12:52.895Z</time>
      </trkpt>
      <trkpt lat="41.73178" lon="20.81031">
        <ele>1210.374308</ele>
        <time>2022-04-25T11:13:00.909Z</time>
      </trkpt>
      <trkpt lat="41.73187" lon="20.81031">
        <ele>1211.027084</ele>
        <time>2022-04-25T11:13:08.894Z</time>
      </trkpt>
      <trkpt lat="41.73196" lon="20.81035">
        <ele>1211.680139</ele>
        <time>2022-04-25T11:13:16.879Z</time>
      </trkpt>
      <trkpt lat="41.73205" lon="20.81039">
        <ele>1212.317351</ele>
        <time>2022-04-25T11:13:26.900Z</time>
      </trkpt>
      <trkpt lat="41.73212" lon="20.81046">
        <ele>1212.961818</ele>
        <time>2022-04-25T11:13:34.882Z</time>
      </trkpt>
      <trkpt lat="41.7322" lon="20.81056">
        <ele>1213.694331</ele>
        <time>2022-04-25T11:13:42.885Z</time>
      </trkpt>
      <trkpt lat="41.73226" lon="20.81065">
        <ele>1214.348795</ele>
        <time>2022-04-25T11:13:51.879Z</time>
      </trkpt>
      <trkpt lat="41.73231" lon="20.81075">
        <ele>1214.728431</ele>
        <time>2022-04-25T11:13:59.888Z</time>
      </trkpt>
      <trkpt lat="41.73237" lon="20.81086">
        <ele>1215.02425</ele>
        <time>2022-04-25T11:14:06.892Z</time>
      </trkpt>
      <trkpt lat="41.73243" lon="20.81096">
        <ele>1215.324082</ele>
        <time>2022-04-25T11:14:14.886Z</time>
      </trkpt>
      <trkpt lat="41.7325" lon="20.81105">
        <ele>1215.637267</ele>
        <time>2022-04-25T11:14:22.887Z</time>
      </trkpt>
      <trkpt lat="41.73258" lon="20.81112">
        <ele>1215.933389</ele>
        <time>2022-04-25T11:14:30.929Z</time>
      </trkpt>
      <trkpt lat="41.73266" lon="20.81118">
        <ele>1216.222428</ele>
        <time>2022-04-25T11:14:37.877Z</time>
      </trkpt>
      <trkpt lat="41.73276" lon="20.81121">
        <ele>1216.538691</ele>
        <time>2022-04-25T11:14:44.883Z</time>
      </trkpt>
      <trkpt lat="41.73285" lon="20.81121">
        <ele>1216.827993</ele>
        <time>2022-04-25T11:14:50.888Z</time>
      </trkpt>
      <trkpt lat="41.73296" lon="20.81118">
        <ele>1217.164538</ele>
        <time>2022-04-25T11:14:58.925Z</time>
      </trkpt>
      <trkpt lat="41.73305" lon="20.81118">
        <ele>1217.454175</ele>
        <time>2022-04-25T11:15:04.912Z</time>
      </trkpt>
      <trkpt lat="41.73315" lon="20.81117">
        <ele>1217.768441</ele>
        <time>2022-04-25T11:15:12.887Z</time>
      </trkpt>
      <trkpt lat="41.73325" lon="20.81117">
        <ele>1218.051531</ele>
        <time>2022-04-25T11:15:18.870Z</time>
      </trkpt>
      <trkpt lat="41.73333" lon="20.81113">
        <ele>1218.343334</ele>
        <time>2022-04-25T11:15:26.886Z</time>
      </trkpt>
      <trkpt lat="41.73341" lon="20.81106">
        <ele>1218.63666</ele>
        <time>2022-04-25T11:15:34.879Z</time>
      </trkpt>
      <trkpt lat="41.73348" lon="20.81097">
        <ele>1218.930732</ele>
        <time>2022-04-25T11:15:42.895Z</time>
      </trkpt>
      <trkpt lat="41.73353" lon="20.81086">
        <ele>1219.238328</ele>
        <time>2022-04-25T11:15:50.902Z</time>
      </trkpt>
      <trkpt lat="41.73358" lon="20.81074">
        <ele>1219.541085</ele>
        <time>2022-04-25T11:15:57.879Z</time>
      </trkpt>
      <trkpt lat="41.73361" lon="20.81061">
        <ele>1219.867447</ele>
        <time>2022-04-25T11:16:04.887Z</time>
      </trkpt>
      <trkpt lat="41.73364" lon="20.81048">
        <ele>1220.188275</ele>
        <time>2022-04-25T11:16:11.913Z</time>
      </trkpt>
      <trkpt lat="41.73366" lon="20.81035">
        <ele>1220.51044</ele>
        <time>2022-04-25T11:16:18.928Z</time>
      </trkpt>
      <trkpt lat="41.73367" lon="20.81022">
        <ele>1220.814502</ele>
        <time>2022-04-25T11:16:25.872Z</time>
      </trkpt>
      <trkpt lat="41.73368" lon="20.81009">
        <ele>1221.148082</ele>
        <time>2022-04-25T11:16:33.869Z</time>
      </trkpt>
      <trkpt lat="41.73368" lon="20.80996">
        <ele>1221.468653</ele>
        <time>2022-04-25T11:16:42.884Z</time>
      </trkpt>
      <trkpt lat="41.73368" lon="20.80982">
        <ele>1221.795436</ele>
        <time>2022-04-25T11:16:50.886Z</time>
      </trkpt>
      <trkpt lat="41.7337" lon="20.80969">
        <ele>1222.129825</ele>
        <time>2022-04-25T11:16:59.893Z</time>
      </trkpt>
      <trkpt lat="41.73372" lon="20.80956">
        <ele>1222.461814</ele>
        <time>2022-04-25T11:17:06.924Z</time>
      </trkpt>
      <trkpt lat="41.73375" lon="20.80944">
        <ele>1222.762226</ele>
        <time>2022-04-25T11:17:13.897Z</time>
      </trkpt>
      <trkpt lat="41.73378" lon="20.80932">
        <ele>1223.075753</ele>
        <time>2022-04-25T11:17:21.883Z</time>
      </trkpt>
      <trkpt lat="41.73381" lon="20.8092">
        <ele>1223.379949</ele>
        <time>2022-04-25T11:17:28.884Z</time>
      </trkpt>
      <trkpt lat="41.73384" lon="20.80908">
        <ele>1223.691891</ele>
        <time>2022-04-25T11:17:36.915Z</time>
      </trkpt>
      <trkpt lat="41.73386" lon="20.80895">
        <ele>1224.004713</ele>
        <time>2022-04-25T11:17:42.910Z</time>
      </trkpt>
      <trkpt lat="41.73387" lon="20.80883">
        <ele>1224.318388</ele>
        <time>2022-04-25T11:17:49.896Z</time>
      </trkpt>
      <trkpt lat="41.73389" lon="20.80871">
        <ele>1224.621494</ele>
        <time>2022-04-25T11:17:56.889Z</time>
      </trkpt>
      <trkpt lat="41.73391" lon="20.80858">
        <ele>1224.952584</ele>
        <time>2022-04-25T11:18:05.886Z</time>
      </trkpt>
      <trkpt lat="41.73395" lon="20.80845">
        <ele>1225.276419</ele>
        <time>2022-04-25T11:18:12.886Z</time>
      </trkpt>
      <trkpt lat="41.73399" lon="20.80834">
        <ele>1225.575625</ele>
        <time>2022-04-25T11:18:19.880Z</time>
      </trkpt>
      <trkpt lat="41.73401" lon="20.80821">
        <ele>1225.908864</ele>
        <time>2022-04-25T11:18:28.878Z</time>
      </trkpt>
      <trkpt lat="41.73402" lon="20.80809">
        <ele>1226.618264</ele>
        <time>2022-04-25T11:18:35.888Z</time>
      </trkpt>
      <trkpt lat="41.73402" lon="20.80797">
        <ele>1227.553804</ele>
        <time>2022-04-25T11:18:42.900Z</time>
      </trkpt>
      <trkpt lat="41.73402" lon="20.80784">
        <ele>1228.482021</ele>
        <time>2022-04-25T11:18:50.885Z</time>
      </trkpt>
      <trkpt lat="41.73402" lon="20.80771">
        <ele>1229.493432</ele>
        <time>2022-04-25T11:18:59.876Z</time>
      </trkpt>
      <trkpt lat="41.73403" lon="20.80758">
        <ele>1230.488313</ele>
        <time>2022-04-25T11:19:07.883Z</time>
      </trkpt>
      <trkpt lat="41.73404" lon="20.80745">
        <ele>1231.454531</ele>
        <time>2022-04-25T11:19:15.870Z</time>
      </trkpt>
      <trkpt lat="41.73404" lon="20.80732">
        <ele>1232.438855</ele>
        <time>2022-04-25T11:19:24.881Z</time>
      </trkpt>
      <trkpt lat="41.73404" lon="20.8072">
        <ele>1233.369307</ele>
        <time>2022-04-25T11:19:32.916Z</time>
      </trkpt>
      <trkpt lat="41.73401" lon="20.80708">
        <ele>1234.315109</ele>
        <time>2022-04-25T11:19:41.883Z</time>
      </trkpt>
      <trkpt lat="41.73399" lon="20.80696">
        <ele>1235.288773</ele>
        <time>2022-04-25T11:19:50.870Z</time>
      </trkpt>
      <trkpt lat="41.73399" lon="20.80684">
        <ele>1236.208939</ele>
        <time>2022-04-25T11:19:59.876Z</time>
      </trkpt>
      <trkpt lat="41.73402" lon="20.80671">
        <ele>1237.173174</ele>
        <time>2022-04-25T11:20:07.920Z</time>
      </trkpt>
      <trkpt lat="41.73403" lon="20.80659">
        <ele>1238.091351</ele>
        <time>2022-04-25T11:20:15.889Z</time>
      </trkpt>
      <trkpt lat="41.73402" lon="20.80647">
        <ele>1239.06517</ele>
        <time>2022-04-25T11:20:23.886Z</time>
      </trkpt>
      <trkpt lat="41.73402" lon="20.80633">
        <ele>1240.06179</ele>
        <time>2022-04-25T11:20:30.924Z</time>
      </trkpt>
      <trkpt lat="41.73402" lon="20.8062">
        <ele>1241.073612</ele>
        <time>2022-04-25T11:20:37.865Z</time>
      </trkpt>
      <trkpt lat="41.73401" lon="20.80608">
        <ele>1242.016889</ele>
        <time>2022-04-25T11:20:43.911Z</time>
      </trkpt>
      <trkpt lat="41.73402" lon="20.80595">
        <ele>1243.001213</ele>
        <time>2022-04-25T11:20:50.879Z</time>
      </trkpt>
      <trkpt lat="41.73403" lon="20.80583">
        <ele>1243.930809</ele>
        <time>2022-04-25T11:21:00.881Z</time>
      </trkpt>
      <trkpt lat="41.73401" lon="20.80571">
        <ele>1244.402484</ele>
        <time>2022-04-25T11:21:08.899Z</time>
      </trkpt>
      <trkpt lat="41.73401" lon="20.80558">
        <ele>1244.522372</ele>
        <time>2022-04-25T11:21:16.912Z</time>
      </trkpt>
      <trkpt lat="41.73401" lon="20.80546">
        <ele>1244.638457</ele>
        <time>2022-04-25T11:21:23.882Z</time>
      </trkpt>
      <trkpt lat="41.734" lon="20.80533">
        <ele>1244.759639</ele>
        <time>2022-04-25T11:21:32.886Z</time>
      </trkpt>
      <trkpt lat="41.734" lon="20.8052">
        <ele>1244.877596</ele>
        <time>2022-04-25T11:21:40.866Z</time>
      </trkpt>
      <trkpt lat="41.73402" lon="20.80508">
        <ele>1244.996917</ele>
        <time>2022-04-25T11:21:49.883Z</time>
      </trkpt>
      <trkpt lat="41.73404" lon="20.80491">
        <ele>1245.153615</ele>
        <time>2022-04-25T11:34:57.880Z</time>
      </trkpt>
      <trkpt lat="41.73405" lon="20.80478">
        <ele>1245.277195</ele>
        <time>2022-04-25T11:35:04.893Z</time>
      </trkpt>
      <trkpt lat="41.73403" lon="20.80466">
        <ele>1245.392566</ele>
        <time>2022-04-25T11:35:12.886Z</time>
      </trkpt>
      <trkpt lat="41.73403" lon="20.80453">
        <ele>1245.513338</ele>
        <time>2022-04-25T11:35:20.880Z</time>
      </trkpt>
      <trkpt lat="41.73406" lon="20.80441">
        <ele>1245.62603</ele>
        <time>2022-04-25T11:35:26.872Z</time>
      </trkpt>
      <trkpt lat="41.73408" lon="20.80429">
        <ele>1245.749654</ele>
        <time>2022-04-25T11:35:32.880Z</time>
      </trkpt>
      <trkpt lat="41.7341" lon="20.80416">
        <ele>1245.868834</ele>
        <time>2022-04-25T11:35:38.872Z</time>
      </trkpt>
      <trkpt lat="41.73411" lon="20.80402">
        <ele>1245.999179</ele>
        <time>2022-04-25T11:35:45.890Z</time>
      </trkpt>
      <trkpt lat="41.73412" lon="20.8039">
        <ele>1246.117908</ele>
        <time>2022-04-25T11:35:53.893Z</time>
      </trkpt>
      <trkpt lat="41.73416" lon="20.80377">
        <ele>1246.243772</ele>
        <time>2022-04-25T11:36:01.878Z</time>
      </trkpt>
      <trkpt lat="41.73419" lon="20.80366">
        <ele>1246.359117</ele>
        <time>2022-04-25T11:36:08.885Z</time>
      </trkpt>
      <trkpt lat="41.73424" lon="20.80354">
        <ele>1246.485753</ele>
        <time>2022-04-25T11:36:15.903Z</time>
      </trkpt>
      <trkpt lat="41.73428" lon="20.80342">
        <ele>1246.665855</ele>
        <time>2022-04-25T11:36:21.880Z</time>
      </trkpt>
      <trkpt lat="41.73432" lon="20.8033">
        <ele>1247.491415</ele>
        <time>2022-04-25T11:36:29.884Z</time>
      </trkpt>
      <trkpt lat="41.73435" lon="20.80318">
        <ele>1248.296289</ele>
        <time>2022-04-25T11:36:37.869Z</time>
      </trkpt>
      <trkpt lat="41.73436" lon="20.80305">
        <ele>1249.046979</ele>
        <time>2022-04-25T11:36:44.876Z</time>
      </trkpt>
      <trkpt lat="41.73437" lon="20.80292">
        <ele>1249.86495</ele>
        <time>2022-04-25T11:36:52.885Z</time>
      </trkpt>
      <trkpt lat="41.7344" lon="20.8028">
        <ele>1250.664824</ele>
        <time>2022-04-25T11:36:59.891Z</time>
      </trkpt>
      <trkpt lat="41.73439" lon="20.80266">
        <ele>1251.491885</ele>
        <time>2022-04-25T11:37:07.863Z</time>
      </trkpt>
      <trkpt lat="41.73439" lon="20.80254">
        <ele>1252.240547</ele>
        <time>2022-04-25T11:37:14.882Z</time>
      </trkpt>
      <trkpt lat="41.73436" lon="20.80242">
        <ele>1252.982841</ele>
        <time>2022-04-25T11:37:21.890Z</time>
      </trkpt>
      <trkpt lat="41.73436" lon="20.80229">
        <ele>1253.79534</ele>
        <time>2022-04-25T11:37:28.897Z</time>
      </trkpt>
      <trkpt lat="41.73434" lon="20.80216">
        <ele>1254.614508</ele>
        <time>2022-04-25T11:37:36.859Z</time>
      </trkpt>
      <trkpt lat="41.73431" lon="20.80204">
        <ele>1255.399386</ele>
        <time>2022-04-25T11:37:43.877Z</time>
      </trkpt>
      <trkpt lat="41.73428" lon="20.80192">
        <ele>1256.161017</ele>
        <time>2022-04-25T11:37:51.860Z</time>
      </trkpt>
      <trkpt lat="41.73426" lon="20.80179">
        <ele>1256.996334</ele>
        <time>2022-04-25T11:38:00.867Z</time>
      </trkpt>
      <trkpt lat="41.73424" lon="20.80166">
        <ele>1257.804072</ele>
        <time>2022-04-25T11:38:09.869Z</time>
      </trkpt>
      <trkpt lat="41.73422" lon="20.80153">
        <ele>1258.611113</ele>
        <time>2022-04-25T11:38:17.865Z</time>
      </trkpt>
      <trkpt lat="41.73419" lon="20.80142">
        <ele>1259.349867</ele>
        <time>2022-04-25T11:38:25.893Z</time>
      </trkpt>
      <trkpt lat="41.73418" lon="20.80129">
        <ele>1260.156253</ele>
        <time>2022-04-25T11:38:33.882Z</time>
      </trkpt>
      <trkpt lat="41.73419" lon="20.80115">
        <ele>1260.993216</ele>
        <time>2022-04-25T11:38:41.878Z</time>
      </trkpt>
      <trkpt lat="41.73419" lon="20.80102">
        <ele>1261.505054</ele>
        <time>2022-04-25T11:38:49.882Z</time>
      </trkpt>
      <trkpt lat="41.73417" lon="20.8009">
        <ele>1261.754781</ele>
        <time>2022-04-25T11:38:59.902Z</time>
      </trkpt>
      <trkpt lat="41.73414" lon="20.80078">
        <ele>1261.995115</ele>
        <time>2022-04-25T11:39:10.890Z</time>
      </trkpt>
      <trkpt lat="41.73414" lon="20.80065">
        <ele>1262.263424</ele>
        <time>2022-04-25T11:39:19.871Z</time>
      </trkpt>
      <trkpt lat="41.73415" lon="20.80052">
        <ele>1262.50434</ele>
        <time>2022-04-25T11:39:26.892Z</time>
      </trkpt>
      <trkpt lat="41.73417" lon="20.80039">
        <ele>1262.776216</ele>
        <time>2022-04-25T11:39:33.881Z</time>
      </trkpt>
      <trkpt lat="41.73418" lon="20.80026">
        <ele>1263.034589</ele>
        <time>2022-04-25T11:39:41.888Z</time>
      </trkpt>
      <trkpt lat="41.73418" lon="20.80014">
        <ele>1263.269737</ele>
        <time>2022-04-25T11:39:48.893Z</time>
      </trkpt>
      <trkpt lat="41.73418" lon="20.8">
        <ele>1263.535986</ele>
        <time>2022-04-25T11:39:56.880Z</time>
      </trkpt>
      <trkpt lat="41.73418" lon="20.79987">
        <ele>1263.796402</ele>
        <time>2022-04-25T11:40:04.924Z</time>
      </trkpt>
      <trkpt lat="41.73416" lon="20.79973">
        <ele>1264.066361</ele>
        <time>2022-04-25T11:40:12.884Z</time>
      </trkpt>
      <trkpt lat="41.73413" lon="20.79961">
        <ele>1264.306489</ele>
        <time>2022-04-25T11:40:18.889Z</time>
      </trkpt>
      <trkpt lat="41.73408" lon="20.7995">
        <ele>1264.564437</ele>
        <time>2022-04-25T11:40:26.906Z</time>
      </trkpt>
      <trkpt lat="41.73401" lon="20.79941">
        <ele>1264.81682</ele>
        <time>2022-04-25T11:40:34.861Z</time>
      </trkpt>
      <trkpt lat="41.73393" lon="20.79935">
        <ele>1265.060241</ele>
        <time>2022-04-25T11:40:41.872Z</time>
      </trkpt>
      <trkpt lat="41.73386" lon="20.79928">
        <ele>1265.301083</ele>
        <time>2022-04-25T11:40:48.886Z</time>
      </trkpt>
      <trkpt lat="41.73377" lon="20.79923">
        <ele>1265.538228</ele>
        <time>2022-04-25T11:40:55.889Z</time>
      </trkpt>
      <trkpt lat="41.73368" lon="20.79918">
        <ele>1265.790639</ele>
        <time>2022-04-25T11:41:02.882Z</time>
      </trkpt>
      <trkpt lat="41.73359" lon="20.79916">
        <ele>1266.05014</ele>
        <time>2022-04-25T11:41:10.879Z</time>
      </trkpt>
      <trkpt lat="41.73349" lon="20.79914">
        <ele>1266.930819</ele>
        <time>2022-04-25T11:41:17.886Z</time>
      </trkpt>
      <trkpt lat="41.7334" lon="20.79909">
        <ele>1268.010573</ele>
        <time>2022-04-25T11:41:24.876Z</time>
      </trkpt>
      <trkpt lat="41.73332" lon="20.79902">
        <ele>1268.962368</ele>
        <time>2022-04-25T11:41:31.882Z</time>
      </trkpt>
      <trkpt lat="41.73324" lon="20.79894">
        <ele>1270.019322</ele>
        <time>2022-04-25T11:41:38.882Z</time>
      </trkpt>
      <trkpt lat="41.73317" lon="20.79885">
        <ele>1271.011607</ele>
        <time>2022-04-25T11:41:45.881Z</time>
      </trkpt>
      <trkpt lat="41.73312" lon="20.79875">
        <ele>1272.011122</ele>
        <time>2022-04-25T11:41:52.919Z</time>
      </trkpt>
      <trkpt lat="41.73307" lon="20.79864">
        <ele>1273.010609</ele>
        <time>2022-04-25T11:42:00.886Z</time>
      </trkpt>
      <trkpt lat="41.73303" lon="20.79851">
        <ele>1274.052954</ele>
        <time>2022-04-25T11:42:08.868Z</time>
      </trkpt>
      <trkpt lat="41.733" lon="20.7984">
        <ele>1275.00509</ele>
        <time>2022-04-25T11:42:17.873Z</time>
      </trkpt>
      <trkpt lat="41.73297" lon="20.79827">
        <ele>1276.031844</ele>
        <time>2022-04-25T11:42:26.890Z</time>
      </trkpt>
      <trkpt lat="41.733" lon="20.79815">
        <ele>1277.01196</ele>
        <time>2022-04-25T11:42:34.858Z</time>
      </trkpt>
      <trkpt lat="41.73303" lon="20.79804">
        <ele>1277.989369</ele>
        <time>2022-04-25T11:42:42.878Z</time>
      </trkpt>
      <trkpt lat="41.73305" lon="20.79791">
        <ele>1278.98658</ele>
        <time>2022-04-25T11:42:51.868Z</time>
      </trkpt>
      <trkpt lat="41.73308" lon="20.79779">
        <ele>1279.987746</ele>
        <time>2022-04-25T11:42:59.884Z</time>
      </trkpt>
      <trkpt lat="41.73311" lon="20.79768">
        <ele>1280.939445</ele>
        <time>2022-04-25T11:43:08.874Z</time>
      </trkpt>
      <trkpt lat="41.73314" lon="20.79756">
        <ele>1281.885061</ele>
        <time>2022-04-25T11:43:16.912Z</time>
      </trkpt>
      <trkpt lat="41.73316" lon="20.79744">
        <ele>1282.874683</ele>
        <time>2022-04-25T11:43:23.881Z</time>
      </trkpt>
      <trkpt lat="41.73319" lon="20.79733">
        <ele>1283.830965</ele>
        <time>2022-04-25T11:43:30.893Z</time>
      </trkpt>
      <trkpt lat="41.7332" lon="20.7972">
        <ele>1284.822841</ele>
        <time>2022-04-25T11:43:38.875Z</time>
      </trkpt>
      <trkpt lat="41.73321" lon="20.79707">
        <ele>1285.825636</ele>
        <time>2022-04-25T11:43:46.872Z</time>
      </trkpt>
      <trkpt lat="41.73321" lon="20.79695">
        <ele>1286.792411</ele>
        <time>2022-04-25T11:43:53.909Z</time>
      </trkpt>
      <trkpt lat="41.7332" lon="20.79683">
        <ele>1287.774644</ele>
        <time>2022-04-25T11:44:01.876Z</time>
      </trkpt>
      <trkpt lat="41.73318" lon="20.79671">
        <ele>1288.737734</ele>
        <time>2022-04-25T11:44:08.901Z</time>
      </trkpt>
      <trkpt lat="41.73315" lon="20.79659">
        <ele>1289.79785</ele>
        <time>2022-04-25T11:44:16.874Z</time>
      </trkpt>
      <trkpt lat="41.73311" lon="20.79647">
        <ele>1290.854201</ele>
        <time>2022-04-25T11:44:26.908Z</time>
      </trkpt>
      <trkpt lat="41.73308" lon="20.79635">
        <ele>1291.875178</ele>
        <time>2022-04-25T11:44:35.883Z</time>
      </trkpt>
      <trkpt lat="41.73305" lon="20.79622">
        <ele>1292.884779</ele>
        <time>2022-04-25T11:44:42.886Z</time>
      </trkpt>
      <trkpt lat="41.73302" lon="20.79611">
        <ele>1293.849909</ele>
        <time>2022-04-25T11:44:50.875Z</time>
      </trkpt>
      <trkpt lat="41.73298" lon="20.79599">
        <ele>1294.884414</ele>
        <time>2022-04-25T11:44:58.882Z</time>
      </trkpt>
      <trkpt lat="41.73295" lon="20.79588">
        <ele>1295.875757</ele>
        <time>2022-04-25T11:45:07.893Z</time>
      </trkpt>
      <trkpt lat="41.7329" lon="20.79577">
        <ele>1296.873697</ele>
        <time>2022-04-25T11:45:15.891Z</time>
      </trkpt>
      <trkpt lat="41.73286" lon="20.79565">
        <ele>1297.887996</ele>
        <time>2022-04-25T11:45:23.874Z</time>
      </trkpt>
      <trkpt lat="41.73282" lon="20.79555">
        <ele>1298.844022</ele>
        <time>2022-04-25T11:45:30.867Z</time>
      </trkpt>
      <trkpt lat="41.73279" lon="20.79543">
        <ele>1299.878121</ele>
        <time>2022-04-25T11:45:38.871Z</time>
      </trkpt>
      <trkpt lat="41.73276" lon="20.79531">
        <ele>1300.835866</ele>
        <time>2022-04-25T11:45:46.892Z</time>
      </trkpt>
      <trkpt lat="41.73272" lon="20.7952">
        <ele>1301.877646</ele>
        <time>2022-04-25T11:45:56.888Z</time>
      </trkpt>
      <trkpt lat="41.7327" lon="20.79507">
        <ele>1302.877033</ele>
        <time>2022-04-25T11:46:05.880Z</time>
      </trkpt>
      <trkpt lat="41.73267" lon="20.79495">
        <ele>1303.86869</ele>
        <time>2022-04-25T11:46:12.883Z</time>
      </trkpt>
      <trkpt lat="41.73264" lon="20.79484">
        <ele>1304.719192</ele>
        <time>2022-04-25T11:46:19.879Z</time>
      </trkpt>
      <trkpt lat="41.73261" lon="20.79471">
        <ele>1305.548367</ele>
        <time>2022-04-25T11:46:28.886Z</time>
      </trkpt>
      <trkpt lat="41.73259" lon="20.79459">
        <ele>1306.319256</ele>
        <time>2022-04-25T11:46:37.879Z</time>
      </trkpt>
      <trkpt lat="41.73259" lon="20.79446">
        <ele>1307.083242</ele>
        <time>2022-04-25T11:46:44.874Z</time>
      </trkpt>
      <trkpt lat="41.73258" lon="20.79434">
        <ele>1307.840695</ele>
        <time>2022-04-25T11:46:52.875Z</time>
      </trkpt>
      <trkpt lat="41.73256" lon="20.79421">
        <ele>1308.672021</ele>
        <time>2022-04-25T11:47:01.904Z</time>
      </trkpt>
      <trkpt lat="41.73257" lon="20.79409">
        <ele>1309.443686</ele>
        <time>2022-04-25T11:47:10.890Z</time>
      </trkpt>
      <trkpt lat="41.73257" lon="20.79396">
        <ele>1310.250557</ele>
        <time>2022-04-25T11:47:19.891Z</time>
      </trkpt>
      <trkpt lat="41.73256" lon="20.79383">
        <ele>1311.023656</ele>
        <time>2022-04-25T11:47:28.890Z</time>
      </trkpt>
      <trkpt lat="41.73257" lon="20.7937">
        <ele>1311.826909</ele>
        <time>2022-04-25T11:47:35.877Z</time>
      </trkpt>
      <trkpt lat="41.73258" lon="20.79358">
        <ele>1312.607956</ele>
        <time>2022-04-25T11:47:45.892Z</time>
      </trkpt>
      <trkpt lat="41.7326" lon="20.79345">
        <ele>1313.399555</ele>
        <time>2022-04-25T11:47:55.884Z</time>
      </trkpt>
      <trkpt lat="41.73263" lon="20.79333">
        <ele>1314.225145</ele>
        <time>2022-04-25T11:48:05.877Z</time>
      </trkpt>
      <trkpt lat="41.73267" lon="20.7932">
        <ele>1315.047924</ele>
        <time>2022-04-25T11:48:13.890Z</time>
      </trkpt>
      <trkpt lat="41.73268" lon="20.79307">
        <ele>1315.888747</ele>
        <time>2022-04-25T11:48:23.885Z</time>
      </trkpt>
      <trkpt lat="41.73269" lon="20.79294">
        <ele>1316.671914</ele>
        <time>2022-04-25T11:48:31.890Z</time>
      </trkpt>
      <trkpt lat="41.73269" lon="20.7928">
        <ele>1317.565526</ele>
        <time>2022-04-25T11:48:40.935Z</time>
      </trkpt>
      <trkpt lat="41.73269" lon="20.79267">
        <ele>1318.403251</ele>
        <time>2022-04-25T11:48:47.866Z</time>
      </trkpt>
      <trkpt lat="41.7327" lon="20.79253">
        <ele>1319.217291</ele>
        <time>2022-04-25T11:48:55.881Z</time>
      </trkpt>
      <trkpt lat="41.73271" lon="20.79239">
        <ele>1319.4995</ele>
        <time>2022-04-25T11:49:01.879Z</time>
      </trkpt>
      <trkpt lat="41.73271" lon="20.79227">
        <ele>1319.767692</ele>
        <time>2022-04-25T11:49:08.872Z</time>
      </trkpt>
      <trkpt lat="41.7327" lon="20.79213">
        <ele>1320.045442</ele>
        <time>2022-04-25T11:49:15.870Z</time>
      </trkpt>
      <trkpt lat="41.73269" lon="20.79201">
        <ele>1320.313927</ele>
        <time>2022-04-25T11:49:22.893Z</time>
      </trkpt>
      <trkpt lat="41.73264" lon="20.79189">
        <ele>1320.588409</ele>
        <time>2022-04-25T11:49:30.888Z</time>
      </trkpt>
      <trkpt lat="41.73262" lon="20.79178">
        <ele>1320.842525</ele>
        <time>2022-04-25T11:49:37.876Z</time>
      </trkpt>
      <trkpt lat="41.7326" lon="20.79165">
        <ele>1321.11628</ele>
        <time>2022-04-25T11:49:46.878Z</time>
      </trkpt>
      <trkpt lat="41.73258" lon="20.79152">
        <ele>1321.383099</ele>
        <time>2022-04-25T11:49:54.870Z</time>
      </trkpt>
      <trkpt lat="41.73253" lon="20.7914">
        <ele>1321.676313</ele>
        <time>2022-04-25T11:50:02.898Z</time>
      </trkpt>
      <trkpt lat="41.7325" lon="20.79128">
        <ele>1321.944353</ele>
        <time>2022-04-25T11:50:09.888Z</time>
      </trkpt>
      <trkpt lat="41.73245" lon="20.79116">
        <ele>1322.218041</ele>
        <time>2022-04-25T11:50:18.910Z</time>
      </trkpt>
      <trkpt lat="41.73241" lon="20.79105">
        <ele>1322.472984</ele>
        <time>2022-04-25T11:50:26.871Z</time>
      </trkpt>
      <trkpt lat="41.73236" lon="20.79095">
        <ele>1322.735499</ele>
        <time>2022-04-25T11:50:34.874Z</time>
      </trkpt>
      <trkpt lat="41.73231" lon="20.79085">
        <ele>1322.997228</ele>
        <time>2022-04-25T11:50:41.891Z</time>
      </trkpt>
      <trkpt lat="41.73225" lon="20.79075">
        <ele>1323.260977</ele>
        <time>2022-04-25T11:50:47.908Z</time>
      </trkpt>
      <trkpt lat="41.73219" lon="20.79064">
        <ele>1323.547972</ele>
        <time>2022-04-25T11:50:55.878Z</time>
      </trkpt>
      <trkpt lat="41.73214" lon="20.79054">
        <ele>1323.803035</ele>
        <time>2022-04-25T11:51:03.873Z</time>
      </trkpt>
      <trkpt lat="41.73206" lon="20.79047">
        <ele>1324.064073</ele>
        <time>2022-04-25T11:51:11.873Z</time>
      </trkpt>
      <trkpt lat="41.73199" lon="20.79037">
        <ele>1324.591356</ele>
        <time>2022-04-25T11:51:21.874Z</time>
      </trkpt>
      <trkpt lat="41.73181" lon="20.79032">
        <ele>1326.342241</ele>
        <time>2022-04-25T11:58:33.918Z</time>
      </trkpt>
      <trkpt lat="41.73173" lon="20.79029">
        <ele>1327.215365</ele>
        <time>2022-04-25T11:58:42.859Z</time>
      </trkpt>
      <trkpt lat="41.73164" lon="20.79026">
        <ele>1328.131255</ele>
        <time>2022-04-25T11:58:52.882Z</time>
      </trkpt>
      <trkpt lat="41.73155" lon="20.7902">
        <ele>1329.067703</ele>
        <time>2022-04-25T11:59:00.861Z</time>
      </trkpt>
      <trkpt lat="41.73145" lon="20.79015">
        <ele>1330.072741</ele>
        <time>2022-04-25T11:59:07.850Z</time>
      </trkpt>
      <trkpt lat="41.73139" lon="20.79006">
        <ele>1330.979763</ele>
        <time>2022-04-25T11:59:12.864Z</time>
      </trkpt>
      <trkpt lat="41.73133" lon="20.78997">
        <ele>1331.87148</ele>
        <time>2022-04-25T11:59:18.847Z</time>
      </trkpt>
      <trkpt lat="41.73127" lon="20.78987">
        <ele>1332.777469</ele>
        <time>2022-04-25T11:59:27.848Z</time>
      </trkpt>
      <trkpt lat="41.73121" lon="20.78977">
        <ele>1333.742742</ele>
        <time>2022-04-25T11:59:37.881Z</time>
      </trkpt>
      <trkpt lat="41.73114" lon="20.78967">
        <ele>1334.695202</ele>
        <time>2022-04-25T11:59:46.849Z</time>
      </trkpt>
      <trkpt lat="41.73108" lon="20.78957">
        <ele>1335.681715</ele>
        <time>2022-04-25T11:59:54.863Z</time>
      </trkpt>
      <trkpt lat="41.73101" lon="20.78947">
        <ele>1336.615286</ele>
        <time>2022-04-25T12:00:01.851Z</time>
      </trkpt>
      <trkpt lat="41.73097" lon="20.78936">
        <ele>1337.511254</ele>
        <time>2022-04-25T12:00:09.856Z</time>
      </trkpt>
      <trkpt lat="41.73094" lon="20.78925">
        <ele>1338.386847</ele>
        <time>2022-04-25T12:00:18.861Z</time>
      </trkpt>
      <trkpt lat="41.7309" lon="20.78913">
        <ele>1339.328277</ele>
        <time>2022-04-25T12:00:27.852Z</time>
      </trkpt>
      <trkpt lat="41.73086" lon="20.789">
        <ele>1340.313442</ele>
        <time>2022-04-25T12:00:35.850Z</time>
      </trkpt>
      <trkpt lat="41.73079" lon="20.7889">
        <ele>1341.283288</ele>
        <time>2022-04-25T12:00:43.851Z</time>
      </trkpt>
      <trkpt lat="41.73073" lon="20.78879">
        <ele>1341.831576</ele>
        <time>2022-04-25T12:00:51.850Z</time>
      </trkpt>
      <trkpt lat="41.73068" lon="20.78869">
        <ele>1342.056691</ele>
        <time>2022-04-25T12:00:58.855Z</time>
      </trkpt>
      <trkpt lat="41.73064" lon="20.78856">
        <ele>1342.292073</ele>
        <time>2022-04-25T12:01:04.871Z</time>
      </trkpt>
      <trkpt lat="41.73062" lon="20.78843">
        <ele>1342.531936</ele>
        <time>2022-04-25T12:01:09.847Z</time>
      </trkpt>
      <trkpt lat="41.73059" lon="20.7883">
        <ele>1342.772523</ele>
        <time>2022-04-25T12:01:13.852Z</time>
      </trkpt>
      <trkpt lat="41.73056" lon="20.78816">
        <ele>1343.016596</ele>
        <time>2022-04-25T12:01:18.855Z</time>
      </trkpt>
      <trkpt lat="41.73051" lon="20.78805">
        <ele>1343.257305</ele>
        <time>2022-04-25T12:01:25.887Z</time>
      </trkpt>
      <trkpt lat="41.73045" lon="20.78793">
        <ele>1343.50299</ele>
        <time>2022-04-25T12:01:31.879Z</time>
      </trkpt>
      <trkpt lat="41.73041" lon="20.78781">
        <ele>1343.728809</ele>
        <time>2022-04-25T12:01:36.854Z</time>
      </trkpt>
      <trkpt lat="41.73039" lon="20.78768">
        <ele>1343.958207</ele>
        <time>2022-04-25T12:01:41.850Z</time>
      </trkpt>
      <trkpt lat="41.73037" lon="20.78756">
        <ele>1344.181698</ele>
        <time>2022-04-25T12:01:46.866Z</time>
      </trkpt>
      <trkpt lat="41.73037" lon="20.78742">
        <ele>1344.419152</ele>
        <time>2022-04-25T12:01:51.849Z</time>
      </trkpt>
      <trkpt lat="41.73037" lon="20.78729">
        <ele>1344.646063</ele>
        <time>2022-04-25T12:01:56.856Z</time>
      </trkpt>
      <trkpt lat="41.73037" lon="20.78714">
        <ele>1344.902523</ele>
        <time>2022-04-25T12:02:01.853Z</time>
      </trkpt>
      <trkpt lat="41.73039" lon="20.78701">
        <ele>1345.135346</ele>
        <time>2022-04-25T12:02:05.889Z</time>
      </trkpt>
      <trkpt lat="41.7304" lon="20.78687">
        <ele>1345.380944</ele>
        <time>2022-04-25T12:02:09.847Z</time>
      </trkpt>
      <trkpt lat="41.73042" lon="20.78673">
        <ele>1345.628367</ele>
        <time>2022-04-25T12:02:13.848Z</time>
      </trkpt>
      <trkpt lat="41.73043" lon="20.78661">
        <ele>1345.848637</ele>
        <time>2022-04-25T12:02:17.849Z</time>
      </trkpt>
      <trkpt lat="41.73044" lon="20.78646">
        <ele>1345.945874</ele>
        <time>2022-04-25T12:02:22.889Z</time>
      </trkpt>
      <trkpt lat="41.73045" lon="20.78633">
        <ele>1345.987986</ele>
        <time>2022-04-25T12:02:26.852Z</time>
      </trkpt>
      <trkpt lat="41.73047" lon="20.78621">
        <ele>1346.029176</ele>
        <time>2022-04-25T12:02:30.855Z</time>
      </trkpt>
      <trkpt lat="41.73048" lon="20.78609">
        <ele>1346.071081</ele>
        <time>2022-04-25T12:02:34.872Z</time>
      </trkpt>
      <trkpt lat="41.73049" lon="20.78597">
        <ele>1346.113308</ele>
        <time>2022-04-25T12:02:38.872Z</time>
      </trkpt>
      <trkpt lat="41.7305" lon="20.78582">
        <ele>1346.161673</ele>
        <time>2022-04-25T12:02:43.850Z</time>
      </trkpt>
      <trkpt lat="41.73052" lon="20.78569">
        <ele>1346.208035</ele>
        <time>2022-04-25T12:02:48.850Z</time>
      </trkpt>
      <trkpt lat="41.73052" lon="20.78556">
        <ele>1346.252551</ele>
        <time>2022-04-25T12:02:53.852Z</time>
      </trkpt>
      <trkpt lat="41.73051" lon="20.78543">
        <ele>1346.29407</ele>
        <time>2022-04-25T12:02:58.850Z</time>
      </trkpt>
      <trkpt lat="41.73051" lon="20.7853">
        <ele>1346.339943</ele>
        <time>2022-04-25T12:03:03.851Z</time>
      </trkpt>
      <trkpt lat="41.73051" lon="20.78516">
        <ele>1346.387175</ele>
        <time>2022-04-25T12:03:08.859Z</time>
      </trkpt>
      <trkpt lat="41.73051" lon="20.78501">
        <ele>1346.437762</ele>
        <time>2022-04-25T12:03:13.879Z</time>
      </trkpt>
      <trkpt lat="41.73052" lon="20.78489">
        <ele>1346.47926</ele>
        <time>2022-04-25T12:03:17.852Z</time>
      </trkpt>
      <trkpt lat="41.73054" lon="20.78474">
        <ele>1346.528655</ele>
        <time>2022-04-25T12:03:22.861Z</time>
      </trkpt>
      <trkpt lat="41.73056" lon="20.78461">
        <ele>1346.572499</ele>
        <time>2022-04-25T12:03:26.854Z</time>
      </trkpt>
      <trkpt lat="41.73056" lon="20.78447">
        <ele>1346.622091</ele>
        <time>2022-04-25T12:03:31.844Z</time>
      </trkpt>
      <trkpt lat="41.73055" lon="20.78433">
        <ele>1346.669854</ele>
        <time>2022-04-25T12:03:36.847Z</time>
      </trkpt>
      <trkpt lat="41.73053" lon="20.78418">
        <ele>1346.718427</ele>
        <time>2022-04-25T12:03:41.847Z</time>
      </trkpt>
      <trkpt lat="41.73049" lon="20.78407">
        <ele>1346.647879</ele>
        <time>2022-04-25T12:03:46.848Z</time>
      </trkpt>
      <trkpt lat="41.73043" lon="20.78396">
        <ele>1346.573259</ele>
        <time>2022-04-25T12:03:51.873Z</time>
      </trkpt>
      <trkpt lat="41.73037" lon="20.78387">
        <ele>1346.505284</ele>
        <time>2022-04-25T12:03:56.854Z</time>
      </trkpt>
      <trkpt lat="41.73028" lon="20.78379">
        <ele>1346.423963</ele>
        <time>2022-04-25T12:04:02.859Z</time>
      </trkpt>
      <trkpt lat="41.73019" lon="20.78388">
        <ele>1346.339168</ele>
        <time>2022-04-25T12:04:07.850Z</time>
      </trkpt>
      <trkpt lat="41.73011" lon="20.78395">
        <ele>1346.271042</ele>
        <time>2022-04-25T12:04:12.863Z</time>
      </trkpt>
      <trkpt lat="41.73002" lon="20.78399">
        <ele>1346.195275</ele>
        <time>2022-04-25T12:04:18.860Z</time>
      </trkpt>
      <trkpt lat="41.73004" lon="20.78382">
        <ele>1346.101802</ele>
        <time>2022-04-25T12:06:48.855Z</time>
      </trkpt>
      <trkpt lat="41.73004" lon="20.78369">
        <ele>1346.025373</ele>
        <time>2022-04-25T12:06:58.853Z</time>
      </trkpt>
      <trkpt lat="41.72994" lon="20.78368">
        <ele>1345.948053</ele>
        <time>2022-04-25T12:07:04.854Z</time>
      </trkpt>
      <trkpt lat="41.72984" lon="20.7837">
        <ele>1345.872133</ele>
        <time>2022-04-25T12:07:09.857Z</time>
      </trkpt>
      <trkpt lat="41.72975" lon="20.78374">
        <ele>1345.800751</ele>
        <time>2022-04-25T12:07:14.864Z</time>
      </trkpt>
      <trkpt lat="41.72965" lon="20.78379">
        <ele>1345.72025</ele>
        <time>2022-04-25T12:07:20.850Z</time>
      </trkpt>
      <trkpt lat="41.72956" lon="20.78385">
        <ele>1345.639727</ele>
        <time>2022-04-25T12:07:25.848Z</time>
      </trkpt>
      <trkpt lat="41.72947" lon="20.78392">
        <ele>1345.562111</ele>
        <time>2022-04-25T12:07:31.854Z</time>
      </trkpt>
      <trkpt lat="41.72942" lon="20.78403">
        <ele>1345.49132</ele>
        <time>2022-04-25T12:07:37.889Z</time>
      </trkpt>
      <trkpt lat="41.72939" lon="20.78416">
        <ele>1345.417277</ele>
        <time>2022-04-25T12:07:46.849Z</time>
      </trkpt>
      <trkpt lat="41.72935" lon="20.78428">
        <ele>1345.610808</ele>
        <time>2022-04-25T12:07:54.857Z</time>
      </trkpt>
      <trkpt lat="41.72932" lon="20.78439">
        <ele>1346.506104</ele>
        <time>2022-04-25T12:08:01.852Z</time>
      </trkpt>
      <trkpt lat="41.72929" lon="20.78452">
        <ele>1347.44489</ele>
        <time>2022-04-25T12:08:08.865Z</time>
      </trkpt>
      <trkpt lat="41.72923" lon="20.78462">
        <ele>1348.458052</ele>
        <time>2022-04-25T12:08:16.846Z</time>
      </trkpt>
      <trkpt lat="41.72917" lon="20.78473">
        <ele>1349.405737</ele>
        <time>2022-04-25T12:08:23.850Z</time>
      </trkpt>
      <trkpt lat="41.7291" lon="20.78482">
        <ele>1350.327109</ele>
        <time>2022-04-25T12:08:32.849Z</time>
      </trkpt>
      <trkpt lat="41.72903" lon="20.7849">
        <ele>1351.254255</ele>
        <time>2022-04-25T12:08:39.845Z</time>
      </trkpt>
      <trkpt lat="41.72895" lon="20.78497">
        <ele>1352.276189</ele>
        <time>2022-04-25T12:08:49.848Z</time>
      </trkpt>
      <trkpt lat="41.72885" lon="20.78504">
        <ele>1353.324822</ele>
        <time>2022-04-25T12:08:54.849Z</time>
      </trkpt>
      <trkpt lat="41.72877" lon="20.78508">
        <ele>1354.20864</ele>
        <time>2022-04-25T12:08:59.847Z</time>
      </trkpt>
      <trkpt lat="41.72867" lon="20.7851">
        <ele>1355.182996</ele>
        <time>2022-04-25T12:09:06.854Z</time>
      </trkpt>
      <trkpt lat="41.72857" lon="20.78514">
        <ele>1356.16007</ele>
        <time>2022-04-25T12:09:13.849Z</time>
      </trkpt>
      <trkpt lat="41.72848" lon="20.78516">
        <ele>1357.051963</ele>
        <time>2022-04-25T12:09:20.882Z</time>
      </trkpt>
      <trkpt lat="41.72838" lon="20.78515">
        <ele>1358.049696</ele>
        <time>2022-04-25T12:09:29.847Z</time>
      </trkpt>
      <trkpt lat="41.72831" lon="20.78507">
        <ele>1358.951599</ele>
        <time>2022-04-25T12:09:37.889Z</time>
      </trkpt>
      <trkpt lat="41.72823" lon="20.78498">
        <ele>1359.937972</ele>
        <time>2022-04-25T12:09:45.845Z</time>
      </trkpt>
      <trkpt lat="41.72815" lon="20.78494">
        <ele>1360.863777</ele>
        <time>2022-04-25T12:09:57.858Z</time>
      </trkpt>
      <trkpt lat="41.72807" lon="20.78484">
        <ele>1361.903725</ele>
        <time>2022-04-25T12:10:10.857Z</time>
      </trkpt>
      <trkpt lat="41.72798" lon="20.78475">
        <ele>1362.985248</ele>
        <time>2022-04-25T12:10:18.856Z</time>
      </trkpt>
      <trkpt lat="41.72791" lon="20.78467">
        <ele>1363.391057</ele>
        <time>2022-04-25T12:10:24.869Z</time>
      </trkpt>
      <trkpt lat="41.72785" lon="20.78457">
        <ele>1363.767601</ele>
        <time>2022-04-25T12:10:30.851Z</time>
      </trkpt>
      <trkpt lat="41.72778" lon="20.78448">
        <ele>1364.148882</ele>
        <time>2022-04-25T12:10:37.848Z</time>
      </trkpt>
      <trkpt lat="41.7277" lon="20.7844">
        <ele>1364.530812</ele>
        <time>2022-04-25T12:10:45.880Z</time>
      </trkpt>
      <trkpt lat="41.72762" lon="20.78431">
        <ele>1364.92457</ele>
        <time>2022-04-25T12:10:53.851Z</time>
      </trkpt>
      <trkpt lat="41.72755" lon="20.78424">
        <ele>1365.29394</ele>
        <time>2022-04-25T12:11:01.841Z</time>
      </trkpt>
      <trkpt lat="41.72746" lon="20.78417">
        <ele>1365.693693</ele>
        <time>2022-04-25T12:11:10.869Z</time>
      </trkpt>
      <trkpt lat="41.72739" lon="20.78409">
        <ele>1366.05154</ele>
        <time>2022-04-25T12:11:17.858Z</time>
      </trkpt>
      <trkpt lat="41.72731" lon="20.78402">
        <ele>1366.427003</ele>
        <time>2022-04-25T12:11:25.856Z</time>
      </trkpt>
      <trkpt lat="41.72721" lon="20.78398">
        <ele>1366.83476</ele>
        <time>2022-04-25T12:11:31.853Z</time>
      </trkpt>
      <trkpt lat="41.72711" lon="20.78395">
        <ele>1367.243638</ele>
        <time>2022-04-25T12:11:38.850Z</time>
      </trkpt>
      <trkpt lat="41.72702" lon="20.78393">
        <ele>1367.599815</ele>
        <time>2022-04-25T12:11:46.846Z</time>
      </trkpt>
      <trkpt lat="41.72693" lon="20.78391">
        <ele>1367.958553</ele>
        <time>2022-04-25T12:11:54.860Z</time>
      </trkpt>
      <trkpt lat="41.72683" lon="20.78389">
        <ele>1368.350394</ele>
        <time>2022-04-25T12:12:02.855Z</time>
      </trkpt>
      <trkpt lat="41.72673" lon="20.78386">
        <ele>1368.719869</ele>
        <time>2022-04-25T12:12:09.868Z</time>
      </trkpt>
      <trkpt lat="41.72666" lon="20.7838">
        <ele>1369.070634</ele>
        <time>2022-04-25T12:12:17.853Z</time>
      </trkpt>
      <trkpt lat="41.72658" lon="20.78372">
        <ele>1369.453929</ele>
        <time>2022-04-25T12:12:25.848Z</time>
      </trkpt>
      <trkpt lat="41.72652" lon="20.78362">
        <ele>1369.822131</ele>
        <time>2022-04-25T12:12:32.853Z</time>
      </trkpt>
      <trkpt lat="41.72646" lon="20.78353">
        <ele>1369.988584</ele>
        <time>2022-04-25T12:12:38.857Z</time>
      </trkpt>
      <trkpt lat="41.7264" lon="20.78343">
        <ele>1369.56316</ele>
        <time>2022-04-25T12:12:44.865Z</time>
      </trkpt>
      <trkpt lat="41.72635" lon="20.78332">
        <ele>1369.127644</ele>
        <time>2022-04-25T12:12:49.846Z</time>
      </trkpt>
      <trkpt lat="41.72631" lon="20.7832">
        <ele>1368.698402</ele>
        <time>2022-04-25T12:12:54.858Z</time>
      </trkpt>
      <trkpt lat="41.72627" lon="20.78307">
        <ele>1368.240437</ele>
        <time>2022-04-25T12:12:59.880Z</time>
      </trkpt>
      <trkpt lat="41.72625" lon="20.78295">
        <ele>1367.809761</ele>
        <time>2022-04-25T12:13:03.849Z</time>
      </trkpt>
      <trkpt lat="41.72622" lon="20.78279">
        <ele>1367.259703</ele>
        <time>2022-04-25T12:13:07.857Z</time>
      </trkpt>
      <trkpt lat="41.72619" lon="20.78262">
        <ele>1366.680466</ele>
        <time>2022-04-25T12:13:10.878Z</time>
      </trkpt>
      <trkpt lat="41.72617" lon="20.7825">
        <ele>1366.252242</ele>
        <time>2022-04-25T12:13:12.864Z</time>
      </trkpt>
      <trkpt lat="41.72613" lon="20.78236">
        <ele>1365.756276</ele>
        <time>2022-04-25T12:13:14.867Z</time>
      </trkpt>
      <trkpt lat="41.72606" lon="20.78222">
        <ele>1365.194783</ele>
        <time>2022-04-25T12:13:16.870Z</time>
      </trkpt>
      <trkpt lat="41.72597" lon="20.78208">
        <ele>1364.569652</ele>
        <time>2022-04-25T12:13:18.852Z</time>
      </trkpt>
      <trkpt lat="41.72587" lon="20.78195">
        <ele>1363.92114</ele>
        <time>2022-04-25T12:13:20.849Z</time>
      </trkpt>
      <trkpt lat="41.72577" lon="20.78181">
        <ele>1363.283044</ele>
        <time>2022-04-25T12:13:22.878Z</time>
      </trkpt>
      <trkpt lat="41.72569" lon="20.78166">
        <ele>1362.655745</ele>
        <time>2022-04-25T12:13:24.862Z</time>
      </trkpt>
      <trkpt lat="41.72563" lon="20.78146">
        <ele>1361.941082</ele>
        <time>2022-04-25T12:13:26.860Z</time>
      </trkpt>
      <trkpt lat="41.72562" lon="20.78124">
        <ele>1361.261344</ele>
        <time>2022-04-25T12:13:28.858Z</time>
      </trkpt>
      <trkpt lat="41.72564" lon="20.78104">
        <ele>1360.641337</ele>
        <time>2022-04-25T12:13:30.860Z</time>
      </trkpt>
      <trkpt lat="41.7257" lon="20.78087">
        <ele>1360.057492</ele>
        <time>2022-04-25T12:13:32.856Z</time>
      </trkpt>
      <trkpt lat="41.72578" lon="20.7807">
        <ele>1359.439039</ele>
        <time>2022-04-25T12:13:34.866Z</time>
      </trkpt>
      <trkpt lat="41.72589" lon="20.78056">
        <ele>1358.825714</ele>
        <time>2022-04-25T12:13:36.848Z</time>
      </trkpt>
      <trkpt lat="41.72601" lon="20.78045">
        <ele>1358.199091</ele>
        <time>2022-04-25T12:13:38.858Z</time>
      </trkpt>
      <trkpt lat="41.72613" lon="20.78033">
        <ele>1357.592859</ele>
        <time>2022-04-25T12:13:40.858Z</time>
      </trkpt>
      <trkpt lat="41.72623" lon="20.78019">
        <ele>1356.993138</ele>
        <time>2022-04-25T12:13:42.860Z</time>
      </trkpt>
      <trkpt lat="41.72632" lon="20.78004">
        <ele>1356.399265</ele>
        <time>2022-04-25T12:13:44.874Z</time>
      </trkpt>
      <trkpt lat="41.7264" lon="20.77985">
        <ele>1355.733326</ele>
        <time>2022-04-25T12:13:46.850Z</time>
      </trkpt>
      <trkpt lat="41.72645" lon="20.77965">
        <ele>1355.071273</ele>
        <time>2022-04-25T12:13:48.862Z</time>
      </trkpt>
      <trkpt lat="41.72647" lon="20.77947">
        <ele>1354.470922</ele>
        <time>2022-04-25T12:13:50.854Z</time>
      </trkpt>
      <trkpt lat="41.72648" lon="20.77931">
        <ele>1353.827802</ele>
        <time>2022-04-25T12:13:52.844Z</time>
      </trkpt>
      <trkpt lat="41.72647" lon="20.77915">
        <ele>1353.198412</ele>
        <time>2022-04-25T12:13:54.853Z</time>
      </trkpt>
      <trkpt lat="41.72643" lon="20.77901">
        <ele>1352.564915</ele>
        <time>2022-04-25T12:13:56.857Z</time>
      </trkpt>
      <trkpt lat="41.72637" lon="20.77888">
        <ele>1351.970621</ele>
        <time>2022-04-25T12:13:58.854Z</time>
      </trkpt>
      <trkpt lat="41.72631" lon="20.77879">
        <ele>1351.449264</ele>
        <time>2022-04-25T12:14:00.851Z</time>
      </trkpt>
      <trkpt lat="41.72622" lon="20.77866">
        <ele>1350.751426</ele>
        <time>2022-04-25T12:14:03.852Z</time>
      </trkpt>
      <trkpt lat="41.72612" lon="20.77856">
        <ele>1350.069401</ele>
        <time>2022-04-25T12:14:06.847Z</time>
      </trkpt>
      <trkpt lat="41.72602" lon="20.77847">
        <ele>1349.422914</ele>
        <time>2022-04-25T12:14:09.854Z</time>
      </trkpt>
      <trkpt lat="41.72592" lon="20.77839">
        <ele>1348.800589</ele>
        <time>2022-04-25T12:14:12.881Z</time>
      </trkpt>
      <trkpt lat="41.72583" lon="20.77832">
        <ele>1348.212597</ele>
        <time>2022-04-25T12:14:15.849Z</time>
      </trkpt>
      <trkpt lat="41.72573" lon="20.77825">
        <ele>1347.595746</ele>
        <time>2022-04-25T12:14:18.882Z</time>
      </trkpt>
      <trkpt lat="41.72564" lon="20.77817">
        <ele>1347.025798</ele>
        <time>2022-04-25T12:14:21.846Z</time>
      </trkpt>
      <trkpt lat="41.72555" lon="20.7781">
        <ele>1346.434606</ele>
        <time>2022-04-25T12:14:24.883Z</time>
      </trkpt>
      <trkpt lat="41.72544" lon="20.77802">
        <ele>1345.783287</ele>
        <time>2022-04-25T12:14:27.848Z</time>
      </trkpt>
      <trkpt lat="41.72534" lon="20.77793">
        <ele>1345.132171</ele>
        <time>2022-04-25T12:14:30.853Z</time>
      </trkpt>
      <trkpt lat="41.72525" lon="20.77782">
        <ele>1344.752808</ele>
        <time>2022-04-25T12:14:33.844Z</time>
      </trkpt>
      <trkpt lat="41.72518" lon="20.77769">
        <ele>1344.788135</ele>
        <time>2022-04-25T12:14:36.857Z</time>
      </trkpt>
      <trkpt lat="41.72512" lon="20.77755">
        <ele>1344.820682</ele>
        <time>2022-04-25T12:14:39.852Z</time>
      </trkpt>
      <trkpt lat="41.72509" lon="20.77743">
        <ele>1344.848488</ele>
        <time>2022-04-25T12:14:42.856Z</time>
      </trkpt>
      <trkpt lat="41.72507" lon="20.77731">
        <ele>1344.87495</ele>
        <time>2022-04-25T12:14:45.845Z</time>
      </trkpt>
      <trkpt lat="41.72506" lon="20.77718">
        <ele>1344.901239</ele>
        <time>2022-04-25T12:14:48.849Z</time>
      </trkpt>
      <trkpt lat="41.72507" lon="20.77704">
        <ele>1344.932189</ele>
        <time>2022-04-25T12:14:51.852Z</time>
      </trkpt>
      <trkpt lat="41.7251" lon="20.77689">
        <ele>1344.964968</ele>
        <time>2022-04-25T12:14:54.846Z</time>
      </trkpt>
      <trkpt lat="41.72512" lon="20.77676">
        <ele>1344.992954</ele>
        <time>2022-04-25T12:14:57.856Z</time>
      </trkpt>
      <trkpt lat="41.72518" lon="20.77663">
        <ele>1345.02472</ele>
        <time>2022-04-25T12:15:00.859Z</time>
      </trkpt>
      <trkpt lat="41.72523" lon="20.7765">
        <ele>1345.056347</ele>
        <time>2022-04-25T12:15:03.879Z</time>
      </trkpt>
      <trkpt lat="41.72529" lon="20.77637">
        <ele>1345.087691</ele>
        <time>2022-04-25T12:15:06.862Z</time>
      </trkpt>
      <trkpt lat="41.72536" lon="20.77624">
        <ele>1345.121716</ele>
        <time>2022-04-25T12:15:09.876Z</time>
      </trkpt>
      <trkpt lat="41.72541" lon="20.77611">
        <ele>1345.154728</ele>
        <time>2022-04-25T12:15:12.858Z</time>
      </trkpt>
      <trkpt lat="41.72547" lon="20.77596">
        <ele>1345.190022</ele>
        <time>2022-04-25T12:15:15.878Z</time>
      </trkpt>
      <trkpt lat="41.72551" lon="20.77579">
        <ele>1345.226499</ele>
        <time>2022-04-25T12:15:18.852Z</time>
      </trkpt>
      <trkpt lat="41.72553" lon="20.77562">
        <ele>1345.408579</ele>
        <time>2022-04-25T12:15:21.856Z</time>
      </trkpt>
      <trkpt lat="41.72552" lon="20.77544">
        <ele>1345.85438</ele>
        <time>2022-04-25T12:15:24.852Z</time>
      </trkpt>
      <trkpt lat="41.72551" lon="20.77532">
        <ele>1346.162974</ele>
        <time>2022-04-25T12:15:26.851Z</time>
      </trkpt>
      <trkpt lat="41.72547" lon="20.77515">
        <ele>1346.597635</ele>
        <time>2022-04-25T12:15:29.851Z</time>
      </trkpt>
      <trkpt lat="41.72541" lon="20.77501">
        <ele>1347.0003</ele>
        <time>2022-04-25T12:15:32.855Z</time>
      </trkpt>
      <trkpt lat="41.72533" lon="20.77489">
        <ele>1347.397422</ele>
        <time>2022-04-25T12:15:35.849Z</time>
      </trkpt>
      <trkpt lat="41.72524" lon="20.77478">
        <ele>1347.812361</ele>
        <time>2022-04-25T12:15:38.848Z</time>
      </trkpt>
      <trkpt lat="41.72516" lon="20.77472">
        <ele>1348.114857</ele>
        <time>2022-04-25T12:15:40.866Z</time>
      </trkpt>
      <trkpt lat="41.72505" lon="20.77464">
        <ele>1348.516943</ele>
        <time>2022-04-25T12:15:43.845Z</time>
      </trkpt>
      <trkpt lat="41.72493" lon="20.77461">
        <ele>1348.915205</ele>
        <time>2022-04-25T12:15:46.864Z</time>
      </trkpt>
      <trkpt lat="41.72481" lon="20.77459">
        <ele>1349.336756</ele>
        <time>2022-04-25T12:15:49.853Z</time>
      </trkpt>
      <trkpt lat="41.72467" lon="20.77458">
        <ele>1349.791508</ele>
        <time>2022-04-25T12:15:52.857Z</time>
      </trkpt>
      <trkpt lat="41.72457" lon="20.77458">
        <ele>1350.103401</ele>
        <time>2022-04-25T12:15:54.856Z</time>
      </trkpt>
      <trkpt lat="41.72448" lon="20.77457">
        <ele>1350.415412</ele>
        <time>2022-04-25T12:15:56.857Z</time>
      </trkpt>
      <trkpt lat="41.72439" lon="20.77458">
        <ele>1350.727511</ele>
        <time>2022-04-25T12:15:58.850Z</time>
      </trkpt>
      <trkpt lat="41.72427" lon="20.77462">
        <ele>1351.120465</ele>
        <time>2022-04-25T12:16:01.848Z</time>
      </trkpt>
      <trkpt lat="41.72418" lon="20.77461">
        <ele>1351.00448</ele>
        <time>2022-04-25T12:16:03.870Z</time>
      </trkpt>
      <trkpt lat="41.72409" lon="20.77459">
        <ele>1350.718734</ele>
        <time>2022-04-25T12:16:05.849Z</time>
      </trkpt>
      <trkpt lat="41.724" lon="20.77455">
        <ele>1350.422846</ele>
        <time>2022-04-25T12:16:07.853Z</time>
      </trkpt>
      <trkpt lat="41.7239" lon="20.77451">
        <ele>1350.115862</ele>
        <time>2022-04-25T12:16:09.853Z</time>
      </trkpt>
      <trkpt lat="41.7238" lon="20.77445">
        <ele>1349.769821</ele>
        <time>2022-04-25T12:16:11.856Z</time>
      </trkpt>
      <trkpt lat="41.7237" lon="20.77438">
        <ele>1349.391342</ele>
        <time>2022-04-25T12:16:13.850Z</time>
      </trkpt>
      <trkpt lat="41.72361" lon="20.7743">
        <ele>1349.051523</ele>
        <time>2022-04-25T12:16:15.846Z</time>
      </trkpt>
      <trkpt lat="41.72353" lon="20.77422">
        <ele>1348.733498</ele>
        <time>2022-04-25T12:16:17.855Z</time>
      </trkpt>
      <trkpt lat="41.72344" lon="20.77413">
        <ele>1348.385654</ele>
        <time>2022-04-25T12:16:19.878Z</time>
      </trkpt>
      <trkpt lat="41.72335" lon="20.77404">
        <ele>1348.036627</ele>
        <time>2022-04-25T12:16:21.847Z</time>
      </trkpt>
      <trkpt lat="41.72326" lon="20.77397">
        <ele>1347.706868</ele>
        <time>2022-04-25T12:16:23.849Z</time>
      </trkpt>
      <trkpt lat="41.72317" lon="20.77391">
        <ele>1347.392949</ele>
        <time>2022-04-25T12:16:25.859Z</time>
      </trkpt>
      <trkpt lat="41.72308" lon="20.77385">
        <ele>1347.081491</ele>
        <time>2022-04-25T12:16:27.855Z</time>
      </trkpt>
      <trkpt lat="41.72299" lon="20.77381">
        <ele>1346.781968</ele>
        <time>2022-04-25T12:16:29.848Z</time>
      </trkpt>
      <trkpt lat="41.7229" lon="20.77376">
        <ele>1346.465185</ele>
        <time>2022-04-25T12:16:31.850Z</time>
      </trkpt>
      <trkpt lat="41.72281" lon="20.77372">
        <ele>1346.163997</ele>
        <time>2022-04-25T12:16:33.846Z</time>
      </trkpt>
      <trkpt lat="41.72271" lon="20.77368">
        <ele>1345.839844</ele>
        <time>2022-04-25T12:16:35.849Z</time>
      </trkpt>
      <trkpt lat="41.72261" lon="20.77363">
        <ele>1345.485527</ele>
        <time>2022-04-25T12:16:37.846Z</time>
      </trkpt>
      <trkpt lat="41.72252" lon="20.77358">
        <ele>1344.983429</ele>
        <time>2022-04-25T12:16:39.850Z</time>
      </trkpt>
      <trkpt lat="41.72242" lon="20.77353">
        <ele>1344.430796</ele>
        <time>2022-04-25T12:16:41.872Z</time>
      </trkpt>
      <trkpt lat="41.72232" lon="20.77348">
        <ele>1343.842995</ele>
        <time>2022-04-25T12:16:43.865Z</time>
      </trkpt>
      <trkpt lat="41.72221" lon="20.77342">
        <ele>1343.219203</ele>
        <time>2022-04-25T12:16:45.850Z</time>
      </trkpt>
      <trkpt lat="41.7221" lon="20.77335">
        <ele>1342.605077</ele>
        <time>2022-04-25T12:16:47.874Z</time>
      </trkpt>
      <trkpt lat="41.722" lon="20.7733">
        <ele>1342.056896</ele>
        <time>2022-04-25T12:16:49.862Z</time>
      </trkpt>
      <trkpt lat="41.7219" lon="20.77325">
        <ele>1341.514972</ele>
        <time>2022-04-25T12:16:51.846Z</time>
      </trkpt>
      <trkpt lat="41.72181" lon="20.77318">
        <ele>1340.96685</ele>
        <time>2022-04-25T12:16:53.852Z</time>
      </trkpt>
      <trkpt lat="41.72171" lon="20.77313">
        <ele>1340.409036</ele>
        <time>2022-04-25T12:16:55.854Z</time>
      </trkpt>
      <trkpt lat="41.72161" lon="20.77307">
        <ele>1339.875425</ele>
        <time>2022-04-25T12:16:57.854Z</time>
      </trkpt>
      <trkpt lat="41.72153" lon="20.77302">
        <ele>1339.387472</ele>
        <time>2022-04-25T12:16:59.848Z</time>
      </trkpt>
      <trkpt lat="41.72141" lon="20.77295">
        <ele>1338.713301</ele>
        <time>2022-04-25T12:17:02.864Z</time>
      </trkpt>
      <trkpt lat="41.7213" lon="20.77288">
        <ele>1338.07365</ele>
        <time>2022-04-25T12:17:05.853Z</time>
      </trkpt>
      <trkpt lat="41.72118" lon="20.77281">
        <ele>1337.430953</ele>
        <time>2022-04-25T12:17:08.861Z</time>
      </trkpt>
      <trkpt lat="41.72108" lon="20.77276">
        <ele>1336.838493</ele>
        <time>2022-04-25T12:17:11.842Z</time>
      </trkpt>
      <trkpt lat="41.72099" lon="20.7727">
        <ele>1336.338034</ele>
        <time>2022-04-25T12:17:14.846Z</time>
      </trkpt>
      <trkpt lat="41.72087" lon="20.77267">
        <ele>1336.365881</ele>
        <time>2022-04-25T12:17:17.862Z</time>
      </trkpt>
      <trkpt lat="41.72076" lon="20.77263">
        <ele>1336.541922</ele>
        <time>2022-04-25T12:17:20.864Z</time>
      </trkpt>
      <trkpt lat="41.72067" lon="20.77256">
        <ele>1336.714403</ele>
        <time>2022-04-25T12:17:24.854Z</time>
      </trkpt>
      <trkpt lat="41.72058" lon="20.7725">
        <ele>1336.865236</ele>
        <time>2022-04-25T12:17:30.861Z</time>
      </trkpt>
      <trkpt lat="41.72049" lon="20.7723">
        <ele>1337.15368</ele>
        <time>2022-04-25T12:35:20.872Z</time>
      </trkpt>
      <trkpt lat="41.72046" lon="20.77217">
        <ele>1337.303442</ele>
        <time>2022-04-25T12:35:23.854Z</time>
      </trkpt>
      <trkpt lat="41.72042" lon="20.77203">
        <ele>1337.483756</ele>
        <time>2022-04-25T12:35:26.874Z</time>
      </trkpt>
      <trkpt lat="41.72036" lon="20.7719">
        <ele>1337.66688</ele>
        <time>2022-04-25T12:35:29.868Z</time>
      </trkpt>
      <trkpt lat="41.72029" lon="20.77179">
        <ele>1337.844951</ele>
        <time>2022-04-25T12:35:32.886Z</time>
      </trkpt>
      <trkpt lat="41.72021" lon="20.77167">
        <ele>1338.027896</ele>
        <time>2022-04-25T12:35:35.909Z</time>
      </trkpt>
      <trkpt lat="41.72013" lon="20.77156">
        <ele>1338.215838</ele>
        <time>2022-04-25T12:35:38.890Z</time>
      </trkpt>
      <trkpt lat="41.72004" lon="20.77145">
        <ele>1338.413968</ele>
        <time>2022-04-25T12:35:41.871Z</time>
      </trkpt>
      <trkpt lat="41.71994" lon="20.77136">
        <ele>1338.604893</ele>
        <time>2022-04-25T12:35:44.880Z</time>
      </trkpt>
      <trkpt lat="41.71982" lon="20.77129">
        <ele>1338.800506</ele>
        <time>2022-04-25T12:35:47.874Z</time>
      </trkpt>
      <trkpt lat="41.71971" lon="20.77124">
        <ele>1338.999202</ele>
        <time>2022-04-25T12:35:50.872Z</time>
      </trkpt>
      <trkpt lat="41.7196" lon="20.77119">
        <ele>1339.213062</ele>
        <time>2022-04-25T12:35:53.873Z</time>
      </trkpt>
      <trkpt lat="41.7195" lon="20.77117">
        <ele>1339.412631</ele>
        <time>2022-04-25T12:35:56.869Z</time>
      </trkpt>
      <trkpt lat="41.71941" lon="20.77116">
        <ele>1339.603839</ele>
        <time>2022-04-25T12:35:59.878Z</time>
      </trkpt>
      <trkpt lat="41.71931" lon="20.77117">
        <ele>1339.821946</ele>
        <time>2022-04-25T12:36:02.894Z</time>
      </trkpt>
      <trkpt lat="41.71919" lon="20.77118">
        <ele>1340.055189</ele>
        <time>2022-04-25T12:36:05.984Z</time>
      </trkpt>
      <trkpt lat="41.71907" lon="20.77121">
        <ele>1340.32374</ele>
        <time>2022-04-25T12:36:08.866Z</time>
      </trkpt>
      <trkpt lat="41.71893" lon="20.77124">
        <ele>1340.606867</ele>
        <time>2022-04-25T12:36:11.892Z</time>
      </trkpt>
      <trkpt lat="41.71884" lon="20.77126">
        <ele>1340.80604</ele>
        <time>2022-04-25T12:36:13.885Z</time>
      </trkpt>
      <trkpt lat="41.71874" lon="20.77126">
        <ele>1340.997047</ele>
        <time>2022-04-25T12:36:15.871Z</time>
      </trkpt>
      <trkpt lat="41.71861" lon="20.77123">
        <ele>1341.277558</ele>
        <time>2022-04-25T12:36:18.876Z</time>
      </trkpt>
      <trkpt lat="41.71852" lon="20.77118">
        <ele>1341.487687</ele>
        <time>2022-04-25T12:36:20.863Z</time>
      </trkpt>
      <trkpt lat="41.71842" lon="20.77113">
        <ele>1341.706341</ele>
        <time>2022-04-25T12:36:22.887Z</time>
      </trkpt>
      <trkpt lat="41.71833" lon="20.77107">
        <ele>1341.914223</ele>
        <time>2022-04-25T12:36:24.892Z</time>
      </trkpt>
      <trkpt lat="41.71823" lon="20.77103">
        <ele>1342.126814</ele>
        <time>2022-04-25T12:36:26.868Z</time>
      </trkpt>
      <trkpt lat="41.71814" lon="20.77097">
        <ele>1342.342302</ele>
        <time>2022-04-25T12:36:28.881Z</time>
      </trkpt>
      <trkpt lat="41.71805" lon="20.77091">
        <ele>1342.5483</ele>
        <time>2022-04-25T12:36:30.902Z</time>
      </trkpt>
      <trkpt lat="41.71796" lon="20.77086">
        <ele>1342.751119</ele>
        <time>2022-04-25T12:36:32.873Z</time>
      </trkpt>
      <trkpt lat="41.71787" lon="20.77081">
        <ele>1342.611502</ele>
        <time>2022-04-25T12:36:34.877Z</time>
      </trkpt>
      <trkpt lat="41.71775" lon="20.77074">
        <ele>1342.225234</ele>
        <time>2022-04-25T12:36:37.892Z</time>
      </trkpt>
      <trkpt lat="41.71764" lon="20.77065">
        <ele>1341.856461</ele>
        <time>2022-04-25T12:36:40.891Z</time>
      </trkpt>
      <trkpt lat="41.71753" lon="20.77056">
        <ele>1341.463868</ele>
        <time>2022-04-25T12:36:43.875Z</time>
      </trkpt>
      <trkpt lat="41.71745" lon="20.77049">
        <ele>1341.196866</ele>
        <time>2022-04-25T12:36:45.877Z</time>
      </trkpt>
      <trkpt lat="41.71736" lon="20.77042">
        <ele>1340.910028</ele>
        <time>2022-04-25T12:36:47.878Z</time>
      </trkpt>
      <trkpt lat="41.71728" lon="20.77032">
        <ele>1340.592458</ele>
        <time>2022-04-25T12:36:49.896Z</time>
      </trkpt>
      <trkpt lat="41.71721" lon="20.77021">
        <ele>1340.273012</ele>
        <time>2022-04-25T12:36:51.878Z</time>
      </trkpt>
      <trkpt lat="41.71713" lon="20.7701">
        <ele>1339.952375</ele>
        <time>2022-04-25T12:36:53.895Z</time>
      </trkpt>
      <trkpt lat="41.71707" lon="20.76998">
        <ele>1339.641198</ele>
        <time>2022-04-25T12:36:55.870Z</time>
      </trkpt>
      <trkpt lat="41.71702" lon="20.76986">
        <ele>1339.336016</ele>
        <time>2022-04-25T12:36:57.866Z</time>
      </trkpt>
      <trkpt lat="41.71696" lon="20.76974">
        <ele>1339.027168</ele>
        <time>2022-04-25T12:36:59.906Z</time>
      </trkpt>
      <trkpt lat="41.71692" lon="20.76958">
        <ele>1338.647301</ele>
        <time>2022-04-25T12:37:02.874Z</time>
      </trkpt>
      <trkpt lat="41.7169" lon="20.7694">
        <ele>1338.266742</ele>
        <time>2022-04-25T12:37:05.873Z</time>
      </trkpt>
      <trkpt lat="41.71691" lon="20.76928">
        <ele>1338.005996</ele>
        <time>2022-04-25T12:37:07.886Z</time>
      </trkpt>
      <trkpt lat="41.71692" lon="20.76913">
        <ele>1337.685539</ele>
        <time>2022-04-25T12:37:09.872Z</time>
      </trkpt>
      <trkpt lat="41.71694" lon="20.76899">
        <ele>1337.349454</ele>
        <time>2022-04-25T12:37:11.875Z</time>
      </trkpt>
      <trkpt lat="41.71695" lon="20.76884">
        <ele>1337.00514</ele>
        <time>2022-04-25T12:37:13.857Z</time>
      </trkpt>
      <trkpt lat="41.71697" lon="20.7687">
        <ele>1336.696888</ele>
        <time>2022-04-25T12:37:15.878Z</time>
      </trkpt>
      <trkpt lat="41.71698" lon="20.76856">
        <ele>1336.371059</ele>
        <time>2022-04-25T12:37:17.910Z</time>
      </trkpt>
      <trkpt lat="41.71697" lon="20.76842">
        <ele>1336.050873</ele>
        <time>2022-04-25T12:37:19.860Z</time>
      </trkpt>
      <trkpt lat="41.71696" lon="20.76829">
        <ele>1335.758036</ele>
        <time>2022-04-25T12:37:21.909Z</time>
      </trkpt>
      <trkpt lat="41.71695" lon="20.76817">
        <ele>1335.475041</ele>
        <time>2022-04-25T12:37:23.869Z</time>
      </trkpt>
      <trkpt lat="41.71691" lon="20.768">
        <ele>1335.062707</ele>
        <time>2022-04-25T12:37:26.871Z</time>
      </trkpt>
      <trkpt lat="41.71687" lon="20.76783">
        <ele>1334.672079</ele>
        <time>2022-04-25T12:37:29.877Z</time>
      </trkpt>
      <trkpt lat="41.71682" lon="20.76768">
        <ele>1334.279253</ele>
        <time>2022-04-25T12:37:32.877Z</time>
      </trkpt>
      <trkpt lat="41.71678" lon="20.76757">
        <ele>1334.003082</ele>
        <time>2022-04-25T12:37:34.885Z</time>
      </trkpt>
      <trkpt lat="41.71672" lon="20.76747">
        <ele>1333.721138</ele>
        <time>2022-04-25T12:37:36.868Z</time>
      </trkpt>
      <trkpt lat="41.71666" lon="20.76738">
        <ele>1333.445476</ele>
        <time>2022-04-25T12:37:38.894Z</time>
      </trkpt>
      <trkpt lat="41.71656" lon="20.76727">
        <ele>1333.037478</ele>
        <time>2022-04-25T12:37:41.878Z</time>
      </trkpt>
      <trkpt lat="41.71646" lon="20.76715">
        <ele>1332.642574</ele>
        <time>2022-04-25T12:37:44.872Z</time>
      </trkpt>
      <trkpt lat="41.71636" lon="20.76705">
        <ele>1332.2571</ele>
        <time>2022-04-25T12:37:47.867Z</time>
      </trkpt>
      <trkpt lat="41.71625" lon="20.76696">
        <ele>1332.141673</ele>
        <time>2022-04-25T12:37:50.888Z</time>
      </trkpt>
      <trkpt lat="41.71615" lon="20.76687">
        <ele>1332.20872</ele>
        <time>2022-04-25T12:37:53.871Z</time>
      </trkpt>
      <trkpt lat="41.71604" lon="20.76678">
        <ele>1332.272462</ele>
        <time>2022-04-25T12:37:56.874Z</time>
      </trkpt>
      <trkpt lat="41.71594" lon="20.7667">
        <ele>1332.335979</ele>
        <time>2022-04-25T12:37:59.878Z</time>
      </trkpt>
      <trkpt lat="41.71583" lon="20.76661">
        <ele>1332.403123</ele>
        <time>2022-04-25T12:38:02.876Z</time>
      </trkpt>
      <trkpt lat="41.71572" lon="20.76653">
        <ele>1332.469311</ele>
        <time>2022-04-25T12:38:05.870Z</time>
      </trkpt>
      <trkpt lat="41.71561" lon="20.76646">
        <ele>1332.530433</ele>
        <time>2022-04-25T12:38:08.871Z</time>
      </trkpt>
      <trkpt lat="41.7155" lon="20.76638">
        <ele>1332.595328</ele>
        <time>2022-04-25T12:38:11.907Z</time>
      </trkpt>
      <trkpt lat="41.7154" lon="20.76633">
        <ele>1332.655138</ele>
        <time>2022-04-25T12:38:14.878Z</time>
      </trkpt>
      <trkpt lat="41.71528" lon="20.76627">
        <ele>1332.717738</ele>
        <time>2022-04-25T12:38:17.901Z</time>
      </trkpt>
      <trkpt lat="41.71518" lon="20.7662">
        <ele>1332.779795</ele>
        <time>2022-04-25T12:38:20.878Z</time>
      </trkpt>
      <trkpt lat="41.71506" lon="20.76614">
        <ele>1332.84834</ele>
        <time>2022-04-25T12:38:23.874Z</time>
      </trkpt>
      <trkpt lat="41.71493" lon="20.7661">
        <ele>1332.915411</ele>
        <time>2022-04-25T12:38:26.875Z</time>
      </trkpt>
      <trkpt lat="41.7148" lon="20.76606">
        <ele>1332.983819</ele>
        <time>2022-04-25T12:38:29.869Z</time>
      </trkpt>
      <trkpt lat="41.71468" lon="20.76605">
        <ele>1333.065663</ele>
        <time>2022-04-25T12:38:32.888Z</time>
      </trkpt>
      <trkpt lat="41.71456" lon="20.76608">
        <ele>1333.582631</ele>
        <time>2022-04-25T12:38:35.881Z</time>
      </trkpt>
      <trkpt lat="41.71444" lon="20.76614">
        <ele>1334.102704</ele>
        <time>2022-04-25T12:38:38.902Z</time>
      </trkpt>
      <trkpt lat="41.71435" lon="20.76619">
        <ele>1334.482295</ele>
        <time>2022-04-25T12:38:40.872Z</time>
      </trkpt>
      <trkpt lat="41.71427" lon="20.76625">
        <ele>1334.879023</ele>
        <time>2022-04-25T12:38:42.882Z</time>
      </trkpt>
      <trkpt lat="41.71417" lon="20.76633">
        <ele>1335.328511</ele>
        <time>2022-04-25T12:38:44.875Z</time>
      </trkpt>
      <trkpt lat="41.71409" lon="20.76641">
        <ele>1335.737705</ele>
        <time>2022-04-25T12:38:46.882Z</time>
      </trkpt>
      <trkpt lat="41.714" lon="20.76653">
        <ele>1336.254333</ele>
        <time>2022-04-25T12:38:49.862Z</time>
      </trkpt>
      <trkpt lat="41.71395" lon="20.76663">
        <ele>1336.631062</ele>
        <time>2022-04-25T12:38:51.893Z</time>
      </trkpt>
      <trkpt lat="41.71389" lon="20.76673">
        <ele>1337.022296</ele>
        <time>2022-04-25T12:38:53.880Z</time>
      </trkpt>
      <trkpt lat="41.71383" lon="20.76683">
        <ele>1337.404945</ele>
        <time>2022-04-25T12:38:55.948Z</time>
      </trkpt>
      <trkpt lat="41.71375" lon="20.76693">
        <ele>1337.821906</ele>
        <time>2022-04-25T12:38:57.896Z</time>
      </trkpt>
      <trkpt lat="41.71368" lon="20.76703">
        <ele>1338.276115</ele>
        <time>2022-04-25T12:38:59.888Z</time>
      </trkpt>
      <trkpt lat="41.71358" lon="20.76712">
        <ele>1338.747238</ele>
        <time>2022-04-25T12:39:01.874Z</time>
      </trkpt>
      <trkpt lat="41.71348" lon="20.7672">
        <ele>1339.218475</ele>
        <time>2022-04-25T12:39:03.880Z</time>
      </trkpt>
      <trkpt lat="41.71338" lon="20.76728">
        <ele>1339.703289</ele>
        <time>2022-04-25T12:39:05.877Z</time>
      </trkpt>
      <trkpt lat="41.71328" lon="20.76734">
        <ele>1340.152107</ele>
        <time>2022-04-25T12:39:07.864Z</time>
      </trkpt>
      <trkpt lat="41.71318" lon="20.76739">
        <ele>1339.858086</ele>
        <time>2022-04-25T12:39:09.871Z</time>
      </trkpt>
      <trkpt lat="41.71306" lon="20.76741">
        <ele>1338.615982</ele>
        <time>2022-04-25T12:39:12.862Z</time>
      </trkpt>
      <trkpt lat="41.71297" lon="20.7674">
        <ele>1337.701316</ele>
        <time>2022-04-25T12:39:14.899Z</time>
      </trkpt>
      <trkpt lat="41.71287" lon="20.76739">
        <ele>1336.686235</ele>
        <time>2022-04-25T12:39:16.871Z</time>
      </trkpt>
      <trkpt lat="41.71276" lon="20.7674">
        <ele>1335.662746</ele>
        <time>2022-04-25T12:39:18.884Z</time>
      </trkpt>
      <trkpt lat="41.71265" lon="20.76738">
        <ele>1334.548489</ele>
        <time>2022-04-25T12:39:21.880Z</time>
      </trkpt>
      <trkpt lat="41.71253" lon="20.76733">
        <ele>1333.289821</ele>
        <time>2022-04-25T12:39:24.893Z</time>
      </trkpt>
      <trkpt lat="41.71242" lon="20.7673">
        <ele>1332.152138</ele>
        <time>2022-04-25T12:39:26.884Z</time>
      </trkpt>
      <trkpt lat="41.7123" lon="20.76724">
        <ele>1330.899644</ele>
        <time>2022-04-25T12:39:28.868Z</time>
      </trkpt>
      <trkpt lat="41.7122" lon="20.76718">
        <ele>1329.799107</ele>
        <time>2022-04-25T12:39:30.872Z</time>
      </trkpt>
      <trkpt lat="41.71213" lon="20.7671">
        <ele>1328.904352</ele>
        <time>2022-04-25T12:39:32.871Z</time>
      </trkpt>
      <trkpt lat="41.71204" lon="20.76697">
        <ele>1327.565655</ele>
        <time>2022-04-25T12:39:35.882Z</time>
      </trkpt>
      <trkpt lat="41.71198" lon="20.76687">
        <ele>1326.662715</ele>
        <time>2022-04-25T12:39:37.881Z</time>
      </trkpt>
      <trkpt lat="41.71194" lon="20.76676">
        <ele>1325.690829</ele>
        <time>2022-04-25T12:39:39.868Z</time>
      </trkpt>
      <trkpt lat="41.71189" lon="20.76664">
        <ele>1324.763796</ele>
        <time>2022-04-25T12:39:41.888Z</time>
      </trkpt>
      <trkpt lat="41.71186" lon="20.76652">
        <ele>1323.77061</ele>
        <time>2022-04-25T12:39:43.893Z</time>
      </trkpt>
      <trkpt lat="41.71182" lon="20.7664">
        <ele>1322.850383</ele>
        <time>2022-04-25T12:39:45.859Z</time>
      </trkpt>
      <trkpt lat="41.71178" lon="20.76624">
        <ele>1322.189583</ele>
        <time>2022-04-25T12:39:48.917Z</time>
      </trkpt>
      <trkpt lat="41.71175" lon="20.76612">
        <ele>1321.905423</ele>
        <time>2022-04-25T12:39:50.872Z</time>
      </trkpt>
      <trkpt lat="41.71172" lon="20.766">
        <ele>1321.609307</ele>
        <time>2022-04-25T12:39:52.900Z</time>
      </trkpt>
      <trkpt lat="41.71168" lon="20.76588">
        <ele>1321.306454</ele>
        <time>2022-04-25T12:39:54.858Z</time>
      </trkpt>
      <trkpt lat="41.71164" lon="20.76576">
        <ele>1320.999021</ele>
        <time>2022-04-25T12:39:56.867Z</time>
      </trkpt>
      <trkpt lat="41.7116" lon="20.76561">
        <ele>1320.626308</ele>
        <time>2022-04-25T12:39:59.892Z</time>
      </trkpt>
      <trkpt lat="41.71156" lon="20.76549">
        <ele>1320.321015</ele>
        <time>2022-04-25T12:40:01.874Z</time>
      </trkpt>
      <trkpt lat="41.71152" lon="20.76538">
        <ele>1320.0314</ele>
        <time>2022-04-25T12:40:03.874Z</time>
      </trkpt>
      <trkpt lat="41.71148" lon="20.76522">
        <ele>1319.636802</ele>
        <time>2022-04-25T12:40:06.905Z</time>
      </trkpt>
      <trkpt lat="41.71143" lon="20.76506">
        <ele>1319.227891</ele>
        <time>2022-04-25T12:40:09.873Z</time>
      </trkpt>
      <trkpt lat="41.71139" lon="20.76495">
        <ele>1318.943446</ele>
        <time>2022-04-25T12:40:11.878Z</time>
      </trkpt>
      <trkpt lat="41.71134" lon="20.76479">
        <ele>1318.552114</ele>
        <time>2022-04-25T12:40:14.865Z</time>
      </trkpt>
      <trkpt lat="41.71128" lon="20.76464">
        <ele>1318.148972</ele>
        <time>2022-04-25T12:40:17.889Z</time>
      </trkpt>
      <trkpt lat="41.7112" lon="20.7645">
        <ele>1317.733961</ele>
        <time>2022-04-25T12:40:20.867Z</time>
      </trkpt>
      <trkpt lat="41.71114" lon="20.7644">
        <ele>1317.432869</ele>
        <time>2022-04-25T12:40:22.872Z</time>
      </trkpt>
      <trkpt lat="41.71107" lon="20.7643">
        <ele>1317.116481</ele>
        <time>2022-04-25T12:40:24.883Z</time>
      </trkpt>
      <trkpt lat="41.711" lon="20.76422">
        <ele>1316.899692</ele>
        <time>2022-04-25T12:40:26.890Z</time>
      </trkpt>
      <trkpt lat="41.71089" lon="20.76413">
        <ele>1317.196785</ele>
        <time>2022-04-25T12:40:29.908Z</time>
      </trkpt>
      <trkpt lat="41.71081" lon="20.76407">
        <ele>1317.408328</ele>
        <time>2022-04-25T12:40:31.889Z</time>
      </trkpt>
      <trkpt lat="41.71072" lon="20.76402">
        <ele>1317.626516</ele>
        <time>2022-04-25T12:40:33.886Z</time>
      </trkpt>
      <trkpt lat="41.7106" lon="20.76396">
        <ele>1317.915246</ele>
        <time>2022-04-25T12:40:36.869Z</time>
      </trkpt>
      <trkpt lat="41.71047" lon="20.76392">
        <ele>1318.209253</ele>
        <time>2022-04-25T12:40:39.897Z</time>
      </trkpt>
      <trkpt lat="41.71039" lon="20.76388">
        <ele>1318.414797</ele>
        <time>2022-04-25T12:40:41.902Z</time>
      </trkpt>
      <trkpt lat="41.7103" lon="20.76386">
        <ele>1318.620701</ele>
        <time>2022-04-25T12:40:43.879Z</time>
      </trkpt>
      <trkpt lat="41.7102" lon="20.76383">
        <ele>1318.840615</ele>
        <time>2022-04-25T12:40:45.898Z</time>
      </trkpt>
      <trkpt lat="41.71011" lon="20.76381">
        <ele>1319.063745</ele>
        <time>2022-04-25T12:40:47.931Z</time>
      </trkpt>
      <trkpt lat="41.71001" lon="20.76379">
        <ele>1319.286335</ele>
        <time>2022-04-25T12:40:49.872Z</time>
      </trkpt>
      <trkpt lat="41.7099" lon="20.76376">
        <ele>1319.538054</ele>
        <time>2022-04-25T12:40:51.876Z</time>
      </trkpt>
      <trkpt lat="41.70978" lon="20.76374">
        <ele>1319.806015</ele>
        <time>2022-04-25T12:40:53.879Z</time>
      </trkpt>
      <trkpt lat="41.70967" lon="20.76373">
        <ele>1320.052107</ele>
        <time>2022-04-25T12:40:55.880Z</time>
      </trkpt>
      <trkpt lat="41.70958" lon="20.76371">
        <ele>1320.275634</ele>
        <time>2022-04-25T12:40:57.887Z</time>
      </trkpt>
      <trkpt lat="41.70948" lon="20.7637">
        <ele>1320.5032</ele>
        <time>2022-04-25T12:40:59.888Z</time>
      </trkpt>
      <trkpt lat="41.70936" lon="20.76369">
        <ele>1320.767514</ele>
        <time>2022-04-25T12:41:01.872Z</time>
      </trkpt>
      <trkpt lat="41.70924" lon="20.76366">
        <ele>1320.797299</ele>
        <time>2022-04-25T12:41:03.872Z</time>
      </trkpt>
      <trkpt lat="41.70913" lon="20.76363">
        <ele>1320.376806</ele>
        <time>2022-04-25T12:41:05.880Z</time>
      </trkpt>
      <trkpt lat="41.70902" lon="20.76359">
        <ele>1319.950021</ele>
        <time>2022-04-25T12:41:07.875Z</time>
      </trkpt>
      <trkpt lat="41.70891" lon="20.76354">
        <ele>1319.484016</ele>
        <time>2022-04-25T12:41:09.904Z</time>
      </trkpt>
      <trkpt lat="41.70878" lon="20.76347">
        <ele>1318.969973</ele>
        <time>2022-04-25T12:41:11.879Z</time>
      </trkpt>
      <trkpt lat="41.70864" lon="20.7634">
        <ele>1318.416507</ele>
        <time>2022-04-25T12:41:13.876Z</time>
      </trkpt>
      <trkpt lat="41.70851" lon="20.76332">
        <ele>1317.888158</ele>
        <time>2022-04-25T12:41:15.863Z</time>
      </trkpt>
      <trkpt lat="41.70839" lon="20.76322">
        <ele>1317.369567</ele>
        <time>2022-04-25T12:41:17.868Z</time>
      </trkpt>
      <trkpt lat="41.70828" lon="20.76312">
        <ele>1316.870858</ele>
        <time>2022-04-25T12:41:19.895Z</time>
      </trkpt>
      <trkpt lat="41.70818" lon="20.76302">
        <ele>1316.392318</ele>
        <time>2022-04-25T12:41:21.894Z</time>
      </trkpt>
      <trkpt lat="41.70808" lon="20.76293">
        <ele>1315.927815</ele>
        <time>2022-04-25T12:41:23.859Z</time>
      </trkpt>
      <trkpt lat="41.70799" lon="20.76283">
        <ele>1315.499226</ele>
        <time>2022-04-25T12:41:25.881Z</time>
      </trkpt>
      <trkpt lat="41.70791" lon="20.76275">
        <ele>1315.116719</ele>
        <time>2022-04-25T12:41:27.872Z</time>
      </trkpt>
      <trkpt lat="41.70783" lon="20.76268">
        <ele>1314.756748</ele>
        <time>2022-04-25T12:41:29.878Z</time>
      </trkpt>
      <trkpt lat="41.70775" lon="20.7626">
        <ele>1314.381228</ele>
        <time>2022-04-25T12:41:31.885Z</time>
      </trkpt>
      <trkpt lat="41.70767" lon="20.76253">
        <ele>1314.148731</ele>
        <time>2022-04-25T12:41:33.898Z</time>
      </trkpt>
      <trkpt lat="41.70756" lon="20.76242">
        <ele>1313.994007</ele>
        <time>2022-04-25T12:41:36.880Z</time>
      </trkpt>
      <trkpt lat="41.70748" lon="20.76234">
        <ele>1313.880397</ele>
        <time>2022-04-25T12:41:38.875Z</time>
      </trkpt>
      <trkpt lat="41.7074" lon="20.76227">
        <ele>1313.769138</ele>
        <time>2022-04-25T12:41:40.913Z</time>
      </trkpt>
      <trkpt lat="41.70732" lon="20.7622">
        <ele>1313.660695</ele>
        <time>2022-04-25T12:41:42.875Z</time>
      </trkpt>
      <trkpt lat="41.70723" lon="20.76213">
        <ele>1313.553996</ele>
        <time>2022-04-25T12:41:44.856Z</time>
      </trkpt>
      <trkpt lat="41.70715" lon="20.76208">
        <ele>1313.450992</ele>
        <time>2022-04-25T12:41:46.866Z</time>
      </trkpt>
      <trkpt lat="41.70704" lon="20.76201">
        <ele>1313.309945</ele>
        <time>2022-04-25T12:41:49.877Z</time>
      </trkpt>
      <trkpt lat="41.70692" lon="20.76196">
        <ele>1313.169264</ele>
        <time>2022-04-25T12:41:52.874Z</time>
      </trkpt>
      <trkpt lat="41.70679" lon="20.76193">
        <ele>1313.024022</ele>
        <time>2022-04-25T12:41:55.903Z</time>
      </trkpt>
      <trkpt lat="41.7067" lon="20.76192">
        <ele>1312.912961</ele>
        <time>2022-04-25T12:41:57.872Z</time>
      </trkpt>
      <trkpt lat="41.70659" lon="20.76191">
        <ele>1312.793105</ele>
        <time>2022-04-25T12:41:59.913Z</time>
      </trkpt>
      <trkpt lat="41.70649" lon="20.76192">
        <ele>1312.676702</ele>
        <time>2022-04-25T12:42:01.892Z</time>
      </trkpt>
      <trkpt lat="41.70637" lon="20.76191">
        <ele>1312.549913</ele>
        <time>2022-04-25T12:42:03.878Z</time>
      </trkpt>
      <trkpt lat="41.70625" lon="20.76189">
        <ele>1312.408019</ele>
        <time>2022-04-25T12:42:05.904Z</time>
      </trkpt>
      <trkpt lat="41.70612" lon="20.76186">
        <ele>1312.258343</ele>
        <time>2022-04-25T12:42:07.958Z</time>
      </trkpt>
      <trkpt lat="41.706" lon="20.76181">
        <ele>1312.125705</ele>
        <time>2022-04-25T12:42:09.870Z</time>
      </trkpt>
      <trkpt lat="41.70588" lon="20.76175">
        <ele>1312.002222</ele>
        <time>2022-04-25T12:42:11.923Z</time>
      </trkpt>
      <trkpt lat="41.70577" lon="20.76166">
        <ele>1311.879101</ele>
        <time>2022-04-25T12:42:13.874Z</time>
      </trkpt>
      <trkpt lat="41.70567" lon="20.76158">
        <ele>1311.763801</ele>
        <time>2022-04-25T12:42:15.867Z</time>
      </trkpt>
      <trkpt lat="41.70556" lon="20.76149">
        <ele>1311.643901</ele>
        <time>2022-04-25T12:42:17.887Z</time>
      </trkpt>
      <trkpt lat="41.70546" lon="20.7614">
        <ele>1311.523861</ele>
        <time>2022-04-25T12:42:19.883Z</time>
      </trkpt>
      <trkpt lat="41.70535" lon="20.76132">
        <ele>1311.410871</ele>
        <time>2022-04-25T12:42:21.882Z</time>
      </trkpt>
      <trkpt lat="41.70525" lon="20.76126">
        <ele>1311.303585</ele>
        <time>2022-04-25T12:42:23.859Z</time>
      </trkpt>
      <trkpt lat="41.70515" lon="20.76121">
        <ele>1311.194925</ele>
        <time>2022-04-25T12:42:25.956Z</time>
      </trkpt>
      <trkpt lat="41.70503" lon="20.76118">
        <ele>1311.077376</ele>
        <time>2022-04-25T12:42:27.873Z</time>
      </trkpt>
      <trkpt lat="41.70491" lon="20.76116">
        <ele>1310.961974</ele>
        <time>2022-04-25T12:42:29.886Z</time>
      </trkpt>
      <trkpt lat="41.70479" lon="20.76116">
        <ele>1310.852047</ele>
        <time>2022-04-25T12:42:31.886Z</time>
      </trkpt>
      <trkpt lat="41.70469" lon="20.76116">
        <ele>1310.750915</ele>
        <time>2022-04-25T12:42:33.904Z</time>
      </trkpt>
      <trkpt lat="41.70459" lon="20.76115">
        <ele>1310.659364</ele>
        <time>2022-04-25T12:42:35.892Z</time>
      </trkpt>
      <trkpt lat="41.70449" lon="20.76115">
        <ele>1310.562011</ele>
        <time>2022-04-25T12:42:37.866Z</time>
      </trkpt>
      <trkpt lat="41.70439" lon="20.76114">
        <ele>1310.46081</ele>
        <time>2022-04-25T12:42:39.866Z</time>
      </trkpt>
      <trkpt lat="41.70429" lon="20.76112">
        <ele>1310.220981</ele>
        <time>2022-04-25T12:42:41.938Z</time>
      </trkpt>
      <trkpt lat="41.70419" lon="20.76109">
        <ele>1309.949927</ele>
        <time>2022-04-25T12:42:43.885Z</time>
      </trkpt>
      <trkpt lat="41.7041" lon="20.76105">
        <ele>1309.68602</ele>
        <time>2022-04-25T12:42:45.861Z</time>
      </trkpt>
      <trkpt lat="41.70401" lon="20.761">
        <ele>1309.413973</ele>
        <time>2022-04-25T12:42:47.870Z</time>
      </trkpt>
      <trkpt lat="41.70393" lon="20.76094">
        <ele>1309.14597</ele>
        <time>2022-04-25T12:42:49.878Z</time>
      </trkpt>
      <trkpt lat="41.70382" lon="20.76084">
        <ele>1308.786425</ele>
        <time>2022-04-25T12:42:52.869Z</time>
      </trkpt>
      <trkpt lat="41.70373" lon="20.76073">
        <ele>1308.437235</ele>
        <time>2022-04-25T12:42:55.870Z</time>
      </trkpt>
      <trkpt lat="41.70364" lon="20.76062">
        <ele>1308.11446</ele>
        <time>2022-04-25T12:42:58.890Z</time>
      </trkpt>
      <trkpt lat="41.70356" lon="20.76051">
        <ele>1307.783698</ele>
        <time>2022-04-25T12:43:01.872Z</time>
      </trkpt>
      <trkpt lat="41.7035" lon="20.7604">
        <ele>1307.501635</ele>
        <time>2022-04-25T12:43:04.897Z</time>
      </trkpt>
      <trkpt lat="41.70346" lon="20.76029">
        <ele>1307.236302</ele>
        <time>2022-04-25T12:43:07.923Z</time>
      </trkpt>
      <trkpt lat="41.70341" lon="20.76015">
        <ele>1306.912416</ele>
        <time>2022-04-25T12:43:11.888Z</time>
      </trkpt>
      <trkpt lat="41.70338" lon="20.76">
        <ele>1306.603121</ele>
        <time>2022-04-25T12:43:15.871Z</time>
      </trkpt>
      <trkpt lat="41.70335" lon="20.75988">
        <ele>1306.333337</ele>
        <time>2022-04-25T12:43:18.906Z</time>
      </trkpt>
      <trkpt lat="41.70334" lon="20.75973">
        <ele>1306.025939</ele>
        <time>2022-04-25T12:43:22.889Z</time>
      </trkpt>
      <trkpt lat="41.70333" lon="20.75958">
        <ele>1305.704021</ele>
        <time>2022-04-25T12:43:26.860Z</time>
      </trkpt>
      <trkpt lat="41.70332" lon="20.75943">
        <ele>1305.406663</ele>
        <time>2022-04-25T12:43:30.859Z</time>
      </trkpt>
      <trkpt lat="41.70333" lon="20.75931">
        <ele>1305.209669</ele>
        <time>2022-04-25T12:43:34.885Z</time>
      </trkpt>
      <trkpt lat="41.70331" lon="20.7592">
        <ele>1305.014568</ele>
        <time>2022-04-25T12:43:39.861Z</time>
      </trkpt>
      <trkpt lat="41.70328" lon="20.75905">
        <ele>1304.776897</ele>
        <time>2022-04-25T12:43:43.885Z</time>
      </trkpt>
      <trkpt lat="41.70325" lon="20.75892">
        <ele>1304.550613</ele>
        <time>2022-04-25T12:43:46.869Z</time>
      </trkpt>
      <trkpt lat="41.70319" lon="20.75879">
        <ele>1304.301231</ele>
        <time>2022-04-25T12:43:49.878Z</time>
      </trkpt>
      <trkpt lat="41.70313" lon="20.75863">
        <ele>1304.011879</ele>
        <time>2022-04-25T12:43:52.900Z</time>
      </trkpt>
      <trkpt lat="41.70308" lon="20.75853">
        <ele>1303.813881</ele>
        <time>2022-04-25T12:43:54.869Z</time>
      </trkpt>
      <trkpt lat="41.70299" lon="20.75841">
        <ele>1303.543162</ele>
        <time>2022-04-25T12:43:57.866Z</time>
      </trkpt>
      <trkpt lat="41.70291" lon="20.75831">
        <ele>1303.293593</ele>
        <time>2022-04-25T12:44:00.877Z</time>
      </trkpt>
      <trkpt lat="41.70283" lon="20.75822">
        <ele>1303.073976</ele>
        <time>2022-04-25T12:44:03.914Z</time>
      </trkpt>
      <trkpt lat="41.70275" lon="20.75815">
        <ele>1302.87035</ele>
        <time>2022-04-25T12:44:06.878Z</time>
      </trkpt>
      <trkpt lat="41.70266" lon="20.7581">
        <ele>1302.652159</ele>
        <time>2022-04-25T12:44:10.887Z</time>
      </trkpt>
      <trkpt lat="41.70257" lon="20.75802">
        <ele>1302.413336</ele>
        <time>2022-04-25T12:44:14.896Z</time>
      </trkpt>
      <trkpt lat="41.70248" lon="20.75797">
        <ele>1302.204171</ele>
        <time>2022-04-25T12:44:17.880Z</time>
      </trkpt>
      <trkpt lat="41.70238" lon="20.75792">
        <ele>1301.976414</ele>
        <time>2022-04-25T12:44:20.899Z</time>
      </trkpt>
      <trkpt lat="41.70227" lon="20.75787">
        <ele>1301.727716</ele>
        <time>2022-04-25T12:44:23.896Z</time>
      </trkpt>
      <trkpt lat="41.70216" lon="20.75779">
        <ele>1301.475064</ele>
        <time>2022-04-25T12:44:26.881Z</time>
      </trkpt>
      <trkpt lat="41.70206" lon="20.7577">
        <ele>1301.29528</ele>
        <time>2022-04-25T12:44:29.886Z</time>
      </trkpt>
      <trkpt lat="41.70196" lon="20.7576">
        <ele>1301.112204</ele>
        <time>2022-04-25T12:44:32.851Z</time>
      </trkpt>
      <trkpt lat="41.70187" lon="20.75748">
        <ele>1300.929637</ele>
        <time>2022-04-25T12:44:35.873Z</time>
      </trkpt>
      <trkpt lat="41.70178" lon="20.75736">
        <ele>1300.742736</ele>
        <time>2022-04-25T12:44:38.872Z</time>
      </trkpt>
      <trkpt lat="41.70169" lon="20.75724">
        <ele>1300.562212</ele>
        <time>2022-04-25T12:44:41.909Z</time>
      </trkpt>
      <trkpt lat="41.7016" lon="20.75713">
        <ele>1300.380391</ele>
        <time>2022-04-25T12:44:44.884Z</time>
      </trkpt>
      <trkpt lat="41.70151" lon="20.757">
        <ele>1300.191734</ele>
        <time>2022-04-25T12:44:47.912Z</time>
      </trkpt>
      <trkpt lat="41.70144" lon="20.75692">
        <ele>1300.056781</ele>
        <time>2022-04-25T12:44:49.886Z</time>
      </trkpt>
      <trkpt lat="41.70136" lon="20.75683">
        <ele>1299.916388</ele>
        <time>2022-04-25T12:44:51.870Z</time>
      </trkpt>
      <trkpt lat="41.70128" lon="20.75675">
        <ele>1299.76603</ele>
        <time>2022-04-25T12:44:53.876Z</time>
      </trkpt>
      <trkpt lat="41.70119" lon="20.75668">
        <ele>1299.616867</ele>
        <time>2022-04-25T12:44:55.873Z</time>
      </trkpt>
      <trkpt lat="41.7011" lon="20.75662">
        <ele>1299.472451</ele>
        <time>2022-04-25T12:44:57.869Z</time>
      </trkpt>
      <trkpt lat="41.70102" lon="20.75656">
        <ele>1299.33452</ele>
        <time>2022-04-25T12:44:59.872Z</time>
      </trkpt>
      <trkpt lat="41.70093" lon="20.75651">
        <ele>1299.196588</ele>
        <time>2022-04-25T12:45:01.876Z</time>
      </trkpt>
      <trkpt lat="41.70084" lon="20.75644">
        <ele>1299.050601</ele>
        <time>2022-04-25T12:45:03.911Z</time>
      </trkpt>
      <trkpt lat="41.70075" lon="20.75639">
        <ele>1298.90782</ele>
        <time>2022-04-25T12:45:05.880Z</time>
      </trkpt>
      <trkpt lat="41.70066" lon="20.75633">
        <ele>1298.623506</ele>
        <time>2022-04-25T12:45:07.867Z</time>
      </trkpt>
      <trkpt lat="41.70058" lon="20.75627">
        <ele>1298.348796</ele>
        <time>2022-04-25T12:45:09.880Z</time>
      </trkpt>
      <trkpt lat="41.70049" lon="20.75621">
        <ele>1298.061446</ele>
        <time>2022-04-25T12:45:11.872Z</time>
      </trkpt>
      <trkpt lat="41.7004" lon="20.75614">
        <ele>1297.768472</ele>
        <time>2022-04-25T12:45:13.871Z</time>
      </trkpt>
      <trkpt lat="41.70034" lon="20.75606">
        <ele>1297.506141</ele>
        <time>2022-04-25T12:45:15.860Z</time>
      </trkpt>
      <trkpt lat="41.70024" lon="20.75592">
        <ele>1297.105864</ele>
        <time>2022-04-25T12:45:18.870Z</time>
      </trkpt>
      <trkpt lat="41.70018" lon="20.75582">
        <ele>1296.820502</ele>
        <time>2022-04-25T12:45:20.900Z</time>
      </trkpt>
      <trkpt lat="41.70013" lon="20.75571">
        <ele>1296.541642</ele>
        <time>2022-04-25T12:45:22.869Z</time>
      </trkpt>
      <trkpt lat="41.70008" lon="20.7556">
        <ele>1296.272301</ele>
        <time>2022-04-25T12:45:24.859Z</time>
      </trkpt>
      <trkpt lat="41.70002" lon="20.75545">
        <ele>1295.898579</ele>
        <time>2022-04-25T12:45:27.890Z</time>
      </trkpt>
      <trkpt lat="41.69995" lon="20.7553">
        <ele>1295.518732</ele>
        <time>2022-04-25T12:45:30.871Z</time>
      </trkpt>
      <trkpt lat="41.6999" lon="20.7552">
        <ele>1295.257253</ele>
        <time>2022-04-25T12:45:32.885Z</time>
      </trkpt>
      <trkpt lat="41.69984" lon="20.75509">
        <ele>1294.978152</ele>
        <time>2022-04-25T12:45:34.879Z</time>
      </trkpt>
      <trkpt lat="41.69979" lon="20.75498">
        <ele>1294.689346</ele>
        <time>2022-04-25T12:45:36.885Z</time>
      </trkpt>
      <trkpt lat="41.69972" lon="20.75487">
        <ele>1294.382863</ele>
        <time>2022-04-25T12:45:38.888Z</time>
      </trkpt>
      <trkpt lat="41.69964" lon="20.75477">
        <ele>1294.070403</ele>
        <time>2022-04-25T12:45:40.868Z</time>
      </trkpt>
      <trkpt lat="41.69955" lon="20.75468">
        <ele>1293.747789</ele>
        <time>2022-04-25T12:45:42.882Z</time>
      </trkpt>
      <trkpt lat="41.69946" lon="20.75459">
        <ele>1293.443955</ele>
        <time>2022-04-25T12:45:44.865Z</time>
      </trkpt>
      <trkpt lat="41.69936" lon="20.75452">
        <ele>1293.155585</ele>
        <time>2022-04-25T12:45:46.879Z</time>
      </trkpt>
      <trkpt lat="41.69928" lon="20.75445">
        <ele>1292.891166</ele>
        <time>2022-04-25T12:45:48.904Z</time>
      </trkpt>
      <trkpt lat="41.69919" lon="20.75439">
        <ele>1292.629014</ele>
        <time>2022-04-25T12:45:50.888Z</time>
      </trkpt>
      <trkpt lat="41.6991" lon="20.75432">
        <ele>1292.372361</ele>
        <time>2022-04-25T12:45:52.878Z</time>
      </trkpt>
      <trkpt lat="41.69902" lon="20.75424">
        <ele>1292.107561</ele>
        <time>2022-04-25T12:45:54.898Z</time>
      </trkpt>
      <trkpt lat="41.69894" lon="20.75415">
        <ele>1291.836062</ele>
        <time>2022-04-25T12:45:56.889Z</time>
      </trkpt>
      <trkpt lat="41.69887" lon="20.75405">
        <ele>1291.567906</ele>
        <time>2022-04-25T12:45:58.855Z</time>
      </trkpt>
      <trkpt lat="41.6988" lon="20.75395">
        <ele>1291.297351</ele>
        <time>2022-04-25T12:46:00.863Z</time>
      </trkpt>
      <trkpt lat="41.69875" lon="20.75383">
        <ele>1291.033113</ele>
        <time>2022-04-25T12:46:02.885Z</time>
      </trkpt>
      <trkpt lat="41.69871" lon="20.75371">
        <ele>1290.783208</ele>
        <time>2022-04-25T12:46:04.890Z</time>
      </trkpt>
      <trkpt lat="41.69868" lon="20.75359">
        <ele>1290.524617</ele>
        <time>2022-04-25T12:46:06.868Z</time>
      </trkpt>
      <trkpt lat="41.69865" lon="20.75345">
        <ele>1290.24005</ele>
        <time>2022-04-25T12:46:08.879Z</time>
      </trkpt>
      <trkpt lat="41.69863" lon="20.75331">
        <ele>1289.976817</ele>
        <time>2022-04-25T12:46:10.876Z</time>
      </trkpt>
      <trkpt lat="41.69861" lon="20.75318">
        <ele>1289.716538</ele>
        <time>2022-04-25T12:46:12.883Z</time>
      </trkpt>
      <trkpt lat="41.69859" lon="20.75305">
        <ele>1289.455748</ele>
        <time>2022-04-25T12:46:14.892Z</time>
      </trkpt>
      <trkpt lat="41.69858" lon="20.75292">
        <ele>1289.198336</ele>
        <time>2022-04-25T12:46:16.894Z</time>
      </trkpt>
      <trkpt lat="41.69856" lon="20.75279">
        <ele>1288.948952</ele>
        <time>2022-04-25T12:46:18.884Z</time>
      </trkpt>
      <trkpt lat="41.69854" lon="20.75267">
        <ele>1288.725616</ele>
        <time>2022-04-25T12:46:20.868Z</time>
      </trkpt>
      <trkpt lat="41.69852" lon="20.75254">
        <ele>1288.506529</ele>
        <time>2022-04-25T12:46:22.908Z</time>
      </trkpt>
      <trkpt lat="41.6985" lon="20.75242">
        <ele>1288.278428</ele>
        <time>2022-04-25T12:46:24.878Z</time>
      </trkpt>
      <trkpt lat="41.69848" lon="20.75228">
        <ele>1288.038601</ele>
        <time>2022-04-25T12:46:26.878Z</time>
      </trkpt>
      <trkpt lat="41.69846" lon="20.75214">
        <ele>1287.792944</ele>
        <time>2022-04-25T12:46:28.878Z</time>
      </trkpt>
      <trkpt lat="41.69843" lon="20.752">
        <ele>1287.536226</ele>
        <time>2022-04-25T12:46:30.867Z</time>
      </trkpt>
      <trkpt lat="41.6984" lon="20.75185">
        <ele>1287.266811</ele>
        <time>2022-04-25T12:46:32.861Z</time>
      </trkpt>
      <trkpt lat="41.69837" lon="20.75171">
        <ele>1287.006043</ele>
        <time>2022-04-25T12:46:34.886Z</time>
      </trkpt>
      <trkpt lat="41.69835" lon="20.75157">
        <ele>1286.762814</ele>
        <time>2022-04-25T12:46:36.890Z</time>
      </trkpt>
      <trkpt lat="41.69833" lon="20.75144">
        <ele>1286.527835</ele>
        <time>2022-04-25T12:46:38.875Z</time>
      </trkpt>
      <trkpt lat="41.69831" lon="20.75132">
        <ele>1286.313372</ele>
        <time>2022-04-25T12:46:40.875Z</time>
      </trkpt>
      <trkpt lat="41.69828" lon="20.75115">
        <ele>1286.010951</ele>
        <time>2022-04-25T12:46:43.906Z</time>
      </trkpt>
      <trkpt lat="41.69825" lon="20.75103">
        <ele>1285.792575</ele>
        <time>2022-04-25T12:46:45.866Z</time>
      </trkpt>
      <trkpt lat="41.69823" lon="20.75091">
        <ele>1285.569137</ele>
        <time>2022-04-25T12:46:47.876Z</time>
      </trkpt>
      <trkpt lat="41.6982" lon="20.75079">
        <ele>1285.350528</ele>
        <time>2022-04-25T12:46:49.878Z</time>
      </trkpt>
      <trkpt lat="41.69818" lon="20.75067">
        <ele>1285.142249</ele>
        <time>2022-04-25T12:46:51.881Z</time>
      </trkpt>
      <trkpt lat="41.69814" lon="20.75051">
        <ele>1284.847428</ele>
        <time>2022-04-25T12:46:54.876Z</time>
      </trkpt>
      <trkpt lat="41.6981" lon="20.75035">
        <ele>1284.896708</ele>
        <time>2022-04-25T12:46:57.878Z</time>
      </trkpt>
      <trkpt lat="41.69804" lon="20.75019">
        <ele>1285.012151</ele>
        <time>2022-04-25T12:47:00.887Z</time>
      </trkpt>
      <trkpt lat="41.69799" lon="20.75008">
        <ele>1285.101528</ele>
        <time>2022-04-25T12:47:02.898Z</time>
      </trkpt>
      <trkpt lat="41.69794" lon="20.74994">
        <ele>1285.20047</ele>
        <time>2022-04-25T12:47:04.875Z</time>
      </trkpt>
      <trkpt lat="41.69788" lon="20.74981">
        <ele>1285.298141</ele>
        <time>2022-04-25T12:47:06.905Z</time>
      </trkpt>
      <trkpt lat="41.69782" lon="20.74969">
        <ele>1285.39549</ele>
        <time>2022-04-25T12:47:08.886Z</time>
      </trkpt>
      <trkpt lat="41.69777" lon="20.74957">
        <ele>1285.486873</ele>
        <time>2022-04-25T12:47:10.907Z</time>
      </trkpt>
      <trkpt lat="41.69771" lon="20.74945">
        <ele>1285.577167</ele>
        <time>2022-04-25T12:47:12.892Z</time>
      </trkpt>
      <trkpt lat="41.69766" lon="20.74934">
        <ele>1285.664155</ele>
        <time>2022-04-25T12:47:14.878Z</time>
      </trkpt>
      <trkpt lat="41.6976" lon="20.74922">
        <ele>1285.755673</ele>
        <time>2022-04-25T12:47:16.871Z</time>
      </trkpt>
      <trkpt lat="41.69755" lon="20.74911">
        <ele>1285.840981</ele>
        <time>2022-04-25T12:47:18.870Z</time>
      </trkpt>
      <trkpt lat="41.6975" lon="20.749">
        <ele>1285.928982</ele>
        <time>2022-04-25T12:47:20.918Z</time>
      </trkpt>
      <trkpt lat="41.69745" lon="20.74883">
        <ele>1286.048962</ele>
        <time>2022-04-25T12:47:23.925Z</time>
      </trkpt>
      <trkpt lat="41.69742" lon="20.74869">
        <ele>1286.14343</ele>
        <time>2022-04-25T12:47:25.890Z</time>
      </trkpt>
      <trkpt lat="41.69741" lon="20.74856">
        <ele>1286.228633</ele>
        <time>2022-04-25T12:47:27.877Z</time>
      </trkpt>
      <trkpt lat="41.6974" lon="20.74844">
        <ele>1286.309315</ele>
        <time>2022-04-25T12:47:29.881Z</time>
      </trkpt>
      <trkpt lat="41.6974" lon="20.74826">
        <ele>1286.358322</ele>
        <time>2022-04-25T12:47:32.890Z</time>
      </trkpt>
      <trkpt lat="41.69741" lon="20.74808">
        <ele>1286.306385</ele>
        <time>2022-04-25T12:47:35.912Z</time>
      </trkpt>
      <trkpt lat="41.69742" lon="20.7479">
        <ele>1286.253566</ele>
        <time>2022-04-25T12:47:38.889Z</time>
      </trkpt>
      <trkpt lat="41.69744" lon="20.74774">
        <ele>1286.204613</ele>
        <time>2022-04-25T12:47:41.889Z</time>
      </trkpt>
      <trkpt lat="41.69746" lon="20.74762">
        <ele>1286.168296</ele>
        <time>2022-04-25T12:47:43.909Z</time>
      </trkpt>
      <trkpt lat="41.69749" lon="20.74748">
        <ele>1286.126554</ele>
        <time>2022-04-25T12:47:46.875Z</time>
      </trkpt>
      <trkpt lat="41.69752" lon="20.74735">
        <ele>1286.083762</ele>
        <time>2022-04-25T12:47:49.889Z</time>
      </trkpt>
      <trkpt lat="41.69756" lon="20.74721">
        <ele>1286.041953</ele>
        <time>2022-04-25T12:47:52.883Z</time>
      </trkpt>
      <trkpt lat="41.6976" lon="20.74709">
        <ele>1286.001645</ele>
        <time>2022-04-25T12:47:55.875Z</time>
      </trkpt>
      <trkpt lat="41.69765" lon="20.74696">
        <ele>1285.95949</ele>
        <time>2022-04-25T12:47:58.877Z</time>
      </trkpt>
      <trkpt lat="41.6977" lon="20.74682">
        <ele>1285.913183</ele>
        <time>2022-04-25T12:48:01.889Z</time>
      </trkpt>
      <trkpt lat="41.69775" lon="20.74668">
        <ele>1285.865911</ele>
        <time>2022-04-25T12:48:04.882Z</time>
      </trkpt>
      <trkpt lat="41.6978" lon="20.74655">
        <ele>1285.825562</ele>
        <time>2022-04-25T12:48:07.877Z</time>
      </trkpt>
      <trkpt lat="41.69785" lon="20.74643">
        <ele>1285.782607</ele>
        <time>2022-04-25T12:48:11.874Z</time>
      </trkpt>
      <trkpt lat="41.69788" lon="20.74631">
        <ele>1285.745228</ele>
        <time>2022-04-25T12:48:15.886Z</time>
      </trkpt>
      <trkpt lat="41.69785" lon="20.74619">
        <ele>1285.709511</ele>
        <time>2022-04-25T12:48:19.887Z</time>
      </trkpt>
      <trkpt lat="41.69783" lon="20.74632">
        <ele>1285.672971</ele>
        <time>2022-04-25T12:48:25.915Z</time>
      </trkpt>
      <trkpt lat="41.69778" lon="20.74643">
        <ele>1285.449305</ele>
        <time>2022-04-25T12:48:28.878Z</time>
      </trkpt>
      <trkpt lat="41.69772" lon="20.74655">
        <ele>1285.193683</ele>
        <time>2022-04-25T12:48:31.863Z</time>
      </trkpt>
      <trkpt lat="41.69767" lon="20.74665">
        <ele>1284.953835</ele>
        <time>2022-04-25T12:48:34.885Z</time>
      </trkpt>
      <trkpt lat="41.6976" lon="20.74674">
        <ele>1284.709983</ele>
        <time>2022-04-25T12:48:38.904Z</time>
      </trkpt>
      <trkpt lat="41.6975" lon="20.7468">
        <ele>1284.441946</ele>
        <time>2022-04-25T12:48:43.869Z</time>
      </trkpt>
      <trkpt lat="41.69741" lon="20.74673">
        <ele>1284.188342</ele>
        <time>2022-04-25T12:48:47.867Z</time>
      </trkpt>
      <trkpt lat="41.69733" lon="20.74667">
        <ele>1283.944706</ele>
        <time>2022-04-25T12:48:50.873Z</time>
      </trkpt>
      <trkpt lat="41.69724" lon="20.7466">
        <ele>1283.689835</ele>
        <time>2022-04-25T12:48:54.881Z</time>
      </trkpt>
      <trkpt lat="41.69717" lon="20.74652">
        <ele>1283.459333</ele>
        <time>2022-04-25T12:48:59.906Z</time>
      </trkpt>
      <trkpt lat="41.69705" lon="20.74649">
        <ele>1283.161864</ele>
        <time>2022-04-25T12:55:01.933Z</time>
      </trkpt>
      <trkpt lat="41.69714" lon="20.74655">
        <ele>1282.907287</ele>
        <time>2022-04-25T12:55:09.894Z</time>
      </trkpt>
      <trkpt lat="41.69723" lon="20.74663">
        <ele>1282.638977</ele>
        <time>2022-04-25T12:55:13.885Z</time>
      </trkpt>
      <trkpt lat="41.69732" lon="20.7467">
        <ele>1282.391285</ele>
        <time>2022-04-25T12:55:16.930Z</time>
      </trkpt>
      <trkpt lat="41.69741" lon="20.74676">
        <ele>1282.138943</ele>
        <time>2022-04-25T12:55:19.955Z</time>
      </trkpt>
      <trkpt lat="41.6975" lon="20.74681">
        <ele>1281.884932</ele>
        <time>2022-04-25T12:55:22.933Z</time>
      </trkpt>
      <trkpt lat="41.69759" lon="20.74678">
        <ele>1281.642749</ele>
        <time>2022-04-25T12:55:25.879Z</time>
      </trkpt>
      <trkpt lat="41.69767" lon="20.74669">
        <ele>1281.389517</ele>
        <time>2022-04-25T12:55:28.866Z</time>
      </trkpt>
      <trkpt lat="41.69772" lon="20.74658">
        <ele>1281.163624</ele>
        <time>2022-04-25T12:55:31.889Z</time>
      </trkpt>
      <trkpt lat="41.69776" lon="20.74646">
        <ele>1281.083829</ele>
        <time>2022-04-25T12:55:35.872Z</time>
      </trkpt>
      <trkpt lat="41.69782" lon="20.74635">
        <ele>1281.009061</ele>
        <time>2022-04-25T12:55:39.883Z</time>
      </trkpt>
      <trkpt lat="41.69786" lon="20.74624">
        <ele>1280.935109</ele>
        <time>2022-04-25T12:55:43.884Z</time>
      </trkpt>
      <trkpt lat="41.69793" lon="20.7461">
        <ele>1280.841092</ele>
        <time>2022-04-25T12:55:47.872Z</time>
      </trkpt>
      <trkpt lat="41.69799" lon="20.74598">
        <ele>1280.756232</ele>
        <time>2022-04-25T12:55:50.910Z</time>
      </trkpt>
      <trkpt lat="41.69803" lon="20.74582">
        <ele>1280.655456</ele>
        <time>2022-04-25T12:55:53.894Z</time>
      </trkpt>
      <trkpt lat="41.69805" lon="20.74569">
        <ele>1280.578998</ele>
        <time>2022-04-25T12:55:55.880Z</time>
      </trkpt>
      <trkpt lat="41.69806" lon="20.74555">
        <ele>1280.497752</ele>
        <time>2022-04-25T12:55:57.912Z</time>
      </trkpt>
      <trkpt lat="41.69806" lon="20.74539">
        <ele>1280.409317</ele>
        <time>2022-04-25T12:55:59.908Z</time>
      </trkpt>
      <trkpt lat="41.69806" lon="20.74523">
        <ele>1280.313399</ele>
        <time>2022-04-25T12:56:01.885Z</time>
      </trkpt>
      <trkpt lat="41.69807" lon="20.74506">
        <ele>1280.215954</ele>
        <time>2022-04-25T12:56:03.873Z</time>
      </trkpt>
      <trkpt lat="41.69809" lon="20.7449">
        <ele>1280.120587</ele>
        <time>2022-04-25T12:56:05.864Z</time>
      </trkpt>
      <trkpt lat="41.69811" lon="20.74472">
        <ele>1280.013296</ele>
        <time>2022-04-25T12:56:07.873Z</time>
      </trkpt>
      <trkpt lat="41.69815" lon="20.74455">
        <ele>1279.913596</ele>
        <time>2022-04-25T12:56:09.895Z</time>
      </trkpt>
      <trkpt lat="41.69822" lon="20.7444">
        <ele>1279.805327</ele>
        <time>2022-04-25T12:56:11.878Z</time>
      </trkpt>
      <trkpt lat="41.69831" lon="20.74425">
        <ele>1279.015442</ele>
        <time>2022-04-25T12:56:13.877Z</time>
      </trkpt>
      <trkpt lat="41.69841" lon="20.7441">
        <ele>1277.782199</ele>
        <time>2022-04-25T12:56:15.882Z</time>
      </trkpt>
      <trkpt lat="41.69852" lon="20.74396">
        <ele>1276.587015</ele>
        <time>2022-04-25T12:56:17.878Z</time>
      </trkpt>
      <trkpt lat="41.69864" lon="20.74384">
        <ele>1275.376176</ele>
        <time>2022-04-25T12:56:19.874Z</time>
      </trkpt>
      <trkpt lat="41.69875" lon="20.74372">
        <ele>1274.211438</ele>
        <time>2022-04-25T12:56:21.914Z</time>
      </trkpt>
      <trkpt lat="41.69887" lon="20.74362">
        <ele>1273.08521</ele>
        <time>2022-04-25T12:56:23.858Z</time>
      </trkpt>
      <trkpt lat="41.69899" lon="20.74351">
        <ele>1271.928934</ele>
        <time>2022-04-25T12:56:25.873Z</time>
      </trkpt>
      <trkpt lat="41.69909" lon="20.74337">
        <ele>1270.719593</ele>
        <time>2022-04-25T12:56:27.875Z</time>
      </trkpt>
      <trkpt lat="41.69919" lon="20.74321">
        <ele>1269.480021</ele>
        <time>2022-04-25T12:56:29.885Z</time>
      </trkpt>
      <trkpt lat="41.69928" lon="20.74302">
        <ele>1268.131012</ele>
        <time>2022-04-25T12:56:31.873Z</time>
      </trkpt>
      <trkpt lat="41.69937" lon="20.74284">
        <ele>1266.830698</ele>
        <time>2022-04-25T12:56:33.887Z</time>
      </trkpt>
      <trkpt lat="41.69945" lon="20.74266">
        <ele>1265.541485</ele>
        <time>2022-04-25T12:56:35.885Z</time>
      </trkpt>
      <trkpt lat="41.69953" lon="20.74247">
        <ele>1264.529142</ele>
        <time>2022-04-25T12:56:37.865Z</time>
      </trkpt>
      <trkpt lat="41.69961" lon="20.74228">
        <ele>1263.559832</ele>
        <time>2022-04-25T12:56:39.884Z</time>
      </trkpt>
      <trkpt lat="41.69971" lon="20.74208">
        <ele>1262.560456</ele>
        <time>2022-04-25T12:56:41.878Z</time>
      </trkpt>
      <trkpt lat="41.6998" lon="20.74189">
        <ele>1261.566704</ele>
        <time>2022-04-25T12:56:43.904Z</time>
      </trkpt>
      <trkpt lat="41.69989" lon="20.7417">
        <ele>1260.615519</ele>
        <time>2022-04-25T12:56:45.888Z</time>
      </trkpt>
      <trkpt lat="41.69998" lon="20.74153">
        <ele>1259.703114</ele>
        <time>2022-04-25T12:56:47.869Z</time>
      </trkpt>
      <trkpt lat="41.70006" lon="20.74134">
        <ele>1258.778201</ele>
        <time>2022-04-25T12:56:49.919Z</time>
      </trkpt>
      <trkpt lat="41.70016" lon="20.74116">
        <ele>1257.815643</ele>
        <time>2022-04-25T12:56:51.878Z</time>
      </trkpt>
      <trkpt lat="41.70027" lon="20.74099">
        <ele>1256.828103</ele>
        <time>2022-04-25T12:56:53.879Z</time>
      </trkpt>
      <trkpt lat="41.70037" lon="20.74081">
        <ele>1255.854219</ele>
        <time>2022-04-25T12:56:55.921Z</time>
      </trkpt>
      <trkpt lat="41.70048" lon="20.74064">
        <ele>1254.880336</ele>
        <time>2022-04-25T12:56:57.877Z</time>
      </trkpt>
      <trkpt lat="41.70059" lon="20.74045">
        <ele>1254.101395</ele>
        <time>2022-04-25T12:56:59.896Z</time>
      </trkpt>
      <trkpt lat="41.70064" lon="20.74035">
        <ele>1253.696308</ele>
        <time>2022-04-25T12:57:00.908Z</time>
      </trkpt>
      <trkpt lat="41.70068" lon="20.74024">
        <ele>1253.287524</ele>
        <time>2022-04-25T12:57:01.867Z</time>
      </trkpt>
      <trkpt lat="41.70072" lon="20.74013">
        <ele>1252.885751</ele>
        <time>2022-04-25T12:57:02.869Z</time>
      </trkpt>
      <trkpt lat="41.70076" lon="20.7399">
        <ele>1252.077663</ele>
        <time>2022-04-25T12:57:04.876Z</time>
      </trkpt>
      <trkpt lat="41.70077" lon="20.73978">
        <ele>1251.665987</ele>
        <time>2022-04-25T12:57:05.875Z</time>
      </trkpt>
      <trkpt lat="41.70076" lon="20.73965">
        <ele>1251.251751</ele>
        <time>2022-04-25T12:57:06.910Z</time>
      </trkpt>
      <trkpt lat="41.70075" lon="20.73953">
        <ele>1250.837459</ele>
        <time>2022-04-25T12:57:07.879Z</time>
      </trkpt>
      <trkpt lat="41.70073" lon="20.73941">
        <ele>1250.411709</ele>
        <time>2022-04-25T12:57:08.910Z</time>
      </trkpt>
      <trkpt lat="41.7007" lon="20.73929">
        <ele>1250.004544</ele>
        <time>2022-04-25T12:57:09.884Z</time>
      </trkpt>
      <trkpt lat="41.70067" lon="20.73918">
        <ele>1249.60373</ele>
        <time>2022-04-25T12:57:10.880Z</time>
      </trkpt>
      <trkpt lat="41.70062" lon="20.73895">
        <ele>1248.826087</ele>
        <time>2022-04-25T12:57:12.870Z</time>
      </trkpt>
      <trkpt lat="41.70059" lon="20.73874">
        <ele>1248.098662</ele>
        <time>2022-04-25T12:57:14.867Z</time>
      </trkpt>
      <trkpt lat="41.7006" lon="20.73853">
        <ele>1247.389923</ele>
        <time>2022-04-25T12:57:16.865Z</time>
      </trkpt>
      <trkpt lat="41.70063" lon="20.7383">
        <ele>1246.563696</ele>
        <time>2022-04-25T12:57:18.882Z</time>
      </trkpt>
      <trkpt lat="41.70069" lon="20.73809">
        <ele>1245.548694</ele>
        <time>2022-04-25T12:57:20.885Z</time>
      </trkpt>
      <trkpt lat="41.70078" lon="20.7379">
        <ele>1244.556433</ele>
        <time>2022-04-25T12:57:22.892Z</time>
      </trkpt>
      <trkpt lat="41.70088" lon="20.73772">
        <ele>1243.559298</ele>
        <time>2022-04-25T12:57:24.881Z</time>
      </trkpt>
      <trkpt lat="41.70097" lon="20.73757">
        <ele>1242.657421</ele>
        <time>2022-04-25T12:57:26.930Z</time>
      </trkpt>
      <trkpt lat="41.70106" lon="20.73739">
        <ele>1241.713589</ele>
        <time>2022-04-25T12:57:28.917Z</time>
      </trkpt>
      <trkpt lat="41.70114" lon="20.73718">
        <ele>1240.689843</ele>
        <time>2022-04-25T12:57:30.860Z</time>
      </trkpt>
      <trkpt lat="41.70118" lon="20.73697">
        <ele>1239.704901</ele>
        <time>2022-04-25T12:57:32.862Z</time>
      </trkpt>
      <trkpt lat="41.7012" lon="20.73673">
        <ele>1238.631427</ele>
        <time>2022-04-25T12:57:34.909Z</time>
      </trkpt>
      <trkpt lat="41.7012" lon="20.73661">
        <ele>1238.067391</ele>
        <time>2022-04-25T12:57:35.879Z</time>
      </trkpt>
      <trkpt lat="41.70119" lon="20.73647">
        <ele>1237.466111</ele>
        <time>2022-04-25T12:57:36.885Z</time>
      </trkpt>
      <trkpt lat="41.70118" lon="20.73634">
        <ele>1236.845412</ele>
        <time>2022-04-25T12:57:37.888Z</time>
      </trkpt>
      <trkpt lat="41.70116" lon="20.73621">
        <ele>1236.252458</ele>
        <time>2022-04-25T12:57:38.893Z</time>
      </trkpt>
      <trkpt lat="41.70113" lon="20.73608">
        <ele>1235.50049</ele>
        <time>2022-04-25T12:57:39.882Z</time>
      </trkpt>
      <trkpt lat="41.70109" lon="20.73586">
        <ele>1233.94189</ele>
        <time>2022-04-25T12:57:41.865Z</time>
      </trkpt>
      <trkpt lat="41.70106" lon="20.73564">
        <ele>1232.486762</ele>
        <time>2022-04-25T12:57:43.877Z</time>
      </trkpt>
      <trkpt lat="41.70105" lon="20.73544">
        <ele>1231.145876</ele>
        <time>2022-04-25T12:57:45.915Z</time>
      </trkpt>
      <trkpt lat="41.70104" lon="20.73524">
        <ele>1229.806305</ele>
        <time>2022-04-25T12:57:47.860Z</time>
      </trkpt>
      <trkpt lat="41.70104" lon="20.73503">
        <ele>1228.409552</ele>
        <time>2022-04-25T12:57:49.869Z</time>
      </trkpt>
      <trkpt lat="41.70105" lon="20.73482">
        <ele>1226.958013</ele>
        <time>2022-04-25T12:57:51.870Z</time>
      </trkpt>
      <trkpt lat="41.7011" lon="20.7346">
        <ele>1225.472236</ele>
        <time>2022-04-25T12:57:53.880Z</time>
      </trkpt>
      <trkpt lat="41.70114" lon="20.73446">
        <ele>1224.42284</ele>
        <time>2022-04-25T12:57:55.903Z</time>
      </trkpt>
      <trkpt lat="41.70119" lon="20.73432">
        <ele>1223.391733</ele>
        <time>2022-04-25T12:57:57.869Z</time>
      </trkpt>
      <trkpt lat="41.70125" lon="20.73415">
        <ele>1222.191343</ele>
        <time>2022-04-25T12:57:59.871Z</time>
      </trkpt>
      <trkpt lat="41.70129" lon="20.73399">
        <ele>1221.020565</ele>
        <time>2022-04-25T12:58:02.878Z</time>
      </trkpt>
      <trkpt lat="41.70132" lon="20.73385">
        <ele>1220.057493</ele>
        <time>2022-04-25T12:58:04.898Z</time>
      </trkpt>
      <trkpt lat="41.70137" lon="20.73373">
        <ele>1219.528774</ele>
        <time>2022-04-25T12:58:06.877Z</time>
      </trkpt>
      <trkpt lat="41.70144" lon="20.73362">
        <ele>1219.092712</ele>
        <time>2022-04-25T12:58:08.902Z</time>
      </trkpt>
      <trkpt lat="41.70152" lon="20.73351">
        <ele>1218.597685</ele>
        <time>2022-04-25T12:58:10.862Z</time>
      </trkpt>
      <trkpt lat="41.70163" lon="20.7334">
        <ele>1218.042269</ele>
        <time>2022-04-25T12:58:12.874Z</time>
      </trkpt>
      <trkpt lat="41.7017" lon="20.73328">
        <ele>1217.527066</ele>
        <time>2022-04-25T12:58:14.880Z</time>
      </trkpt>
      <trkpt lat="41.70178" lon="20.73316">
        <ele>1217.028179</ele>
        <time>2022-04-25T12:58:16.870Z</time>
      </trkpt>
      <trkpt lat="41.70184" lon="20.73306">
        <ele>1216.604815</ele>
        <time>2022-04-25T12:58:18.884Z</time>
      </trkpt>
      <trkpt lat="41.70192" lon="20.73297">
        <ele>1216.197203</ele>
        <time>2022-04-25T12:58:20.893Z</time>
      </trkpt>
      <trkpt lat="41.70201" lon="20.73289">
        <ele>1215.736138</ele>
        <time>2022-04-25T12:58:22.877Z</time>
      </trkpt>
      <trkpt lat="41.7021" lon="20.73282">
        <ele>1215.294066</ele>
        <time>2022-04-25T12:58:24.889Z</time>
      </trkpt>
      <trkpt lat="41.70218" lon="20.73277">
        <ele>1214.89692</ele>
        <time>2022-04-25T12:58:26.882Z</time>
      </trkpt>
      <trkpt lat="41.7023" lon="20.73268">
        <ele>1214.333121</ele>
        <time>2022-04-25T12:58:29.870Z</time>
      </trkpt>
      <trkpt lat="41.7024" lon="20.73262">
        <ele>1213.876699</ele>
        <time>2022-04-25T12:58:31.874Z</time>
      </trkpt>
      <trkpt lat="41.70249" lon="20.73257">
        <ele>1213.445491</ele>
        <time>2022-04-25T12:58:33.887Z</time>
      </trkpt>
      <trkpt lat="41.70258" lon="20.73254">
        <ele>1213.049814</ele>
        <time>2022-04-25T12:58:35.877Z</time>
      </trkpt>
      <trkpt lat="41.70267" lon="20.73249">
        <ele>1212.667134</ele>
        <time>2022-04-25T12:58:37.873Z</time>
      </trkpt>
      <trkpt lat="41.70279" lon="20.73244">
        <ele>1212.567124</ele>
        <time>2022-04-25T12:58:40.878Z</time>
      </trkpt>
      <trkpt lat="41.70291" lon="20.73239">
        <ele>1213.3686</ele>
        <time>2022-04-25T12:58:43.892Z</time>
      </trkpt>
      <trkpt lat="41.70301" lon="20.73234">
        <ele>1214.029533</ele>
        <time>2022-04-25T12:58:46.884Z</time>
      </trkpt>
      <trkpt lat="41.70311" lon="20.73229">
        <ele>1214.681899</ele>
        <time>2022-04-25T12:58:49.877Z</time>
      </trkpt>
      <trkpt lat="41.70322" lon="20.73224">
        <ele>1215.429101</ele>
        <time>2022-04-25T12:58:52.880Z</time>
      </trkpt>
      <trkpt lat="41.70334" lon="20.73218">
        <ele>1216.177969</ele>
        <time>2022-04-25T12:58:55.892Z</time>
      </trkpt>
      <trkpt lat="41.70345" lon="20.73212">
        <ele>1216.933753</ele>
        <time>2022-04-25T12:58:58.881Z</time>
      </trkpt>
      <trkpt lat="41.70355" lon="20.73208">
        <ele>1217.598806</ele>
        <time>2022-04-25T12:59:01.903Z</time>
      </trkpt>
      <trkpt lat="41.70367" lon="20.73205">
        <ele>1218.33649</ele>
        <time>2022-04-25T12:59:04.886Z</time>
      </trkpt>
      <trkpt lat="41.70378" lon="20.73203">
        <ele>1219.075695</ele>
        <time>2022-04-25T12:59:07.865Z</time>
      </trkpt>
      <trkpt lat="41.7039" lon="20.73202">
        <ele>1219.825514</ele>
        <time>2022-04-25T12:59:10.899Z</time>
      </trkpt>
      <trkpt lat="41.70403" lon="20.73202">
        <ele>1220.630228</ele>
        <time>2022-04-25T12:59:13.928Z</time>
      </trkpt>
      <trkpt lat="41.70412" lon="20.73202">
        <ele>1221.191526</ele>
        <time>2022-04-25T12:59:15.880Z</time>
      </trkpt>
      <trkpt lat="41.70426" lon="20.73199">
        <ele>1222.023588</ele>
        <time>2022-04-25T12:59:18.872Z</time>
      </trkpt>
      <trkpt lat="41.70439" lon="20.73196">
        <ele>1222.863687</ele>
        <time>2022-04-25T12:59:21.876Z</time>
      </trkpt>
      <trkpt lat="41.70448" lon="20.73192">
        <ele>1223.488991</ele>
        <time>2022-04-25T12:59:23.891Z</time>
      </trkpt>
      <trkpt lat="41.70458" lon="20.73189">
        <ele>1223.123399</ele>
        <time>2022-04-25T12:59:25.882Z</time>
      </trkpt>
      <trkpt lat="41.70468" lon="20.73185">
        <ele>1222.713333</ele>
        <time>2022-04-25T12:59:27.867Z</time>
      </trkpt>
      <trkpt lat="41.70478" lon="20.73181">
        <ele>1222.292656</ele>
        <time>2022-04-25T12:59:29.892Z</time>
      </trkpt>
      <trkpt lat="41.70487" lon="20.73178">
        <ele>1221.903245</ele>
        <time>2022-04-25T12:59:31.918Z</time>
      </trkpt>
      <trkpt lat="41.70496" lon="20.73175">
        <ele>1221.530129</ele>
        <time>2022-04-25T12:59:33.893Z</time>
      </trkpt>
      <trkpt lat="41.70504" lon="20.73169">
        <ele>1221.162771</ele>
        <time>2022-04-25T12:59:35.871Z</time>
      </trkpt>
      <trkpt lat="41.70516" lon="20.7316">
        <ele>1220.627988</ele>
        <time>2022-04-25T12:59:38.883Z</time>
      </trkpt>
      <trkpt lat="41.70527" lon="20.73151">
        <ele>1220.099493</ele>
        <time>2022-04-25T12:59:41.869Z</time>
      </trkpt>
      <trkpt lat="41.70538" lon="20.73142">
        <ele>1219.594657</ele>
        <time>2022-04-25T12:59:44.890Z</time>
      </trkpt>
      <trkpt lat="41.70548" lon="20.73132">
        <ele>1219.081571</ele>
        <time>2022-04-25T12:59:47.861Z</time>
      </trkpt>
      <trkpt lat="41.70558" lon="20.73123">
        <ele>1218.586672</ele>
        <time>2022-04-25T12:59:50.897Z</time>
      </trkpt>
      <trkpt lat="41.70567" lon="20.73113">
        <ele>1218.120514</ele>
        <time>2022-04-25T12:59:53.876Z</time>
      </trkpt>
      <trkpt lat="41.70577" lon="20.73104">
        <ele>1217.650931</ele>
        <time>2022-04-25T12:59:56.890Z</time>
      </trkpt>
      <trkpt lat="41.70587" lon="20.73094">
        <ele>1217.157178</ele>
        <time>2022-04-25T12:59:59.884Z</time>
      </trkpt>
      <trkpt lat="41.70597" lon="20.73082">
        <ele>1216.621042</ele>
        <time>2022-04-25T13:00:02.876Z</time>
      </trkpt>
      <trkpt lat="41.70603" lon="20.73073">
        <ele>1216.255594</ele>
        <time>2022-04-25T13:00:04.882Z</time>
      </trkpt>
      <trkpt lat="41.70609" lon="20.73063">
        <ele>1216.039731</ele>
        <time>2022-04-25T13:00:06.862Z</time>
      </trkpt>
      <trkpt lat="41.70614" lon="20.73053">
        <ele>1215.82099</ele>
        <time>2022-04-25T13:00:08.897Z</time>
      </trkpt>
      <trkpt lat="41.7062" lon="20.73037">
        <ele>1215.509636</ele>
        <time>2022-04-25T13:00:10.878Z</time>
      </trkpt>
      <trkpt lat="41.70625" lon="20.73025">
        <ele>1215.283559</ele>
        <time>2022-04-25T13:00:12.882Z</time>
      </trkpt>
      <trkpt lat="41.70631" lon="20.73016">
        <ele>1215.071525</ele>
        <time>2022-04-25T13:00:14.874Z</time>
      </trkpt>
      <trkpt lat="41.70637" lon="20.73005">
        <ele>1214.839073</ele>
        <time>2022-04-25T13:00:16.872Z</time>
      </trkpt>
      <trkpt lat="41.70644" lon="20.72996">
        <ele>1214.607103</ele>
        <time>2022-04-25T13:00:18.889Z</time>
      </trkpt>
      <trkpt lat="41.70651" lon="20.72988">
        <ele>1214.381564</ele>
        <time>2022-04-25T13:00:20.871Z</time>
      </trkpt>
      <trkpt lat="41.70663" lon="20.7298">
        <ele>1214.085459</ele>
        <time>2022-04-25T13:00:23.869Z</time>
      </trkpt>
      <trkpt lat="41.70673" lon="20.72978">
        <ele>1213.841386</ele>
        <time>2022-04-25T13:00:25.890Z</time>
      </trkpt>
      <trkpt lat="41.70686" lon="20.72977">
        <ele>1213.5294</ele>
        <time>2022-04-25T13:00:27.870Z</time>
      </trkpt>
      <trkpt lat="41.70699" lon="20.72977">
        <ele>1213.243379</ele>
        <time>2022-04-25T13:00:30.861Z</time>
      </trkpt>
      <trkpt lat="41.70711" lon="20.72975">
        <ele>1212.948338</ele>
        <time>2022-04-25T13:00:33.890Z</time>
      </trkpt>
      <trkpt lat="41.70721" lon="20.72972">
        <ele>1212.726415</ele>
        <time>2022-04-25T13:00:35.891Z</time>
      </trkpt>
      <trkpt lat="41.7073" lon="20.72965">
        <ele>1212.472599</ele>
        <time>2022-04-25T13:00:37.869Z</time>
      </trkpt>
      <trkpt lat="41.70739" lon="20.72957">
        <ele>1212.217544</ele>
        <time>2022-04-25T13:00:39.877Z</time>
      </trkpt>
      <trkpt lat="41.70748" lon="20.72948">
        <ele>1211.774024</ele>
        <time>2022-04-25T13:00:41.865Z</time>
      </trkpt>
      <trkpt lat="41.70755" lon="20.72938">
        <ele>1211.118916</ele>
        <time>2022-04-25T13:00:43.875Z</time>
      </trkpt>
      <trkpt lat="41.7076" lon="20.72926">
        <ele>1210.446027</ele>
        <time>2022-04-25T13:00:45.897Z</time>
      </trkpt>
      <trkpt lat="41.70766" lon="20.72915">
        <ele>1209.82263</ele>
        <time>2022-04-25T13:00:47.871Z</time>
      </trkpt>
      <trkpt lat="41.70771" lon="20.72903">
        <ele>1209.206585</ele>
        <time>2022-04-25T13:00:49.884Z</time>
      </trkpt>
      <trkpt lat="41.70777" lon="20.7289">
        <ele>1208.487952</ele>
        <time>2022-04-25T13:00:51.875Z</time>
      </trkpt>
      <trkpt lat="41.70782" lon="20.72872">
        <ele>1207.613627</ele>
        <time>2022-04-25T13:00:53.889Z</time>
      </trkpt>
      <trkpt lat="41.70786" lon="20.72855">
        <ele>1206.770845</ele>
        <time>2022-04-25T13:00:55.871Z</time>
      </trkpt>
      <trkpt lat="41.7079" lon="20.72837">
        <ele>1205.937534</ele>
        <time>2022-04-25T13:00:57.910Z</time>
      </trkpt>
      <trkpt lat="41.70794" lon="20.72821">
        <ele>1205.145191</ele>
        <time>2022-04-25T13:00:59.865Z</time>
      </trkpt>
      <trkpt lat="41.70798" lon="20.72806">
        <ele>1204.420237</ele>
        <time>2022-04-25T13:01:01.870Z</time>
      </trkpt>
      <trkpt lat="41.70801" lon="20.72791">
        <ele>1203.696355</ele>
        <time>2022-04-25T13:01:03.878Z</time>
      </trkpt>
      <trkpt lat="41.70803" lon="20.72775">
        <ele>1202.935125</ele>
        <time>2022-04-25T13:01:05.877Z</time>
      </trkpt>
      <trkpt lat="41.70808" lon="20.72758">
        <ele>1202.097922</ele>
        <time>2022-04-25T13:01:07.858Z</time>
      </trkpt>
      <trkpt lat="41.70815" lon="20.72742">
        <ele>1201.220341</ele>
        <time>2022-04-25T13:01:09.881Z</time>
      </trkpt>
      <trkpt lat="41.70824" lon="20.72723">
        <ele>1200.567352</ele>
        <time>2022-04-25T13:01:11.878Z</time>
      </trkpt>
      <trkpt lat="41.70833" lon="20.72705">
        <ele>1200.027505</ele>
        <time>2022-04-25T13:01:13.879Z</time>
      </trkpt>
      <trkpt lat="41.70842" lon="20.72689">
        <ele>1199.538305</ele>
        <time>2022-04-25T13:01:15.880Z</time>
      </trkpt>
      <trkpt lat="41.70851" lon="20.72674">
        <ele>1199.062611</ele>
        <time>2022-04-25T13:01:17.879Z</time>
      </trkpt>
      <trkpt lat="41.7086" lon="20.72657">
        <ele>1198.567573</ele>
        <time>2022-04-25T13:01:19.864Z</time>
      </trkpt>
      <trkpt lat="41.70869" lon="20.7264">
        <ele>1198.058236</ele>
        <time>2022-04-25T13:01:21.873Z</time>
      </trkpt>
      <trkpt lat="41.70876" lon="20.72623">
        <ele>1197.581041</ele>
        <time>2022-04-25T13:01:23.870Z</time>
      </trkpt>
      <trkpt lat="41.70884" lon="20.72606">
        <ele>1197.101415</ele>
        <time>2022-04-25T13:01:25.897Z</time>
      </trkpt>
      <trkpt lat="41.70891" lon="20.72588">
        <ele>1196.632238</ele>
        <time>2022-04-25T13:01:27.864Z</time>
      </trkpt>
      <trkpt lat="41.70896" lon="20.72571">
        <ele>1196.186913</ele>
        <time>2022-04-25T13:01:29.878Z</time>
      </trkpt>
      <trkpt lat="41.709" lon="20.72554">
        <ele>1195.755119</ele>
        <time>2022-04-25T13:01:31.936Z</time>
      </trkpt>
      <trkpt lat="41.70904" lon="20.72536">
        <ele>1195.288814</ele>
        <time>2022-04-25T13:01:33.887Z</time>
      </trkpt>
      <trkpt lat="41.70907" lon="20.72518">
        <ele>1194.414007</ele>
        <time>2022-04-25T13:01:35.886Z</time>
      </trkpt>
      <trkpt lat="41.70913" lon="20.72501">
        <ele>1193.32151</ele>
        <time>2022-04-25T13:01:37.854Z</time>
      </trkpt>
      <trkpt lat="41.70921" lon="20.72489">
        <ele>1192.329972</ele>
        <time>2022-04-25T13:01:39.871Z</time>
      </trkpt>
      <trkpt lat="41.70932" lon="20.7248">
        <ele>1191.306887</ele>
        <time>2022-04-25T13:01:41.864Z</time>
      </trkpt>
      <trkpt lat="41.70944" lon="20.72472">
        <ele>1190.269514</ele>
        <time>2022-04-25T13:01:43.920Z</time>
      </trkpt>
      <trkpt lat="41.70959" lon="20.72467">
        <ele>1189.020027</ele>
        <time>2022-04-25T13:01:45.875Z</time>
      </trkpt>
      <trkpt lat="41.70972" lon="20.7246">
        <ele>1187.871392</ele>
        <time>2022-04-25T13:01:47.874Z</time>
      </trkpt>
      <trkpt lat="41.70984" lon="20.72451">
        <ele>1186.748028</ele>
        <time>2022-04-25T13:01:49.926Z</time>
      </trkpt>
      <trkpt lat="41.70994" lon="20.72438">
        <ele>1185.635897</ele>
        <time>2022-04-25T13:01:51.882Z</time>
      </trkpt>
      <trkpt lat="41.71001" lon="20.72422">
        <ele>1184.529495</ele>
        <time>2022-04-25T13:01:53.898Z</time>
      </trkpt>
      <trkpt lat="41.71005" lon="20.72405">
        <ele>1183.429717</ele>
        <time>2022-04-25T13:01:55.918Z</time>
      </trkpt>
      <trkpt lat="41.71008" lon="20.72388">
        <ele>1182.364426</ele>
        <time>2022-04-25T13:01:57.868Z</time>
      </trkpt>
      <trkpt lat="41.71008" lon="20.72371">
        <ele>1181.381655</ele>
        <time>2022-04-25T13:01:59.867Z</time>
      </trkpt>
      <trkpt lat="41.71004" lon="20.72356">
        <ele>1180.549492</ele>
        <time>2022-04-25T13:02:01.899Z</time>
      </trkpt>
      <trkpt lat="41.70998" lon="20.72341">
        <ele>1180.364353</ele>
        <time>2022-04-25T13:02:03.903Z</time>
      </trkpt>
      <trkpt lat="41.70994" lon="20.72325">
        <ele>1180.177532</ele>
        <time>2022-04-25T13:02:05.880Z</time>
      </trkpt>
      <trkpt lat="41.70989" lon="20.72309">
        <ele>1179.977571</ele>
        <time>2022-04-25T13:02:07.888Z</time>
      </trkpt>
      <trkpt lat="41.70985" lon="20.72292">
        <ele>1179.7791</ele>
        <time>2022-04-25T13:02:09.877Z</time>
      </trkpt>
      <trkpt lat="41.70986" lon="20.72272">
        <ele>1179.562985</ele>
        <time>2022-04-25T13:02:11.890Z</time>
      </trkpt>
      <trkpt lat="41.70991" lon="20.72255">
        <ele>1179.35838</ele>
        <time>2022-04-25T13:02:13.873Z</time>
      </trkpt>
      <trkpt lat="41.70998" lon="20.72241">
        <ele>1179.169481</ele>
        <time>2022-04-25T13:02:15.889Z</time>
      </trkpt>
      <trkpt lat="41.71005" lon="20.72228">
        <ele>1178.990247</ele>
        <time>2022-04-25T13:02:17.916Z</time>
      </trkpt>
      <trkpt lat="41.7101" lon="20.72213">
        <ele>1178.807888</ele>
        <time>2022-04-25T13:02:19.875Z</time>
      </trkpt>
      <trkpt lat="41.71017" lon="20.72197">
        <ele>1178.606202</ele>
        <time>2022-04-25T13:02:21.869Z</time>
      </trkpt>
      <trkpt lat="41.71021" lon="20.7218">
        <ele>1178.40055</ele>
        <time>2022-04-25T13:02:23.884Z</time>
      </trkpt>
      <trkpt lat="41.71023" lon="20.72161">
        <ele>1178.179765</ele>
        <time>2022-04-25T13:02:25.876Z</time>
      </trkpt>
      <trkpt lat="41.71021" lon="20.7214">
        <ele>1177.943987</ele>
        <time>2022-04-25T13:02:27.882Z</time>
      </trkpt>
      <trkpt lat="41.71019" lon="20.7212">
        <ele>1177.321461</ele>
        <time>2022-04-25T13:02:29.895Z</time>
      </trkpt>
      <trkpt lat="41.71019" lon="20.72103">
        <ele>1176.696033</ele>
        <time>2022-04-25T13:02:31.879Z</time>
      </trkpt>
      <trkpt lat="41.71024" lon="20.72084">
        <ele>1175.978507</ele>
        <time>2022-04-25T13:02:33.888Z</time>
      </trkpt>
      <trkpt lat="41.7103" lon="20.72064">
        <ele>1175.202541</ele>
        <time>2022-04-25T13:02:35.881Z</time>
      </trkpt>
      <trkpt lat="41.71039" lon="20.72046">
        <ele>1174.404045</ele>
        <time>2022-04-25T13:02:37.864Z</time>
      </trkpt>
      <trkpt lat="41.71049" lon="20.72029">
        <ele>1173.616755</ele>
        <time>2022-04-25T13:02:39.924Z</time>
      </trkpt>
      <trkpt lat="41.71058" lon="20.72013">
        <ele>1172.873192</ele>
        <time>2022-04-25T13:02:41.897Z</time>
      </trkpt>
      <trkpt lat="41.71066" lon="20.71998">
        <ele>1172.217533</ele>
        <time>2022-04-25T13:02:43.879Z</time>
      </trkpt>
      <trkpt lat="41.71074" lon="20.71983">
        <ele>1171.523925</ele>
        <time>2022-04-25T13:02:45.903Z</time>
      </trkpt>
      <trkpt lat="41.71083" lon="20.71967">
        <ele>1170.80399</ele>
        <time>2022-04-25T13:02:47.873Z</time>
      </trkpt>
      <trkpt lat="41.71089" lon="20.71951">
        <ele>1170.123922</ele>
        <time>2022-04-25T13:02:49.884Z</time>
      </trkpt>
      <trkpt lat="41.71093" lon="20.71933">
        <ele>1169.456961</ele>
        <time>2022-04-25T13:02:51.902Z</time>
      </trkpt>
      <trkpt lat="41.71097" lon="20.71912">
        <ele>1168.83871</ele>
        <time>2022-04-25T13:02:53.872Z</time>
      </trkpt>
      <trkpt lat="41.71098" lon="20.71889">
        <ele>1168.313041</ele>
        <time>2022-04-25T13:02:55.873Z</time>
      </trkpt>
      <trkpt lat="41.71096" lon="20.71877">
        <ele>1168.039431</ele>
        <time>2022-04-25T13:02:56.866Z</time>
      </trkpt>
      <trkpt lat="41.71095" lon="20.71865">
        <ele>1167.769676</ele>
        <time>2022-04-25T13:02:57.878Z</time>
      </trkpt>
      <trkpt lat="41.71093" lon="20.71853">
        <ele>1167.490531</ele>
        <time>2022-04-25T13:02:58.892Z</time>
      </trkpt>
      <trkpt lat="41.71091" lon="20.7184">
        <ele>1167.205772</ele>
        <time>2022-04-25T13:02:59.884Z</time>
      </trkpt>
      <trkpt lat="41.7109" lon="20.71828">
        <ele>1166.922481</ele>
        <time>2022-04-25T13:03:00.886Z</time>
      </trkpt>
      <trkpt lat="41.71088" lon="20.71816">
        <ele>1166.642729</ele>
        <time>2022-04-25T13:03:01.893Z</time>
      </trkpt>
      <trkpt lat="41.71088" lon="20.71793">
        <ele>1166.139603</ele>
        <time>2022-04-25T13:03:03.893Z</time>
      </trkpt>
      <trkpt lat="41.71093" lon="20.71772">
        <ele>1165.644142</ele>
        <time>2022-04-25T13:03:05.878Z</time>
      </trkpt>
      <trkpt lat="41.71098" lon="20.71762">
        <ele>1165.363174</ele>
        <time>2022-04-25T13:03:06.885Z</time>
      </trkpt>
      <trkpt lat="41.71105" lon="20.71752">
        <ele>1165.060433</ele>
        <time>2022-04-25T13:03:07.886Z</time>
      </trkpt>
      <trkpt lat="41.71111" lon="20.71742">
        <ele>1164.766175</ele>
        <time>2022-04-25T13:03:08.874Z</time>
      </trkpt>
      <trkpt lat="41.71123" lon="20.71725">
        <ele>1164.236377</ele>
        <time>2022-04-25T13:03:10.891Z</time>
      </trkpt>
      <trkpt lat="41.71135" lon="20.71708">
        <ele>1163.729682</ele>
        <time>2022-04-25T13:03:12.891Z</time>
      </trkpt>
      <trkpt lat="41.71145" lon="20.71692">
        <ele>1163.102384</ele>
        <time>2022-04-25T13:03:14.880Z</time>
      </trkpt>
      <trkpt lat="41.71153" lon="20.71674">
        <ele>1162.463502</ele>
        <time>2022-04-25T13:03:16.882Z</time>
      </trkpt>
      <trkpt lat="41.71158" lon="20.71654">
        <ele>1161.839025</ele>
        <time>2022-04-25T13:03:18.885Z</time>
      </trkpt>
      <trkpt lat="41.7116" lon="20.71633">
        <ele>1161.205208</ele>
        <time>2022-04-25T13:03:20.897Z</time>
      </trkpt>
      <trkpt lat="41.7116" lon="20.71614">
        <ele>1160.604272</ele>
        <time>2022-04-25T13:03:22.869Z</time>
      </trkpt>
      <trkpt lat="41.71157" lon="20.71593">
        <ele>1159.97289</ele>
        <time>2022-04-25T13:03:24.873Z</time>
      </trkpt>
      <trkpt lat="41.71151" lon="20.71575">
        <ele>1159.36552</ele>
        <time>2022-04-25T13:03:26.871Z</time>
      </trkpt>
      <trkpt lat="41.71142" lon="20.71559">
        <ele>1158.765339</ele>
        <time>2022-04-25T13:03:28.877Z</time>
      </trkpt>
      <trkpt lat="41.71134" lon="20.71542">
        <ele>1158.164883</ele>
        <time>2022-04-25T13:03:30.855Z</time>
      </trkpt>
      <trkpt lat="41.71124" lon="20.71525">
        <ele>1157.49627</ele>
        <time>2022-04-25T13:03:32.871Z</time>
      </trkpt>
      <trkpt lat="41.71112" lon="20.71507">
        <ele>1156.797555</ele>
        <time>2022-04-25T13:03:34.876Z</time>
      </trkpt>
      <trkpt lat="41.71102" lon="20.71494">
        <ele>1156.339921</ele>
        <time>2022-04-25T13:03:36.877Z</time>
      </trkpt>
      <trkpt lat="41.71093" lon="20.71482">
        <ele>1156.142947</ele>
        <time>2022-04-25T13:03:38.882Z</time>
      </trkpt>
      <trkpt lat="41.71083" lon="20.71469">
        <ele>1155.941276</ele>
        <time>2022-04-25T13:03:40.883Z</time>
      </trkpt>
      <trkpt lat="41.71075" lon="20.71455">
        <ele>1155.744305</ele>
        <time>2022-04-25T13:03:42.876Z</time>
      </trkpt>
      <trkpt lat="41.71071" lon="20.71438">
        <ele>1155.541311</ele>
        <time>2022-04-25T13:03:44.859Z</time>
      </trkpt>
      <trkpt lat="41.71075" lon="20.71422">
        <ele>1155.355109</ele>
        <time>2022-04-25T13:03:46.878Z</time>
      </trkpt>
      <trkpt lat="41.71084" lon="20.71408">
        <ele>1155.143058</ele>
        <time>2022-04-25T13:03:48.890Z</time>
      </trkpt>
      <trkpt lat="41.71096" lon="20.71397">
        <ele>1154.932063</ele>
        <time>2022-04-25T13:03:50.884Z</time>
      </trkpt>
      <trkpt lat="41.7111" lon="20.71391">
        <ele>1154.712628</ele>
        <time>2022-04-25T13:03:52.878Z</time>
      </trkpt>
      <trkpt lat="41.71124" lon="20.71385">
        <ele>1154.48139</ele>
        <time>2022-04-25T13:03:54.886Z</time>
      </trkpt>
      <trkpt lat="41.71136" lon="20.71373">
        <ele>1154.259586</ele>
        <time>2022-04-25T13:03:56.885Z</time>
      </trkpt>
      <trkpt lat="41.71143" lon="20.71357">
        <ele>1154.053805</ele>
        <time>2022-04-25T13:03:58.885Z</time>
      </trkpt>
      <trkpt lat="41.71148" lon="20.7134">
        <ele>1153.83875</ele>
        <time>2022-04-25T13:04:00.869Z</time>
      </trkpt>
      <trkpt lat="41.71154" lon="20.71323">
        <ele>1153.586915</ele>
        <time>2022-04-25T13:04:02.874Z</time>
      </trkpt>
      <trkpt lat="41.71158" lon="20.71308">
        <ele>1153.276322</ele>
        <time>2022-04-25T13:04:04.867Z</time>
      </trkpt>
      <trkpt lat="41.71161" lon="20.71292">
        <ele>1152.94573</ele>
        <time>2022-04-25T13:04:06.944Z</time>
      </trkpt>
      <trkpt lat="41.71165" lon="20.71273">
        <ele>1152.56456</ele>
        <time>2022-04-25T13:04:08.879Z</time>
      </trkpt>
      <trkpt lat="41.71169" lon="20.71256">
        <ele>1152.207721</ele>
        <time>2022-04-25T13:04:10.893Z</time>
      </trkpt>
      <trkpt lat="41.71173" lon="20.71238">
        <ele>1151.845982</ele>
        <time>2022-04-25T13:04:12.871Z</time>
      </trkpt>
      <trkpt lat="41.71176" lon="20.71222">
        <ele>1151.512869</ele>
        <time>2022-04-25T13:04:14.849Z</time>
      </trkpt>
      <trkpt lat="41.71179" lon="20.71208">
        <ele>1151.235035</ele>
        <time>2022-04-25T13:04:16.885Z</time>
      </trkpt>
      <trkpt lat="41.71182" lon="20.71195">
        <ele>1150.962803</ele>
        <time>2022-04-25T13:04:18.862Z</time>
      </trkpt>
      <trkpt lat="41.71186" lon="20.71182">
        <ele>1150.688066</ele>
        <time>2022-04-25T13:04:20.855Z</time>
      </trkpt>
      <trkpt lat="41.71189" lon="20.71169">
        <ele>1150.419763</ele>
        <time>2022-04-25T13:04:22.916Z</time>
      </trkpt>
      <trkpt lat="41.71194" lon="20.71156">
        <ele>1150.135465</ele>
        <time>2022-04-25T13:04:24.898Z</time>
      </trkpt>
      <trkpt lat="41.71198" lon="20.71142">
        <ele>1149.840385</ele>
        <time>2022-04-25T13:04:26.869Z</time>
      </trkpt>
      <trkpt lat="41.71203" lon="20.71128">
        <ele>1149.537132</ele>
        <time>2022-04-25T13:04:28.930Z</time>
      </trkpt>
      <trkpt lat="41.71205" lon="20.71113">
        <ele>1149.24653</ele>
        <time>2022-04-25T13:04:30.862Z</time>
      </trkpt>
      <trkpt lat="41.71208" lon="20.71099">
        <ele>1148.918375</ele>
        <time>2022-04-25T13:04:32.888Z</time>
      </trkpt>
      <trkpt lat="41.71212" lon="20.71086">
        <ele>1148.251574</ele>
        <time>2022-04-25T13:04:34.932Z</time>
      </trkpt>
      <trkpt lat="41.71216" lon="20.7107">
        <ele>1147.395941</ele>
        <time>2022-04-25T13:04:37.880Z</time>
      </trkpt>
      <trkpt lat="41.71219" lon="20.71056">
        <ele>1146.681125</ele>
        <time>2022-04-25T13:04:39.866Z</time>
      </trkpt>
      <trkpt lat="41.71222" lon="20.71042">
        <ele>1145.978802</ele>
        <time>2022-04-25T13:04:41.879Z</time>
      </trkpt>
      <trkpt lat="41.71223" lon="20.7103">
        <ele>1145.371353</ele>
        <time>2022-04-25T13:04:43.876Z</time>
      </trkpt>
      <trkpt lat="41.71224" lon="20.71017">
        <ele>1144.774216</ele>
        <time>2022-04-25T13:04:45.911Z</time>
      </trkpt>
      <trkpt lat="41.71224" lon="20.71004">
        <ele>1144.122253</ele>
        <time>2022-04-25T13:04:47.912Z</time>
      </trkpt>
      <trkpt lat="41.71226" lon="20.7099">
        <ele>1143.444195</ele>
        <time>2022-04-25T13:04:49.878Z</time>
      </trkpt>
      <trkpt lat="41.71225" lon="20.70974">
        <ele>1142.622284</ele>
        <time>2022-04-25T13:04:52.891Z</time>
      </trkpt>
      <trkpt lat="41.71225" lon="20.70961">
        <ele>1141.989829</ele>
        <time>2022-04-25T13:04:54.903Z</time>
      </trkpt>
      <trkpt lat="41.71222" lon="20.70946">
        <ele>1141.236249</ele>
        <time>2022-04-25T13:04:56.911Z</time>
      </trkpt>
      <trkpt lat="41.7122" lon="20.7093">
        <ele>1140.443668</ele>
        <time>2022-04-25T13:04:58.903Z</time>
      </trkpt>
      <trkpt lat="41.71216" lon="20.70915">
        <ele>1139.663899</ele>
        <time>2022-04-25T13:05:00.880Z</time>
      </trkpt>
      <trkpt lat="41.71213" lon="20.70899">
        <ele>1138.876735</ele>
        <time>2022-04-25T13:05:02.896Z</time>
      </trkpt>
      <trkpt lat="41.71208" lon="20.70885">
        <ele>1138.129448</ele>
        <time>2022-04-25T13:05:04.874Z</time>
      </trkpt>
      <trkpt lat="41.71203" lon="20.70872">
        <ele>1137.369968</ele>
        <time>2022-04-25T13:05:06.894Z</time>
      </trkpt>
      <trkpt lat="41.71196" lon="20.70857">
        <ele>1135.877164</ele>
        <time>2022-04-25T13:05:08.882Z</time>
      </trkpt>
      <trkpt lat="41.71188" lon="20.7084">
        <ele>1133.929195</ele>
        <time>2022-04-25T13:05:10.888Z</time>
      </trkpt>
      <trkpt lat="41.71181" lon="20.70823">
        <ele>1132.020795</ele>
        <time>2022-04-25T13:05:12.884Z</time>
      </trkpt>
      <trkpt lat="41.71173" lon="20.70806">
        <ele>1130.095455</ele>
        <time>2022-04-25T13:05:14.893Z</time>
      </trkpt>
      <trkpt lat="41.71166" lon="20.7079">
        <ele>1128.246321</ele>
        <time>2022-04-25T13:05:16.898Z</time>
      </trkpt>
      <trkpt lat="41.7116" lon="20.70771">
        <ele>1126.275094</ele>
        <time>2022-04-25T13:05:18.880Z</time>
      </trkpt>
      <trkpt lat="41.71155" lon="20.7075">
        <ele>1124.157018</ele>
        <time>2022-04-25T13:05:20.883Z</time>
      </trkpt>
      <trkpt lat="41.71151" lon="20.7073">
        <ele>1122.143202</ele>
        <time>2022-04-25T13:05:22.883Z</time>
      </trkpt>
      <trkpt lat="41.71148" lon="20.7071">
        <ele>1120.142655</ele>
        <time>2022-04-25T13:05:24.883Z</time>
      </trkpt>
      <trkpt lat="41.71145" lon="20.70691">
        <ele>1118.247996</ele>
        <time>2022-04-25T13:05:26.884Z</time>
      </trkpt>
      <trkpt lat="41.71141" lon="20.70672">
        <ele>1116.345669</ele>
        <time>2022-04-25T13:05:28.889Z</time>
      </trkpt>
      <trkpt lat="41.71138" lon="20.70654">
        <ele>1114.499701</ele>
        <time>2022-04-25T13:05:30.872Z</time>
      </trkpt>
      <trkpt lat="41.71134" lon="20.70636">
        <ele>1112.929761</ele>
        <time>2022-04-25T13:05:32.869Z</time>
      </trkpt>
      <trkpt lat="41.71131" lon="20.70617">
        <ele>1111.451172</ele>
        <time>2022-04-25T13:05:34.890Z</time>
      </trkpt>
      <trkpt lat="41.71128" lon="20.70598">
        <ele>1109.962916</ele>
        <time>2022-04-25T13:05:36.871Z</time>
      </trkpt>
      <trkpt lat="41.71125" lon="20.7058">
        <ele>1108.594697</ele>
        <time>2022-04-25T13:05:38.870Z</time>
      </trkpt>
      <trkpt lat="41.71122" lon="20.70562">
        <ele>1107.22195</ele>
        <time>2022-04-25T13:05:40.904Z</time>
      </trkpt>
      <trkpt lat="41.71119" lon="20.70546">
        <ele>1105.981028</ele>
        <time>2022-04-25T13:05:42.933Z</time>
      </trkpt>
      <trkpt lat="41.71117" lon="20.70532">
        <ele>1104.834219</ele>
        <time>2022-04-25T13:05:44.880Z</time>
      </trkpt>
      <trkpt lat="41.71115" lon="20.70517">
        <ele>1103.746899</ele>
        <time>2022-04-25T13:05:46.881Z</time>
      </trkpt>
      <trkpt lat="41.71114" lon="20.70503">
        <ele>1102.599417</ele>
        <time>2022-04-25T13:05:48.892Z</time>
      </trkpt>
      <trkpt lat="41.7111" lon="20.70486">
        <ele>1101.27833</ele>
        <time>2022-04-25T13:05:50.891Z</time>
      </trkpt>
      <trkpt lat="41.71108" lon="20.70469">
        <ele>1099.949362</ele>
        <time>2022-04-25T13:05:52.883Z</time>
      </trkpt>
      <trkpt lat="41.71105" lon="20.7045">
        <ele>1098.538716</ele>
        <time>2022-04-25T13:05:54.906Z</time>
      </trkpt>
      <trkpt lat="41.71103" lon="20.70434">
        <ele>1097.258859</ele>
        <time>2022-04-25T13:05:56.875Z</time>
      </trkpt>
      <trkpt lat="41.711" lon="20.70419">
        <ele>1096.124397</ele>
        <time>2022-04-25T13:05:58.886Z</time>
      </trkpt>
      <trkpt lat="41.71097" lon="20.70404">
        <ele>1095.425743</ele>
        <time>2022-04-25T13:06:00.869Z</time>
      </trkpt>
      <trkpt lat="41.71093" lon="20.7039">
        <ele>1095.292041</ele>
        <time>2022-04-25T13:06:02.878Z</time>
      </trkpt>
      <trkpt lat="41.71092" lon="20.70378">
        <ele>1095.184772</ele>
        <time>2022-04-25T13:06:04.882Z</time>
      </trkpt>
      <trkpt lat="41.71094" lon="20.70365">
        <ele>1095.063442</ele>
        <time>2022-04-25T13:06:06.879Z</time>
      </trkpt>
      <trkpt lat="41.71097" lon="20.70351">
        <ele>1094.936825</ele>
        <time>2022-04-25T13:06:08.892Z</time>
      </trkpt>
      <trkpt lat="41.71102" lon="20.70337">
        <ele>1094.801349</ele>
        <time>2022-04-25T13:06:10.877Z</time>
      </trkpt>
      <trkpt lat="41.7111" lon="20.70323">
        <ele>1094.645612</ele>
        <time>2022-04-25T13:06:12.893Z</time>
      </trkpt>
      <trkpt lat="41.71117" lon="20.7031">
        <ele>1094.499104</ele>
        <time>2022-04-25T13:06:14.875Z</time>
      </trkpt>
      <trkpt lat="41.71122" lon="20.70297">
        <ele>1094.371515</ele>
        <time>2022-04-25T13:06:16.877Z</time>
      </trkpt>
      <trkpt lat="41.71126" lon="20.70285">
        <ele>1094.257058</ele>
        <time>2022-04-25T13:06:18.866Z</time>
      </trkpt>
      <trkpt lat="41.7113" lon="20.70274">
        <ele>1094.146307</ele>
        <time>2022-04-25T13:06:20.874Z</time>
      </trkpt>
      <trkpt lat="41.71136" lon="20.70258">
        <ele>1093.98817</ele>
        <time>2022-04-25T13:06:23.889Z</time>
      </trkpt>
      <trkpt lat="41.7114" lon="20.70243">
        <ele>1093.850325</ele>
        <time>2022-04-25T13:06:26.890Z</time>
      </trkpt>
      <trkpt lat="41.71142" lon="20.70229">
        <ele>1093.722601</ele>
        <time>2022-04-25T13:06:29.891Z</time>
      </trkpt>
      <trkpt lat="41.71143" lon="20.70213">
        <ele>1093.578157</ele>
        <time>2022-04-25T13:06:32.890Z</time>
      </trkpt>
      <trkpt lat="41.71142" lon="20.70194">
        <ele>1093.414341</ele>
        <time>2022-04-25T13:06:35.890Z</time>
      </trkpt>
      <trkpt lat="41.71141" lon="20.7018">
        <ele>1093.360694</ele>
        <time>2022-04-25T13:06:37.922Z</time>
      </trkpt>
      <trkpt lat="41.71138" lon="20.70167">
        <ele>1093.361173</ele>
        <time>2022-04-25T13:06:39.890Z</time>
      </trkpt>
      <trkpt lat="41.71133" lon="20.70155">
        <ele>1093.361677</ele>
        <time>2022-04-25T13:06:41.873Z</time>
      </trkpt>
      <trkpt lat="41.71128" lon="20.70142">
        <ele>1093.362239</ele>
        <time>2022-04-25T13:06:43.878Z</time>
      </trkpt>
      <trkpt lat="41.71122" lon="20.70127">
        <ele>1093.362837</ele>
        <time>2022-04-25T13:06:45.874Z</time>
      </trkpt>
      <trkpt lat="41.71119" lon="20.7011">
        <ele>1093.36347</ele>
        <time>2022-04-25T13:06:47.878Z</time>
      </trkpt>
      <trkpt lat="41.71119" lon="20.70091">
        <ele>1093.364169</ele>
        <time>2022-04-25T13:06:49.896Z</time>
      </trkpt>
      <trkpt lat="41.71121" lon="20.70071">
        <ele>1093.364876</ele>
        <time>2022-04-25T13:06:51.890Z</time>
      </trkpt>
      <trkpt lat="41.71125" lon="20.70054">
        <ele>1093.365526</ele>
        <time>2022-04-25T13:06:53.900Z</time>
      </trkpt>
      <trkpt lat="41.71127" lon="20.70037">
        <ele>1093.366164</ele>
        <time>2022-04-25T13:06:55.877Z</time>
      </trkpt>
      <trkpt lat="41.71129" lon="20.70019">
        <ele>1093.366815</ele>
        <time>2022-04-25T13:06:57.874Z</time>
      </trkpt>
      <trkpt lat="41.7113" lon="20.70001">
        <ele>1093.367468</ele>
        <time>2022-04-25T13:06:59.933Z</time>
      </trkpt>
      <trkpt lat="41.71131" lon="20.69984">
        <ele>1093.368093</ele>
        <time>2022-04-25T13:07:01.897Z</time>
      </trkpt>
      <trkpt lat="41.71134" lon="20.69968">
        <ele>1093.368689</ele>
        <time>2022-04-25T13:07:03.874Z</time>
      </trkpt>
      <trkpt lat="41.71138" lon="20.69952">
        <ele>1093.190689</ele>
        <time>2022-04-25T13:07:05.867Z</time>
      </trkpt>
      <trkpt lat="41.71142" lon="20.69936">
        <ele>1092.570968</ele>
        <time>2022-04-25T13:07:07.860Z</time>
      </trkpt>
      <trkpt lat="41.71145" lon="20.6992">
        <ele>1091.956441</ele>
        <time>2022-04-25T13:07:09.922Z</time>
      </trkpt>
      <trkpt lat="41.71147" lon="20.69904">
        <ele>1091.33826</ele>
        <time>2022-04-25T13:07:11.873Z</time>
      </trkpt>
      <trkpt lat="41.71149" lon="20.69887">
        <ele>1090.695442</ele>
        <time>2022-04-25T13:07:13.873Z</time>
      </trkpt>
      <trkpt lat="41.71151" lon="20.6987">
        <ele>1090.042375</ele>
        <time>2022-04-25T13:07:15.883Z</time>
      </trkpt>
      <trkpt lat="41.71153" lon="20.69852">
        <ele>1089.372855</ele>
        <time>2022-04-25T13:07:17.865Z</time>
      </trkpt>
      <trkpt lat="41.71155" lon="20.69836">
        <ele>1088.7586</ele>
        <time>2022-04-25T13:07:19.894Z</time>
      </trkpt>
      <trkpt lat="41.71154" lon="20.69822">
        <ele>1088.223653</ele>
        <time>2022-04-25T13:07:21.915Z</time>
      </trkpt>
      <trkpt lat="41.71151" lon="20.69807">
        <ele>1087.65547</ele>
        <time>2022-04-25T13:07:23.873Z</time>
      </trkpt>
      <trkpt lat="41.71149" lon="20.69791">
        <ele>1087.044918</ele>
        <time>2022-04-25T13:07:25.869Z</time>
      </trkpt>
      <trkpt lat="41.71146" lon="20.69773">
        <ele>1086.368575</ele>
        <time>2022-04-25T13:07:27.873Z</time>
      </trkpt>
      <trkpt lat="41.71139" lon="20.69756">
        <ele>1085.649533</ele>
        <time>2022-04-25T13:07:29.887Z</time>
      </trkpt>
      <trkpt lat="41.7113" lon="20.6974">
        <ele>1084.883798</ele>
        <time>2022-04-25T13:07:31.879Z</time>
      </trkpt>
      <trkpt lat="41.71121" lon="20.69722">
        <ele>1084.295013</ele>
        <time>2022-04-25T13:07:33.882Z</time>
      </trkpt>
      <trkpt lat="41.71114" lon="20.69702">
        <ele>1084.15293</ele>
        <time>2022-04-25T13:07:35.866Z</time>
      </trkpt>
      <trkpt lat="41.7111" lon="20.6968">
        <ele>1084.005281</ele>
        <time>2022-04-25T13:07:37.872Z</time>
      </trkpt>
      <trkpt lat="41.7111" lon="20.69661">
        <ele>1083.884379</ele>
        <time>2022-04-25T13:07:39.899Z</time>
      </trkpt>
      <trkpt lat="41.71114" lon="20.69645">
        <ele>1083.775413</ele>
        <time>2022-04-25T13:07:41.880Z</time>
      </trkpt>
      <trkpt lat="41.71114" lon="20.69632">
        <ele>1083.691724</ele>
        <time>2022-04-25T13:07:43.917Z</time>
      </trkpt>
      <trkpt lat="41.71115" lon="20.69619">
        <ele>1083.611537</ele>
        <time>2022-04-25T13:07:49.914Z</time>
      </trkpt>
      <trkpt lat="41.71095" lon="20.69574">
        <ele>1083.27475</ele>
        <time>2022-04-25T13:09:20.888Z</time>
      </trkpt>
      <trkpt lat="41.71094" lon="20.69562">
        <ele>1083.195075</ele>
        <time>2022-04-25T13:09:24.898Z</time>
      </trkpt>
      <trkpt lat="41.71092" lon="20.69549">
        <ele>1083.106188</ele>
        <time>2022-04-25T13:09:29.881Z</time>
      </trkpt>
      <trkpt lat="41.71089" lon="20.69536">
        <ele>1083.02209</ele>
        <time>2022-04-25T13:09:35.918Z</time>
      </trkpt>
      <trkpt lat="41.71088" lon="20.69523">
        <ele>1082.936861</ele>
        <time>2022-04-25T13:09:39.873Z</time>
      </trkpt>
      <trkpt lat="41.71086" lon="20.69509">
        <ele>1082.846076</ele>
        <time>2022-04-25T13:09:42.900Z</time>
      </trkpt>
      <trkpt lat="41.71085" lon="20.69491">
        <ele>1082.235687</ele>
        <time>2022-04-25T13:09:45.891Z</time>
      </trkpt>
      <trkpt lat="41.71087" lon="20.69474">
        <ele>1081.150993</ele>
        <time>2022-04-25T13:09:47.869Z</time>
      </trkpt>
      <trkpt lat="41.71091" lon="20.69457">
        <ele>1080.005989</ele>
        <time>2022-04-25T13:09:49.876Z</time>
      </trkpt>
      <trkpt lat="41.71095" lon="20.69442">
        <ele>1079.02836</ele>
        <time>2022-04-25T13:09:51.878Z</time>
      </trkpt>
      <trkpt lat="41.71099" lon="20.69428">
        <ele>1078.077757</ele>
        <time>2022-04-25T13:09:53.914Z</time>
      </trkpt>
      <trkpt lat="41.71102" lon="20.69414">
        <ele>1077.136228</ele>
        <time>2022-04-25T13:09:55.890Z</time>
      </trkpt>
      <trkpt lat="41.71103" lon="20.694">
        <ele>1076.223693</ele>
        <time>2022-04-25T13:09:57.870Z</time>
      </trkpt>
      <trkpt lat="41.71102" lon="20.69384">
        <ele>1075.21568</ele>
        <time>2022-04-25T13:09:59.864Z</time>
      </trkpt>
      <trkpt lat="41.71099" lon="20.69366">
        <ele>1074.060337</ele>
        <time>2022-04-25T13:10:01.894Z</time>
      </trkpt>
      <trkpt lat="41.71095" lon="20.69346">
        <ele>1072.773821</ele>
        <time>2022-04-25T13:10:03.874Z</time>
      </trkpt>
      <trkpt lat="41.71094" lon="20.69327">
        <ele>1071.541434</ele>
        <time>2022-04-25T13:10:05.880Z</time>
      </trkpt>
      <trkpt lat="41.71094" lon="20.69309">
        <ele>1070.373097</ele>
        <time>2022-04-25T13:10:07.885Z</time>
      </trkpt>
      <trkpt lat="41.71097" lon="20.69292">
        <ele>1069.33197</ele>
        <time>2022-04-25T13:10:09.881Z</time>
      </trkpt>
      <trkpt lat="41.711" lon="20.69277">
        <ele>1068.300183</ele>
        <time>2022-04-25T13:10:11.876Z</time>
      </trkpt>
      <trkpt lat="41.71104" lon="20.6926">
        <ele>1067.217109</ele>
        <time>2022-04-25T13:10:13.923Z</time>
      </trkpt>
      <trkpt lat="41.71106" lon="20.69243">
        <ele>1066.113579</ele>
        <time>2022-04-25T13:10:15.904Z</time>
      </trkpt>
      <trkpt lat="41.71108" lon="20.69226">
        <ele>1065.068593</ele>
        <time>2022-04-25T13:10:17.882Z</time>
      </trkpt>
      <trkpt lat="41.71109" lon="20.69212">
        <ele>1064.198665</ele>
        <time>2022-04-25T13:10:19.879Z</time>
      </trkpt>
      <trkpt lat="41.71113" lon="20.69198">
        <ele>1063.255513</ele>
        <time>2022-04-25T13:10:21.880Z</time>
      </trkpt>
      <trkpt lat="41.71118" lon="20.69182">
        <ele>1062.205304</ele>
        <time>2022-04-25T13:10:23.860Z</time>
      </trkpt>
      <trkpt lat="41.71123" lon="20.69166">
        <ele>1061.146741</ele>
        <time>2022-04-25T13:10:25.882Z</time>
      </trkpt>
      <trkpt lat="41.71129" lon="20.69153">
        <ele>1060.17107</ele>
        <time>2022-04-25T13:10:27.884Z</time>
      </trkpt>
      <trkpt lat="41.71135" lon="20.6914">
        <ele>1059.218308</ele>
        <time>2022-04-25T13:10:29.884Z</time>
      </trkpt>
      <trkpt lat="41.71141" lon="20.69127">
        <ele>1058.269094</ele>
        <time>2022-04-25T13:10:31.884Z</time>
      </trkpt>
      <trkpt lat="41.71147" lon="20.69111">
        <ele>1057.205521</ele>
        <time>2022-04-25T13:10:33.889Z</time>
      </trkpt>
      <trkpt lat="41.71153" lon="20.69095">
        <ele>1056.114422</ele>
        <time>2022-04-25T13:10:35.877Z</time>
      </trkpt>
      <trkpt lat="41.71159" lon="20.69079">
        <ele>1054.98079</ele>
        <time>2022-04-25T13:10:37.874Z</time>
      </trkpt>
      <trkpt lat="41.71165" lon="20.69062">
        <ele>1053.845437</ele>
        <time>2022-04-25T13:10:39.890Z</time>
      </trkpt>
      <trkpt lat="41.71168" lon="20.69044">
        <ele>1052.702653</ele>
        <time>2022-04-25T13:10:41.892Z</time>
      </trkpt>
      <trkpt lat="41.71168" lon="20.69028">
        <ele>1051.939101</ele>
        <time>2022-04-25T13:10:43.881Z</time>
      </trkpt>
      <trkpt lat="41.71166" lon="20.69014">
        <ele>1051.29945</ele>
        <time>2022-04-25T13:10:45.878Z</time>
      </trkpt>
      <trkpt lat="41.71162" lon="20.69002">
        <ele>1050.684874</ele>
        <time>2022-04-25T13:10:47.873Z</time>
      </trkpt>
      <trkpt lat="41.71155" lon="20.68989">
        <ele>1049.94163</ele>
        <time>2022-04-25T13:10:50.903Z</time>
      </trkpt>
      <trkpt lat="41.71147" lon="20.68974">
        <ele>1049.110291</ele>
        <time>2022-04-25T13:10:53.869Z</time>
      </trkpt>
      <trkpt lat="41.71139" lon="20.68966">
        <ele>1048.47895</ele>
        <time>2022-04-25T13:10:55.874Z</time>
      </trkpt>
      <trkpt lat="41.71132" lon="20.68956">
        <ele>1047.851481</ele>
        <time>2022-04-25T13:10:57.868Z</time>
      </trkpt>
      <trkpt lat="41.71126" lon="20.68945">
        <ele>1047.240359</ele>
        <time>2022-04-25T13:10:59.910Z</time>
      </trkpt>
      <trkpt lat="41.71121" lon="20.68933">
        <ele>1046.598962</ele>
        <time>2022-04-25T13:11:01.888Z</time>
      </trkpt>
      <trkpt lat="41.71116" lon="20.68921">
        <ele>1045.998586</ele>
        <time>2022-04-25T13:11:03.908Z</time>
      </trkpt>
      <trkpt lat="41.71114" lon="20.68907">
        <ele>1045.339746</ele>
        <time>2022-04-25T13:11:05.906Z</time>
      </trkpt>
      <trkpt lat="41.71111" lon="20.68893">
        <ele>1044.672023</ele>
        <time>2022-04-25T13:11:07.868Z</time>
      </trkpt>
      <trkpt lat="41.71107" lon="20.68881">
        <ele>1044.089582</ele>
        <time>2022-04-25T13:11:09.880Z</time>
      </trkpt>
      <trkpt lat="41.71099" lon="20.68874">
        <ele>1043.445917</ele>
        <time>2022-04-25T13:11:11.883Z</time>
      </trkpt>
      <trkpt lat="41.71085" lon="20.6887">
        <ele>1042.620307</ele>
        <time>2022-04-25T13:11:13.878Z</time>
      </trkpt>
      <trkpt lat="41.71071" lon="20.68868">
        <ele>1041.749053</ele>
        <time>2022-04-25T13:11:15.873Z</time>
      </trkpt>
      <trkpt lat="41.7106" lon="20.68866">
        <ele>1040.894165</ele>
        <time>2022-04-25T13:11:17.891Z</time>
      </trkpt>
      <trkpt lat="41.71049" lon="20.68862">
        <ele>1040.071283</ele>
        <time>2022-04-25T13:11:19.877Z</time>
      </trkpt>
      <trkpt lat="41.71039" lon="20.68856">
        <ele>1039.220488</ele>
        <time>2022-04-25T13:11:21.912Z</time>
      </trkpt>
      <trkpt lat="41.7103" lon="20.68847">
        <ele>1038.342218</ele>
        <time>2022-04-25T13:11:23.872Z</time>
      </trkpt>
      <trkpt lat="41.71023" lon="20.68834">
        <ele>1037.460725</ele>
        <time>2022-04-25T13:11:25.883Z</time>
      </trkpt>
      <trkpt lat="41.7102" lon="20.68819">
        <ele>1036.586261</ele>
        <time>2022-04-25T13:11:27.875Z</time>
      </trkpt>
      <trkpt lat="41.71019" lon="20.68802">
        <ele>1035.591738</ele>
        <time>2022-04-25T13:11:29.904Z</time>
      </trkpt>
      <trkpt lat="41.71021" lon="20.68786">
        <ele>1034.728568</ele>
        <time>2022-04-25T13:11:31.896Z</time>
      </trkpt>
      <trkpt lat="41.71027" lon="20.68772">
        <ele>1033.776695</ele>
        <time>2022-04-25T13:11:34.890Z</time>
      </trkpt>
      <trkpt lat="41.71035" lon="20.68761">
        <ele>1032.932544</ele>
        <time>2022-04-25T13:11:37.883Z</time>
      </trkpt>
      <trkpt lat="41.71043" lon="20.68754">
        <ele>1032.203754</ele>
        <time>2022-04-25T13:11:40.892Z</time>
      </trkpt>
      <trkpt lat="41.71051" lon="20.68748">
        <ele>1031.454965</ele>
        <time>2022-04-25T13:11:43.883Z</time>
      </trkpt>
      <trkpt lat="41.71062" lon="20.68744">
        <ele>1030.598602</ele>
        <time>2022-04-25T13:11:46.879Z</time>
      </trkpt>
      <trkpt lat="41.71074" lon="20.6874">
        <ele>1029.677412</ele>
        <time>2022-04-25T13:11:49.894Z</time>
      </trkpt>
      <trkpt lat="41.71087" lon="20.68737">
        <ele>1028.662356</ele>
        <time>2022-04-25T13:11:52.880Z</time>
      </trkpt>
      <trkpt lat="41.71097" lon="20.68734">
        <ele>1027.883924</ele>
        <time>2022-04-25T13:11:54.883Z</time>
      </trkpt>
      <trkpt lat="41.71109" lon="20.68729">
        <ele>1027.161693</ele>
        <time>2022-04-25T13:11:56.880Z</time>
      </trkpt>
      <trkpt lat="41.71121" lon="20.68723">
        <ele>1026.36289</ele>
        <time>2022-04-25T13:11:58.894Z</time>
      </trkpt>
      <trkpt lat="41.71135" lon="20.68714">
        <ele>1025.475588</ele>
        <time>2022-04-25T13:12:00.862Z</time>
      </trkpt>
      <trkpt lat="41.71148" lon="20.68703">
        <ele>1024.571948</ele>
        <time>2022-04-25T13:12:02.874Z</time>
      </trkpt>
      <trkpt lat="41.7116" lon="20.68691">
        <ele>1023.668619</ele>
        <time>2022-04-25T13:12:04.872Z</time>
      </trkpt>
      <trkpt lat="41.71171" lon="20.68678">
        <ele>1022.784636</ele>
        <time>2022-04-25T13:12:06.889Z</time>
      </trkpt>
      <trkpt lat="41.71182" lon="20.68666">
        <ele>1021.956743</ele>
        <time>2022-04-25T13:12:08.877Z</time>
      </trkpt>
      <trkpt lat="41.71192" lon="20.68655">
        <ele>1021.13814</ele>
        <time>2022-04-25T13:12:10.885Z</time>
      </trkpt>
      <trkpt lat="41.71204" lon="20.68643">
        <ele>1020.286978</ele>
        <time>2022-04-25T13:12:12.870Z</time>
      </trkpt>
      <trkpt lat="41.71215" lon="20.68631">
        <ele>1019.415373</ele>
        <time>2022-04-25T13:12:14.878Z</time>
      </trkpt>
      <trkpt lat="41.71227" lon="20.68619">
        <ele>1018.542602</ele>
        <time>2022-04-25T13:12:16.878Z</time>
      </trkpt>
      <trkpt lat="41.71238" lon="20.68607">
        <ele>1017.664379</ele>
        <time>2022-04-25T13:12:18.884Z</time>
      </trkpt>
      <trkpt lat="41.71249" lon="20.68595">
        <ele>1016.943058</ele>
        <time>2022-04-25T13:12:20.885Z</time>
      </trkpt>
      <trkpt lat="41.71259" lon="20.68583">
        <ele>1016.413362</ele>
        <time>2022-04-25T13:12:22.891Z</time>
      </trkpt>
      <trkpt lat="41.71268" lon="20.6857">
        <ele>1015.886971</ele>
        <time>2022-04-25T13:12:24.877Z</time>
      </trkpt>
      <trkpt lat="41.71277" lon="20.68553">
        <ele>1015.302877</ele>
        <time>2022-04-25T13:12:26.921Z</time>
      </trkpt>
      <trkpt lat="41.71284" lon="20.68532">
        <ele>1014.629272</ele>
        <time>2022-04-25T13:12:28.877Z</time>
      </trkpt>
      <trkpt lat="41.71291" lon="20.6851">
        <ele>1013.927756</ele>
        <time>2022-04-25T13:12:30.872Z</time>
      </trkpt>
      <trkpt lat="41.71294" lon="20.68498">
        <ele>1013.556556</ele>
        <time>2022-04-25T13:12:31.864Z</time>
      </trkpt>
      <trkpt lat="41.71298" lon="20.68487">
        <ele>1013.180348</ele>
        <time>2022-04-25T13:12:32.882Z</time>
      </trkpt>
      <trkpt lat="41.71303" lon="20.68475">
        <ele>1012.811316</ele>
        <time>2022-04-25T13:12:33.876Z</time>
      </trkpt>
      <trkpt lat="41.71307" lon="20.68464">
        <ele>1012.443902</ele>
        <time>2022-04-25T13:12:34.879Z</time>
      </trkpt>
      <trkpt lat="41.71312" lon="20.68453">
        <ele>1012.074634</ele>
        <time>2022-04-25T13:12:35.892Z</time>
      </trkpt>
      <trkpt lat="41.71316" lon="20.68442">
        <ele>1011.69902</ele>
        <time>2022-04-25T13:12:36.884Z</time>
      </trkpt>
      <trkpt lat="41.71321" lon="20.68431">
        <ele>1011.327868</ele>
        <time>2022-04-25T13:12:37.916Z</time>
      </trkpt>
      <trkpt lat="41.71326" lon="20.6842">
        <ele>1010.952254</ele>
        <time>2022-04-25T13:12:38.882Z</time>
      </trkpt>
      <trkpt lat="41.7133" lon="20.68408">
        <ele>1010.581461</ele>
        <time>2022-04-25T13:12:39.893Z</time>
      </trkpt>
      <trkpt lat="41.71333" lon="20.68397">
        <ele>1010.221104</ele>
        <time>2022-04-25T13:12:40.882Z</time>
      </trkpt>
      <trkpt lat="41.71336" lon="20.68386">
        <ele>1009.844877</ele>
        <time>2022-04-25T13:12:41.879Z</time>
      </trkpt>
      <trkpt lat="41.71343" lon="20.68364">
        <ele>1009.108987</ele>
        <time>2022-04-25T13:12:43.888Z</time>
      </trkpt>
      <trkpt lat="41.71351" lon="20.68342">
        <ele>1008.346949</ele>
        <time>2022-04-25T13:12:45.884Z</time>
      </trkpt>
      <trkpt lat="41.71355" lon="20.68331">
        <ele>1007.961133</ele>
        <time>2022-04-25T13:12:46.886Z</time>
      </trkpt>
      <trkpt lat="41.7136" lon="20.68321">
        <ele>1007.576649</ele>
        <time>2022-04-25T13:12:47.891Z</time>
      </trkpt>
      <trkpt lat="41.7137" lon="20.683">
        <ele>1006.828626</ele>
        <time>2022-04-25T13:12:49.882Z</time>
      </trkpt>
      <trkpt lat="41.71373" lon="20.68289">
        <ele>1006.451065</ele>
        <time>2022-04-25T13:12:50.890Z</time>
      </trkpt>
      <trkpt lat="41.71377" lon="20.68267">
        <ele>1005.722756</ele>
        <time>2022-04-25T13:12:52.893Z</time>
      </trkpt>
      <trkpt lat="41.71377" lon="20.68243">
        <ele>1004.992643</ele>
        <time>2022-04-25T13:12:54.876Z</time>
      </trkpt>
      <trkpt lat="41.71378" lon="20.6822">
        <ele>1004.259943</ele>
        <time>2022-04-25T13:12:56.892Z</time>
      </trkpt>
      <trkpt lat="41.7138" lon="20.68196">
        <ele>1003.521863</ele>
        <time>2022-04-25T13:12:58.888Z</time>
      </trkpt>
      <trkpt lat="41.71382" lon="20.68173">
        <ele>1002.788329</ele>
        <time>2022-04-25T13:13:00.859Z</time>
      </trkpt>
      <trkpt lat="41.71387" lon="20.6815">
        <ele>1002.119719</ele>
        <time>2022-04-25T13:13:02.889Z</time>
      </trkpt>
      <trkpt lat="41.7139" lon="20.68138">
        <ele>1001.795993</ele>
        <time>2022-04-25T13:13:03.878Z</time>
      </trkpt>
      <trkpt lat="41.71394" lon="20.68127">
        <ele>1001.472677</ele>
        <time>2022-04-25T13:13:04.881Z</time>
      </trkpt>
      <trkpt lat="41.71403" lon="20.68108">
        <ele>1000.861173</ele>
        <time>2022-04-25T13:13:06.892Z</time>
      </trkpt>
      <trkpt lat="41.71414" lon="20.68091">
        <ele>1000.27782</ele>
        <time>2022-04-25T13:13:08.884Z</time>
      </trkpt>
      <trkpt lat="41.71428" lon="20.68077">
        <ele>999.661019</ele>
        <time>2022-04-25T13:13:10.922Z</time>
      </trkpt>
      <trkpt lat="41.71436" lon="20.68072">
        <ele>999.340874</ele>
        <time>2022-04-25T13:13:11.891Z</time>
      </trkpt>
      <trkpt lat="41.71444" lon="20.68066">
        <ele>999.011552</ele>
        <time>2022-04-25T13:13:12.884Z</time>
      </trkpt>
      <trkpt lat="41.71453" lon="20.68062">
        <ele>998.669304</ele>
        <time>2022-04-25T13:13:13.876Z</time>
      </trkpt>
      <trkpt lat="41.71463" lon="20.68059">
        <ele>998.313683</ele>
        <time>2022-04-25T13:13:14.875Z</time>
      </trkpt>
      <trkpt lat="41.71473" lon="20.68055">
        <ele>997.94432</ele>
        <time>2022-04-25T13:13:15.884Z</time>
      </trkpt>
      <trkpt lat="41.71483" lon="20.68052">
        <ele>997.569305</ele>
        <time>2022-04-25T13:13:16.884Z</time>
      </trkpt>
      <trkpt lat="41.71493" lon="20.68049">
        <ele>997.207466</ele>
        <time>2022-04-25T13:13:17.875Z</time>
      </trkpt>
      <trkpt lat="41.71503" lon="20.68045">
        <ele>996.856591</ele>
        <time>2022-04-25T13:13:18.890Z</time>
      </trkpt>
      <trkpt lat="41.71512" lon="20.68042">
        <ele>996.522899</ele>
        <time>2022-04-25T13:13:19.897Z</time>
      </trkpt>
      <trkpt lat="41.71529" lon="20.68036">
        <ele>995.766342</ele>
        <time>2022-04-25T13:13:21.921Z</time>
      </trkpt>
      <trkpt lat="41.71544" lon="20.68027">
        <ele>994.941823</ele>
        <time>2022-04-25T13:13:23.890Z</time>
      </trkpt>
      <trkpt lat="41.71556" lon="20.68016">
        <ele>994.193112</ele>
        <time>2022-04-25T13:13:25.886Z</time>
      </trkpt>
      <trkpt lat="41.71567" lon="20.68002">
        <ele>993.474393</ele>
        <time>2022-04-25T13:13:27.915Z</time>
      </trkpt>
      <trkpt lat="41.71573" lon="20.6799">
        <ele>992.898366</ele>
        <time>2022-04-25T13:13:29.857Z</time>
      </trkpt>
      <trkpt lat="41.71577" lon="20.67977">
        <ele>992.395904</ele>
        <time>2022-04-25T13:13:31.874Z</time>
      </trkpt>
      <trkpt lat="41.7158" lon="20.6796">
        <ele>991.746385</ele>
        <time>2022-04-25T13:13:34.902Z</time>
      </trkpt>
      <trkpt lat="41.71584" lon="20.67949">
        <ele>991.281884</ele>
        <time>2022-04-25T13:13:36.894Z</time>
      </trkpt>
      <trkpt lat="41.71588" lon="20.67936">
        <ele>990.749554</ele>
        <time>2022-04-25T13:13:38.876Z</time>
      </trkpt>
      <trkpt lat="41.71593" lon="20.67922">
        <ele>990.16839</ele>
        <time>2022-04-25T13:13:40.895Z</time>
      </trkpt>
      <trkpt lat="41.71596" lon="20.67907">
        <ele>989.609611</ele>
        <time>2022-04-25T13:13:42.920Z</time>
      </trkpt>
      <trkpt lat="41.716" lon="20.67892">
        <ele>988.998665</ele>
        <time>2022-04-25T13:13:44.884Z</time>
      </trkpt>
      <trkpt lat="41.71605" lon="20.67876">
        <ele>988.370061</ele>
        <time>2022-04-25T13:13:46.881Z</time>
      </trkpt>
      <trkpt lat="41.7161" lon="20.67861">
        <ele>987.732876</ele>
        <time>2022-04-25T13:13:48.895Z</time>
      </trkpt>
      <trkpt lat="41.71615" lon="20.67845">
        <ele>987.149678</ele>
        <time>2022-04-25T13:13:50.854Z</time>
      </trkpt>
      <trkpt lat="41.71622" lon="20.6783">
        <ele>986.793229</ele>
        <time>2022-04-25T13:13:52.902Z</time>
      </trkpt>
      <trkpt lat="41.71629" lon="20.67814">
        <ele>986.430581</ele>
        <time>2022-04-25T13:13:54.885Z</time>
      </trkpt>
      <trkpt lat="41.71637" lon="20.67798">
        <ele>986.055571</ele>
        <time>2022-04-25T13:13:56.876Z</time>
      </trkpt>
      <trkpt lat="41.71645" lon="20.67783">
        <ele>985.689115</ele>
        <time>2022-04-25T13:13:58.868Z</time>
      </trkpt>
      <trkpt lat="41.71654" lon="20.67768">
        <ele>985.308451</ele>
        <time>2022-04-25T13:14:00.862Z</time>
      </trkpt>
      <trkpt lat="41.71662" lon="20.67755">
        <ele>984.973322</ele>
        <time>2022-04-25T13:14:02.875Z</time>
      </trkpt>
      <trkpt lat="41.7167" lon="20.67741">
        <ele>984.629935</ele>
        <time>2022-04-25T13:14:04.875Z</time>
      </trkpt>
      <trkpt lat="41.7168" lon="20.67729">
        <ele>984.281083</ele>
        <time>2022-04-25T13:14:06.893Z</time>
      </trkpt>
      <trkpt lat="41.7169" lon="20.67717">
        <ele>983.931113</ele>
        <time>2022-04-25T13:14:08.888Z</time>
      </trkpt>
      <trkpt lat="41.71698" lon="20.67704">
        <ele>983.583435</ele>
        <time>2022-04-25T13:14:10.887Z</time>
      </trkpt>
      <trkpt lat="41.71708" lon="20.6769">
        <ele>983.206581</ele>
        <time>2022-04-25T13:14:12.876Z</time>
      </trkpt>
      <trkpt lat="41.71718" lon="20.67676">
        <ele>982.826592</ele>
        <time>2022-04-25T13:14:14.872Z</time>
      </trkpt>
      <trkpt lat="41.71729" lon="20.67663">
        <ele>982.442171</ele>
        <time>2022-04-25T13:14:16.869Z</time>
      </trkpt>
      <trkpt lat="41.7174" lon="20.67648">
        <ele>982.112917</ele>
        <time>2022-04-25T13:14:18.864Z</time>
      </trkpt>
      <trkpt lat="41.71751" lon="20.67634">
        <ele>981.789198</ele>
        <time>2022-04-25T13:14:20.878Z</time>
      </trkpt>
      <trkpt lat="41.71764" lon="20.6762">
        <ele>981.438292</ele>
        <time>2022-04-25T13:14:22.886Z</time>
      </trkpt>
      <trkpt lat="41.71775" lon="20.67605">
        <ele>981.096821</ele>
        <time>2022-04-25T13:14:24.877Z</time>
      </trkpt>
      <trkpt lat="41.71783" lon="20.67587">
        <ele>980.761962</ele>
        <time>2022-04-25T13:14:26.878Z</time>
      </trkpt>
      <trkpt lat="41.71789" lon="20.67569">
        <ele>980.457439</ele>
        <time>2022-04-25T13:14:28.872Z</time>
      </trkpt>
      <trkpt lat="41.71791" lon="20.67555">
        <ele>980.216847</ele>
        <time>2022-04-25T13:14:30.862Z</time>
      </trkpt>
      <trkpt lat="41.71793" lon="20.67542">
        <ele>980.017122</ele>
        <time>2022-04-25T13:14:32.884Z</time>
      </trkpt>
      <trkpt lat="41.71795" lon="20.67531">
        <ele>979.824234</ele>
        <time>2022-04-25T13:14:34.872Z</time>
      </trkpt>
      <trkpt lat="41.71799" lon="20.67517">
        <ele>979.59814</ele>
        <time>2022-04-25T13:14:36.891Z</time>
      </trkpt>
      <trkpt lat="41.71803" lon="20.67503">
        <ele>979.351139</ele>
        <time>2022-04-25T13:14:38.870Z</time>
      </trkpt>
      <trkpt lat="41.71807" lon="20.67489">
        <ele>979.114495</ele>
        <time>2022-04-25T13:14:40.913Z</time>
      </trkpt>
      <trkpt lat="41.7181" lon="20.67474">
        <ele>978.872643</ele>
        <time>2022-04-25T13:14:42.876Z</time>
      </trkpt>
      <trkpt lat="41.71813" lon="20.67459">
        <ele>978.623812</ele>
        <time>2022-04-25T13:14:44.877Z</time>
      </trkpt>
      <trkpt lat="41.71816" lon="20.67442">
        <ele>978.347038</ele>
        <time>2022-04-25T13:14:46.922Z</time>
      </trkpt>
      <trkpt lat="41.71818" lon="20.67426">
        <ele>978.074705</ele>
        <time>2022-04-25T13:14:48.879Z</time>
      </trkpt>
      <trkpt lat="41.7182" lon="20.67411">
        <ele>977.835497</ele>
        <time>2022-04-25T13:14:50.885Z</time>
      </trkpt>
      <trkpt lat="41.71821" lon="20.67394">
        <ele>977.56315</ele>
        <time>2022-04-25T13:14:52.896Z</time>
      </trkpt>
      <trkpt lat="41.71823" lon="20.67374">
        <ele>977.239916</ele>
        <time>2022-04-25T13:14:54.866Z</time>
      </trkpt>
      <trkpt lat="41.71827" lon="20.67352">
        <ele>976.878919</ele>
        <time>2022-04-25T13:14:56.874Z</time>
      </trkpt>
      <trkpt lat="41.71831" lon="20.67333">
        <ele>976.550404</ele>
        <time>2022-04-25T13:14:58.888Z</time>
      </trkpt>
      <trkpt lat="41.71834" lon="20.67314">
        <ele>976.241255</ele>
        <time>2022-04-25T13:15:00.877Z</time>
      </trkpt>
      <trkpt lat="41.71837" lon="20.67294">
        <ele>975.906875</ele>
        <time>2022-04-25T13:15:02.888Z</time>
      </trkpt>
      <trkpt lat="41.7184" lon="20.67271">
        <ele>975.539704</ele>
        <time>2022-04-25T13:15:04.875Z</time>
      </trkpt>
      <trkpt lat="41.71841" lon="20.6725">
        <ele>975.194997</ele>
        <time>2022-04-25T13:15:06.878Z</time>
      </trkpt>
      <trkpt lat="41.71846" lon="20.67233">
        <ele>974.901951</ele>
        <time>2022-04-25T13:15:08.890Z</time>
      </trkpt>
      <trkpt lat="41.71854" lon="20.67214">
        <ele>974.316737</ele>
        <time>2022-04-25T13:15:10.898Z</time>
      </trkpt>
      <trkpt lat="41.71863" lon="20.67195">
        <ele>973.45889</ele>
        <time>2022-04-25T13:15:12.881Z</time>
      </trkpt>
      <trkpt lat="41.71873" lon="20.67177">
        <ele>972.640776</ele>
        <time>2022-04-25T13:15:14.867Z</time>
      </trkpt>
      <trkpt lat="41.71881" lon="20.67158">
        <ele>971.8291</ele>
        <time>2022-04-25T13:15:16.867Z</time>
      </trkpt>
      <trkpt lat="41.71887" lon="20.67137">
        <ele>970.984818</ele>
        <time>2022-04-25T13:15:18.870Z</time>
      </trkpt>
      <trkpt lat="41.71892" lon="20.67114">
        <ele>970.090862</ele>
        <time>2022-04-25T13:15:20.921Z</time>
      </trkpt>
      <trkpt lat="41.71897" lon="20.67092">
        <ele>969.200867</ele>
        <time>2022-04-25T13:15:22.888Z</time>
      </trkpt>
      <trkpt lat="41.71901" lon="20.6707">
        <ele>968.380119</ele>
        <time>2022-04-25T13:15:24.887Z</time>
      </trkpt>
      <trkpt lat="41.71907" lon="20.6705">
        <ele>967.556132</ele>
        <time>2022-04-25T13:15:26.883Z</time>
      </trkpt>
      <trkpt lat="41.71914" lon="20.67032">
        <ele>966.804064</ele>
        <time>2022-04-25T13:15:28.883Z</time>
      </trkpt>
      <trkpt lat="41.71925" lon="20.67016">
        <ele>965.993691</ele>
        <time>2022-04-25T13:15:30.885Z</time>
      </trkpt>
      <trkpt lat="41.71935" lon="20.66999">
        <ele>964.72649</ele>
        <time>2022-04-25T13:15:32.878Z</time>
      </trkpt>
      <trkpt lat="41.71944" lon="20.66983">
        <ele>963.366528</ele>
        <time>2022-04-25T13:15:34.872Z</time>
      </trkpt>
      <trkpt lat="41.71955" lon="20.66964">
        <ele>961.71247</ele>
        <time>2022-04-25T13:15:36.883Z</time>
      </trkpt>
      <trkpt lat="41.7196" lon="20.66954">
        <ele>960.835592</ele>
        <time>2022-04-25T13:15:37.926Z</time>
      </trkpt>
      <trkpt lat="41.71966" lon="20.66944">
        <ele>959.969576</ele>
        <time>2022-04-25T13:15:38.893Z</time>
      </trkpt>
      <trkpt lat="41.71971" lon="20.66934">
        <ele>959.080821</ele>
        <time>2022-04-25T13:15:39.926Z</time>
      </trkpt>
      <trkpt lat="41.71976" lon="20.66923">
        <ele>958.234807</ele>
        <time>2022-04-25T13:15:40.879Z</time>
      </trkpt>
      <trkpt lat="41.7198" lon="20.66912">
        <ele>957.385307</ele>
        <time>2022-04-25T13:15:41.874Z</time>
      </trkpt>
      <trkpt lat="41.71984" lon="20.66901">
        <ele>956.510539</ele>
        <time>2022-04-25T13:15:42.882Z</time>
      </trkpt>
      <trkpt lat="41.71989" lon="20.6689">
        <ele>955.655418</ele>
        <time>2022-04-25T13:15:43.918Z</time>
      </trkpt>
      <trkpt lat="41.71997" lon="20.66871">
        <ele>954.158135</ele>
        <time>2022-04-25T13:15:45.882Z</time>
      </trkpt>
      <trkpt lat="41.72004" lon="20.66856">
        <ele>952.922235</ele>
        <time>2022-04-25T13:15:47.886Z</time>
      </trkpt>
      <trkpt lat="41.72011" lon="20.66844">
        <ele>951.856581</ele>
        <time>2022-04-25T13:15:49.857Z</time>
      </trkpt>
      <trkpt lat="41.72018" lon="20.6683">
        <ele>950.699046</ele>
        <time>2022-04-25T13:15:51.952Z</time>
      </trkpt>
      <trkpt lat="41.72022" lon="20.66814">
        <ele>949.547403</ele>
        <time>2022-04-25T13:15:53.888Z</time>
      </trkpt>
      <trkpt lat="41.72026" lon="20.66796">
        <ele>948.366272</ele>
        <time>2022-04-25T13:15:55.907Z</time>
      </trkpt>
      <trkpt lat="41.72027" lon="20.66777">
        <ele>947.306286</ele>
        <time>2022-04-25T13:15:57.877Z</time>
      </trkpt>
      <trkpt lat="41.72027" lon="20.6676">
        <ele>946.362662</ele>
        <time>2022-04-25T13:15:59.934Z</time>
      </trkpt>
      <trkpt lat="41.72024" lon="20.66746">
        <ele>945.516267</ele>
        <time>2022-04-25T13:16:01.896Z</time>
      </trkpt>
      <trkpt lat="41.72024" lon="20.66731">
        <ele>944.669103</ele>
        <time>2022-04-25T13:16:03.881Z</time>
      </trkpt>
      <trkpt lat="41.72025" lon="20.66716">
        <ele>943.840372</ele>
        <time>2022-04-25T13:16:05.924Z</time>
      </trkpt>
      <trkpt lat="41.72026" lon="20.66703">
        <ele>943.086815</ele>
        <time>2022-04-25T13:16:07.883Z</time>
      </trkpt>
      <trkpt lat="41.72027" lon="20.66688">
        <ele>942.255386</ele>
        <time>2022-04-25T13:16:09.871Z</time>
      </trkpt>
      <trkpt lat="41.72026" lon="20.66672">
        <ele>941.349218</ele>
        <time>2022-04-25T13:16:12.863Z</time>
      </trkpt>
      <trkpt lat="41.72024" lon="20.66659">
        <ele>940.578399</ele>
        <time>2022-04-25T13:16:15.890Z</time>
      </trkpt>
      <trkpt lat="41.72027" lon="20.66645">
        <ele>939.767159</ele>
        <time>2022-04-25T13:16:18.892Z</time>
      </trkpt>
      <trkpt lat="41.72028" lon="20.6663">
        <ele>938.906036</ele>
        <time>2022-04-25T13:16:21.901Z</time>
      </trkpt>
      <trkpt lat="41.72027" lon="20.66613">
        <ele>937.945926</ele>
        <time>2022-04-25T13:16:24.879Z</time>
      </trkpt>
      <trkpt lat="41.72027" lon="20.66597">
        <ele>937.042193</ele>
        <time>2022-04-25T13:16:27.915Z</time>
      </trkpt>
      <trkpt lat="41.72027" lon="20.66584">
        <ele>936.34553</ele>
        <time>2022-04-25T13:16:29.901Z</time>
      </trkpt>
      <trkpt lat="41.72026" lon="20.66566">
        <ele>935.504687</ele>
        <time>2022-04-25T13:16:32.872Z</time>
      </trkpt>
      <trkpt lat="41.72025" lon="20.66548">
        <ele>936.165061</ele>
        <time>2022-04-25T13:16:35.888Z</time>
      </trkpt>
      <trkpt lat="41.72025" lon="20.66536">
        <ele>936.623045</ele>
        <time>2022-04-25T13:16:37.873Z</time>
      </trkpt>
      <trkpt lat="41.72024" lon="20.66523">
        <ele>937.11122</ele>
        <time>2022-04-25T13:16:39.900Z</time>
      </trkpt>
      <trkpt lat="41.72023" lon="20.6651">
        <ele>937.584098</ele>
        <time>2022-04-25T13:16:41.866Z</time>
      </trkpt>
      <trkpt lat="41.72022" lon="20.66496">
        <ele>938.07787</ele>
        <time>2022-04-25T13:16:43.878Z</time>
      </trkpt>
      <trkpt lat="41.72021" lon="20.66484">
        <ele>938.541071</ele>
        <time>2022-04-25T13:16:45.893Z</time>
      </trkpt>
      <trkpt lat="41.72019" lon="20.66471">
        <ele>939.006832</ele>
        <time>2022-04-25T13:16:47.883Z</time>
      </trkpt>
      <trkpt lat="41.72018" lon="20.66458">
        <ele>939.483078</ele>
        <time>2022-04-25T13:16:49.885Z</time>
      </trkpt>
      <trkpt lat="41.72015" lon="20.66446">
        <ele>939.949556</ele>
        <time>2022-04-25T13:16:51.881Z</time>
      </trkpt>
      <trkpt lat="41.72014" lon="20.66429">
        <ele>940.583428</ele>
        <time>2022-04-25T13:16:54.890Z</time>
      </trkpt>
      <trkpt lat="41.72013" lon="20.66416">
        <ele>941.070643</ele>
        <time>2022-04-25T13:16:56.880Z</time>
      </trkpt>
      <trkpt lat="41.72012" lon="20.66402">
        <ele>941.579582</ele>
        <time>2022-04-25T13:16:58.872Z</time>
      </trkpt>
      <trkpt lat="41.7201" lon="20.66389">
        <ele>942.070335</ele>
        <time>2022-04-25T13:17:00.878Z</time>
      </trkpt>
      <trkpt lat="41.72009" lon="20.66376">
        <ele>942.545161</ele>
        <time>2022-04-25T13:17:02.856Z</time>
      </trkpt>
      <trkpt lat="41.72005" lon="20.66365">
        <ele>942.987342</ele>
        <time>2022-04-25T13:17:04.890Z</time>
      </trkpt>
      <trkpt lat="41.71998" lon="20.66355">
        <ele>943.481791</ele>
        <time>2022-04-25T13:17:06.914Z</time>
      </trkpt>
      <trkpt lat="41.71992" lon="20.66344">
        <ele>943.980276</ele>
        <time>2022-04-25T13:17:08.916Z</time>
      </trkpt>
      <trkpt lat="41.71985" lon="20.66333">
        <ele>944.575309</ele>
        <time>2022-04-25T13:17:10.871Z</time>
      </trkpt>
      <trkpt lat="41.71977" lon="20.66324">
        <ele>945.234351</ele>
        <time>2022-04-25T13:17:12.898Z</time>
      </trkpt>
      <trkpt lat="41.71969" lon="20.66317">
        <ele>945.83688</ele>
        <time>2022-04-25T13:17:14.882Z</time>
      </trkpt>
      <trkpt lat="41.71961" lon="20.66309">
        <ele>946.477175</ele>
        <time>2022-04-25T13:17:16.942Z</time>
      </trkpt>
      <trkpt lat="41.71952" lon="20.663">
        <ele>947.178718</ele>
        <time>2022-04-25T13:17:18.891Z</time>
      </trkpt>
      <trkpt lat="41.71942" lon="20.66292">
        <ele>947.898181</ele>
        <time>2022-04-25T13:17:20.892Z</time>
      </trkpt>
      <trkpt lat="41.71932" lon="20.66283">
        <ele>948.640851</ele>
        <time>2022-04-25T13:17:22.927Z</time>
      </trkpt>
      <trkpt lat="41.71923" lon="20.66277">
        <ele>949.297238</ele>
        <time>2022-04-25T13:17:24.898Z</time>
      </trkpt>
      <trkpt lat="41.71914" lon="20.6627">
        <ele>949.923384</ele>
        <time>2022-04-25T13:17:26.873Z</time>
      </trkpt>
      <trkpt lat="41.71906" lon="20.66263">
        <ele>950.513594</ele>
        <time>2022-04-25T13:17:28.882Z</time>
      </trkpt>
      <trkpt lat="41.71899" lon="20.66257">
        <ele>951.079745</ele>
        <time>2022-04-25T13:17:30.876Z</time>
      </trkpt>
      <trkpt lat="41.71889" lon="20.66247">
        <ele>951.815775</ele>
        <time>2022-04-25T13:17:33.906Z</time>
      </trkpt>
      <trkpt lat="41.71881" lon="20.66239">
        <ele>952.481063</ele>
        <time>2022-04-25T13:17:36.884Z</time>
      </trkpt>
      <trkpt lat="41.71874" lon="20.6623">
        <ele>953.053366</ele>
        <time>2022-04-25T13:17:39.873Z</time>
      </trkpt>
      <trkpt lat="41.71867" lon="20.66218">
        <ele>953.787661</ele>
        <time>2022-04-25T13:17:42.886Z</time>
      </trkpt>
      <trkpt lat="41.7186" lon="20.66205">
        <ele>954.499622</ele>
        <time>2022-04-25T13:17:45.922Z</time>
      </trkpt>
      <trkpt lat="41.71855" lon="20.66193">
        <ele>955.190328</ele>
        <time>2022-04-25T13:17:48.876Z</time>
      </trkpt>
      <trkpt lat="41.71847" lon="20.66182">
        <ele>955.127824</ele>
        <time>2022-04-25T13:17:51.924Z</time>
      </trkpt>
      <trkpt lat="41.71842" lon="20.66171">
        <ele>954.541631</ele>
        <time>2022-04-25T13:17:54.889Z</time>
      </trkpt>
      <trkpt lat="41.71838" lon="20.6616">
        <ele>953.984975</ele>
        <time>2022-04-25T13:17:57.867Z</time>
      </trkpt>
      <trkpt lat="41.71832" lon="20.6615">
        <ele>953.429042</ele>
        <time>2022-04-25T13:18:00.885Z</time>
      </trkpt>
      <trkpt lat="41.71825" lon="20.6614">
        <ele>952.814539</ele>
        <time>2022-04-25T13:18:03.882Z</time>
      </trkpt>
      <trkpt lat="41.71816" lon="20.6613">
        <ele>952.119529</ele>
        <time>2022-04-25T13:18:06.877Z</time>
      </trkpt>
      <trkpt lat="41.71807" lon="20.6612">
        <ele>951.406962</ele>
        <time>2022-04-25T13:18:09.889Z</time>
      </trkpt>
      <trkpt lat="41.71796" lon="20.6611">
        <ele>950.619997</ele>
        <time>2022-04-25T13:18:12.886Z</time>
      </trkpt>
      <trkpt lat="41.71788" lon="20.66103">
        <ele>950.067309</ele>
        <time>2022-04-25T13:18:14.873Z</time>
      </trkpt>
      <trkpt lat="41.71781" lon="20.66095">
        <ele>949.505811</ele>
        <time>2022-04-25T13:18:16.890Z</time>
      </trkpt>
      <trkpt lat="41.71773" lon="20.66088">
        <ele>948.944964</ele>
        <time>2022-04-25T13:18:18.870Z</time>
      </trkpt>
      <trkpt lat="41.71765" lon="20.66081">
        <ele>948.382255</ele>
        <time>2022-04-25T13:18:20.879Z</time>
      </trkpt>
      <trkpt lat="41.71757" lon="20.66075">
        <ele>947.828409</ele>
        <time>2022-04-25T13:18:22.894Z</time>
      </trkpt>
      <trkpt lat="41.71745" lon="20.66068">
        <ele>947.009458</ele>
        <time>2022-04-25T13:18:25.921Z</time>
      </trkpt>
      <trkpt lat="41.71736" lon="20.66062">
        <ele>946.423968</ele>
        <time>2022-04-25T13:18:27.872Z</time>
      </trkpt>
      <trkpt lat="41.71724" lon="20.66054">
        <ele>945.61999</ele>
        <time>2022-04-25T13:18:30.886Z</time>
      </trkpt>
      <trkpt lat="41.71716" lon="20.66047">
        <ele>945.067141</ele>
        <time>2022-04-25T13:18:32.888Z</time>
      </trkpt>
      <trkpt lat="41.71709" lon="20.66039">
        <ele>944.699842</ele>
        <time>2022-04-25T13:18:34.878Z</time>
      </trkpt>
      <trkpt lat="41.71702" lon="20.6603">
        <ele>944.646783</ele>
        <time>2022-04-25T13:18:36.869Z</time>
      </trkpt>
      <trkpt lat="41.71695" lon="20.6602">
        <ele>944.592532</ele>
        <time>2022-04-25T13:18:38.876Z</time>
      </trkpt>
      <trkpt lat="41.71688" lon="20.66009">
        <ele>944.538684</ele>
        <time>2022-04-25T13:18:40.888Z</time>
      </trkpt>
      <trkpt lat="41.71681" lon="20.65998">
        <ele>944.484623</ele>
        <time>2022-04-25T13:18:42.890Z</time>
      </trkpt>
      <trkpt lat="41.71675" lon="20.65987">
        <ele>944.429994</ele>
        <time>2022-04-25T13:18:44.885Z</time>
      </trkpt>
      <trkpt lat="41.71668" lon="20.65978">
        <ele>944.3777</ele>
        <time>2022-04-25T13:18:46.874Z</time>
      </trkpt>
      <trkpt lat="41.71665" lon="20.65964">
        <ele>944.320877</ele>
        <time>2022-04-25T13:18:48.882Z</time>
      </trkpt>
      <trkpt lat="41.71664" lon="20.65947">
        <ele>944.256697</ele>
        <time>2022-04-25T13:18:50.887Z</time>
      </trkpt>
      <trkpt lat="41.71661" lon="20.65933">
        <ele>944.198181</ele>
        <time>2022-04-25T13:18:52.870Z</time>
      </trkpt>
      <trkpt lat="41.71658" lon="20.6592">
        <ele>944.144497</ele>
        <time>2022-04-25T13:18:54.877Z</time>
      </trkpt>
      <trkpt lat="41.71653" lon="20.65907">
        <ele>944.089055</ele>
        <time>2022-04-25T13:18:56.887Z</time>
      </trkpt>
      <trkpt lat="41.71648" lon="20.65894">
        <ele>944.032386</ele>
        <time>2022-04-25T13:18:58.872Z</time>
      </trkpt>
      <trkpt lat="41.71638" lon="20.65884">
        <ele>943.968277</ele>
        <time>2022-04-25T13:19:00.907Z</time>
      </trkpt>
      <trkpt lat="41.71627" lon="20.65873">
        <ele>943.898679</ele>
        <time>2022-04-25T13:19:02.883Z</time>
      </trkpt>
      <trkpt lat="41.71616" lon="20.65863">
        <ele>943.82729</ele>
        <time>2022-04-25T13:19:04.895Z</time>
      </trkpt>
      <trkpt lat="41.71605" lon="20.65851">
        <ele>943.343272</ele>
        <time>2022-04-25T13:19:06.861Z</time>
      </trkpt>
      <trkpt lat="41.71593" lon="20.65839">
        <ele>941.986301</ele>
        <time>2022-04-25T13:19:08.866Z</time>
      </trkpt>
      <trkpt lat="41.7158" lon="20.65826">
        <ele>940.574298</ele>
        <time>2022-04-25T13:19:10.880Z</time>
      </trkpt>
      <trkpt lat="41.71565" lon="20.65816">
        <ele>939.101432</ele>
        <time>2022-04-25T13:19:12.891Z</time>
      </trkpt>
      <trkpt lat="41.7155" lon="20.65809">
        <ele>937.660596</ele>
        <time>2022-04-25T13:19:14.881Z</time>
      </trkpt>
      <trkpt lat="41.71534" lon="20.65807">
        <ele>936.227846</ele>
        <time>2022-04-25T13:19:16.891Z</time>
      </trkpt>
      <trkpt lat="41.71517" lon="20.65808">
        <ele>934.778803</ele>
        <time>2022-04-25T13:19:18.923Z</time>
      </trkpt>
      <trkpt lat="41.71503" lon="20.65809">
        <ele>933.559836</ele>
        <time>2022-04-25T13:19:20.882Z</time>
      </trkpt>
      <trkpt lat="41.71489" lon="20.65809">
        <ele>932.263116</ele>
        <time>2022-04-25T13:19:22.901Z</time>
      </trkpt>
      <trkpt lat="41.71471" lon="20.65808">
        <ele>930.744314</ele>
        <time>2022-04-25T13:19:24.891Z</time>
      </trkpt>
      <trkpt lat="41.71462" lon="20.65808">
        <ele>929.879709</ele>
        <time>2022-04-25T13:19:25.884Z</time>
      </trkpt>
      <trkpt lat="41.71453" lon="20.65807">
        <ele>929.085454</ele>
        <time>2022-04-25T13:19:26.877Z</time>
      </trkpt>
      <trkpt lat="41.71437" lon="20.65806">
        <ele>927.692412</ele>
        <time>2022-04-25T13:19:28.878Z</time>
      </trkpt>
      <trkpt lat="41.71422" lon="20.65803">
        <ele>926.443906</ele>
        <time>2022-04-25T13:19:30.900Z</time>
      </trkpt>
      <trkpt lat="41.71408" lon="20.658">
        <ele>925.237289</ele>
        <time>2022-04-25T13:19:32.882Z</time>
      </trkpt>
      <trkpt lat="41.71394" lon="20.65796">
        <ele>924.097138</ele>
        <time>2022-04-25T13:19:34.880Z</time>
      </trkpt>
      <trkpt lat="41.71381" lon="20.65792">
        <ele>922.983971</ele>
        <time>2022-04-25T13:19:36.888Z</time>
      </trkpt>
      <trkpt lat="41.71367" lon="20.65788">
        <ele>921.804572</ele>
        <time>2022-04-25T13:19:38.883Z</time>
      </trkpt>
      <trkpt lat="41.71354" lon="20.65784">
        <ele>920.641217</ele>
        <time>2022-04-25T13:19:40.886Z</time>
      </trkpt>
      <trkpt lat="41.7134" lon="20.65781">
        <ele>919.516389</ele>
        <time>2022-04-25T13:19:42.893Z</time>
      </trkpt>
      <trkpt lat="41.71326" lon="20.65776">
        <ele>918.237888</ele>
        <time>2022-04-25T13:19:44.887Z</time>
      </trkpt>
      <trkpt lat="41.71312" lon="20.65773">
        <ele>917.119049</ele>
        <time>2022-04-25T13:19:46.891Z</time>
      </trkpt>
      <trkpt lat="41.71299" lon="20.65771">
        <ele>916.005658</ele>
        <time>2022-04-25T13:19:48.867Z</time>
      </trkpt>
      <trkpt lat="41.71286" lon="20.65771">
        <ele>914.906588</ele>
        <time>2022-04-25T13:19:50.901Z</time>
      </trkpt>
      <trkpt lat="41.71273" lon="20.6577">
        <ele>913.824376</ele>
        <time>2022-04-25T13:19:52.889Z</time>
      </trkpt>
      <trkpt lat="41.7126" lon="20.65772">
        <ele>912.965322</ele>
        <time>2022-04-25T13:19:54.890Z</time>
      </trkpt>
      <trkpt lat="41.71248" lon="20.65774">
        <ele>913.106238</ele>
        <time>2022-04-25T13:19:56.897Z</time>
      </trkpt>
      <trkpt lat="41.71237" lon="20.65775">
        <ele>913.236257</ele>
        <time>2022-04-25T13:19:58.884Z</time>
      </trkpt>
      <trkpt lat="41.71225" lon="20.65776">
        <ele>913.369661</ele>
        <time>2022-04-25T13:20:00.863Z</time>
      </trkpt>
      <trkpt lat="41.71213" lon="20.65777">
        <ele>913.512607</ele>
        <time>2022-04-25T13:20:02.880Z</time>
      </trkpt>
      <trkpt lat="41.71202" lon="20.65779">
        <ele>913.640175</ele>
        <time>2022-04-25T13:20:04.869Z</time>
      </trkpt>
      <trkpt lat="41.7119" lon="20.65781">
        <ele>913.775292</ele>
        <time>2022-04-25T13:20:06.884Z</time>
      </trkpt>
      <trkpt lat="41.71179" lon="20.65783">
        <ele>913.909363</ele>
        <time>2022-04-25T13:20:08.912Z</time>
      </trkpt>
      <trkpt lat="41.71168" lon="20.65784">
        <ele>914.035946</ele>
        <time>2022-04-25T13:20:10.910Z</time>
      </trkpt>
      <trkpt lat="41.71157" lon="20.65784">
        <ele>914.160048</ele>
        <time>2022-04-25T13:20:12.885Z</time>
      </trkpt>
      <trkpt lat="41.71146" lon="20.65782">
        <ele>914.286735</ele>
        <time>2022-04-25T13:20:14.885Z</time>
      </trkpt>
      <trkpt lat="41.71135" lon="20.65781">
        <ele>914.415965</ele>
        <time>2022-04-25T13:20:16.887Z</time>
      </trkpt>
      <trkpt lat="41.71124" lon="20.65777">
        <ele>914.543952</ele>
        <time>2022-04-25T13:20:18.890Z</time>
      </trkpt>
      <trkpt lat="41.71113" lon="20.65771">
        <ele>914.682282</ele>
        <time>2022-04-25T13:20:20.896Z</time>
      </trkpt>
      <trkpt lat="41.71102" lon="20.65762">
        <ele>914.830196</ele>
        <time>2022-04-25T13:20:22.890Z</time>
      </trkpt>
      <trkpt lat="41.71091" lon="20.6575">
        <ele>914.993505</ele>
        <time>2022-04-25T13:20:24.861Z</time>
      </trkpt>
      <trkpt lat="41.71081" lon="20.65735">
        <ele>914.837444</ele>
        <time>2022-04-25T13:20:26.886Z</time>
      </trkpt>
      <trkpt lat="41.71072" lon="20.65718">
        <ele>914.64185</ele>
        <time>2022-04-25T13:20:28.875Z</time>
      </trkpt>
      <trkpt lat="41.71064" lon="20.65701">
        <ele>914.451722</ele>
        <time>2022-04-25T13:20:30.884Z</time>
      </trkpt>
      <trkpt lat="41.71057" lon="20.65684">
        <ele>914.264278</ele>
        <time>2022-04-25T13:20:32.887Z</time>
      </trkpt>
      <trkpt lat="41.71051" lon="20.65667">
        <ele>914.084074</ele>
        <time>2022-04-25T13:20:34.890Z</time>
      </trkpt>
      <trkpt lat="41.71046" lon="20.65651">
        <ele>913.922559</ele>
        <time>2022-04-25T13:20:36.879Z</time>
      </trkpt>
      <trkpt lat="41.71043" lon="20.65637">
        <ele>913.777963</ele>
        <time>2022-04-25T13:20:38.901Z</time>
      </trkpt>
      <trkpt lat="41.71039" lon="20.65622">
        <ele>913.632081</ele>
        <time>2022-04-25T13:20:40.891Z</time>
      </trkpt>
      <trkpt lat="41.71028" lon="20.65612">
        <ele>913.462474</ele>
        <time>2022-04-25T13:20:43.895Z</time>
      </trkpt>
      <trkpt lat="41.71019" lon="20.65608">
        <ele>913.340799</ele>
        <time>2022-04-25T13:20:45.860Z</time>
      </trkpt>
      <trkpt lat="41.71009" lon="20.65603">
        <ele>913.20601</ele>
        <time>2022-04-25T13:20:47.886Z</time>
      </trkpt>
      <trkpt lat="41.70999" lon="20.65598">
        <ele>913.071105</ele>
        <time>2022-04-25T13:20:49.870Z</time>
      </trkpt>
      <trkpt lat="41.70987" lon="20.65594">
        <ele>912.910343</ele>
        <time>2022-04-25T13:20:51.909Z</time>
      </trkpt>
      <trkpt lat="41.70976" lon="20.65589">
        <ele>912.77284</ele>
        <time>2022-04-25T13:20:53.869Z</time>
      </trkpt>
      <trkpt lat="41.70967" lon="20.65585">
        <ele>912.647887</ele>
        <time>2022-04-25T13:20:55.865Z</time>
      </trkpt>
      <trkpt lat="41.70958" lon="20.6558">
        <ele>912.525641</ele>
        <time>2022-04-25T13:20:57.872Z</time>
      </trkpt>
      <trkpt lat="41.70948" lon="20.65576">
        <ele>912.398704</ele>
        <time>2022-04-25T13:20:59.869Z</time>
      </trkpt>
      <trkpt lat="41.70939" lon="20.6557">
        <ele>912.27128</ele>
        <time>2022-04-25T13:21:01.880Z</time>
      </trkpt>
      <trkpt lat="41.7093" lon="20.65564">
        <ele>912.144618</ele>
        <time>2022-04-25T13:21:03.918Z</time>
      </trkpt>
      <trkpt lat="41.70921" lon="20.65559">
        <ele>912.019837</ele>
        <time>2022-04-25T13:21:05.861Z</time>
      </trkpt>
      <trkpt lat="41.70912" lon="20.65554">
        <ele>911.89423</ele>
        <time>2022-04-25T13:21:07.872Z</time>
      </trkpt>
      <trkpt lat="41.70902" lon="20.65549">
        <ele>911.762786</ele>
        <time>2022-04-25T13:21:09.873Z</time>
      </trkpt>
      <trkpt lat="41.70892" lon="20.65544">
        <ele>911.638198</ele>
        <time>2022-04-25T13:21:11.869Z</time>
      </trkpt>
      <trkpt lat="41.70884" lon="20.65539">
        <ele>911.515344</ele>
        <time>2022-04-25T13:21:13.915Z</time>
      </trkpt>
      <trkpt lat="41.70875" lon="20.65531">
        <ele>911.389328</ele>
        <time>2022-04-25T13:21:15.890Z</time>
      </trkpt>
      <trkpt lat="41.70868" lon="20.65524">
        <ele>911.276974</ele>
        <time>2022-04-25T13:21:17.874Z</time>
      </trkpt>
      <trkpt lat="41.7086" lon="20.6551">
        <ele>911.11042</ele>
        <time>2022-04-25T13:21:20.887Z</time>
      </trkpt>
      <trkpt lat="41.70856" lon="20.65498">
        <ele>910.992302</ele>
        <time>2022-04-25T13:21:22.895Z</time>
      </trkpt>
      <trkpt lat="41.70851" lon="20.65483">
        <ele>910.831817</ele>
        <time>2022-04-25T13:21:25.919Z</time>
      </trkpt>
      <trkpt lat="41.70848" lon="20.6547">
        <ele>910.71163</ele>
        <time>2022-04-25T13:21:27.871Z</time>
      </trkpt>
      <trkpt lat="41.70847" lon="20.65457">
        <ele>910.584444</ele>
        <time>2022-04-25T13:21:29.894Z</time>
      </trkpt>
      <trkpt lat="41.70846" lon="20.65443">
        <ele>910.462685</ele>
        <time>2022-04-25T13:21:31.872Z</time>
      </trkpt>
      <trkpt lat="41.70844" lon="20.6543">
        <ele>910.393388</ele>
        <time>2022-04-25T13:21:33.861Z</time>
      </trkpt>
      <trkpt lat="41.70843" lon="20.65417">
        <ele>910.325291</ele>
        <time>2022-04-25T13:21:35.898Z</time>
      </trkpt>
      <trkpt lat="41.70842" lon="20.65404">
        <ele>910.256895</ele>
        <time>2022-04-25T13:21:37.874Z</time>
      </trkpt>
      <trkpt lat="41.70842" lon="20.65391">
        <ele>910.193718</ele>
        <time>2022-04-25T13:21:39.898Z</time>
      </trkpt>
      <trkpt lat="41.70844" lon="20.65378">
        <ele>910.12714</ele>
        <time>2022-04-25T13:21:41.873Z</time>
      </trkpt>
      <trkpt lat="41.70844" lon="20.65364">
        <ele>910.051776</ele>
        <time>2022-04-25T13:21:44.876Z</time>
      </trkpt>
      <trkpt lat="41.70842" lon="20.6535">
        <ele>909.977502</ele>
        <time>2022-04-25T13:21:47.866Z</time>
      </trkpt>
      <trkpt lat="41.70839" lon="20.65336">
        <ele>909.904261</ele>
        <time>2022-04-25T13:21:50.891Z</time>
      </trkpt>
      <trkpt lat="41.70835" lon="20.65322">
        <ele>909.827462</ele>
        <time>2022-04-25T13:21:53.905Z</time>
      </trkpt>
      <trkpt lat="41.7083" lon="20.65306">
        <ele>909.739965</ele>
        <time>2022-04-25T13:21:56.896Z</time>
      </trkpt>
      <trkpt lat="41.70824" lon="20.65291">
        <ele>909.649634</ele>
        <time>2022-04-25T13:21:59.924Z</time>
      </trkpt>
      <trkpt lat="41.70819" lon="20.6528">
        <ele>909.587965</ele>
        <time>2022-04-25T13:22:01.891Z</time>
      </trkpt>
      <trkpt lat="41.70814" lon="20.65263">
        <ele>909.495228</ele>
        <time>2022-04-25T13:22:04.878Z</time>
      </trkpt>
      <trkpt lat="41.70811" lon="20.65252">
        <ele>909.433084</ele>
        <time>2022-04-25T13:22:06.873Z</time>
      </trkpt>
      <trkpt lat="41.70806" lon="20.65241">
        <ele>909.367943</ele>
        <time>2022-04-25T13:22:08.878Z</time>
      </trkpt>
      <trkpt lat="41.70802" lon="20.6523">
        <ele>909.305433</ele>
        <time>2022-04-25T13:22:10.882Z</time>
      </trkpt>
      <trkpt lat="41.70796" lon="20.6522">
        <ele>909.238943</ele>
        <time>2022-04-25T13:22:12.874Z</time>
      </trkpt>
      <trkpt lat="41.70789" lon="20.65209">
        <ele>908.67085</ele>
        <time>2022-04-25T13:22:14.904Z</time>
      </trkpt>
      <trkpt lat="41.70784" lon="20.65198">
        <ele>908.103774</ele>
        <time>2022-04-25T13:22:16.903Z</time>
      </trkpt>
      <trkpt lat="41.70779" lon="20.65186">
        <ele>907.543548</ele>
        <time>2022-04-25T13:22:18.873Z</time>
      </trkpt>
      <trkpt lat="41.70776" lon="20.65174">
        <ele>907.007064</ele>
        <time>2022-04-25T13:22:20.866Z</time>
      </trkpt>
      <trkpt lat="41.70773" lon="20.65162">
        <ele>906.487451</ele>
        <time>2022-04-25T13:22:22.911Z</time>
      </trkpt>
      <trkpt lat="41.70769" lon="20.65147">
        <ele>905.797195</ele>
        <time>2022-04-25T13:22:25.890Z</time>
      </trkpt>
      <trkpt lat="41.70764" lon="20.65132">
        <ele>905.099057</ele>
        <time>2022-04-25T13:22:28.899Z</time>
      </trkpt>
      <trkpt lat="41.70759" lon="20.65118">
        <ele>904.422988</ele>
        <time>2022-04-25T13:22:31.906Z</time>
      </trkpt>
      <trkpt lat="41.7075" lon="20.65108">
        <ele>903.772057</ele>
        <time>2022-04-25T13:22:34.899Z</time>
      </trkpt>
      <trkpt lat="41.70742" lon="20.65099">
        <ele>903.145303</ele>
        <time>2022-04-25T13:22:37.877Z</time>
      </trkpt>
      <trkpt lat="41.70733" lon="20.65091">
        <ele>902.555426</ele>
        <time>2022-04-25T13:22:40.885Z</time>
      </trkpt>
      <trkpt lat="41.70723" lon="20.65082">
        <ele>901.89219</ele>
        <time>2022-04-25T13:22:44.882Z</time>
      </trkpt>
      <trkpt lat="41.70714" lon="20.65074">
        <ele>901.24316</ele>
        <time>2022-04-25T13:22:48.890Z</time>
      </trkpt>
      <trkpt lat="41.70704" lon="20.65065">
        <ele>900.589279</ele>
        <time>2022-04-25T13:22:52.930Z</time>
      </trkpt>
      <trkpt lat="41.70696" lon="20.65059">
        <ele>900.057358</ele>
        <time>2022-04-25T13:22:55.878Z</time>
      </trkpt>
      <trkpt lat="41.70687" lon="20.6505">
        <ele>899.410588</ele>
        <time>2022-04-25T13:22:59.901Z</time>
      </trkpt>
      <trkpt lat="41.70679" lon="20.65042">
        <ele>898.961221</ele>
        <time>2022-04-25T13:23:03.913Z</time>
      </trkpt>
      <trkpt lat="41.7067" lon="20.65034">
        <ele>898.886505</ele>
        <time>2022-04-25T13:23:08.892Z</time>
      </trkpt>
      <trkpt lat="41.70662" lon="20.65027">
        <ele>898.817744</ele>
        <time>2022-04-25T13:23:13.873Z</time>
      </trkpt>
      <trkpt lat="41.70655" lon="20.65019">
        <ele>898.749177</ele>
        <time>2022-04-25T13:23:17.872Z</time>
      </trkpt>
      <trkpt lat="41.70647" lon="20.65011">
        <ele>898.679727</ele>
        <time>2022-04-25T13:23:21.890Z</time>
      </trkpt>
      <trkpt lat="41.70636" lon="20.65006">
        <ele>898.598612</ele>
        <time>2022-04-25T13:23:25.870Z</time>
      </trkpt>
      <trkpt lat="41.70624" lon="20.65005">
        <ele>898.513502</ele>
        <time>2022-04-25T13:23:29.880Z</time>
      </trkpt>
      <trkpt lat="41.70614" lon="20.65004">
        <ele>898.439859</ele>
        <time>2022-04-25T13:23:33.879Z</time>
      </trkpt>
      <trkpt lat="41.70604" lon="20.65003">
        <ele>898.372492</ele>
        <time>2022-04-25T13:23:36.864Z</time>
      </trkpt>
      <trkpt lat="41.70592" lon="20.65003">
        <ele>898.289753</ele>
        <time>2022-04-25T13:23:39.881Z</time>
      </trkpt>
      <trkpt lat="41.70582" lon="20.65004">
        <ele>898.217722</ele>
        <time>2022-04-25T13:23:41.903Z</time>
      </trkpt>
      <trkpt lat="41.7057" lon="20.65009">
        <ele>898.126354</ele>
        <time>2022-04-25T13:23:43.913Z</time>
      </trkpt>
      <trkpt lat="41.70557" lon="20.65014">
        <ele>898.032922</ele>
        <time>2022-04-25T13:23:45.876Z</time>
      </trkpt>
      <trkpt lat="41.70543" lon="20.6502">
        <ele>897.926167</ele>
        <time>2022-04-25T13:23:47.896Z</time>
      </trkpt>
      <trkpt lat="41.70527" lon="20.65028">
        <ele>897.806996</ele>
        <time>2022-04-25T13:23:49.897Z</time>
      </trkpt>
      <trkpt lat="41.7051" lon="20.65035">
        <ele>897.72552</ele>
        <time>2022-04-25T13:23:51.872Z</time>
      </trkpt>
      <trkpt lat="41.70501" lon="20.65037">
        <ele>897.778591</ele>
        <time>2022-04-25T13:23:52.881Z</time>
      </trkpt>
      <trkpt lat="41.70492" lon="20.65039">
        <ele>897.831789</ele>
        <time>2022-04-25T13:23:53.868Z</time>
      </trkpt>
      <trkpt lat="41.70483" lon="20.6504">
        <ele>897.886015</ele>
        <time>2022-04-25T13:23:54.883Z</time>
      </trkpt>
      <trkpt lat="41.70473" lon="20.65042">
        <ele>897.940762</ele>
        <time>2022-04-25T13:23:55.875Z</time>
      </trkpt>
      <trkpt lat="41.70464" lon="20.65043">
        <ele>897.997184</ele>
        <time>2022-04-25T13:23:56.894Z</time>
      </trkpt>
      <trkpt lat="41.70454" lon="20.65045">
        <ele>898.055723</ele>
        <time>2022-04-25T13:23:57.870Z</time>
      </trkpt>
      <trkpt lat="41.70443" lon="20.65048">
        <ele>898.116043</ele>
        <time>2022-04-25T13:23:58.912Z</time>
      </trkpt>
      <trkpt lat="41.70433" lon="20.65049">
        <ele>898.174812</ele>
        <time>2022-04-25T13:23:59.910Z</time>
      </trkpt>
      <trkpt lat="41.70423" lon="20.6505">
        <ele>898.234643</ele>
        <time>2022-04-25T13:24:00.878Z</time>
      </trkpt>
      <trkpt lat="41.70412" lon="20.65051">
        <ele>898.294845</ele>
        <time>2022-04-25T13:24:01.904Z</time>
      </trkpt>
      <trkpt lat="41.70402" lon="20.65051">
        <ele>898.353257</ele>
        <time>2022-04-25T13:24:02.880Z</time>
      </trkpt>
      <trkpt lat="41.70393" lon="20.65049">
        <ele>898.409778</ele>
        <time>2022-04-25T13:24:03.893Z</time>
      </trkpt>
      <trkpt lat="41.70384" lon="20.65046">
        <ele>898.463185</ele>
        <time>2022-04-25T13:24:04.877Z</time>
      </trkpt>
      <trkpt lat="41.70375" lon="20.65041">
        <ele>898.518637</ele>
        <time>2022-04-25T13:24:05.882Z</time>
      </trkpt>
      <trkpt lat="41.70359" lon="20.6503">
        <ele>898.621918</ele>
        <time>2022-04-25T13:24:07.876Z</time>
      </trkpt>
      <trkpt lat="41.70346" lon="20.65016">
        <ele>898.720332</ele>
        <time>2022-04-25T13:24:09.895Z</time>
      </trkpt>
      <trkpt lat="41.70333" lon="20.65001">
        <ele>899.230341</ele>
        <time>2022-04-25T13:24:11.895Z</time>
      </trkpt>
      <trkpt lat="41.70318" lon="20.64987">
        <ele>899.92574</ele>
        <time>2022-04-25T13:24:13.879Z</time>
      </trkpt>
      <trkpt lat="41.70311" lon="20.6498">
        <ele>900.285474</ele>
        <time>2022-04-25T13:24:14.892Z</time>
      </trkpt>
      <trkpt lat="41.70304" lon="20.64973">
        <ele>900.640634</ele>
        <time>2022-04-25T13:24:15.883Z</time>
      </trkpt>
      <trkpt lat="41.70296" lon="20.64966">
        <ele>900.995503</ele>
        <time>2022-04-25T13:24:16.881Z</time>
      </trkpt>
      <trkpt lat="41.70282" lon="20.64952">
        <ele>901.671766</ele>
        <time>2022-04-25T13:24:18.877Z</time>
      </trkpt>
      <trkpt lat="41.70268" lon="20.64939">
        <ele>902.330956</ele>
        <time>2022-04-25T13:24:20.910Z</time>
      </trkpt>
      <trkpt lat="41.70255" lon="20.64927">
        <ele>902.972325</ele>
        <time>2022-04-25T13:24:22.879Z</time>
      </trkpt>
      <trkpt lat="41.70242" lon="20.64914">
        <ele>903.568054</ele>
        <time>2022-04-25T13:24:24.929Z</time>
      </trkpt>
      <trkpt lat="41.70231" lon="20.649">
        <ele>904.17783</ele>
        <time>2022-04-25T13:24:26.900Z</time>
      </trkpt>
      <trkpt lat="41.7022" lon="20.64886">
        <ele>904.760567</ele>
        <time>2022-04-25T13:24:28.895Z</time>
      </trkpt>
      <trkpt lat="41.7021" lon="20.64873">
        <ele>905.32578</ele>
        <time>2022-04-25T13:24:30.861Z</time>
      </trkpt>
      <trkpt lat="41.70202" lon="20.64858">
        <ele>905.719298</ele>
        <time>2022-04-25T13:24:32.904Z</time>
      </trkpt>
      <trkpt lat="41.70191" lon="20.64848">
        <ele>905.508905</ele>
        <time>2022-04-25T13:24:34.882Z</time>
      </trkpt>
      <trkpt lat="41.70178" lon="20.64837">
        <ele>905.26367</ele>
        <time>2022-04-25T13:24:36.881Z</time>
      </trkpt>
      <trkpt lat="41.70165" lon="20.64829">
        <ele>905.039679</ele>
        <time>2022-04-25T13:24:38.884Z</time>
      </trkpt>
      <trkpt lat="41.70151" lon="20.64822">
        <ele>904.795645</ele>
        <time>2022-04-25T13:24:40.894Z</time>
      </trkpt>
      <trkpt lat="41.70138" lon="20.64814">
        <ele>904.572023</ele>
        <time>2022-04-25T13:24:42.878Z</time>
      </trkpt>
      <trkpt lat="41.70126" lon="20.64809">
        <ele>904.361115</ele>
        <time>2022-04-25T13:24:44.871Z</time>
      </trkpt>
      <trkpt lat="41.70114" lon="20.64805">
        <ele>904.169447</ele>
        <time>2022-04-25T13:24:46.890Z</time>
      </trkpt>
      <trkpt lat="41.70101" lon="20.64801">
        <ele>903.95522</ele>
        <time>2022-04-25T13:24:48.878Z</time>
      </trkpt>
      <trkpt lat="41.70089" lon="20.64798">
        <ele>903.761831</ele>
        <time>2022-04-25T13:24:50.873Z</time>
      </trkpt>
      <trkpt lat="41.70078" lon="20.64795">
        <ele>903.57679</ele>
        <time>2022-04-25T13:24:52.883Z</time>
      </trkpt>
      <trkpt lat="41.70067" lon="20.64794">
        <ele>903.403643</ele>
        <time>2022-04-25T13:24:54.902Z</time>
      </trkpt>
      <trkpt lat="41.70056" lon="20.64794">
        <ele>903.229192</ele>
        <time>2022-04-25T13:24:56.883Z</time>
      </trkpt>
      <trkpt lat="41.70046" lon="20.64792">
        <ele>903.073081</ele>
        <time>2022-04-25T13:24:58.893Z</time>
      </trkpt>
      <trkpt lat="41.70037" lon="20.64792">
        <ele>902.922669</ele>
        <time>2022-04-25T13:25:00.924Z</time>
      </trkpt>
      <trkpt lat="41.70024" lon="20.64793">
        <ele>902.943073</ele>
        <time>2022-04-25T13:25:03.894Z</time>
      </trkpt>
      <trkpt lat="41.70014" lon="20.64793">
        <ele>902.999721</ele>
        <time>2022-04-25T13:25:05.879Z</time>
      </trkpt>
      <trkpt lat="41.70002" lon="20.64794">
        <ele>903.076376</ele>
        <time>2022-04-25T13:25:08.902Z</time>
      </trkpt>
      <trkpt lat="41.6999" lon="20.64796">
        <ele>903.150211</ele>
        <time>2022-04-25T13:25:11.908Z</time>
      </trkpt>
      <trkpt lat="41.69977" lon="20.64795">
        <ele>903.228669</ele>
        <time>2022-04-25T13:25:14.894Z</time>
      </trkpt>
      <trkpt lat="41.69965" lon="20.6479">
        <ele>903.302068</ele>
        <time>2022-04-25T13:25:17.924Z</time>
      </trkpt>
      <trkpt lat="41.69954" lon="20.64783">
        <ele>903.374119</ele>
        <time>2022-04-25T13:25:20.886Z</time>
      </trkpt>
      <trkpt lat="41.69943" lon="20.64777">
        <ele>903.444887</ele>
        <time>2022-04-25T13:25:23.889Z</time>
      </trkpt>
      <trkpt lat="41.69936" lon="20.64768">
        <ele>903.503606</ele>
        <time>2022-04-25T13:25:25.885Z</time>
      </trkpt>
      <trkpt lat="41.69928" lon="20.6476">
        <ele>903.563368</ele>
        <time>2022-04-25T13:25:27.874Z</time>
      </trkpt>
      <trkpt lat="41.69921" lon="20.64752">
        <ele>903.61906</ele>
        <time>2022-04-25T13:25:29.878Z</time>
      </trkpt>
      <trkpt lat="41.69913" lon="20.64746">
        <ele>903.677048</ele>
        <time>2022-04-25T13:25:31.882Z</time>
      </trkpt>
      <trkpt lat="41.69904" lon="20.64742">
        <ele>903.731511</ele>
        <time>2022-04-25T13:25:33.873Z</time>
      </trkpt>
      <trkpt lat="41.69895" lon="20.64741">
        <ele>903.78758</ele>
        <time>2022-04-25T13:25:35.879Z</time>
      </trkpt>
      <trkpt lat="41.69883" lon="20.6474">
        <ele>903.860483</ele>
        <time>2022-04-25T13:25:38.881Z</time>
      </trkpt>
      <trkpt lat="41.69871" lon="20.64738">
        <ele>903.934515</ele>
        <time>2022-04-25T13:25:41.881Z</time>
      </trkpt>
      <trkpt lat="41.69857" lon="20.64737">
        <ele>904.691578</ele>
        <time>2022-04-25T13:25:44.883Z</time>
      </trkpt>
      <trkpt lat="41.69848" lon="20.64736">
        <ele>905.550209</ele>
        <time>2022-04-25T13:25:46.865Z</time>
      </trkpt>
      <trkpt lat="41.69837" lon="20.64733">
        <ele>906.456754</ele>
        <time>2022-04-25T13:25:48.879Z</time>
      </trkpt>
      <trkpt lat="41.69827" lon="20.6473">
        <ele>907.385033</ele>
        <time>2022-04-25T13:25:50.899Z</time>
      </trkpt>
      <trkpt lat="41.69816" lon="20.64726">
        <ele>908.331621</ele>
        <time>2022-04-25T13:25:52.875Z</time>
      </trkpt>
      <trkpt lat="41.69806" lon="20.64723">
        <ele>909.222239</ele>
        <time>2022-04-25T13:25:54.893Z</time>
      </trkpt>
      <trkpt lat="41.69796" lon="20.64723">
        <ele>910.116213</ele>
        <time>2022-04-25T13:25:56.895Z</time>
      </trkpt>
      <trkpt lat="41.69785" lon="20.6472">
        <ele>911.074058</ele>
        <time>2022-04-25T13:25:58.882Z</time>
      </trkpt>
      <trkpt lat="41.69774" lon="20.64717">
        <ele>912.081239</ele>
        <time>2022-04-25T13:26:00.864Z</time>
      </trkpt>
      <trkpt lat="41.69763" lon="20.64713">
        <ele>913.06859</ele>
        <time>2022-04-25T13:26:02.915Z</time>
      </trkpt>
      <trkpt lat="41.69752" lon="20.64709">
        <ele>914.069782</ele>
        <time>2022-04-25T13:26:04.881Z</time>
      </trkpt>
      <trkpt lat="41.69742" lon="20.64706">
        <ele>914.962846</ele>
        <time>2022-04-25T13:26:06.879Z</time>
      </trkpt>
      <trkpt lat="41.69732" lon="20.64704">
        <ele>915.833027</ele>
        <time>2022-04-25T13:26:08.925Z</time>
      </trkpt>
      <trkpt lat="41.69719" lon="20.64703">
        <ele>916.97013</ele>
        <time>2022-04-25T13:26:11.878Z</time>
      </trkpt>
      <trkpt lat="41.69707" lon="20.64701">
        <ele>917.99923</ele>
        <time>2022-04-25T13:26:14.892Z</time>
      </trkpt>
      <trkpt lat="41.69695" lon="20.64699">
        <ele>919.031421</ele>
        <time>2022-04-25T13:26:17.871Z</time>
      </trkpt>
      <trkpt lat="41.69684" lon="20.64697">
        <ele>919.251504</ele>
        <time>2022-04-25T13:26:20.862Z</time>
      </trkpt>
      <trkpt lat="41.69672" lon="20.64697">
        <ele>918.479004</ele>
        <time>2022-04-25T13:26:23.874Z</time>
      </trkpt>
      <trkpt lat="41.69661" lon="20.64699">
        <ele>917.71558</ele>
        <time>2022-04-25T13:26:26.895Z</time>
      </trkpt>
      <trkpt lat="41.6965" lon="20.64703">
        <ele>916.973053</ele>
        <time>2022-04-25T13:26:29.877Z</time>
      </trkpt>
      <trkpt lat="41.69638" lon="20.64707">
        <ele>916.190082</ele>
        <time>2022-04-25T13:26:32.886Z</time>
      </trkpt>
      <trkpt lat="41.69629" lon="20.64709">
        <ele>915.583825</ele>
        <time>2022-04-25T13:26:34.883Z</time>
      </trkpt>
      <trkpt lat="41.69617" lon="20.64714">
        <ele>914.74277</ele>
        <time>2022-04-25T13:26:37.870Z</time>
      </trkpt>
      <trkpt lat="41.69608" lon="20.64715">
        <ele>914.149614</ele>
        <time>2022-04-25T13:26:39.889Z</time>
      </trkpt>
      <trkpt lat="41.69598" lon="20.64715">
        <ele>913.533747</ele>
        <time>2022-04-25T13:26:41.920Z</time>
      </trkpt>
      <trkpt lat="41.69587" lon="20.64715">
        <ele>912.754562</ele>
        <time>2022-04-25T13:26:44.876Z</time>
      </trkpt>
      <trkpt lat="41.69578" lon="20.64711">
        <ele>912.158567</ele>
        <time>2022-04-25T13:26:46.878Z</time>
      </trkpt>
      <trkpt lat="41.69569" lon="20.64706">
        <ele>911.554659</ele>
        <time>2022-04-25T13:26:48.882Z</time>
      </trkpt>
      <trkpt lat="41.6956" lon="20.64705">
        <ele>910.907732</ele>
        <time>2022-04-25T13:26:50.878Z</time>
      </trkpt>
      <trkpt lat="41.69549" lon="20.64706">
        <ele>910.222407</ele>
        <time>2022-04-25T13:26:52.935Z</time>
      </trkpt>
      <trkpt lat="41.69537" lon="20.64709">
        <ele>909.379796</ele>
        <time>2022-04-25T13:26:54.877Z</time>
      </trkpt>
      <trkpt lat="41.69525" lon="20.64711">
        <ele>908.615309</ele>
        <time>2022-04-25T13:26:56.899Z</time>
      </trkpt>
      <trkpt lat="41.69513" lon="20.64712">
        <ele>907.846724</ele>
        <time>2022-04-25T13:26:58.868Z</time>
      </trkpt>
      <trkpt lat="41.69502" lon="20.64712">
        <ele>907.192905</ele>
        <time>2022-04-25T13:27:00.879Z</time>
      </trkpt>
      <trkpt lat="41.6949" lon="20.64714">
        <ele>906.484096</ele>
        <time>2022-04-25T13:27:02.871Z</time>
      </trkpt>
      <trkpt lat="41.69477" lon="20.64719">
        <ele>905.736304</ele>
        <time>2022-04-25T13:27:04.874Z</time>
      </trkpt>
      <trkpt lat="41.69464" lon="20.64721">
        <ele>905.014447</ele>
        <time>2022-04-25T13:27:06.868Z</time>
      </trkpt>
      <trkpt lat="41.69451" lon="20.64723">
        <ele>904.228327</ele>
        <time>2022-04-25T13:27:08.883Z</time>
      </trkpt>
      <trkpt lat="41.69437" lon="20.64723">
        <ele>903.445167</ele>
        <time>2022-04-25T13:27:10.889Z</time>
      </trkpt>
      <trkpt lat="41.69425" lon="20.64724">
        <ele>902.727753</ele>
        <time>2022-04-25T13:27:12.883Z</time>
      </trkpt>
      <trkpt lat="41.69412" lon="20.64726">
        <ele>901.98718</ele>
        <time>2022-04-25T13:27:14.920Z</time>
      </trkpt>
      <trkpt lat="41.69398" lon="20.64728">
        <ele>901.201253</ele>
        <time>2022-04-25T13:27:16.872Z</time>
      </trkpt>
      <trkpt lat="41.69382" lon="20.64737">
        <ele>900.20509</ele>
        <time>2022-04-25T13:27:18.864Z</time>
      </trkpt>
      <trkpt lat="41.69373" lon="20.64741">
        <ele>899.68181</ele>
        <time>2022-04-25T13:27:19.889Z</time>
      </trkpt>
      <trkpt lat="41.69359" lon="20.64747">
        <ele>898.817096</ele>
        <time>2022-04-25T13:27:21.877Z</time>
      </trkpt>
      <trkpt lat="41.69347" lon="20.64753">
        <ele>898.092501</ele>
        <time>2022-04-25T13:27:23.884Z</time>
      </trkpt>
      <trkpt lat="41.69335" lon="20.64761">
        <ele>897.423525</ele>
        <time>2022-04-25T13:27:25.873Z</time>
      </trkpt>
      <trkpt lat="41.69324" lon="20.6477">
        <ele>897.112281</ele>
        <time>2022-04-25T13:27:27.871Z</time>
      </trkpt>
      <trkpt lat="41.69313" lon="20.64778">
        <ele>896.811613</ele>
        <time>2022-04-25T13:27:29.881Z</time>
      </trkpt>
      <trkpt lat="41.69304" lon="20.64786">
        <ele>896.544895</ele>
        <time>2022-04-25T13:27:31.915Z</time>
      </trkpt>
      <trkpt lat="41.69295" lon="20.64795">
        <ele>896.283486</ele>
        <time>2022-04-25T13:27:33.887Z</time>
      </trkpt>
      <trkpt lat="41.69287" lon="20.64804">
        <ele>896.028224</ele>
        <time>2022-04-25T13:27:35.881Z</time>
      </trkpt>
      <trkpt lat="41.6928" lon="20.64812">
        <ele>895.801164</ele>
        <time>2022-04-25T13:27:37.901Z</time>
      </trkpt>
      <trkpt lat="41.69271" lon="20.64825">
        <ele>895.492457</ele>
        <time>2022-04-25T13:27:40.884Z</time>
      </trkpt>
      <trkpt lat="41.69262" lon="20.64837">
        <ele>895.174176</ele>
        <time>2022-04-25T13:27:43.893Z</time>
      </trkpt>
      <trkpt lat="41.69254" lon="20.64846">
        <ele>894.925731</ele>
        <time>2022-04-25T13:27:45.882Z</time>
      </trkpt>
      <trkpt lat="41.69245" lon="20.64853">
        <ele>894.67276</ele>
        <time>2022-04-25T13:27:47.877Z</time>
      </trkpt>
      <trkpt lat="41.69233" lon="20.64859">
        <ele>894.360608</ele>
        <time>2022-04-25T13:27:50.877Z</time>
      </trkpt>
      <trkpt lat="41.69222" lon="20.64858">
        <ele>894.083805</ele>
        <time>2022-04-25T13:27:53.874Z</time>
      </trkpt>
      <trkpt lat="41.69212" lon="20.6486">
        <ele>893.8368</ele>
        <time>2022-04-25T13:27:56.891Z</time>
      </trkpt>
      <trkpt lat="41.69202" lon="20.64864">
        <ele>893.600514</ele>
        <time>2022-04-25T13:27:59.910Z</time>
      </trkpt>
      <trkpt lat="41.69193" lon="20.64867">
        <ele>893.359077</ele>
        <time>2022-04-25T13:28:02.881Z</time>
      </trkpt>
      <trkpt lat="41.69183" lon="20.64872">
        <ele>893.118819</ele>
        <time>2022-04-25T13:28:05.915Z</time>
      </trkpt>
      <trkpt lat="41.69171" lon="20.64878">
        <ele>892.947388</ele>
        <time>2022-04-25T13:28:08.896Z</time>
      </trkpt>
      <trkpt lat="41.69162" lon="20.64881">
        <ele>892.807195</ele>
        <time>2022-04-25T13:28:10.873Z</time>
      </trkpt>
      <trkpt lat="41.69152" lon="20.64884">
        <ele>892.676454</ele>
        <time>2022-04-25T13:28:12.883Z</time>
      </trkpt>
      <trkpt lat="41.69143" lon="20.64884">
        <ele>892.546359</ele>
        <time>2022-04-25T13:28:14.860Z</time>
      </trkpt>
      <trkpt lat="41.69131" lon="20.64887">
        <ele>892.364815</ele>
        <time>2022-04-25T13:28:17.868Z</time>
      </trkpt>
      <trkpt lat="41.69118" lon="20.6489">
        <ele>892.185145</ele>
        <time>2022-04-25T13:28:20.881Z</time>
      </trkpt>
      <trkpt lat="41.69109" lon="20.64895">
        <ele>892.045894</ele>
        <time>2022-04-25T13:28:22.898Z</time>
      </trkpt>
      <trkpt lat="41.69099" lon="20.64897">
        <ele>891.900489</ele>
        <time>2022-04-25T13:28:24.865Z</time>
      </trkpt>
      <trkpt lat="41.69088" lon="20.649">
        <ele>891.74477</ele>
        <time>2022-04-25T13:28:26.875Z</time>
      </trkpt>
      <trkpt lat="41.69078" lon="20.64904">
        <ele>891.596114</ele>
        <time>2022-04-25T13:28:28.920Z</time>
      </trkpt>
      <trkpt lat="41.69067" lon="20.64905">
        <ele>891.442051</ele>
        <time>2022-04-25T13:28:30.882Z</time>
      </trkpt>
      <trkpt lat="41.69056" lon="20.64905">
        <ele>891.29522</ele>
        <time>2022-04-25T13:28:32.883Z</time>
      </trkpt>
      <trkpt lat="41.69043" lon="20.64904">
        <ele>891.104625</ele>
        <time>2022-04-25T13:28:35.880Z</time>
      </trkpt>
      <trkpt lat="41.69032" lon="20.64906">
        <ele>890.952942</ele>
        <time>2022-04-25T13:28:37.882Z</time>
      </trkpt>
      <trkpt lat="41.69023" lon="20.64906">
        <ele>890.824257</ele>
        <time>2022-04-25T13:28:39.902Z</time>
      </trkpt>
      <trkpt lat="41.69014" lon="20.6491">
        <ele>890.687327</ele>
        <time>2022-04-25T13:28:41.882Z</time>
      </trkpt>
      <trkpt lat="41.69004" lon="20.64911">
        <ele>890.593068</ele>
        <time>2022-04-25T13:28:43.895Z</time>
      </trkpt>
      <trkpt lat="41.68993" lon="20.64913">
        <ele>890.548078</ele>
        <time>2022-04-25T13:28:45.921Z</time>
      </trkpt>
      <trkpt lat="41.68981" lon="20.64916">
        <ele>890.501943</ele>
        <time>2022-04-25T13:28:47.878Z</time>
      </trkpt>
      <trkpt lat="41.6897" lon="20.64916">
        <ele>890.458689</ele>
        <time>2022-04-25T13:28:49.875Z</time>
      </trkpt>
      <trkpt lat="41.68959" lon="20.64915">
        <ele>890.416947</ele>
        <time>2022-04-25T13:28:51.881Z</time>
      </trkpt>
      <trkpt lat="41.68949" lon="20.64915">
        <ele>890.377162</ele>
        <time>2022-04-25T13:28:53.883Z</time>
      </trkpt>
      <trkpt lat="41.68938" lon="20.64915">
        <ele>890.336589</ele>
        <time>2022-04-25T13:28:55.879Z</time>
      </trkpt>
      <trkpt lat="41.68928" lon="20.64916">
        <ele>890.296994</ele>
        <time>2022-04-25T13:28:57.874Z</time>
      </trkpt>
      <trkpt lat="41.68918" lon="20.64916">
        <ele>890.260304</ele>
        <time>2022-04-25T13:28:59.878Z</time>
      </trkpt>
      <trkpt lat="41.68908" lon="20.64915">
        <ele>890.220059</ele>
        <time>2022-04-25T13:29:01.890Z</time>
      </trkpt>
      <trkpt lat="41.68896" lon="20.64915">
        <ele>890.174101</ele>
        <time>2022-04-25T13:29:03.867Z</time>
      </trkpt>
      <trkpt lat="41.68883" lon="20.64913">
        <ele>890.124842</ele>
        <time>2022-04-25T13:29:05.887Z</time>
      </trkpt>
      <trkpt lat="41.6887" lon="20.64913">
        <ele>890.073082</ele>
        <time>2022-04-25T13:29:07.860Z</time>
      </trkpt>
      <trkpt lat="41.68858" lon="20.64915">
        <ele>890.025772</ele>
        <time>2022-04-25T13:29:09.887Z</time>
      </trkpt>
      <trkpt lat="41.68846" lon="20.64916">
        <ele>889.979774</ele>
        <time>2022-04-25T13:29:11.890Z</time>
      </trkpt>
      <trkpt lat="41.68835" lon="20.64916">
        <ele>889.936885</ele>
        <time>2022-04-25T13:29:13.906Z</time>
      </trkpt>
      <trkpt lat="41.68823" lon="20.64911">
        <ele>889.959954</ele>
        <time>2022-04-25T13:29:15.887Z</time>
      </trkpt>
      <trkpt lat="41.68813" lon="20.64908">
        <ele>890.036139</ele>
        <time>2022-04-25T13:29:17.879Z</time>
      </trkpt>
      <trkpt lat="41.68802" lon="20.64909">
        <ele>890.121203</ele>
        <time>2022-04-25T13:29:19.889Z</time>
      </trkpt>
      <trkpt lat="41.68789" lon="20.64911">
        <ele>890.214516</ele>
        <time>2022-04-25T13:29:21.879Z</time>
      </trkpt>
      <trkpt lat="41.68776" lon="20.64911">
        <ele>890.312096</ele>
        <time>2022-04-25T13:29:23.887Z</time>
      </trkpt>
      <trkpt lat="41.68763" lon="20.64912">
        <ele>890.407636</ele>
        <time>2022-04-25T13:29:25.893Z</time>
      </trkpt>
      <trkpt lat="41.6875" lon="20.64912">
        <ele>890.508157</ele>
        <time>2022-04-25T13:29:27.888Z</time>
      </trkpt>
      <trkpt lat="41.68736" lon="20.64911">
        <ele>890.609173</ele>
        <time>2022-04-25T13:29:29.888Z</time>
      </trkpt>
      <trkpt lat="41.68723" lon="20.64907">
        <ele>890.708249</ele>
        <time>2022-04-25T13:29:31.879Z</time>
      </trkpt>
      <trkpt lat="41.6871" lon="20.64901">
        <ele>890.812059</ele>
        <time>2022-04-25T13:29:33.884Z</time>
      </trkpt>
      <trkpt lat="41.68696" lon="20.64895">
        <ele>890.919069</ele>
        <time>2022-04-25T13:29:35.876Z</time>
      </trkpt>
      <trkpt lat="41.68682" lon="20.6489">
        <ele>891.025895</ele>
        <time>2022-04-25T13:29:37.873Z</time>
      </trkpt>
      <trkpt lat="41.68668" lon="20.64889">
        <ele>891.130516</ele>
        <time>2022-04-25T13:29:39.874Z</time>
      </trkpt>
      <trkpt lat="41.68655" lon="20.64889">
        <ele>891.231049</ele>
        <time>2022-04-25T13:29:41.929Z</time>
      </trkpt>
      <trkpt lat="41.68642" lon="20.64889">
        <ele>891.028021</ele>
        <time>2022-04-25T13:29:43.882Z</time>
      </trkpt>
      <trkpt lat="41.68629" lon="20.6489">
        <ele>890.72994</ele>
        <time>2022-04-25T13:29:45.893Z</time>
      </trkpt>
      <trkpt lat="41.68616" lon="20.64889">
        <ele>890.425488</ele>
        <time>2022-04-25T13:29:47.893Z</time>
      </trkpt>
      <trkpt lat="41.68603" lon="20.64885">
        <ele>890.134416</ele>
        <time>2022-04-25T13:29:49.914Z</time>
      </trkpt>
      <trkpt lat="41.68591" lon="20.6488">
        <ele>889.847615</ele>
        <time>2022-04-25T13:29:51.877Z</time>
      </trkpt>
      <trkpt lat="41.68579" lon="20.64875">
        <ele>889.547224</ele>
        <time>2022-04-25T13:29:53.881Z</time>
      </trkpt>
      <trkpt lat="41.68565" lon="20.6487">
        <ele>889.220973</ele>
        <time>2022-04-25T13:29:55.870Z</time>
      </trkpt>
      <trkpt lat="41.6855" lon="20.64865">
        <ele>888.868215</ele>
        <time>2022-04-25T13:29:57.876Z</time>
      </trkpt>
      <trkpt lat="41.68536" lon="20.64862">
        <ele>888.551689</ele>
        <time>2022-04-25T13:29:59.883Z</time>
      </trkpt>
      <trkpt lat="41.68524" lon="20.64856">
        <ele>888.242616</ele>
        <time>2022-04-25T13:30:01.874Z</time>
      </trkpt>
      <trkpt lat="41.6851" lon="20.64848">
        <ele>887.910364</ele>
        <time>2022-04-25T13:30:03.903Z</time>
      </trkpt>
      <trkpt lat="41.68496" lon="20.64844">
        <ele>887.584016</ele>
        <time>2022-04-25T13:30:05.914Z</time>
      </trkpt>
      <trkpt lat="41.68482" lon="20.64842">
        <ele>887.261918</ele>
        <time>2022-04-25T13:30:07.873Z</time>
      </trkpt>
      <trkpt lat="41.68469" lon="20.6484">
        <ele>887.082884</ele>
        <time>2022-04-25T13:30:09.893Z</time>
      </trkpt>
      <trkpt lat="41.68456" lon="20.64839">
        <ele>886.987464</ele>
        <time>2022-04-25T13:30:11.865Z</time>
      </trkpt>
      <trkpt lat="41.68443" lon="20.64838">
        <ele>886.895758</ele>
        <time>2022-04-25T13:30:13.875Z</time>
      </trkpt>
      <trkpt lat="41.68431" lon="20.64836">
        <ele>886.803236</ele>
        <time>2022-04-25T13:30:15.871Z</time>
      </trkpt>
      <trkpt lat="41.68418" lon="20.64833">
        <ele>886.707725</ele>
        <time>2022-04-25T13:30:17.877Z</time>
      </trkpt>
      <trkpt lat="41.68408" lon="20.64831">
        <ele>886.628609</ele>
        <time>2022-04-25T13:30:19.876Z</time>
      </trkpt>
      <trkpt lat="41.68398" lon="20.6483">
        <ele>886.559732</ele>
        <time>2022-04-25T13:30:21.876Z</time>
      </trkpt>
      <trkpt lat="41.68389" lon="20.64828">
        <ele>886.492014</ele>
        <time>2022-04-25T13:30:23.914Z</time>
      </trkpt>
      <trkpt lat="41.68377" lon="20.64823">
        <ele>886.400472</ele>
        <time>2022-04-25T13:30:26.881Z</time>
      </trkpt>
      <trkpt lat="41.68365" lon="20.64817">
        <ele>886.303831</ele>
        <time>2022-04-25T13:30:29.888Z</time>
      </trkpt>
      <trkpt lat="41.68353" lon="20.64811">
        <ele>886.211303</ele>
        <time>2022-04-25T13:30:32.887Z</time>
      </trkpt>
      <trkpt lat="41.68343" lon="20.64806">
        <ele>886.128777</ele>
        <time>2022-04-25T13:30:35.874Z</time>
      </trkpt>
      <trkpt lat="41.68333" lon="20.64804">
        <ele>886.056971</ele>
        <time>2022-04-25T13:30:38.882Z</time>
      </trkpt>
      <trkpt lat="41.68324" lon="20.64803">
        <ele>885.990225</ele>
        <time>2022-04-25T13:30:41.935Z</time>
      </trkpt>
      <trkpt lat="41.68313" lon="20.64803">
        <ele>885.904447</ele>
        <time>2022-04-25T13:30:45.903Z</time>
      </trkpt>
      <trkpt lat="41.68304" lon="20.64801">
        <ele>885.837749</ele>
        <time>2022-04-25T13:30:48.883Z</time>
      </trkpt>
      <trkpt lat="41.68293" lon="20.648">
        <ele>885.840491</ele>
        <time>2022-04-25T13:30:52.882Z</time>
      </trkpt>
      <trkpt lat="41.68282" lon="20.64798">
        <ele>885.868015</ele>
        <time>2022-04-25T13:30:56.906Z</time>
      </trkpt>
      <trkpt lat="41.68272" lon="20.64797">
        <ele>885.894447</ele>
        <time>2022-04-25T13:31:00.898Z</time>
      </trkpt>
      <trkpt lat="41.68261" lon="20.64797">
        <ele>885.923159</ele>
        <time>2022-04-25T13:31:04.875Z</time>
      </trkpt>
      <trkpt lat="41.68251" lon="20.64794">
        <ele>885.947555</ele>
        <time>2022-04-25T13:31:07.871Z</time>
      </trkpt>
      <trkpt lat="41.68238" lon="20.64791">
        <ele>885.982277</ele>
        <time>2022-04-25T13:31:10.882Z</time>
      </trkpt>
      <trkpt lat="41.68229" lon="20.64788">
        <ele>886.005856</ele>
        <time>2022-04-25T13:31:12.887Z</time>
      </trkpt>
      <trkpt lat="41.68217" lon="20.64782">
        <ele>886.039088</ele>
        <time>2022-04-25T13:31:15.880Z</time>
      </trkpt>
      <trkpt lat="41.68208" lon="20.64778">
        <ele>886.063322</ele>
        <time>2022-04-25T13:31:17.917Z</time>
      </trkpt>
      <trkpt lat="41.68199" lon="20.64775">
        <ele>886.088857</ele>
        <time>2022-04-25T13:31:19.864Z</time>
      </trkpt>
      <trkpt lat="41.68188" lon="20.64773">
        <ele>886.117421</ele>
        <time>2022-04-25T13:31:21.912Z</time>
      </trkpt>
      <trkpt lat="41.68175" lon="20.64771">
        <ele>886.150113</ele>
        <time>2022-04-25T13:31:23.878Z</time>
      </trkpt>
      <trkpt lat="41.68162" lon="20.64773">
        <ele>886.184312</ele>
        <time>2022-04-25T13:31:25.874Z</time>
      </trkpt>
      <trkpt lat="41.68147" lon="20.64774">
        <ele>886.222464</ele>
        <time>2022-04-25T13:31:27.879Z</time>
      </trkpt>
      <trkpt lat="41.68132" lon="20.64776">
        <ele>886.262436</ele>
        <time>2022-04-25T13:31:29.883Z</time>
      </trkpt>
      <trkpt lat="41.68116" lon="20.64776">
        <ele>886.242895</ele>
        <time>2022-04-25T13:31:31.868Z</time>
      </trkpt>
      <trkpt lat="41.68107" lon="20.64774">
        <ele>886.19488</ele>
        <time>2022-04-25T13:31:32.872Z</time>
      </trkpt>
      <trkpt lat="41.68098" lon="20.6477">
        <ele>886.145542</ele>
        <time>2022-04-25T13:31:33.869Z</time>
      </trkpt>
      <trkpt lat="41.68089" lon="20.64765">
        <ele>886.091626</ele>
        <time>2022-04-25T13:31:34.886Z</time>
      </trkpt>
      <trkpt lat="41.6808" lon="20.64757">
        <ele>886.036974</ele>
        <time>2022-04-25T13:31:35.898Z</time>
      </trkpt>
      <trkpt lat="41.68072" lon="20.64748">
        <ele>885.984456</ele>
        <time>2022-04-25T13:31:36.915Z</time>
      </trkpt>
      <trkpt lat="41.68066" lon="20.64739">
        <ele>885.936888</ele>
        <time>2022-04-25T13:31:37.896Z</time>
      </trkpt>
      <trkpt lat="41.68055" lon="20.64722">
        <ele>885.848214</ele>
        <time>2022-04-25T13:31:39.881Z</time>
      </trkpt>
      <trkpt lat="41.68045" lon="20.64707">
        <ele>885.769248</ele>
        <time>2022-04-25T13:31:41.866Z</time>
      </trkpt>
      <trkpt lat="41.68034" lon="20.64692">
        <ele>885.685637</ele>
        <time>2022-04-25T13:31:43.862Z</time>
      </trkpt>
      <trkpt lat="41.68023" lon="20.64677">
        <ele>885.603774</ele>
        <time>2022-04-25T13:31:45.903Z</time>
      </trkpt>
      <trkpt lat="41.68011" lon="20.64667">
        <ele>885.532326</ele>
        <time>2022-04-25T13:31:47.901Z</time>
      </trkpt>
      <trkpt lat="41.68" lon="20.64658">
        <ele>885.46146</ele>
        <time>2022-04-25T13:31:49.869Z</time>
      </trkpt>
      <trkpt lat="41.67988" lon="20.64652">
        <ele>885.394333</ele>
        <time>2022-04-25T13:31:51.861Z</time>
      </trkpt>
      <trkpt lat="41.67976" lon="20.64649">
        <ele>885.291199</ele>
        <time>2022-04-25T13:31:53.863Z</time>
      </trkpt>
      <trkpt lat="41.67965" lon="20.64648">
        <ele>884.906094</ele>
        <time>2022-04-25T13:31:55.879Z</time>
      </trkpt>
      <trkpt lat="41.67956" lon="20.64646">
        <ele>884.562471</ele>
        <time>2022-04-25T13:31:57.862Z</time>
      </trkpt>
      <trkpt lat="41.67947" lon="20.64644">
        <ele>884.23737</ele>
        <time>2022-04-25T13:31:59.884Z</time>
      </trkpt>
      <trkpt lat="41.67938" lon="20.64641">
        <ele>883.914954</ele>
        <time>2022-04-25T13:32:01.873Z</time>
      </trkpt>
      <trkpt lat="41.67927" lon="20.64636">
        <ele>883.502148</ele>
        <time>2022-04-25T13:32:04.866Z</time>
      </trkpt>
      <trkpt lat="41.67917" lon="20.64632">
        <ele>883.128328</ele>
        <time>2022-04-25T13:32:07.880Z</time>
      </trkpt>
      <trkpt lat="41.67906" lon="20.6463">
        <ele>882.749344</ele>
        <time>2022-04-25T13:32:10.914Z</time>
      </trkpt>
      <trkpt lat="41.67895" lon="20.64627">
        <ele>882.353292</ele>
        <time>2022-04-25T13:32:13.868Z</time>
      </trkpt>
      <trkpt lat="41.67883" lon="20.64622">
        <ele>881.899312</ele>
        <time>2022-04-25T13:32:16.906Z</time>
      </trkpt>
      <trkpt lat="41.67875" lon="20.64615">
        <ele>881.545394</ele>
        <time>2022-04-25T13:32:18.870Z</time>
      </trkpt>
      <trkpt lat="41.67867" lon="20.64604">
        <ele>881.150941</ele>
        <time>2022-04-25T13:32:20.868Z</time>
      </trkpt>
      <trkpt lat="41.67859" lon="20.64594">
        <ele>880.76347</ele>
        <time>2022-04-25T13:32:22.868Z</time>
      </trkpt>
      <trkpt lat="41.6785" lon="20.64584">
        <ele>880.362765</ele>
        <time>2022-04-25T13:32:24.887Z</time>
      </trkpt>
      <trkpt lat="41.67839" lon="20.64576">
        <ele>879.888966</ele>
        <time>2022-04-25T13:32:26.889Z</time>
      </trkpt>
      <trkpt lat="41.67824" lon="20.64572">
        <ele>879.35951</ele>
        <time>2022-04-25T13:32:28.878Z</time>
      </trkpt>
      <trkpt lat="41.6781" lon="20.64568">
        <ele>878.893486</ele>
        <time>2022-04-25T13:32:30.893Z</time>
      </trkpt>
      <trkpt lat="41.67794" lon="20.64565">
        <ele>878.556609</ele>
        <time>2022-04-25T13:32:32.894Z</time>
      </trkpt>
      <trkpt lat="41.67778" lon="20.64557">
        <ele>878.215815</ele>
        <time>2022-04-25T13:32:34.868Z</time>
      </trkpt>
      <trkpt lat="41.67765" lon="20.64546">
        <ele>877.889311</ele>
        <time>2022-04-25T13:32:36.897Z</time>
      </trkpt>
      <trkpt lat="41.67751" lon="20.64532">
        <ele>877.528362</ele>
        <time>2022-04-25T13:32:38.909Z</time>
      </trkpt>
      <trkpt lat="41.67743" lon="20.64525">
        <ele>877.336412</ele>
        <time>2022-04-25T13:32:39.900Z</time>
      </trkpt>
      <trkpt lat="41.67734" lon="20.64519">
        <ele>877.136054</ele>
        <time>2022-04-25T13:32:40.892Z</time>
      </trkpt>
      <trkpt lat="41.67725" lon="20.64514">
        <ele>876.936423</ele>
        <time>2022-04-25T13:32:41.888Z</time>
      </trkpt>
      <trkpt lat="41.67716" lon="20.64509">
        <ele>876.730877</ele>
        <time>2022-04-25T13:32:42.877Z</time>
      </trkpt>
      <trkpt lat="41.67707" lon="20.64505">
        <ele>876.52443</ele>
        <time>2022-04-25T13:32:43.873Z</time>
      </trkpt>
      <trkpt lat="41.67697" lon="20.64502">
        <ele>876.32203</ele>
        <time>2022-04-25T13:32:44.887Z</time>
      </trkpt>
      <trkpt lat="41.67688" lon="20.64499">
        <ele>876.12362</ele>
        <time>2022-04-25T13:32:45.871Z</time>
      </trkpt>
      <trkpt lat="41.67678" lon="20.64494">
        <ele>875.920208</ele>
        <time>2022-04-25T13:32:46.882Z</time>
      </trkpt>
      <trkpt lat="41.67669" lon="20.64488">
        <ele>875.711697</ele>
        <time>2022-04-25T13:32:47.872Z</time>
      </trkpt>
      <trkpt lat="41.6766" lon="20.64482">
        <ele>875.498129</ele>
        <time>2022-04-25T13:32:48.886Z</time>
      </trkpt>
      <trkpt lat="41.6765" lon="20.64476">
        <ele>875.279645</ele>
        <time>2022-04-25T13:32:49.873Z</time>
      </trkpt>
      <trkpt lat="41.67641" lon="20.64471">
        <ele>875.330085</ele>
        <time>2022-04-25T13:32:50.865Z</time>
      </trkpt>
      <trkpt lat="41.67631" lon="20.64467">
        <ele>875.428805</ele>
        <time>2022-04-25T13:32:51.850Z</time>
      </trkpt>
      <trkpt lat="41.67621" lon="20.64464">
        <ele>875.528487</ele>
        <time>2022-04-25T13:32:52.852Z</time>
      </trkpt>
      <trkpt lat="41.67611" lon="20.64462">
        <ele>875.627238</ele>
        <time>2022-04-25T13:32:53.863Z</time>
      </trkpt>
      <trkpt lat="41.67601" lon="20.6446">
        <ele>875.725417</ele>
        <time>2022-04-25T13:32:54.863Z</time>
      </trkpt>
      <trkpt lat="41.67591" lon="20.64458">
        <ele>875.821193</ele>
        <time>2022-04-25T13:32:55.847Z</time>
      </trkpt>
      <trkpt lat="41.67582" lon="20.64456">
        <ele>875.91663</ele>
        <time>2022-04-25T13:32:56.862Z</time>
      </trkpt>
      <trkpt lat="41.67572" lon="20.64453">
        <ele>876.011119</ele>
        <time>2022-04-25T13:32:57.867Z</time>
      </trkpt>
      <trkpt lat="41.67563" lon="20.64451">
        <ele>876.100728</ele>
        <time>2022-04-25T13:32:58.897Z</time>
      </trkpt>
      <trkpt lat="41.67554" lon="20.64448">
        <ele>876.187795</ele>
        <time>2022-04-25T13:32:59.882Z</time>
      </trkpt>
      <trkpt lat="41.67545" lon="20.64445">
        <ele>876.278171</ele>
        <time>2022-04-25T13:33:00.881Z</time>
      </trkpt>
      <trkpt lat="41.67536" lon="20.64443">
        <ele>876.365483</ele>
        <time>2022-04-25T13:33:01.874Z</time>
      </trkpt>
      <trkpt lat="41.6752" lon="20.64441">
        <ele>876.523837</ele>
        <time>2022-04-25T13:33:03.902Z</time>
      </trkpt>
      <trkpt lat="41.67504" lon="20.64437">
        <ele>876.681913</ele>
        <time>2022-04-25T13:33:05.868Z</time>
      </trkpt>
      <trkpt lat="41.67488" lon="20.64436">
        <ele>876.836781</ele>
        <time>2022-04-25T13:33:07.894Z</time>
      </trkpt>
      <trkpt lat="41.67473" lon="20.64432">
        <ele>876.98455</ele>
        <time>2022-04-25T13:33:09.882Z</time>
      </trkpt>
      <trkpt lat="41.6746" lon="20.64422">
        <ele>875.702295</ele>
        <time>2022-04-25T13:33:11.885Z</time>
      </trkpt>
      <trkpt lat="41.67446" lon="20.64408">
        <ele>874.222015</ele>
        <time>2022-04-25T13:33:13.870Z</time>
      </trkpt>
      <trkpt lat="41.67433" lon="20.64394">
        <ele>872.856541</ele>
        <time>2022-04-25T13:33:15.881Z</time>
      </trkpt>
      <trkpt lat="41.67422" lon="20.64382">
        <ele>871.618483</ele>
        <time>2022-04-25T13:33:17.860Z</time>
      </trkpt>
      <trkpt lat="41.67411" lon="20.64368">
        <ele>870.351128</ele>
        <time>2022-04-25T13:33:19.869Z</time>
      </trkpt>
      <trkpt lat="41.67402" lon="20.6435">
        <ele>868.970997</ele>
        <time>2022-04-25T13:33:21.867Z</time>
      </trkpt>
      <trkpt lat="41.67393" lon="20.64332">
        <ele>867.592617</ele>
        <time>2022-04-25T13:33:23.857Z</time>
      </trkpt>
      <trkpt lat="41.67389" lon="20.64321">
        <ele>866.82432</ele>
        <time>2022-04-25T13:33:24.873Z</time>
      </trkpt>
      <trkpt lat="41.6738" lon="20.64301">
        <ele>865.348822</ele>
        <time>2022-04-25T13:33:26.875Z</time>
      </trkpt>
      <trkpt lat="41.67373" lon="20.64283">
        <ele>864.072286</ele>
        <time>2022-04-25T13:33:28.863Z</time>
      </trkpt>
      <trkpt lat="41.67367" lon="20.64268">
        <ele>862.947357</ele>
        <time>2022-04-25T13:33:30.884Z</time>
      </trkpt>
      <trkpt lat="41.67361" lon="20.64255">
        <ele>862.023499</ele>
        <time>2022-04-25T13:33:32.880Z</time>
      </trkpt>
      <trkpt lat="41.67355" lon="20.64244">
        <ele>861.734853</ele>
        <time>2022-04-25T13:33:34.871Z</time>
      </trkpt>
      <trkpt lat="41.67348" lon="20.64232">
        <ele>861.83294</ele>
        <time>2022-04-25T13:33:36.855Z</time>
      </trkpt>
      <trkpt lat="41.67341" lon="20.64222">
        <ele>861.9194</ele>
        <time>2022-04-25T13:33:38.937Z</time>
      </trkpt>
      <trkpt lat="41.67331" lon="20.64212">
        <ele>862.031128</ele>
        <time>2022-04-25T13:33:41.884Z</time>
      </trkpt>
      <trkpt lat="41.67321" lon="20.64204">
        <ele>862.122093</ele>
        <time>2022-04-25T13:33:43.873Z</time>
      </trkpt>
      <trkpt lat="41.6731" lon="20.64197">
        <ele>862.228146</ele>
        <time>2022-04-25T13:33:45.864Z</time>
      </trkpt>
      <trkpt lat="41.67297" lon="20.64192">
        <ele>862.345072</ele>
        <time>2022-04-25T13:33:47.873Z</time>
      </trkpt>
      <trkpt lat="41.67283" lon="20.64188">
        <ele>862.464141</ele>
        <time>2022-04-25T13:33:49.910Z</time>
      </trkpt>
      <trkpt lat="41.6727" lon="20.64183">
        <ele>862.582895</ele>
        <time>2022-04-25T13:33:51.870Z</time>
      </trkpt>
      <trkpt lat="41.67257" lon="20.64181">
        <ele>862.696289</ele>
        <time>2022-04-25T13:33:53.863Z</time>
      </trkpt>
      <trkpt lat="41.67244" lon="20.6418">
        <ele>862.806553</ele>
        <time>2022-04-25T13:33:55.863Z</time>
      </trkpt>
      <trkpt lat="41.67231" lon="20.64179">
        <ele>862.917879</ele>
        <time>2022-04-25T13:33:57.882Z</time>
      </trkpt>
      <trkpt lat="41.67217" lon="20.64174">
        <ele>863.038971</ele>
        <time>2022-04-25T13:33:59.863Z</time>
      </trkpt>
      <trkpt lat="41.67204" lon="20.64172">
        <ele>863.149579</ele>
        <time>2022-04-25T13:34:01.878Z</time>
      </trkpt>
      <trkpt lat="41.67192" lon="20.6417">
        <ele>863.291442</ele>
        <time>2022-04-25T13:34:03.860Z</time>
      </trkpt>
      <trkpt lat="41.67181" lon="20.64168">
        <ele>863.464669</ele>
        <time>2022-04-25T13:34:05.871Z</time>
      </trkpt>
      <trkpt lat="41.67171" lon="20.64171">
        <ele>863.614557</ele>
        <time>2022-04-25T13:34:07.870Z</time>
      </trkpt>
      <trkpt lat="41.6716" lon="20.6417">
        <ele>863.782518</ele>
        <time>2022-04-25T13:34:09.887Z</time>
      </trkpt>
      <trkpt lat="41.67148" lon="20.64168">
        <ele>863.976482</ele>
        <time>2022-04-25T13:34:11.943Z</time>
      </trkpt>
      <trkpt lat="41.67135" lon="20.64167">
        <ele>864.169372</ele>
        <time>2022-04-25T13:34:13.867Z</time>
      </trkpt>
      <trkpt lat="41.67124" lon="20.64166">
        <ele>864.337649</ele>
        <time>2022-04-25T13:34:15.878Z</time>
      </trkpt>
      <trkpt lat="41.67113" lon="20.64162">
        <ele>864.516113</ele>
        <time>2022-04-25T13:34:17.863Z</time>
      </trkpt>
      <trkpt lat="41.67101" lon="20.64157">
        <ele>864.708298</ele>
        <time>2022-04-25T13:34:19.866Z</time>
      </trkpt>
      <trkpt lat="41.6709" lon="20.64155">
        <ele>864.876294</ele>
        <time>2022-04-25T13:34:21.862Z</time>
      </trkpt>
      <trkpt lat="41.67081" lon="20.64149">
        <ele>865.02639</ele>
        <time>2022-04-25T13:34:23.877Z</time>
      </trkpt>
      <trkpt lat="41.67073" lon="20.6414">
        <ele>865.196274</ele>
        <time>2022-04-25T13:34:25.874Z</time>
      </trkpt>
      <trkpt lat="41.67065" lon="20.6413">
        <ele>865.369538</ele>
        <time>2022-04-25T13:34:27.870Z</time>
      </trkpt>
      <trkpt lat="41.67056" lon="20.64115">
        <ele>865.582568</ele>
        <time>2022-04-25T13:34:29.858Z</time>
      </trkpt>
      <trkpt lat="41.6705" lon="20.64096">
        <ele>865.818857</ele>
        <time>2022-04-25T13:34:31.892Z</time>
      </trkpt>
      <trkpt lat="41.67043" lon="20.64077">
        <ele>866.112944</ele>
        <time>2022-04-25T13:34:33.925Z</time>
      </trkpt>
      <trkpt lat="41.67037" lon="20.64058">
        <ele>866.513246</ele>
        <time>2022-04-25T13:34:35.880Z</time>
      </trkpt>
      <trkpt lat="41.67035" lon="20.64043">
        <ele>866.805204</ele>
        <time>2022-04-25T13:34:37.872Z</time>
      </trkpt>
      <trkpt lat="41.67033" lon="20.64029">
        <ele>867.073697</ele>
        <time>2022-04-25T13:34:39.865Z</time>
      </trkpt>
      <trkpt lat="41.67031" lon="20.64015">
        <ele>867.334281</ele>
        <time>2022-04-25T13:34:41.858Z</time>
      </trkpt>
      <trkpt lat="41.67028" lon="20.64001">
        <ele>867.624236</ele>
        <time>2022-04-25T13:34:43.876Z</time>
      </trkpt>
      <trkpt lat="41.67025" lon="20.63986">
        <ele>867.902577</ele>
        <time>2022-04-25T13:34:45.868Z</time>
      </trkpt>
      <trkpt lat="41.67022" lon="20.63971">
        <ele>868.197467</ele>
        <time>2022-04-25T13:34:47.881Z</time>
      </trkpt>
      <trkpt lat="41.67021" lon="20.63956">
        <ele>868.490779</ele>
        <time>2022-04-25T13:34:49.896Z</time>
      </trkpt>
      <trkpt lat="41.67018" lon="20.63942">
        <ele>868.77344</ele>
        <time>2022-04-25T13:34:51.864Z</time>
      </trkpt>
      <trkpt lat="41.67014" lon="20.63928">
        <ele>869.051577</ele>
        <time>2022-04-25T13:34:53.865Z</time>
      </trkpt>
      <trkpt lat="41.67007" lon="20.63911">
        <ele>869.414378</ele>
        <time>2022-04-25T13:34:55.916Z</time>
      </trkpt>
      <trkpt lat="41.66998" lon="20.63897">
        <ele>869.782296</ele>
        <time>2022-04-25T13:34:57.877Z</time>
      </trkpt>
      <trkpt lat="41.66989" lon="20.63884">
        <ele>870.122567</ele>
        <time>2022-04-25T13:34:59.889Z</time>
      </trkpt>
      <trkpt lat="41.66977" lon="20.6387">
        <ele>870.520498</ele>
        <time>2022-04-25T13:35:01.933Z</time>
      </trkpt>
      <trkpt lat="41.66967" lon="20.63857">
        <ele>870.150092</ele>
        <time>2022-04-25T13:35:03.867Z</time>
      </trkpt>
      <trkpt lat="41.66958" lon="20.63845">
        <ele>869.724013</ele>
        <time>2022-04-25T13:35:05.886Z</time>
      </trkpt>
      <trkpt lat="41.6695" lon="20.63835">
        <ele>869.342121</ele>
        <time>2022-04-25T13:35:07.869Z</time>
      </trkpt>
      <trkpt lat="41.66943" lon="20.63825">
        <ele>868.992729</ele>
        <time>2022-04-25T13:35:09.869Z</time>
      </trkpt>
      <trkpt lat="41.66937" lon="20.63815">
        <ele>868.658079</ele>
        <time>2022-04-25T13:35:11.880Z</time>
      </trkpt>
      <trkpt lat="41.66929" lon="20.63806">
        <ele>868.312279</ele>
        <time>2022-04-25T13:35:13.890Z</time>
      </trkpt>
      <trkpt lat="41.66922" lon="20.63796">
        <ele>867.965402</ele>
        <time>2022-04-25T13:35:15.868Z</time>
      </trkpt>
      <trkpt lat="41.66915" lon="20.63787">
        <ele>867.614282</ele>
        <time>2022-04-25T13:35:17.869Z</time>
      </trkpt>
      <trkpt lat="41.66908" lon="20.63776">
        <ele>867.261269</ele>
        <time>2022-04-25T13:35:19.870Z</time>
      </trkpt>
      <trkpt lat="41.66901" lon="20.63766">
        <ele>866.905431</ele>
        <time>2022-04-25T13:35:21.862Z</time>
      </trkpt>
      <trkpt lat="41.66893" lon="20.63756">
        <ele>866.545825</ele>
        <time>2022-04-25T13:35:23.933Z</time>
      </trkpt>
      <trkpt lat="41.66887" lon="20.63746">
        <ele>866.188652</ele>
        <time>2022-04-25T13:35:25.866Z</time>
      </trkpt>
      <trkpt lat="41.6688" lon="20.63734">
        <ele>865.817658</ele>
        <time>2022-04-25T13:35:27.856Z</time>
      </trkpt>
      <trkpt lat="41.66873" lon="20.63722">
        <ele>865.428164</ele>
        <time>2022-04-25T13:35:29.874Z</time>
      </trkpt>
      <trkpt lat="41.66865" lon="20.63711">
        <ele>865.034099</ele>
        <time>2022-04-25T13:35:31.858Z</time>
      </trkpt>
      <trkpt lat="41.66858" lon="20.63699">
        <ele>864.65476</ele>
        <time>2022-04-25T13:35:33.873Z</time>
      </trkpt>
      <trkpt lat="41.66851" lon="20.63688">
        <ele>863.924464</ele>
        <time>2022-04-25T13:35:35.873Z</time>
      </trkpt>
      <trkpt lat="41.66843" lon="20.63678">
        <ele>862.679046</ele>
        <time>2022-04-25T13:35:37.874Z</time>
      </trkpt>
      <trkpt lat="41.66835" lon="20.63668">
        <ele>861.389856</ele>
        <time>2022-04-25T13:35:39.877Z</time>
      </trkpt>
      <trkpt lat="41.66828" lon="20.63658">
        <ele>860.203902</ele>
        <time>2022-04-25T13:35:41.869Z</time>
      </trkpt>
      <trkpt lat="41.6682" lon="20.63647">
        <ele>858.915774</ele>
        <time>2022-04-25T13:35:43.859Z</time>
      </trkpt>
      <trkpt lat="41.66813" lon="20.63637">
        <ele>857.699091</ele>
        <time>2022-04-25T13:35:45.932Z</time>
      </trkpt>
      <trkpt lat="41.66806" lon="20.63627">
        <ele>856.52723</ele>
        <time>2022-04-25T13:35:47.873Z</time>
      </trkpt>
      <trkpt lat="41.66798" lon="20.63618">
        <ele>855.278501</ele>
        <time>2022-04-25T13:35:49.874Z</time>
      </trkpt>
      <trkpt lat="41.66791" lon="20.63608">
        <ele>854.080348</ele>
        <time>2022-04-25T13:35:51.918Z</time>
      </trkpt>
      <trkpt lat="41.66784" lon="20.63599">
        <ele>852.909832</ele>
        <time>2022-04-25T13:35:53.862Z</time>
      </trkpt>
      <trkpt lat="41.66777" lon="20.63589">
        <ele>851.709313</ele>
        <time>2022-04-25T13:35:55.888Z</time>
      </trkpt>
      <trkpt lat="41.66771" lon="20.63578">
        <ele>850.600029</ele>
        <time>2022-04-25T13:35:57.885Z</time>
      </trkpt>
      <trkpt lat="41.66767" lon="20.63567">
        <ele>849.493097</ele>
        <time>2022-04-25T13:35:59.870Z</time>
      </trkpt>
      <trkpt lat="41.66765" lon="20.63551">
        <ele>848.132919</ele>
        <time>2022-04-25T13:36:01.872Z</time>
      </trkpt>
      <trkpt lat="41.66764" lon="20.63535">
        <ele>846.703802</ele>
        <time>2022-04-25T13:36:03.872Z</time>
      </trkpt>
      <trkpt lat="41.66764" lon="20.63519">
        <ele>845.328867</ele>
        <time>2022-04-25T13:36:05.866Z</time>
      </trkpt>
      <trkpt lat="41.66764" lon="20.63504">
        <ele>843.961442</ele>
        <time>2022-04-25T13:36:07.880Z</time>
      </trkpt>
      <trkpt lat="41.66765" lon="20.63487">
        <ele>843.128004</ele>
        <time>2022-04-25T13:36:09.873Z</time>
      </trkpt>
      <trkpt lat="41.66766" lon="20.63472">
        <ele>842.651725</ele>
        <time>2022-04-25T13:36:11.859Z</time>
      </trkpt>
      <trkpt lat="41.66764" lon="20.6346">
        <ele>842.24089</ele>
        <time>2022-04-25T13:36:13.918Z</time>
      </trkpt>
      <trkpt lat="41.66759" lon="20.63446">
        <ele>841.76915</ele>
        <time>2022-04-25T13:36:15.885Z</time>
      </trkpt>
      <trkpt lat="41.66753" lon="20.63433">
        <ele>841.282717</ele>
        <time>2022-04-25T13:36:17.910Z</time>
      </trkpt>
      <trkpt lat="41.66744" lon="20.6342">
        <ele>840.728763</ele>
        <time>2022-04-25T13:36:19.876Z</time>
      </trkpt>
      <trkpt lat="41.66733" lon="20.63407">
        <ele>840.11981</ele>
        <time>2022-04-25T13:36:21.911Z</time>
      </trkpt>
      <trkpt lat="41.66723" lon="20.63392">
        <ele>839.470367</ele>
        <time>2022-04-25T13:36:23.874Z</time>
      </trkpt>
      <trkpt lat="41.66713" lon="20.63377">
        <ele>838.840243</ele>
        <time>2022-04-25T13:36:25.867Z</time>
      </trkpt>
      <trkpt lat="41.66705" lon="20.63358">
        <ele>838.140583</ele>
        <time>2022-04-25T13:36:27.940Z</time>
      </trkpt>
      <trkpt lat="41.66702" lon="20.63345">
        <ele>837.723721</ele>
        <time>2022-04-25T13:36:28.881Z</time>
      </trkpt>
      <trkpt lat="41.66699" lon="20.63331">
        <ele>837.254284</ele>
        <time>2022-04-25T13:36:29.889Z</time>
      </trkpt>
      <trkpt lat="41.66695" lon="20.63315">
        <ele>836.738921</ele>
        <time>2022-04-25T13:36:30.872Z</time>
      </trkpt>
      <trkpt lat="41.66693" lon="20.63299">
        <ele>836.232159</ele>
        <time>2022-04-25T13:36:31.871Z</time>
      </trkpt>
      <trkpt lat="41.66692" lon="20.63284">
        <ele>835.647316</ele>
        <time>2022-04-25T13:36:32.861Z</time>
      </trkpt>
      <trkpt lat="41.66692" lon="20.63269">
        <ele>834.800156</ele>
        <time>2022-04-25T13:36:33.861Z</time>
      </trkpt>
      <trkpt lat="41.66692" lon="20.63253">
        <ele>833.952996</ele>
        <time>2022-04-25T13:36:34.881Z</time>
      </trkpt>
      <trkpt lat="41.66692" lon="20.63238">
        <ele>833.094741</ele>
        <time>2022-04-25T13:36:35.869Z</time>
      </trkpt>
      <trkpt lat="41.66693" lon="20.63222">
        <ele>832.23954</ele>
        <time>2022-04-25T13:36:36.872Z</time>
      </trkpt>
      <trkpt lat="41.66694" lon="20.63208">
        <ele>831.439748</ele>
        <time>2022-04-25T13:36:37.874Z</time>
      </trkpt>
      <trkpt lat="41.66694" lon="20.63194">
        <ele>830.70249</ele>
        <time>2022-04-25T13:36:38.932Z</time>
      </trkpt>
      <trkpt lat="41.66694" lon="20.63181">
        <ele>829.981731</ele>
        <time>2022-04-25T13:36:39.861Z</time>
      </trkpt>
      <trkpt lat="41.66694" lon="20.63168">
        <ele>829.250083</ele>
        <time>2022-04-25T13:36:40.859Z</time>
      </trkpt>
      <trkpt lat="41.66694" lon="20.63154">
        <ele>828.501826</ele>
        <time>2022-04-25T13:36:41.861Z</time>
      </trkpt>
      <trkpt lat="41.66694" lon="20.63141">
        <ele>827.759214</ele>
        <time>2022-04-25T13:36:42.895Z</time>
      </trkpt>
      <trkpt lat="41.66695" lon="20.63128">
        <ele>827.043765</ele>
        <time>2022-04-25T13:36:43.873Z</time>
      </trkpt>
      <trkpt lat="41.66695" lon="20.63115">
        <ele>826.339505</ele>
        <time>2022-04-25T13:36:44.916Z</time>
      </trkpt>
      <trkpt lat="41.66695" lon="20.63103">
        <ele>825.657402</ele>
        <time>2022-04-25T13:36:45.859Z</time>
      </trkpt>
      <trkpt lat="41.66693" lon="20.6308">
        <ele>824.388019</ele>
        <time>2022-04-25T13:36:47.879Z</time>
      </trkpt>
      <trkpt lat="41.66689" lon="20.63058">
        <ele>823.140745</ele>
        <time>2022-04-25T13:36:49.914Z</time>
      </trkpt>
      <trkpt lat="41.66683" lon="20.63035">
        <ele>822.318338</ele>
        <time>2022-04-25T13:36:51.874Z</time>
      </trkpt>
      <trkpt lat="41.66677" lon="20.63015">
        <ele>821.835638</ele>
        <time>2022-04-25T13:36:53.875Z</time>
      </trkpt>
      <trkpt lat="41.66673" lon="20.62997">
        <ele>821.423501</ele>
        <time>2022-04-25T13:36:55.890Z</time>
      </trkpt>
      <trkpt lat="41.66672" lon="20.62977">
        <ele>820.980128</ele>
        <time>2022-04-25T13:36:57.870Z</time>
      </trkpt>
      <trkpt lat="41.66672" lon="20.62955">
        <ele>820.510093</ele>
        <time>2022-04-25T13:36:59.865Z</time>
      </trkpt>
      <trkpt lat="41.66671" lon="20.62933">
        <ele>820.028956</ele>
        <time>2022-04-25T13:37:01.877Z</time>
      </trkpt>
      <trkpt lat="41.6667" lon="20.6291">
        <ele>819.521701</ele>
        <time>2022-04-25T13:37:03.865Z</time>
      </trkpt>
      <trkpt lat="41.6667" lon="20.62886">
        <ele>818.996513</ele>
        <time>2022-04-25T13:37:05.877Z</time>
      </trkpt>
      <trkpt lat="41.66669" lon="20.62874">
        <ele>818.727549</ele>
        <time>2022-04-25T13:37:06.870Z</time>
      </trkpt>
      <trkpt lat="41.66669" lon="20.62861">
        <ele>818.458331</ele>
        <time>2022-04-25T13:37:07.881Z</time>
      </trkpt>
      <trkpt lat="41.66668" lon="20.62849">
        <ele>818.192848</ele>
        <time>2022-04-25T13:37:08.879Z</time>
      </trkpt>
      <trkpt lat="41.66666" lon="20.62826">
        <ele>817.678097</ele>
        <time>2022-04-25T13:37:10.861Z</time>
      </trkpt>
      <trkpt lat="41.66665" lon="20.62805">
        <ele>817.262482</ele>
        <time>2022-04-25T13:37:12.861Z</time>
      </trkpt>
      <trkpt lat="41.66661" lon="20.62786">
        <ele>816.972198</ele>
        <time>2022-04-25T13:37:14.875Z</time>
      </trkpt>
      <trkpt lat="41.66654" lon="20.62764">
        <ele>816.604902</ele>
        <time>2022-04-25T13:37:16.858Z</time>
      </trkpt>
      <trkpt lat="41.6665" lon="20.62743">
        <ele>816.267679</ele>
        <time>2022-04-25T13:37:18.861Z</time>
      </trkpt>
      <trkpt lat="41.66648" lon="20.62723">
        <ele>815.94943</ele>
        <time>2022-04-25T13:37:20.863Z</time>
      </trkpt>
      <trkpt lat="41.66647" lon="20.62703">
        <ele>815.650617</ele>
        <time>2022-04-25T13:37:22.873Z</time>
      </trkpt>
      <trkpt lat="41.66647" lon="20.62683">
        <ele>815.342572</ele>
        <time>2022-04-25T13:37:24.883Z</time>
      </trkpt>
      <trkpt lat="41.66644" lon="20.62664">
        <ele>815.033106</ele>
        <time>2022-04-25T13:37:26.880Z</time>
      </trkpt>
      <trkpt lat="41.66638" lon="20.62644">
        <ele>814.706253</ele>
        <time>2022-04-25T13:37:28.923Z</time>
      </trkpt>
      <trkpt lat="41.66634" lon="20.62626">
        <ele>814.424802</ele>
        <time>2022-04-25T13:37:30.909Z</time>
      </trkpt>
      <trkpt lat="41.66632" lon="20.62609">
        <ele>814.144354</ele>
        <time>2022-04-25T13:37:32.877Z</time>
      </trkpt>
      <trkpt lat="41.66629" lon="20.62592">
        <ele>813.881433</ele>
        <time>2022-04-25T13:37:34.925Z</time>
      </trkpt>
      <trkpt lat="41.66629" lon="20.62576">
        <ele>813.726891</ele>
        <time>2022-04-25T13:37:36.890Z</time>
      </trkpt>
      <trkpt lat="41.66627" lon="20.62561">
        <ele>814.367984</ele>
        <time>2022-04-25T13:37:38.890Z</time>
      </trkpt>
      <trkpt lat="41.66625" lon="20.62547">
        <ele>815.007338</ele>
        <time>2022-04-25T13:37:40.894Z</time>
      </trkpt>
      <trkpt lat="41.66625" lon="20.62532">
        <ele>815.620034</ele>
        <time>2022-04-25T13:37:42.897Z</time>
      </trkpt>
      <trkpt lat="41.66623" lon="20.6252">
        <ele>816.168086</ele>
        <time>2022-04-25T13:37:44.891Z</time>
      </trkpt>
      <trkpt lat="41.66622" lon="20.62507">
        <ele>816.69419</ele>
        <time>2022-04-25T13:37:46.883Z</time>
      </trkpt>
      <trkpt lat="41.66621" lon="20.62495">
        <ele>817.218591</ele>
        <time>2022-04-25T13:37:48.874Z</time>
      </trkpt>
      <trkpt lat="41.66619" lon="20.6248">
        <ele>817.895308</ele>
        <time>2022-04-25T13:37:51.887Z</time>
      </trkpt>
      <trkpt lat="41.66616" lon="20.62466">
        <ele>818.520573</ele>
        <time>2022-04-25T13:37:54.894Z</time>
      </trkpt>
      <trkpt lat="41.66612" lon="20.62452">
        <ele>819.151391</ele>
        <time>2022-04-25T13:37:57.865Z</time>
      </trkpt>
      <trkpt lat="41.66608" lon="20.6244">
        <ele>819.721836</ele>
        <time>2022-04-25T13:38:00.913Z</time>
      </trkpt>
      <trkpt lat="41.66604" lon="20.62424">
        <ele>820.415029</ele>
        <time>2022-04-25T13:38:04.938Z</time>
      </trkpt>
      <trkpt lat="41.666" lon="20.62409">
        <ele>821.116559</ele>
        <time>2022-04-25T13:38:07.885Z</time>
      </trkpt>
      <trkpt lat="41.66595" lon="20.62394">
        <ele>821.827126</ele>
        <time>2022-04-25T13:38:10.890Z</time>
      </trkpt>
      <trkpt lat="41.66591" lon="20.62383">
        <ele>822.357923</ele>
        <time>2022-04-25T13:38:12.921Z</time>
      </trkpt>
      <trkpt lat="41.66585" lon="20.6237">
        <ele>822.97677</ele>
        <time>2022-04-25T13:38:14.880Z</time>
      </trkpt>
      <trkpt lat="41.66579" lon="20.62358">
        <ele>823.610865</ele>
        <time>2022-04-25T13:38:16.887Z</time>
      </trkpt>
      <trkpt lat="41.66573" lon="20.62348">
        <ele>823.95411</ele>
        <time>2022-04-25T13:38:18.878Z</time>
      </trkpt>
      <trkpt lat="41.66568" lon="20.62337">
        <ele>823.945497</ele>
        <time>2022-04-25T13:38:20.907Z</time>
      </trkpt>
      <trkpt lat="41.66563" lon="20.62327">
        <ele>823.936591</ele>
        <time>2022-04-25T13:38:22.875Z</time>
      </trkpt>
      <trkpt lat="41.66558" lon="20.62316">
        <ele>823.92747</ele>
        <time>2022-04-25T13:38:24.921Z</time>
      </trkpt>
      <trkpt lat="41.66552" lon="20.623">
        <ele>823.914529</ele>
        <time>2022-04-25T13:38:27.876Z</time>
      </trkpt>
      <trkpt lat="41.66548" lon="20.62287">
        <ele>823.904922</ele>
        <time>2022-04-25T13:38:29.914Z</time>
      </trkpt>
      <trkpt lat="41.66545" lon="20.62275">
        <ele>823.895512</ele>
        <time>2022-04-25T13:38:31.879Z</time>
      </trkpt>
      <trkpt lat="41.66541" lon="20.62261">
        <ele>823.885271</ele>
        <time>2022-04-25T13:38:33.870Z</time>
      </trkpt>
      <trkpt lat="41.66537" lon="20.62249">
        <ele>823.87572</ele>
        <time>2022-04-25T13:38:35.873Z</time>
      </trkpt>
      <trkpt lat="41.66532" lon="20.62237">
        <ele>823.865778</ele>
        <time>2022-04-25T13:38:37.872Z</time>
      </trkpt>
      <trkpt lat="41.66527" lon="20.62224">
        <ele>823.855523</ele>
        <time>2022-04-25T13:38:39.890Z</time>
      </trkpt>
      <trkpt lat="41.66521" lon="20.62212">
        <ele>823.84469</ele>
        <time>2022-04-25T13:38:41.893Z</time>
      </trkpt>
      <trkpt lat="41.66512" lon="20.62198">
        <ele>823.831835</ele>
        <time>2022-04-25T13:38:43.881Z</time>
      </trkpt>
      <trkpt lat="41.66504" lon="20.62184">
        <ele>823.819005</ele>
        <time>2022-04-25T13:38:45.886Z</time>
      </trkpt>
      <trkpt lat="41.66496" lon="20.62169">
        <ele>823.805593</ele>
        <time>2022-04-25T13:38:47.872Z</time>
      </trkpt>
      <trkpt lat="41.6649" lon="20.62152">
        <ele>823.792305</ele>
        <time>2022-04-25T13:38:49.888Z</time>
      </trkpt>
      <trkpt lat="41.66485" lon="20.62134">
        <ele>823.444535</ele>
        <time>2022-04-25T13:38:51.885Z</time>
      </trkpt>
      <trkpt lat="41.6648" lon="20.62116">
        <ele>822.789169</ele>
        <time>2022-04-25T13:38:53.863Z</time>
      </trkpt>
      <trkpt lat="41.66476" lon="20.62098">
        <ele>822.108632</ele>
        <time>2022-04-25T13:38:55.879Z</time>
      </trkpt>
      <trkpt lat="41.66476" lon="20.62076">
        <ele>821.340762</ele>
        <time>2022-04-25T13:38:57.869Z</time>
      </trkpt>
      <trkpt lat="41.66479" lon="20.62054">
        <ele>820.557662</ele>
        <time>2022-04-25T13:38:59.892Z</time>
      </trkpt>
      <trkpt lat="41.66485" lon="20.62036">
        <ele>819.879232</ele>
        <time>2022-04-25T13:39:01.882Z</time>
      </trkpt>
      <trkpt lat="41.6649" lon="20.6202">
        <ele>819.272566</ele>
        <time>2022-04-25T13:39:03.918Z</time>
      </trkpt>
      <trkpt lat="41.66496" lon="20.62006">
        <ele>818.711905</ele>
        <time>2022-04-25T13:39:05.879Z</time>
      </trkpt>
      <trkpt lat="41.66502" lon="20.61994">
        <ele>818.205021</ele>
        <time>2022-04-25T13:39:07.873Z</time>
      </trkpt>
      <trkpt lat="41.66507" lon="20.6198">
        <ele>817.66424</ele>
        <time>2022-04-25T13:39:09.872Z</time>
      </trkpt>
      <trkpt lat="41.66512" lon="20.61967">
        <ele>817.159085</ele>
        <time>2022-04-25T13:39:11.873Z</time>
      </trkpt>
      <trkpt lat="41.66516" lon="20.61955">
        <ele>816.669555</ele>
        <time>2022-04-25T13:39:13.910Z</time>
      </trkpt>
      <trkpt lat="41.6652" lon="20.61943">
        <ele>816.209474</ele>
        <time>2022-04-25T13:39:15.889Z</time>
      </trkpt>
      <trkpt lat="41.66523" lon="20.61929">
        <ele>815.695322</ele>
        <time>2022-04-25T13:39:17.873Z</time>
      </trkpt>
      <trkpt lat="41.66528" lon="20.61917">
        <ele>815.416783</ele>
        <time>2022-04-25T13:39:19.882Z</time>
      </trkpt>
      <trkpt lat="41.66533" lon="20.61905">
        <ele>815.661381</ele>
        <time>2022-04-25T13:39:21.874Z</time>
      </trkpt>
      <trkpt lat="41.66535" lon="20.61892">
        <ele>815.903373</ele>
        <time>2022-04-25T13:39:23.886Z</time>
      </trkpt>
      <trkpt lat="41.66539" lon="20.61878">
        <ele>816.183128</ele>
        <time>2022-04-25T13:39:26.894Z</time>
      </trkpt>
      <trkpt lat="41.66545" lon="20.61867">
        <ele>816.423672</ele>
        <time>2022-04-25T13:39:29.885Z</time>
      </trkpt>
      <trkpt lat="41.66551" lon="20.61855">
        <ele>816.69056</ele>
        <time>2022-04-25T13:39:32.898Z</time>
      </trkpt>
      <trkpt lat="41.66555" lon="20.61843">
        <ele>816.938421</ele>
        <time>2022-04-25T13:39:35.914Z</time>
      </trkpt>
      <trkpt lat="41.6656" lon="20.61827">
        <ele>817.241504</ele>
        <time>2022-04-25T13:39:38.874Z</time>
      </trkpt>
      <trkpt lat="41.66564" lon="20.61816">
        <ele>817.477959</ele>
        <time>2022-04-25T13:39:40.887Z</time>
      </trkpt>
      <trkpt lat="41.66568" lon="20.61804">
        <ele>817.716526</ele>
        <time>2022-04-25T13:39:42.882Z</time>
      </trkpt>
      <trkpt lat="41.66571" lon="20.61792">
        <ele>817.949862</ele>
        <time>2022-04-25T13:39:44.920Z</time>
      </trkpt>
      <trkpt lat="41.66574" lon="20.61779">
        <ele>818.190156</ele>
        <time>2022-04-25T13:39:46.881Z</time>
      </trkpt>
      <trkpt lat="41.66577" lon="20.61768">
        <ele>818.411565</ele>
        <time>2022-04-25T13:39:48.884Z</time>
      </trkpt>
      <trkpt lat="41.66583" lon="20.61753">
        <ele>818.723589</ele>
        <time>2022-04-25T13:39:51.891Z</time>
      </trkpt>
      <trkpt lat="41.66586" lon="20.61741">
        <ele>818.945864</ele>
        <time>2022-04-25T13:39:53.885Z</time>
      </trkpt>
      <trkpt lat="41.66588" lon="20.6173">
        <ele>819.169495</ele>
        <time>2022-04-25T13:39:55.884Z</time>
      </trkpt>
      <trkpt lat="41.6659" lon="20.61717">
        <ele>819.411426</ele>
        <time>2022-04-25T13:39:57.869Z</time>
      </trkpt>
      <trkpt lat="41.66594" lon="20.61702">
        <ele>819.710133</ele>
        <time>2022-04-25T13:40:00.899Z</time>
      </trkpt>
      <trkpt lat="41.66599" lon="20.61687">
        <ele>819.933437</ele>
        <time>2022-04-25T13:40:03.867Z</time>
      </trkpt>
      <trkpt lat="41.66604" lon="20.6167">
        <ele>820.167416</ele>
        <time>2022-04-25T13:40:06.871Z</time>
      </trkpt>
      <trkpt lat="41.66608" lon="20.61659">
        <ele>820.326319</ele>
        <time>2022-04-25T13:40:08.901Z</time>
      </trkpt>
      <trkpt lat="41.66612" lon="20.61648">
        <ele>820.489984</ele>
        <time>2022-04-25T13:40:10.892Z</time>
      </trkpt>
      <trkpt lat="41.66616" lon="20.61637">
        <ele>820.650658</ele>
        <time>2022-04-25T13:40:12.886Z</time>
      </trkpt>
      <trkpt lat="41.6662" lon="20.61625">
        <ele>820.816437</ele>
        <time>2022-04-25T13:40:14.875Z</time>
      </trkpt>
      <trkpt lat="41.66626" lon="20.6161">
        <ele>821.043443</ele>
        <time>2022-04-25T13:40:17.890Z</time>
      </trkpt>
      <trkpt lat="41.66632" lon="20.61595">
        <ele>821.2611</ele>
        <time>2022-04-25T13:40:20.918Z</time>
      </trkpt>
      <trkpt lat="41.66636" lon="20.61578">
        <ele>821.485366</ele>
        <time>2022-04-25T13:40:23.873Z</time>
      </trkpt>
      <trkpt lat="41.66641" lon="20.61567">
        <ele>821.662018</ele>
        <time>2022-04-25T13:40:25.878Z</time>
      </trkpt>
      <trkpt lat="41.66648" lon="20.61556">
        <ele>821.837859</ele>
        <time>2022-04-25T13:40:27.859Z</time>
      </trkpt>
      <trkpt lat="41.66655" lon="20.61546">
        <ele>822.020814</ele>
        <time>2022-04-25T13:40:29.900Z</time>
      </trkpt>
      <trkpt lat="41.66664" lon="20.61537">
        <ele>822.210985</ele>
        <time>2022-04-25T13:40:31.931Z</time>
      </trkpt>
      <trkpt lat="41.66672" lon="20.61526">
        <ele>822.412766</ele>
        <time>2022-04-25T13:40:33.892Z</time>
      </trkpt>
      <trkpt lat="41.66681" lon="20.61516">
        <ele>822.613762</ele>
        <time>2022-04-25T13:40:35.867Z</time>
      </trkpt>
      <trkpt lat="41.66691" lon="20.61505">
        <ele>822.839745</ele>
        <time>2022-04-25T13:40:37.885Z</time>
      </trkpt>
      <trkpt lat="41.667" lon="20.61492">
        <ele>822.474893</ele>
        <time>2022-04-25T13:40:39.900Z</time>
      </trkpt>
      <trkpt lat="41.6671" lon="20.61481">
        <ele>821.927669</ele>
        <time>2022-04-25T13:40:41.873Z</time>
      </trkpt>
      <trkpt lat="41.66721" lon="20.61471">
        <ele>821.379438</ele>
        <time>2022-04-25T13:40:43.889Z</time>
      </trkpt>
      <trkpt lat="41.66732" lon="20.6146">
        <ele>820.792967</ele>
        <time>2022-04-25T13:40:45.898Z</time>
      </trkpt>
      <trkpt lat="41.66742" lon="20.61446">
        <ele>820.196572</ele>
        <time>2022-04-25T13:40:47.918Z</time>
      </trkpt>
      <trkpt lat="41.66749" lon="20.6143">
        <ele>819.626359</ele>
        <time>2022-04-25T13:40:49.888Z</time>
      </trkpt>
      <trkpt lat="41.66754" lon="20.61413">
        <ele>819.055474</ele>
        <time>2022-04-25T13:40:51.879Z</time>
      </trkpt>
      <trkpt lat="41.66759" lon="20.61395">
        <ele>818.443328</ele>
        <time>2022-04-25T13:40:53.880Z</time>
      </trkpt>
      <trkpt lat="41.66765" lon="20.61376">
        <ele>817.826798</ele>
        <time>2022-04-25T13:40:55.884Z</time>
      </trkpt>
      <trkpt lat="41.66769" lon="20.61358">
        <ele>817.235183</ele>
        <time>2022-04-25T13:40:57.878Z</time>
      </trkpt>
      <trkpt lat="41.66774" lon="20.61342">
        <ele>816.677145</ele>
        <time>2022-04-25T13:40:59.892Z</time>
      </trkpt>
      <trkpt lat="41.66778" lon="20.61325">
        <ele>816.123746</ele>
        <time>2022-04-25T13:41:01.877Z</time>
      </trkpt>
      <trkpt lat="41.66781" lon="20.61309">
        <ele>815.601964</ele>
        <time>2022-04-25T13:41:03.866Z</time>
      </trkpt>
      <trkpt lat="41.66783" lon="20.61292">
        <ele>815.023252</ele>
        <time>2022-04-25T13:41:05.894Z</time>
      </trkpt>
      <trkpt lat="41.66785" lon="20.61276">
        <ele>814.387</ele>
        <time>2022-04-25T13:41:07.873Z</time>
      </trkpt>
      <trkpt lat="41.66785" lon="20.61259">
        <ele>813.769312</ele>
        <time>2022-04-25T13:41:09.918Z</time>
      </trkpt>
      <trkpt lat="41.66784" lon="20.61243">
        <ele>813.162482</ele>
        <time>2022-04-25T13:41:11.869Z</time>
      </trkpt>
      <trkpt lat="41.66785" lon="20.61226">
        <ele>812.498644</ele>
        <time>2022-04-25T13:41:13.885Z</time>
      </trkpt>
      <trkpt lat="41.66785" lon="20.6121">
        <ele>811.884577</ele>
        <time>2022-04-25T13:41:15.888Z</time>
      </trkpt>
      <trkpt lat="41.66785" lon="20.61194">
        <ele>811.29324</ele>
        <time>2022-04-25T13:41:17.881Z</time>
      </trkpt>
      <trkpt lat="41.66786" lon="20.61177">
        <ele>810.662896</ele>
        <time>2022-04-25T13:41:19.914Z</time>
      </trkpt>
      <trkpt lat="41.66787" lon="20.61162">
        <ele>810.069582</ele>
        <time>2022-04-25T13:41:21.870Z</time>
      </trkpt>
      <trkpt lat="41.66788" lon="20.61148">
        <ele>809.530321</ele>
        <time>2022-04-25T13:41:23.876Z</time>
      </trkpt>
      <trkpt lat="41.66789" lon="20.61134">
        <ele>808.99826</ele>
        <time>2022-04-25T13:41:25.883Z</time>
      </trkpt>
      <trkpt lat="41.6679" lon="20.6112">
        <ele>808.490611</ele>
        <time>2022-04-25T13:41:27.875Z</time>
      </trkpt>
      <trkpt lat="41.66791" lon="20.61106">
        <ele>807.959122</ele>
        <time>2022-04-25T13:41:29.892Z</time>
      </trkpt>
      <trkpt lat="41.66793" lon="20.61092">
        <ele>807.419927</ele>
        <time>2022-04-25T13:41:31.891Z</time>
      </trkpt>
      <trkpt lat="41.66795" lon="20.6108">
        <ele>806.955143</ele>
        <time>2022-04-25T13:41:33.876Z</time>
      </trkpt>
      <trkpt lat="41.66797" lon="20.61063">
        <ele>806.299267</ele>
        <time>2022-04-25T13:41:36.878Z</time>
      </trkpt>
      <trkpt lat="41.66798" lon="20.61047">
        <ele>807.305054</ele>
        <time>2022-04-25T13:41:39.881Z</time>
      </trkpt>
      <trkpt lat="41.66797" lon="20.61032">
        <ele>808.317344</ele>
        <time>2022-04-25T13:41:42.882Z</time>
      </trkpt>
      <trkpt lat="41.66796" lon="20.61017">
        <ele>809.303178</ele>
        <time>2022-04-25T13:41:45.889Z</time>
      </trkpt>
      <trkpt lat="41.66794" lon="20.61004">
        <ele>810.193749</ele>
        <time>2022-04-25T13:41:48.876Z</time>
      </trkpt>
      <trkpt lat="41.66792" lon="20.60989">
        <ele>811.196099</ele>
        <time>2022-04-25T13:41:52.907Z</time>
      </trkpt>
      <trkpt lat="41.6679" lon="20.60973">
        <ele>812.274184</ele>
        <time>2022-04-25T13:41:56.871Z</time>
      </trkpt>
      <trkpt lat="41.66788" lon="20.6096">
        <ele>813.190551</ele>
        <time>2022-04-25T13:42:00.943Z</time>
      </trkpt>
      <trkpt lat="41.66784" lon="20.60947">
        <ele>814.09087</ele>
        <time>2022-04-25T13:42:03.885Z</time>
      </trkpt>
      <trkpt lat="41.66779" lon="20.60934">
        <ele>815.120252</ele>
        <time>2022-04-25T13:42:06.891Z</time>
      </trkpt>
      <trkpt lat="41.66774" lon="20.6092">
        <ele>816.147588</ele>
        <time>2022-04-25T13:42:09.890Z</time>
      </trkpt>
      <trkpt lat="41.66768" lon="20.60907">
        <ele>817.168613</ele>
        <time>2022-04-25T13:42:12.900Z</time>
      </trkpt>
      <trkpt lat="41.66762" lon="20.60893">
        <ele>818.237736</ele>
        <time>2022-04-25T13:42:16.880Z</time>
      </trkpt>
      <trkpt lat="41.66757" lon="20.60881">
        <ele>819.16357</ele>
        <time>2022-04-25T13:42:19.872Z</time>
      </trkpt>
      <trkpt lat="41.66751" lon="20.6087">
        <ele>820.129515</ele>
        <time>2022-04-25T13:42:22.899Z</time>
      </trkpt>
      <trkpt lat="41.66744" lon="20.60858">
        <ele>821.09546</ele>
        <time>2022-04-25T13:42:25.878Z</time>
      </trkpt>
      <trkpt lat="41.66738" lon="20.60847">
        <ele>822.013082</ele>
        <time>2022-04-25T13:42:28.872Z</time>
      </trkpt>
      <trkpt lat="41.66733" lon="20.60834">
        <ele>821.977537</ele>
        <time>2022-04-25T13:42:31.880Z</time>
      </trkpt>
      <trkpt lat="41.66726" lon="20.60821">
        <ele>821.291142</ele>
        <time>2022-04-25T13:42:34.888Z</time>
      </trkpt>
      <trkpt lat="41.6672" lon="20.60807">
        <ele>820.575816</ele>
        <time>2022-04-25T13:42:37.872Z</time>
      </trkpt>
      <trkpt lat="41.66715" lon="20.60794">
        <ele>819.901043</ele>
        <time>2022-04-25T13:42:40.922Z</time>
      </trkpt>
      <trkpt lat="41.6671" lon="20.60779">
        <ele>819.184671</ele>
        <time>2022-04-25T13:42:43.882Z</time>
      </trkpt>
      <trkpt lat="41.66705" lon="20.60766">
        <ele>818.512707</ele>
        <time>2022-04-25T13:42:46.894Z</time>
      </trkpt>
      <trkpt lat="41.66699" lon="20.60752">
        <ele>817.80895</ele>
        <time>2022-04-25T13:42:49.865Z</time>
      </trkpt>
      <trkpt lat="41.66693" lon="20.60737">
        <ele>817.056026</ele>
        <time>2022-04-25T13:42:52.879Z</time>
      </trkpt>
      <trkpt lat="41.66689" lon="20.60722">
        <ele>816.3198</ele>
        <time>2022-04-25T13:42:55.926Z</time>
      </trkpt>
      <trkpt lat="41.66684" lon="20.60705">
        <ele>815.52972</ele>
        <time>2022-04-25T13:42:58.878Z</time>
      </trkpt>
      <trkpt lat="41.6668" lon="20.60694">
        <ele>814.998437</ele>
        <time>2022-04-25T13:43:00.892Z</time>
      </trkpt>
      <trkpt lat="41.66677" lon="20.6068">
        <ele>814.346876</ele>
        <time>2022-04-25T13:43:03.883Z</time>
      </trkpt>
      <trkpt lat="41.66673" lon="20.60666">
        <ele>813.67109</ele>
        <time>2022-04-25T13:43:06.896Z</time>
      </trkpt>
      <trkpt lat="41.6667" lon="20.60649">
        <ele>812.918229</ele>
        <time>2022-04-25T13:43:09.875Z</time>
      </trkpt>
      <trkpt lat="41.66667" lon="20.60633">
        <ele>812.18382</ele>
        <time>2022-04-25T13:43:12.893Z</time>
      </trkpt>
      <trkpt lat="41.66664" lon="20.60618">
        <ele>811.444425</ele>
        <time>2022-04-25T13:43:15.927Z</time>
      </trkpt>
      <trkpt lat="41.6666" lon="20.60603">
        <ele>810.571804</ele>
        <time>2022-04-25T13:43:18.881Z</time>
      </trkpt>
      <trkpt lat="41.66658" lon="20.60585">
        <ele>809.610245</ele>
        <time>2022-04-25T13:43:21.892Z</time>
      </trkpt>
      <trkpt lat="41.66656" lon="20.60571">
        <ele>808.883357</ele>
        <time>2022-04-25T13:43:23.872Z</time>
      </trkpt>
      <trkpt lat="41.66655" lon="20.60559">
        <ele>808.214394</ele>
        <time>2022-04-25T13:43:25.870Z</time>
      </trkpt>
      <trkpt lat="41.66653" lon="20.60542">
        <ele>807.29904</ele>
        <time>2022-04-25T13:43:28.886Z</time>
      </trkpt>
      <trkpt lat="41.66652" lon="20.60529">
        <ele>806.622136</ele>
        <time>2022-04-25T13:43:30.917Z</time>
      </trkpt>
      <trkpt lat="41.66651" lon="20.60511">
        <ele>805.684684</ele>
        <time>2022-04-25T13:43:33.889Z</time>
      </trkpt>
      <trkpt lat="41.66649" lon="20.60499">
        <ele>805.02552</ele>
        <time>2022-04-25T13:43:35.884Z</time>
      </trkpt>
      <trkpt lat="41.66646" lon="20.60482">
        <ele>804.07735</ele>
        <time>2022-04-25T13:43:38.893Z</time>
      </trkpt>
      <trkpt lat="41.66643" lon="20.6047">
        <ele>803.428264</ele>
        <time>2022-04-25T13:43:40.881Z</time>
      </trkpt>
      <trkpt lat="41.6664" lon="20.60458">
        <ele>802.764778</ele>
        <time>2022-04-25T13:43:42.894Z</time>
      </trkpt>
      <trkpt lat="41.66637" lon="20.60446">
        <ele>802.062045</ele>
        <time>2022-04-25T13:43:44.892Z</time>
      </trkpt>
      <trkpt lat="41.66634" lon="20.60434">
        <ele>801.40636</ele>
        <time>2022-04-25T13:43:46.894Z</time>
      </trkpt>
      <trkpt lat="41.66631" lon="20.60422">
        <ele>800.743457</ele>
        <time>2022-04-25T13:43:48.894Z</time>
      </trkpt>
      <trkpt lat="41.66626" lon="20.6041">
        <ele>799.996544</ele>
        <time>2022-04-25T13:43:50.893Z</time>
      </trkpt>
      <trkpt lat="41.66619" lon="20.60398">
        <ele>799.232157</ele>
        <time>2022-04-25T13:43:52.918Z</time>
      </trkpt>
      <trkpt lat="41.66613" lon="20.60387">
        <ele>798.786942</ele>
        <time>2022-04-25T13:43:54.878Z</time>
      </trkpt>
      <trkpt lat="41.66606" lon="20.60378">
        <ele>798.576828</ele>
        <time>2022-04-25T13:43:56.867Z</time>
      </trkpt>
      <trkpt lat="41.666" lon="20.60368">
        <ele>798.37153</ele>
        <time>2022-04-25T13:43:58.920Z</time>
      </trkpt>
      <trkpt lat="41.66594" lon="20.60358">
        <ele>798.156821</ele>
        <time>2022-04-25T13:44:00.906Z</time>
      </trkpt>
      <trkpt lat="41.66589" lon="20.60346">
        <ele>797.942588</ele>
        <time>2022-04-25T13:44:02.884Z</time>
      </trkpt>
      <trkpt lat="41.66585" lon="20.60334">
        <ele>797.724748</ele>
        <time>2022-04-25T13:44:04.880Z</time>
      </trkpt>
      <trkpt lat="41.66582" lon="20.60321">
        <ele>797.509223</ele>
        <time>2022-04-25T13:44:06.884Z</time>
      </trkpt>
      <trkpt lat="41.66578" lon="20.6031">
        <ele>797.305918</ele>
        <time>2022-04-25T13:44:08.901Z</time>
      </trkpt>
      <trkpt lat="41.66573" lon="20.60295">
        <ele>797.046955</ele>
        <time>2022-04-25T13:44:10.893Z</time>
      </trkpt>
      <trkpt lat="41.66568" lon="20.60278">
        <ele>796.739146</ele>
        <time>2022-04-25T13:44:12.869Z</time>
      </trkpt>
      <trkpt lat="41.66565" lon="20.6026">
        <ele>796.446173</ele>
        <time>2022-04-25T13:44:14.889Z</time>
      </trkpt>
      <trkpt lat="41.66562" lon="20.60243">
        <ele>796.173648</ele>
        <time>2022-04-25T13:44:16.883Z</time>
      </trkpt>
      <trkpt lat="41.6656" lon="20.60227">
        <ele>795.898286</ele>
        <time>2022-04-25T13:44:18.894Z</time>
      </trkpt>
      <trkpt lat="41.66557" lon="20.6021">
        <ele>795.620897</ele>
        <time>2022-04-25T13:44:20.896Z</time>
      </trkpt>
      <trkpt lat="41.66555" lon="20.60193">
        <ele>795.342758</ele>
        <time>2022-04-25T13:44:22.885Z</time>
      </trkpt>
      <trkpt lat="41.66553" lon="20.60177">
        <ele>795.078692</ele>
        <time>2022-04-25T13:44:24.886Z</time>
      </trkpt>
      <trkpt lat="41.66551" lon="20.60161">
        <ele>795.378879</ele>
        <time>2022-04-25T13:44:26.886Z</time>
      </trkpt>
      <trkpt lat="41.66548" lon="20.60145">
        <ele>795.843562</ele>
        <time>2022-04-25T13:44:28.882Z</time>
      </trkpt>
      <trkpt lat="41.66546" lon="20.60129">
        <ele>796.307377</ele>
        <time>2022-04-25T13:44:30.893Z</time>
      </trkpt>
      <trkpt lat="41.66542" lon="20.60112">
        <ele>796.820912</ele>
        <time>2022-04-25T13:44:33.913Z</time>
      </trkpt>
      <trkpt lat="41.66533" lon="20.60101">
        <ele>797.276532</ele>
        <time>2022-04-25T13:44:35.880Z</time>
      </trkpt>
      <trkpt lat="41.66522" lon="20.6009">
        <ele>797.78006</ele>
        <time>2022-04-25T13:44:37.902Z</time>
      </trkpt>
      <trkpt lat="41.66512" lon="20.60078">
        <ele>798.305609</ele>
        <time>2022-04-25T13:44:39.914Z</time>
      </trkpt>
      <trkpt lat="41.66502" lon="20.60066">
        <ele>798.811742</ele>
        <time>2022-04-25T13:44:41.866Z</time>
      </trkpt>
      <trkpt lat="41.66495" lon="20.60052">
        <ele>799.284697</ele>
        <time>2022-04-25T13:44:43.905Z</time>
      </trkpt>
      <trkpt lat="41.66489" lon="20.60037">
        <ele>799.761912</ele>
        <time>2022-04-25T13:44:45.881Z</time>
      </trkpt>
      <trkpt lat="41.66484" lon="20.60021">
        <ele>800.263429</ele>
        <time>2022-04-25T13:44:47.872Z</time>
      </trkpt>
      <trkpt lat="41.66476" lon="20.60009">
        <ele>800.721032</ele>
        <time>2022-04-25T13:44:49.883Z</time>
      </trkpt>
      <trkpt lat="41.66468" lon="20.59996">
        <ele>801.204941</ele>
        <time>2022-04-25T13:44:51.902Z</time>
      </trkpt>
      <trkpt lat="41.66459" lon="20.59988">
        <ele>801.618522</ele>
        <time>2022-04-25T13:44:53.890Z</time>
      </trkpt>
      <trkpt lat="41.66447" lon="20.59986">
        <ele>801.840495</ele>
        <time>2022-04-25T13:44:56.924Z</time>
      </trkpt>
      <trkpt lat="41.66435" lon="20.59986">
        <ele>801.809015</ele>
        <time>2022-04-25T13:44:59.873Z</time>
      </trkpt>
      <trkpt lat="41.66422" lon="20.59985">
        <ele>801.774799</ele>
        <time>2022-04-25T13:45:02.886Z</time>
      </trkpt>
      <trkpt lat="41.66408" lon="20.59985">
        <ele>801.739092</ele>
        <time>2022-04-25T13:45:05.885Z</time>
      </trkpt>
      <trkpt lat="41.66396" lon="20.59984">
        <ele>801.707831</ele>
        <time>2022-04-25T13:45:08.898Z</time>
      </trkpt>
      <trkpt lat="41.66384" lon="20.59983">
        <ele>801.673929</ele>
        <time>2022-04-25T13:45:11.882Z</time>
      </trkpt>
      <trkpt lat="41.66374" lon="20.59982">
        <ele>801.649303</ele>
        <time>2022-04-25T13:45:13.925Z</time>
      </trkpt>
      <trkpt lat="41.66362" lon="20.59982">
        <ele>801.615433</ele>
        <time>2022-04-25T13:45:16.903Z</time>
      </trkpt>
      <trkpt lat="41.66348" lon="20.59982">
        <ele>801.580519</ele>
        <time>2022-04-25T13:45:19.882Z</time>
      </trkpt>
      <trkpt lat="41.66336" lon="20.59981">
        <ele>801.547122</ele>
        <time>2022-04-25T13:45:22.877Z</time>
      </trkpt>
      <trkpt lat="41.66326" lon="20.59982">
        <ele>801.521055</ele>
        <time>2022-04-25T13:45:24.909Z</time>
      </trkpt>
      <trkpt lat="41.66315" lon="20.59985">
        <ele>801.491346</ele>
        <time>2022-04-25T13:45:26.896Z</time>
      </trkpt>
      <trkpt lat="41.66304" lon="20.59986">
        <ele>801.463348</ele>
        <time>2022-04-25T13:45:28.867Z</time>
      </trkpt>
      <trkpt lat="41.66294" lon="20.59987">
        <ele>801.437073</ele>
        <time>2022-04-25T13:45:30.868Z</time>
      </trkpt>
      <trkpt lat="41.66285" lon="20.59989">
        <ele>801.410721</ele>
        <time>2022-04-25T13:45:32.884Z</time>
      </trkpt>
      <trkpt lat="41.66275" lon="20.59991">
        <ele>801.385133</ele>
        <time>2022-04-25T13:45:34.903Z</time>
      </trkpt>
      <trkpt lat="41.66266" lon="20.59993">
        <ele>801.324073</ele>
        <time>2022-04-25T13:45:36.883Z</time>
      </trkpt>
      <trkpt lat="41.66256" lon="20.59995">
        <ele>801.248038</ele>
        <time>2022-04-25T13:45:38.909Z</time>
      </trkpt>
      <trkpt lat="41.66245" lon="20.59997">
        <ele>801.165651</ele>
        <time>2022-04-25T13:45:40.906Z</time>
      </trkpt>
      <trkpt lat="41.66233" lon="20.59999">
        <ele>801.080188</ele>
        <time>2022-04-25T13:45:42.889Z</time>
      </trkpt>
      <trkpt lat="41.6622" lon="20.60002">
        <ele>800.98551</ele>
        <time>2022-04-25T13:45:44.888Z</time>
      </trkpt>
      <trkpt lat="41.66207" lon="20.60005">
        <ele>800.888429</ele>
        <time>2022-04-25T13:45:46.904Z</time>
      </trkpt>
      <trkpt lat="41.66195" lon="20.60008">
        <ele>800.795679</ele>
        <time>2022-04-25T13:45:48.888Z</time>
      </trkpt>
      <trkpt lat="41.66182" lon="20.6001">
        <ele>800.698705</ele>
        <time>2022-04-25T13:45:50.870Z</time>
      </trkpt>
      <trkpt lat="41.66169" lon="20.60009">
        <ele>800.600585</ele>
        <time>2022-04-25T13:45:52.893Z</time>
      </trkpt>
      <trkpt lat="41.66156" lon="20.60007">
        <ele>800.504006</ele>
        <time>2022-04-25T13:45:54.889Z</time>
      </trkpt>
      <trkpt lat="41.6614" lon="20.60006">
        <ele>800.391787</ele>
        <time>2022-04-25T13:45:56.898Z</time>
      </trkpt>
      <trkpt lat="41.66125" lon="20.60003">
        <ele>800.276113</ele>
        <time>2022-04-25T13:45:58.888Z</time>
      </trkpt>
      <trkpt lat="41.66109" lon="20.59999">
        <ele>800.160082</ele>
        <time>2022-04-25T13:46:00.889Z</time>
      </trkpt>
      <trkpt lat="41.66095" lon="20.59994">
        <ele>800.030866</ele>
        <time>2022-04-25T13:46:02.897Z</time>
      </trkpt>
      <trkpt lat="41.6608" lon="20.5999">
        <ele>799.669553</ele>
        <time>2022-04-25T13:46:04.893Z</time>
      </trkpt>
      <trkpt lat="41.66068" lon="20.59986">
        <ele>799.346588</ele>
        <time>2022-04-25T13:46:06.869Z</time>
      </trkpt>
      <trkpt lat="41.66056" lon="20.59981">
        <ele>799.032692</ele>
        <time>2022-04-25T13:46:08.877Z</time>
      </trkpt>
      <trkpt lat="41.66043" lon="20.59976">
        <ele>798.70496</ele>
        <time>2022-04-25T13:46:10.893Z</time>
      </trkpt>
      <trkpt lat="41.6603" lon="20.59972">
        <ele>798.375317</ele>
        <time>2022-04-25T13:46:12.877Z</time>
      </trkpt>
      <trkpt lat="41.66017" lon="20.59966">
        <ele>798.040946</ele>
        <time>2022-04-25T13:46:14.905Z</time>
      </trkpt>
      <trkpt lat="41.66004" lon="20.59963">
        <ele>797.697811</ele>
        <time>2022-04-25T13:46:16.883Z</time>
      </trkpt>
      <trkpt lat="41.65991" lon="20.59959">
        <ele>797.367239</ele>
        <time>2022-04-25T13:46:18.887Z</time>
      </trkpt>
      <trkpt lat="41.65978" lon="20.59955">
        <ele>797.04031</ele>
        <time>2022-04-25T13:46:20.897Z</time>
      </trkpt>
      <trkpt lat="41.65965" lon="20.59953">
        <ele>796.710054</ele>
        <time>2022-04-25T13:46:22.899Z</time>
      </trkpt>
      <trkpt lat="41.65952" lon="20.59951">
        <ele>796.375599</ele>
        <time>2022-04-25T13:46:24.883Z</time>
      </trkpt>
      <trkpt lat="41.65938" lon="20.59952">
        <ele>796.031951</ele>
        <time>2022-04-25T13:46:26.858Z</time>
      </trkpt>
      <trkpt lat="41.65925" lon="20.59953">
        <ele>795.702878</ele>
        <time>2022-04-25T13:46:28.867Z</time>
      </trkpt>
      <trkpt lat="41.65911" lon="20.59956">
        <ele>795.169875</ele>
        <time>2022-04-25T13:46:30.874Z</time>
      </trkpt>
      <trkpt lat="41.65899" lon="20.59959">
        <ele>794.549835</ele>
        <time>2022-04-25T13:46:32.884Z</time>
      </trkpt>
      <trkpt lat="41.65888" lon="20.59962">
        <ele>794.004616</ele>
        <time>2022-04-25T13:46:34.884Z</time>
      </trkpt>
      <trkpt lat="41.65878" lon="20.59967">
        <ele>793.479955</ele>
        <time>2022-04-25T13:46:36.885Z</time>
      </trkpt>
      <trkpt lat="41.65868" lon="20.59971">
        <ele>792.95559</ele>
        <time>2022-04-25T13:46:38.885Z</time>
      </trkpt>
      <trkpt lat="41.65857" lon="20.59976">
        <ele>792.414808</ele>
        <time>2022-04-25T13:46:40.873Z</time>
      </trkpt>
      <trkpt lat="41.65847" lon="20.5998">
        <ele>791.884682</ele>
        <time>2022-04-25T13:46:42.901Z</time>
      </trkpt>
      <trkpt lat="41.65836" lon="20.59982">
        <ele>791.356132</ele>
        <time>2022-04-25T13:46:44.890Z</time>
      </trkpt>
      <trkpt lat="41.65825" lon="20.59984">
        <ele>790.825996</ele>
        <time>2022-04-25T13:46:46.892Z</time>
      </trkpt>
      <trkpt lat="41.65815" lon="20.59985">
        <ele>790.350701</ele>
        <time>2022-04-25T13:46:48.880Z</time>
      </trkpt>
      <trkpt lat="41.65806" lon="20.59985">
        <ele>789.885951</ele>
        <time>2022-04-25T13:46:50.885Z</time>
      </trkpt>
      <trkpt lat="41.65796" lon="20.59986">
        <ele>789.401214</ele>
        <time>2022-04-25T13:46:52.893Z</time>
      </trkpt>
      <trkpt lat="41.65786" lon="20.59986">
        <ele>788.917852</ele>
        <time>2022-04-25T13:46:54.890Z</time>
      </trkpt>
      <trkpt lat="41.65776" lon="20.59987">
        <ele>788.408768</ele>
        <time>2022-04-25T13:46:56.884Z</time>
      </trkpt>
      <trkpt lat="41.65766" lon="20.5999">
        <ele>787.927796</ele>
        <time>2022-04-25T13:46:58.884Z</time>
      </trkpt>
      <trkpt lat="41.65756" lon="20.59991">
        <ele>787.427866</ele>
        <time>2022-04-25T13:47:00.913Z</time>
      </trkpt>
      <trkpt lat="41.65745" lon="20.59991">
        <ele>786.895666</ele>
        <time>2022-04-25T13:47:02.895Z</time>
      </trkpt>
      <trkpt lat="41.65732" lon="20.59992">
        <ele>786.378121</ele>
        <time>2022-04-25T13:47:04.882Z</time>
      </trkpt>
      <trkpt lat="41.65719" lon="20.59994">
        <ele>785.857112</ele>
        <time>2022-04-25T13:47:06.874Z</time>
      </trkpt>
      <trkpt lat="41.65705" lon="20.59993">
        <ele>785.318636</ele>
        <time>2022-04-25T13:47:08.873Z</time>
      </trkpt>
      <trkpt lat="41.6569" lon="20.59992">
        <ele>784.771834</ele>
        <time>2022-04-25T13:47:10.885Z</time>
      </trkpt>
      <trkpt lat="41.65675" lon="20.59993">
        <ele>784.187157</ele>
        <time>2022-04-25T13:47:12.903Z</time>
      </trkpt>
      <trkpt lat="41.6566" lon="20.59993">
        <ele>783.617942</ele>
        <time>2022-04-25T13:47:14.885Z</time>
      </trkpt>
      <trkpt lat="41.65645" lon="20.59993">
        <ele>783.025915</ele>
        <time>2022-04-25T13:47:16.860Z</time>
      </trkpt>
      <trkpt lat="41.65629" lon="20.59993">
        <ele>782.403081</ele>
        <time>2022-04-25T13:47:18.862Z</time>
      </trkpt>
      <trkpt lat="41.65613" lon="20.59995">
        <ele>781.80828</ele>
        <time>2022-04-25T13:47:20.900Z</time>
      </trkpt>
      <trkpt lat="41.65597" lon="20.59996">
        <ele>781.192651</ele>
        <time>2022-04-25T13:47:22.915Z</time>
      </trkpt>
      <trkpt lat="41.65581" lon="20.59995">
        <ele>780.558026</ele>
        <time>2022-04-25T13:47:24.893Z</time>
      </trkpt>
      <trkpt lat="41.65564" lon="20.59995">
        <ele>779.900427</ele>
        <time>2022-04-25T13:47:26.909Z</time>
      </trkpt>
      <trkpt lat="41.65547" lon="20.59994">
        <ele>779.208982</ele>
        <time>2022-04-25T13:47:28.879Z</time>
      </trkpt>
      <trkpt lat="41.6553" lon="20.59994">
        <ele>778.537034</ele>
        <time>2022-04-25T13:47:30.883Z</time>
      </trkpt>
      <trkpt lat="41.65514" lon="20.59996">
        <ele>777.892091</ele>
        <time>2022-04-25T13:47:32.918Z</time>
      </trkpt>
      <trkpt lat="41.65498" lon="20.59996">
        <ele>777.240224</ele>
        <time>2022-04-25T13:47:34.911Z</time>
      </trkpt>
      <trkpt lat="41.65482" lon="20.59996">
        <ele>776.620491</ele>
        <time>2022-04-25T13:47:36.875Z</time>
      </trkpt>
      <trkpt lat="41.65468" lon="20.59996">
        <ele>776.029008</ele>
        <time>2022-04-25T13:47:38.916Z</time>
      </trkpt>
      <trkpt lat="41.65453" lon="20.59997">
        <ele>775.461187</ele>
        <time>2022-04-25T13:47:40.891Z</time>
      </trkpt>
      <trkpt lat="41.6544" lon="20.59999">
        <ele>774.924638</ele>
        <time>2022-04-25T13:47:42.917Z</time>
      </trkpt>
      <trkpt lat="41.65427" lon="20.6">
        <ele>774.407391</ele>
        <time>2022-04-25T13:47:44.889Z</time>
      </trkpt>
      <trkpt lat="41.65416" lon="20.60003">
        <ele>773.935123</ele>
        <time>2022-04-25T13:47:46.873Z</time>
      </trkpt>
      <trkpt lat="41.65404" lon="20.60004">
        <ele>773.464916</ele>
        <time>2022-04-25T13:47:48.913Z</time>
      </trkpt>
      <trkpt lat="41.65392" lon="20.60005">
        <ele>772.989679</ele>
        <time>2022-04-25T13:47:50.902Z</time>
      </trkpt>
      <trkpt lat="41.6538" lon="20.60006">
        <ele>772.551382</ele>
        <time>2022-04-25T13:47:52.897Z</time>
      </trkpt>
      <trkpt lat="41.6537" lon="20.60007">
        <ele>772.254551</ele>
        <time>2022-04-25T13:47:54.875Z</time>
      </trkpt>
      <trkpt lat="41.6536" lon="20.60006">
        <ele>771.983527</ele>
        <time>2022-04-25T13:47:56.873Z</time>
      </trkpt>
      <trkpt lat="41.6535" lon="20.60006">
        <ele>771.701255</ele>
        <time>2022-04-25T13:47:58.879Z</time>
      </trkpt>
      <trkpt lat="41.65341" lon="20.60007">
        <ele>771.4301</ele>
        <time>2022-04-25T13:48:00.891Z</time>
      </trkpt>
      <trkpt lat="41.65331" lon="20.60006">
        <ele>771.158854</ele>
        <time>2022-04-25T13:48:02.872Z</time>
      </trkpt>
      <trkpt lat="41.65321" lon="20.60006">
        <ele>770.879405</ele>
        <time>2022-04-25T13:48:04.885Z</time>
      </trkpt>
      <trkpt lat="41.65312" lon="20.60005">
        <ele>770.60793</ele>
        <time>2022-04-25T13:48:06.891Z</time>
      </trkpt>
      <trkpt lat="41.65299" lon="20.60003">
        <ele>770.241157</ele>
        <time>2022-04-25T13:48:09.892Z</time>
      </trkpt>
      <trkpt lat="41.65285" lon="20.60003">
        <ele>769.840371</ele>
        <time>2022-04-25T13:48:12.869Z</time>
      </trkpt>
      <trkpt lat="41.65274" lon="20.60004">
        <ele>769.542336</ele>
        <time>2022-04-25T13:48:14.882Z</time>
      </trkpt>
      <trkpt lat="41.65264" lon="20.60006">
        <ele>769.24888</ele>
        <time>2022-04-25T13:48:16.877Z</time>
      </trkpt>
      <trkpt lat="41.65254" lon="20.60009">
        <ele>768.965142</ele>
        <time>2022-04-25T13:48:18.901Z</time>
      </trkpt>
      <trkpt lat="41.65244" lon="20.60013">
        <ele>768.664685</ele>
        <time>2022-04-25T13:48:20.875Z</time>
      </trkpt>
      <trkpt lat="41.65234" lon="20.60018">
        <ele>768.379194</ele>
        <time>2022-04-25T13:48:22.878Z</time>
      </trkpt>
      <trkpt lat="41.65225" lon="20.60022">
        <ele>768.090683</ele>
        <time>2022-04-25T13:48:24.887Z</time>
      </trkpt>
      <trkpt lat="41.65215" lon="20.60028">
        <ele>767.783951</ele>
        <time>2022-04-25T13:48:26.867Z</time>
      </trkpt>
      <trkpt lat="41.65205" lon="20.60034">
        <ele>767.590431</ele>
        <time>2022-04-25T13:48:28.888Z</time>
      </trkpt>
      <trkpt lat="41.65195" lon="20.60041">
        <ele>767.65989</ele>
        <time>2022-04-25T13:48:30.924Z</time>
      </trkpt>
      <trkpt lat="41.65185" lon="20.60047">
        <ele>767.724143</ele>
        <time>2022-04-25T13:48:32.880Z</time>
      </trkpt>
      <trkpt lat="41.65176" lon="20.60052">
        <ele>767.786565</ele>
        <time>2022-04-25T13:48:34.849Z</time>
      </trkpt>
      <trkpt lat="41.65167" lon="20.60057">
        <ele>767.841936</ele>
        <time>2022-04-25T13:48:36.850Z</time>
      </trkpt>
      <trkpt lat="41.65157" lon="20.60061">
        <ele>767.903058</ele>
        <time>2022-04-25T13:48:38.857Z</time>
      </trkpt>
      <trkpt lat="41.65147" lon="20.60067">
        <ele>767.969755</ele>
        <time>2022-04-25T13:48:40.847Z</time>
      </trkpt>
      <trkpt lat="41.65136" lon="20.60073">
        <ele>768.041766</ele>
        <time>2022-04-25T13:48:42.857Z</time>
      </trkpt>
      <trkpt lat="41.65125" lon="20.60078">
        <ele>768.11467</ele>
        <time>2022-04-25T13:48:44.873Z</time>
      </trkpt>
      <trkpt lat="41.65114" lon="20.60083">
        <ele>768.186303</ele>
        <time>2022-04-25T13:48:46.886Z</time>
      </trkpt>
      <trkpt lat="41.65104" lon="20.60088">
        <ele>768.252603</ele>
        <time>2022-04-25T13:48:48.902Z</time>
      </trkpt>
      <trkpt lat="41.65092" lon="20.60093">
        <ele>768.325272</ele>
        <time>2022-04-25T13:48:50.873Z</time>
      </trkpt>
      <trkpt lat="41.6508" lon="20.60099">
        <ele>768.403127</ele>
        <time>2022-04-25T13:48:52.883Z</time>
      </trkpt>
      <trkpt lat="41.65066" lon="20.60106">
        <ele>768.491667</ele>
        <time>2022-04-25T13:48:54.872Z</time>
      </trkpt>
      <trkpt lat="41.65052" lon="20.60113">
        <ele>768.585951</ele>
        <time>2022-04-25T13:48:56.898Z</time>
      </trkpt>
      <trkpt lat="41.65039" lon="20.60119">
        <ele>768.670734</ele>
        <time>2022-04-25T13:48:58.899Z</time>
      </trkpt>
      <trkpt lat="41.65027" lon="20.60124">
        <ele>768.83485</ele>
        <time>2022-04-25T13:49:00.898Z</time>
      </trkpt>
      <trkpt lat="41.65016" lon="20.60128">
        <ele>768.975762</ele>
        <time>2022-04-25T13:49:02.879Z</time>
      </trkpt>
      <trkpt lat="41.65006" lon="20.6013">
        <ele>769.110135</ele>
        <time>2022-04-25T13:49:04.858Z</time>
      </trkpt>
      <trkpt lat="41.64996" lon="20.60133">
        <ele>769.244014</ele>
        <time>2022-04-25T13:49:06.888Z</time>
      </trkpt>
      <trkpt lat="41.64986" lon="20.60136">
        <ele>769.37398</ele>
        <time>2022-04-25T13:49:08.887Z</time>
      </trkpt>
      <trkpt lat="41.64972" lon="20.60138">
        <ele>769.541785</ele>
        <time>2022-04-25T13:49:11.896Z</time>
      </trkpt>
      <trkpt lat="41.6496" lon="20.6014">
        <ele>769.705942</ele>
        <time>2022-04-25T13:49:14.880Z</time>
      </trkpt>
      <trkpt lat="41.64947" lon="20.60142">
        <ele>769.871585</ele>
        <time>2022-04-25T13:49:17.884Z</time>
      </trkpt>
      <trkpt lat="41.64937" lon="20.60143">
        <ele>769.989081</ele>
        <time>2022-04-25T13:49:19.880Z</time>
      </trkpt>
      <trkpt lat="41.64928" lon="20.60145">
        <ele>770.104392</ele>
        <time>2022-04-25T13:49:21.885Z</time>
      </trkpt>
      <trkpt lat="41.64916" lon="20.60145">
        <ele>770.267061</ele>
        <time>2022-04-25T13:49:24.885Z</time>
      </trkpt>
      <trkpt lat="41.64902" lon="20.60145">
        <ele>770.435983</ele>
        <time>2022-04-25T13:49:27.872Z</time>
      </trkpt>
      <trkpt lat="41.64889" lon="20.60144">
        <ele>770.601789</ele>
        <time>2022-04-25T13:49:30.874Z</time>
      </trkpt>
      <trkpt lat="41.6488" lon="20.60141">
        <ele>770.725654</ele>
        <time>2022-04-25T13:49:32.875Z</time>
      </trkpt>
      <trkpt lat="41.64869" lon="20.60139">
        <ele>770.858779</ele>
        <time>2022-04-25T13:49:34.878Z</time>
      </trkpt>
      <trkpt lat="41.6486" lon="20.60137">
        <ele>771.00797</ele>
        <time>2022-04-25T13:49:36.890Z</time>
      </trkpt>
      <trkpt lat="41.6485" lon="20.60137">
        <ele>771.204172</ele>
        <time>2022-04-25T13:49:38.883Z</time>
      </trkpt>
      <trkpt lat="41.64839" lon="20.60137">
        <ele>771.422414</ele>
        <time>2022-04-25T13:49:40.901Z</time>
      </trkpt>
      <trkpt lat="41.64827" lon="20.60138">
        <ele>771.652634</ele>
        <time>2022-04-25T13:49:42.869Z</time>
      </trkpt>
      <trkpt lat="41.64815" lon="20.60139">
        <ele>771.899086</ele>
        <time>2022-04-25T13:49:44.894Z</time>
      </trkpt>
      <trkpt lat="41.64803" lon="20.60141">
        <ele>772.142169</ele>
        <time>2022-04-25T13:49:46.889Z</time>
      </trkpt>
      <trkpt lat="41.64792" lon="20.60143">
        <ele>772.36326</ele>
        <time>2022-04-25T13:49:48.864Z</time>
      </trkpt>
      <trkpt lat="41.64781" lon="20.60145">
        <ele>772.583421</ele>
        <time>2022-04-25T13:49:50.879Z</time>
      </trkpt>
      <trkpt lat="41.6477" lon="20.60148">
        <ele>772.805561</ele>
        <time>2022-04-25T13:49:52.862Z</time>
      </trkpt>
      <trkpt lat="41.64759" lon="20.60149">
        <ele>773.029098</ele>
        <time>2022-04-25T13:49:54.905Z</time>
      </trkpt>
      <trkpt lat="41.64748" lon="20.6015">
        <ele>773.249057</ele>
        <time>2022-04-25T13:49:56.886Z</time>
      </trkpt>
      <trkpt lat="41.64737" lon="20.60148">
        <ele>773.461862</ele>
        <time>2022-04-25T13:49:58.881Z</time>
      </trkpt>
      <trkpt lat="41.64727" lon="20.60146">
        <ele>773.676088</ele>
        <time>2022-04-25T13:50:00.873Z</time>
      </trkpt>
      <trkpt lat="41.64716" lon="20.60145">
        <ele>773.892746</ele>
        <time>2022-04-25T13:50:02.881Z</time>
      </trkpt>
      <trkpt lat="41.64705" lon="20.60145">
        <ele>774.120676</ele>
        <time>2022-04-25T13:50:04.892Z</time>
      </trkpt>
      <trkpt lat="41.64692" lon="20.60146">
        <ele>774.367232</ele>
        <time>2022-04-25T13:50:06.864Z</time>
      </trkpt>
      <trkpt lat="41.6468" lon="20.60148">
        <ele>774.643648</ele>
        <time>2022-04-25T13:50:08.867Z</time>
      </trkpt>
      <trkpt lat="41.64668" lon="20.60148">
        <ele>775.032208</ele>
        <time>2022-04-25T13:50:10.896Z</time>
      </trkpt>
      <trkpt lat="41.64655" lon="20.60149">
        <ele>775.422043</ele>
        <time>2022-04-25T13:50:12.886Z</time>
      </trkpt>
      <trkpt lat="41.64643" lon="20.60149">
        <ele>775.795238</ele>
        <time>2022-04-25T13:50:14.881Z</time>
      </trkpt>
      <trkpt lat="41.64631" lon="20.60147">
        <ele>776.161694</ele>
        <time>2022-04-25T13:50:16.900Z</time>
      </trkpt>
      <trkpt lat="41.6462" lon="20.60144">
        <ele>776.529005</ele>
        <time>2022-04-25T13:50:18.900Z</time>
      </trkpt>
      <trkpt lat="41.64609" lon="20.6014">
        <ele>776.873321</ele>
        <time>2022-04-25T13:50:20.886Z</time>
      </trkpt>
      <trkpt lat="41.64599" lon="20.60137">
        <ele>777.181917</ele>
        <time>2022-04-25T13:50:22.890Z</time>
      </trkpt>
      <trkpt lat="41.64589" lon="20.60134">
        <ele>777.492409</ele>
        <time>2022-04-25T13:50:24.879Z</time>
      </trkpt>
      <trkpt lat="41.6458" lon="20.60131">
        <ele>777.775967</ele>
        <time>2022-04-25T13:50:26.881Z</time>
      </trkpt>
      <trkpt lat="41.64571" lon="20.60128">
        <ele>778.072893</ele>
        <time>2022-04-25T13:50:28.922Z</time>
      </trkpt>
      <trkpt lat="41.64562" lon="20.60125">
        <ele>778.361321</ele>
        <time>2022-04-25T13:50:30.900Z</time>
      </trkpt>
      <trkpt lat="41.64553" lon="20.60121">
        <ele>778.641298</ele>
        <time>2022-04-25T13:50:32.894Z</time>
      </trkpt>
      <trkpt lat="41.64542" lon="20.60115">
        <ele>779.019855</ele>
        <time>2022-04-25T13:50:35.879Z</time>
      </trkpt>
      <trkpt lat="41.64532" lon="20.60109">
        <ele>779.351191</ele>
        <time>2022-04-25T13:50:38.874Z</time>
      </trkpt>
      <trkpt lat="41.64524" lon="20.60103">
        <ele>779.633572</ele>
        <time>2022-04-25T13:50:41.893Z</time>
      </trkpt>
      <trkpt lat="41.64516" lon="20.60098">
        <ele>779.916386</ele>
        <time>2022-04-25T13:50:44.883Z</time>
      </trkpt>
      <trkpt lat="41.64505" lon="20.60091">
        <ele>780.272563</ele>
        <time>2022-04-25T13:50:48.870Z</time>
      </trkpt>
      <trkpt lat="41.64495" lon="20.60086">
        <ele>780.595022</ele>
        <time>2022-04-25T13:50:52.915Z</time>
      </trkpt>
      <trkpt lat="41.64486" lon="20.60081">
        <ele>780.885315</ele>
        <time>2022-04-25T13:50:56.892Z</time>
      </trkpt>
      <trkpt lat="41.64477" lon="20.60078">
        <ele>781.166131</ele>
        <time>2022-04-25T13:51:00.882Z</time>
      </trkpt>
      <trkpt lat="41.64469" lon="20.60075">
        <ele>781.4372</ele>
        <time>2022-04-25T13:51:04.870Z</time>
      </trkpt>
      <trkpt lat="41.64459" lon="20.60073">
        <ele>781.724738</ele>
        <time>2022-04-25T13:51:09.903Z</time>
      </trkpt>
      <trkpt lat="41.64449" lon="20.60074">
        <ele>782.023586</ele>
        <time>2022-04-25T13:51:14.874Z</time>
      </trkpt>
      <trkpt lat="41.6444" lon="20.60077">
        <ele>782.314081</ele>
        <time>2022-04-25T13:51:19.873Z</time>
      </trkpt>
      <trkpt lat="41.64429" lon="20.60082">
        <ele>782.651998</ele>
        <time>2022-04-25T13:51:24.934Z</time>
      </trkpt>
      <trkpt lat="41.6442" lon="20.60085">
        <ele>782.935325</ele>
        <time>2022-04-25T13:51:28.912Z</time>
      </trkpt>
      <trkpt lat="41.6441" lon="20.60089">
        <ele>783.27196</ele>
        <time>2022-04-25T13:51:32.881Z</time>
      </trkpt>
      <trkpt lat="41.64401" lon="20.60094">
        <ele>783.560032</ele>
        <time>2022-04-25T13:51:35.891Z</time>
      </trkpt>
      <trkpt lat="41.64391" lon="20.601">
        <ele>783.87193</ele>
        <time>2022-04-25T13:51:38.858Z</time>
      </trkpt>
      <trkpt lat="41.64381" lon="20.60106">
        <ele>784.228851</ele>
        <time>2022-04-25T13:51:41.895Z</time>
      </trkpt>
      <trkpt lat="41.64369" lon="20.60114">
        <ele>784.63282</ele>
        <time>2022-04-25T13:51:44.892Z</time>
      </trkpt>
      <trkpt lat="41.6436" lon="20.60121">
        <ele>784.931544</ele>
        <time>2022-04-25T13:51:46.871Z</time>
      </trkpt>
      <trkpt lat="41.6435" lon="20.60128">
        <ele>785.262049</ele>
        <time>2022-04-25T13:51:48.909Z</time>
      </trkpt>
      <trkpt lat="41.6434" lon="20.60135">
        <ele>785.404419</ele>
        <time>2022-04-25T13:51:50.893Z</time>
      </trkpt>
      <trkpt lat="41.6433" lon="20.60143">
        <ele>785.01677</ele>
        <time>2022-04-25T13:51:52.883Z</time>
      </trkpt>
      <trkpt lat="41.64318" lon="20.60151">
        <ele>784.605864</ele>
        <time>2022-04-25T13:51:54.878Z</time>
      </trkpt>
      <trkpt lat="41.64307" lon="20.60158">
        <ele>784.199988</ele>
        <time>2022-04-25T13:51:56.882Z</time>
      </trkpt>
      <trkpt lat="41.64296" lon="20.60166">
        <ele>783.798056</ele>
        <time>2022-04-25T13:51:58.899Z</time>
      </trkpt>
      <trkpt lat="41.64285" lon="20.60173">
        <ele>783.40866</ele>
        <time>2022-04-25T13:52:00.894Z</time>
      </trkpt>
      <trkpt lat="41.64274" lon="20.60181">
        <ele>783.015933</ele>
        <time>2022-04-25T13:52:02.873Z</time>
      </trkpt>
      <trkpt lat="41.64264" lon="20.60187">
        <ele>782.640728</ele>
        <time>2022-04-25T13:52:04.910Z</time>
      </trkpt>
      <trkpt lat="41.64254" lon="20.60194">
        <ele>782.283107</ele>
        <time>2022-04-25T13:52:06.875Z</time>
      </trkpt>
      <trkpt lat="41.64242" lon="20.60202">
        <ele>781.875666</ele>
        <time>2022-04-25T13:52:08.877Z</time>
      </trkpt>
      <trkpt lat="41.6423" lon="20.60211">
        <ele>781.438162</ele>
        <time>2022-04-25T13:52:10.871Z</time>
      </trkpt>
      <trkpt lat="41.64218" lon="20.6022">
        <ele>780.980916</ele>
        <time>2022-04-25T13:52:12.904Z</time>
      </trkpt>
      <trkpt lat="41.64204" lon="20.60226">
        <ele>780.512192</ele>
        <time>2022-04-25T13:52:14.862Z</time>
      </trkpt>
      <trkpt lat="41.64189" lon="20.6023">
        <ele>780.010062</ele>
        <time>2022-04-25T13:52:16.925Z</time>
      </trkpt>
      <trkpt lat="41.64173" lon="20.60233">
        <ele>779.43711</ele>
        <time>2022-04-25T13:52:18.892Z</time>
      </trkpt>
      <trkpt lat="41.64158" lon="20.60236">
        <ele>778.835872</ele>
        <time>2022-04-25T13:52:20.884Z</time>
      </trkpt>
      <trkpt lat="41.64145" lon="20.6024">
        <ele>778.303058</ele>
        <time>2022-04-25T13:52:22.874Z</time>
      </trkpt>
      <trkpt lat="41.64132" lon="20.60245">
        <ele>777.779773</ele>
        <time>2022-04-25T13:52:24.890Z</time>
      </trkpt>
      <trkpt lat="41.64121" lon="20.60251">
        <ele>777.305168</ele>
        <time>2022-04-25T13:52:26.923Z</time>
      </trkpt>
      <trkpt lat="41.6411" lon="20.60258">
        <ele>776.853645</ele>
        <time>2022-04-25T13:52:28.877Z</time>
      </trkpt>
      <trkpt lat="41.641" lon="20.60263">
        <ele>776.399225</ele>
        <time>2022-04-25T13:52:30.877Z</time>
      </trkpt>
      <trkpt lat="41.64089" lon="20.60269">
        <ele>775.942179</ele>
        <time>2022-04-25T13:52:32.917Z</time>
      </trkpt>
      <trkpt lat="41.64077" lon="20.60272">
        <ele>775.476366</ele>
        <time>2022-04-25T13:52:34.886Z</time>
      </trkpt>
      <trkpt lat="41.64064" lon="20.60275">
        <ele>774.939952</ele>
        <time>2022-04-25T13:52:36.882Z</time>
      </trkpt>
      <trkpt lat="41.64049" lon="20.60277">
        <ele>774.344298</ele>
        <time>2022-04-25T13:52:38.891Z</time>
      </trkpt>
      <trkpt lat="41.64033" lon="20.60277">
        <ele>773.727117</ele>
        <time>2022-04-25T13:52:40.869Z</time>
      </trkpt>
      <trkpt lat="41.64019" lon="20.60278">
        <ele>773.145589</ele>
        <time>2022-04-25T13:52:42.894Z</time>
      </trkpt>
      <trkpt lat="41.64005" lon="20.60279">
        <ele>772.612659</ele>
        <time>2022-04-25T13:52:44.893Z</time>
      </trkpt>
      <trkpt lat="41.63992" lon="20.6028">
        <ele>772.188255</ele>
        <time>2022-04-25T13:52:46.889Z</time>
      </trkpt>
      <trkpt lat="41.6398" lon="20.60281">
        <ele>771.786584</ele>
        <time>2022-04-25T13:52:48.904Z</time>
      </trkpt>
      <trkpt lat="41.63968" lon="20.60283">
        <ele>771.406193</ele>
        <time>2022-04-25T13:52:50.908Z</time>
      </trkpt>
      <trkpt lat="41.63957" lon="20.60285">
        <ele>771.051552</ele>
        <time>2022-04-25T13:52:52.879Z</time>
      </trkpt>
      <trkpt lat="41.63947" lon="20.60286">
        <ele>770.726102</ele>
        <time>2022-04-25T13:52:54.914Z</time>
      </trkpt>
      <trkpt lat="41.63937" lon="20.60287">
        <ele>770.420027</ele>
        <time>2022-04-25T13:52:56.897Z</time>
      </trkpt>
      <trkpt lat="41.63924" lon="20.60289">
        <ele>770.004068</ele>
        <time>2022-04-25T13:52:59.878Z</time>
      </trkpt>
      <trkpt lat="41.63912" lon="20.60291">
        <ele>769.61838</ele>
        <time>2022-04-25T13:53:02.906Z</time>
      </trkpt>
      <trkpt lat="41.63899" lon="20.6029">
        <ele>769.188886</ele>
        <time>2022-04-25T13:53:05.883Z</time>
      </trkpt>
      <trkpt lat="41.63885" lon="20.60289">
        <ele>768.755531</ele>
        <time>2022-04-25T13:53:08.878Z</time>
      </trkpt>
      <trkpt lat="41.63876" lon="20.60288">
        <ele>768.462677</ele>
        <time>2022-04-25T13:53:10.913Z</time>
      </trkpt>
      <trkpt lat="41.63867" lon="20.60288">
        <ele>768.167329</ele>
        <time>2022-04-25T13:53:12.885Z</time>
      </trkpt>
      <trkpt lat="41.63858" lon="20.60287">
        <ele>767.862239</ele>
        <time>2022-04-25T13:53:14.891Z</time>
      </trkpt>
      <trkpt lat="41.63848" lon="20.60285">
        <ele>767.552169</ele>
        <time>2022-04-25T13:53:16.880Z</time>
      </trkpt>
      <trkpt lat="41.63838" lon="20.60284">
        <ele>767.229649</ele>
        <time>2022-04-25T13:53:18.887Z</time>
      </trkpt>
      <trkpt lat="41.63828" lon="20.60283">
        <ele>766.902016</ele>
        <time>2022-04-25T13:53:20.883Z</time>
      </trkpt>
      <trkpt lat="41.63818" lon="20.60282">
        <ele>766.766281</ele>
        <time>2022-04-25T13:53:22.885Z</time>
      </trkpt>
      <trkpt lat="41.63808" lon="20.6028">
        <ele>766.663044</ele>
        <time>2022-04-25T13:53:24.907Z</time>
      </trkpt>
      <trkpt lat="41.63797" lon="20.60278">
        <ele>766.558689</ele>
        <time>2022-04-25T13:53:26.876Z</time>
      </trkpt>
      <trkpt lat="41.63787" lon="20.60276">
        <ele>766.454536</ele>
        <time>2022-04-25T13:53:28.890Z</time>
      </trkpt>
      <trkpt lat="41.63778" lon="20.60275">
        <ele>766.357992</ele>
        <time>2022-04-25T13:53:30.864Z</time>
      </trkpt>
      <trkpt lat="41.63769" lon="20.60275">
        <ele>766.262789</ele>
        <time>2022-04-25T13:53:32.902Z</time>
      </trkpt>
      <trkpt lat="41.63759" lon="20.60275">
        <ele>766.167586</ele>
        <time>2022-04-25T13:53:34.887Z</time>
      </trkpt>
      <trkpt lat="41.6375" lon="20.60275">
        <ele>766.07243</ele>
        <time>2022-04-25T13:53:36.881Z</time>
      </trkpt>
      <trkpt lat="41.63741" lon="20.60277">
        <ele>765.977948</ele>
        <time>2022-04-25T13:53:38.871Z</time>
      </trkpt>
      <trkpt lat="41.63732" lon="20.6028">
        <ele>765.880068</ele>
        <time>2022-04-25T13:53:40.899Z</time>
      </trkpt>
      <trkpt lat="41.63722" lon="20.60286">
        <ele>765.773509</ele>
        <time>2022-04-25T13:53:42.899Z</time>
      </trkpt>
      <trkpt lat="41.63714" lon="20.60294">
        <ele>765.666776</ele>
        <time>2022-04-25T13:53:44.909Z</time>
      </trkpt>
      <trkpt lat="41.63706" lon="20.60302">
        <ele>765.564669</ele>
        <time>2022-04-25T13:53:46.874Z</time>
      </trkpt>
      <trkpt lat="41.63698" lon="20.6031">
        <ele>765.464924</ele>
        <time>2022-04-25T13:53:48.917Z</time>
      </trkpt>
      <trkpt lat="41.6369" lon="20.60318">
        <ele>765.369124</ele>
        <time>2022-04-25T13:53:50.881Z</time>
      </trkpt>
      <trkpt lat="41.63683" lon="20.60325">
        <ele>765.272264</ele>
        <time>2022-04-25T13:53:52.869Z</time>
      </trkpt>
      <trkpt lat="41.63676" lon="20.60334">
        <ele>765.174787</ele>
        <time>2022-04-25T13:53:54.899Z</time>
      </trkpt>
      <trkpt lat="41.63669" lon="20.60344">
        <ele>765.07527</ele>
        <time>2022-04-25T13:53:56.881Z</time>
      </trkpt>
      <trkpt lat="41.63663" lon="20.60354">
        <ele>764.909678</ele>
        <time>2022-04-25T13:53:58.880Z</time>
      </trkpt>
      <trkpt lat="41.63656" lon="20.60364">
        <ele>764.655316</ele>
        <time>2022-04-25T13:54:00.913Z</time>
      </trkpt>
      <trkpt lat="41.63648" lon="20.60374">
        <ele>764.38522</ele>
        <time>2022-04-25T13:54:02.892Z</time>
      </trkpt>
      <trkpt lat="41.6364" lon="20.60383">
        <ele>764.116245</ele>
        <time>2022-04-25T13:54:04.859Z</time>
      </trkpt>
      <trkpt lat="41.6363" lon="20.60392">
        <ele>763.834162</ele>
        <time>2022-04-25T13:54:06.869Z</time>
      </trkpt>
      <trkpt lat="41.63621" lon="20.60399">
        <ele>763.56313</ele>
        <time>2022-04-25T13:54:08.884Z</time>
      </trkpt>
      <trkpt lat="41.63612" lon="20.60408">
        <ele>763.289347</ele>
        <time>2022-04-25T13:54:10.932Z</time>
      </trkpt>
      <trkpt lat="41.63602" lon="20.60418">
        <ele>762.984614</ele>
        <time>2022-04-25T13:54:12.894Z</time>
      </trkpt>
      <trkpt lat="41.63592" lon="20.6043">
        <ele>762.655632</ele>
        <time>2022-04-25T13:54:14.894Z</time>
      </trkpt>
      <trkpt lat="41.63583" lon="20.60444">
        <ele>762.316395</ele>
        <time>2022-04-25T13:54:16.878Z</time>
      </trkpt>
      <trkpt lat="41.63574" lon="20.60459">
        <ele>761.951583</ele>
        <time>2022-04-25T13:54:18.881Z</time>
      </trkpt>
      <trkpt lat="41.63564" lon="20.60476">
        <ele>761.559956</ele>
        <time>2022-04-25T13:54:20.873Z</time>
      </trkpt>
      <trkpt lat="41.63554" lon="20.60493">
        <ele>761.149129</ele>
        <time>2022-04-25T13:54:22.881Z</time>
      </trkpt>
      <trkpt lat="41.63544" lon="20.60511">
        <ele>760.733934</ele>
        <time>2022-04-25T13:54:24.895Z</time>
      </trkpt>
      <trkpt lat="41.63533" lon="20.60529">
        <ele>760.500517</ele>
        <time>2022-04-25T13:54:26.860Z</time>
      </trkpt>
      <trkpt lat="41.63522" lon="20.60545">
        <ele>760.39959</ele>
        <time>2022-04-25T13:54:28.885Z</time>
      </trkpt>
      <trkpt lat="41.63511" lon="20.60559">
        <ele>760.301612</ele>
        <time>2022-04-25T13:54:30.891Z</time>
      </trkpt>
      <trkpt lat="41.63498" lon="20.60571">
        <ele>760.203274</ele>
        <time>2022-04-25T13:54:32.932Z</time>
      </trkpt>
      <trkpt lat="41.63486" lon="20.60583">
        <ele>760.10764</ele>
        <time>2022-04-25T13:54:34.897Z</time>
      </trkpt>
      <trkpt lat="41.63474" lon="20.60595">
        <ele>760.016282</ele>
        <time>2022-04-25T13:54:36.874Z</time>
      </trkpt>
      <trkpt lat="41.6346" lon="20.60604">
        <ele>759.923249</ele>
        <time>2022-04-25T13:54:38.882Z</time>
      </trkpt>
      <trkpt lat="41.63447" lon="20.6061">
        <ele>759.833713</ele>
        <time>2022-04-25T13:54:40.894Z</time>
      </trkpt>
      <trkpt lat="41.63434" lon="20.60615">
        <ele>759.748206</ele>
        <time>2022-04-25T13:54:42.884Z</time>
      </trkpt>
      <trkpt lat="41.6342" lon="20.60619">
        <ele>759.663403</ele>
        <time>2022-04-25T13:54:44.889Z</time>
      </trkpt>
      <trkpt lat="41.63407" lon="20.60624">
        <ele>759.578743</ele>
        <time>2022-04-25T13:54:46.905Z</time>
      </trkpt>
      <trkpt lat="41.63394" lon="20.60628">
        <ele>759.494686</ele>
        <time>2022-04-25T13:54:48.903Z</time>
      </trkpt>
      <trkpt lat="41.63382" lon="20.60632">
        <ele>759.441004</ele>
        <time>2022-04-25T13:54:50.893Z</time>
      </trkpt>
      <trkpt lat="41.6337" lon="20.60635">
        <ele>759.446896</ele>
        <time>2022-04-25T13:54:52.895Z</time>
      </trkpt>
      <trkpt lat="41.63358" lon="20.60637">
        <ele>759.452752</ele>
        <time>2022-04-25T13:54:54.880Z</time>
      </trkpt>
      <trkpt lat="41.63347" lon="20.6064">
        <ele>759.458271</ele>
        <time>2022-04-25T13:54:56.864Z</time>
      </trkpt>
      <trkpt lat="41.63336" lon="20.60643">
        <ele>759.463777</ele>
        <time>2022-04-25T13:54:58.872Z</time>
      </trkpt>
      <trkpt lat="41.63326" lon="20.60645">
        <ele>759.468849</ele>
        <time>2022-04-25T13:55:00.879Z</time>
      </trkpt>
      <trkpt lat="41.63316" lon="20.60647">
        <ele>759.473517</ele>
        <time>2022-04-25T13:55:02.882Z</time>
      </trkpt>
      <trkpt lat="41.63307" lon="20.60648">
        <ele>759.478027</ele>
        <time>2022-04-25T13:55:04.874Z</time>
      </trkpt>
      <trkpt lat="41.63298" lon="20.6065">
        <ele>759.48249</ele>
        <time>2022-04-25T13:55:06.890Z</time>
      </trkpt>
      <trkpt lat="41.63289" lon="20.60653">
        <ele>759.486998</ele>
        <time>2022-04-25T13:55:08.884Z</time>
      </trkpt>
      <trkpt lat="41.63281" lon="20.60657">
        <ele>759.491417</ele>
        <time>2022-04-25T13:55:10.897Z</time>
      </trkpt>
      <trkpt lat="41.63272" lon="20.60662">
        <ele>759.496093</ele>
        <time>2022-04-25T13:55:12.888Z</time>
      </trkpt>
      <trkpt lat="41.63262" lon="20.60668">
        <ele>759.501186</ele>
        <time>2022-04-25T13:55:14.891Z</time>
      </trkpt>
      <trkpt lat="41.63252" lon="20.60675">
        <ele>759.50675</ele>
        <time>2022-04-25T13:55:16.871Z</time>
      </trkpt>
      <trkpt lat="41.63241" lon="20.60681">
        <ele>759.512461</ele>
        <time>2022-04-25T13:55:18.892Z</time>
      </trkpt>
      <trkpt lat="41.6323" lon="20.60687">
        <ele>759.518389</ele>
        <time>2022-04-25T13:55:20.890Z</time>
      </trkpt>
      <trkpt lat="41.63218" lon="20.60695">
        <ele>759.524881</ele>
        <time>2022-04-25T13:55:22.910Z</time>
      </trkpt>
      <trkpt lat="41.63206" lon="20.60702">
        <ele>759.198711</ele>
        <time>2022-04-25T13:55:24.879Z</time>
      </trkpt>
      <trkpt lat="41.63193" lon="20.60709">
        <ele>758.697817</ele>
        <time>2022-04-25T13:55:26.886Z</time>
      </trkpt>
      <trkpt lat="41.6318" lon="20.60716">
        <ele>758.175526</ele>
        <time>2022-04-25T13:55:28.886Z</time>
      </trkpt>
      <trkpt lat="41.63166" lon="20.60722">
        <ele>757.65546</ele>
        <time>2022-04-25T13:55:30.862Z</time>
      </trkpt>
      <trkpt lat="41.63152" lon="20.60727">
        <ele>757.136227</ele>
        <time>2022-04-25T13:55:32.877Z</time>
      </trkpt>
      <trkpt lat="41.63138" lon="20.6073">
        <ele>756.638469</ele>
        <time>2022-04-25T13:55:34.880Z</time>
      </trkpt>
      <trkpt lat="41.63126" lon="20.60731">
        <ele>756.183141</ele>
        <time>2022-04-25T13:55:36.872Z</time>
      </trkpt>
      <trkpt lat="41.63115" lon="20.60731">
        <ele>755.78264</ele>
        <time>2022-04-25T13:55:38.899Z</time>
      </trkpt>
      <trkpt lat="41.63104" lon="20.6073">
        <ele>755.391702</ele>
        <time>2022-04-25T13:55:40.886Z</time>
      </trkpt>
      <trkpt lat="41.63093" lon="20.60727">
        <ele>754.982091</ele>
        <time>2022-04-25T13:55:42.920Z</time>
      </trkpt>
      <trkpt lat="41.63083" lon="20.60726">
        <ele>754.634013</ele>
        <time>2022-04-25T13:55:44.883Z</time>
      </trkpt>
      <trkpt lat="41.63074" lon="20.60723">
        <ele>754.302923</ele>
        <time>2022-04-25T13:55:46.894Z</time>
      </trkpt>
      <trkpt lat="41.63066" lon="20.60719">
        <ele>753.971732</ele>
        <time>2022-04-25T13:55:48.890Z</time>
      </trkpt>
      <trkpt lat="41.63055" lon="20.60712">
        <ele>753.550017</ele>
        <time>2022-04-25T13:55:51.889Z</time>
      </trkpt>
      <trkpt lat="41.63044" lon="20.60705">
        <ele>753.131253</ele>
        <time>2022-04-25T13:55:54.863Z</time>
      </trkpt>
      <trkpt lat="41.63036" lon="20.60699">
        <ele>752.815946</ele>
        <time>2022-04-25T13:55:57.863Z</time>
      </trkpt>
      <trkpt lat="41.63027" lon="20.60691">
        <ele>752.517012</ele>
        <time>2022-04-25T13:56:00.922Z</time>
      </trkpt>
      <trkpt lat="41.63018" lon="20.60686">
        <ele>752.211119</ele>
        <time>2022-04-25T13:56:04.895Z</time>
      </trkpt>
      <trkpt lat="41.6301" lon="20.60679">
        <ele>751.939174</ele>
        <time>2022-04-25T13:56:07.871Z</time>
      </trkpt>
      <trkpt lat="41.63001" lon="20.60674">
        <ele>751.670958</ele>
        <time>2022-04-25T13:56:10.882Z</time>
      </trkpt>
      <trkpt lat="41.62991" lon="20.60668">
        <ele>751.330073</ele>
        <time>2022-04-25T13:56:14.879Z</time>
      </trkpt>
      <trkpt lat="41.62982" lon="20.60664">
        <ele>751.063885</ele>
        <time>2022-04-25T13:56:17.869Z</time>
      </trkpt>
      <trkpt lat="41.62971" lon="20.60663">
        <ele>750.737604</ele>
        <time>2022-04-25T13:56:21.872Z</time>
      </trkpt>
      <trkpt lat="41.6296" lon="20.60662">
        <ele>750.410465</ele>
        <time>2022-04-25T13:56:25.872Z</time>
      </trkpt>
      <trkpt lat="41.62948" lon="20.60663">
        <ele>750.062591</ele>
        <time>2022-04-25T13:56:29.884Z</time>
      </trkpt>
      <trkpt lat="41.62938" lon="20.60664">
        <ele>749.758294</ele>
        <time>2022-04-25T13:56:32.863Z</time>
      </trkpt>
      <trkpt lat="41.62926" lon="20.60665">
        <ele>749.40923</ele>
        <time>2022-04-25T13:56:35.895Z</time>
      </trkpt>
      <trkpt lat="41.62914" lon="20.60667">
        <ele>749.036076</ele>
        <time>2022-04-25T13:56:38.893Z</time>
      </trkpt>
      <trkpt lat="41.629" lon="20.60669">
        <ele>748.640917</ele>
        <time>2022-04-25T13:56:41.870Z</time>
      </trkpt>
      <trkpt lat="41.62891" lon="20.60672">
        <ele>748.345639</ele>
        <time>2022-04-25T13:56:43.886Z</time>
      </trkpt>
      <trkpt lat="41.62881" lon="20.60675">
        <ele>748.041612</ele>
        <time>2022-04-25T13:56:45.894Z</time>
      </trkpt>
      <trkpt lat="41.62871" lon="20.60679">
        <ele>747.736411</ele>
        <time>2022-04-25T13:56:47.884Z</time>
      </trkpt>
      <trkpt lat="41.6286" lon="20.60683">
        <ele>747.523142</ele>
        <time>2022-04-25T13:56:49.882Z</time>
      </trkpt>
      <trkpt lat="41.6285" lon="20.60688">
        <ele>747.296704</ele>
        <time>2022-04-25T13:56:51.901Z</time>
      </trkpt>
      <trkpt lat="41.62839" lon="20.60692">
        <ele>747.077848</ele>
        <time>2022-04-25T13:56:53.878Z</time>
      </trkpt>
      <trkpt lat="41.62829" lon="20.60696">
        <ele>746.86347</ele>
        <time>2022-04-25T13:56:55.886Z</time>
      </trkpt>
      <trkpt lat="41.62819" lon="20.60699">
        <ele>746.655671</ele>
        <time>2022-04-25T13:56:57.899Z</time>
      </trkpt>
      <trkpt lat="41.62809" lon="20.60702">
        <ele>746.449428</ele>
        <time>2022-04-25T13:56:59.879Z</time>
      </trkpt>
      <trkpt lat="41.62798" lon="20.60707">
        <ele>746.223911</ele>
        <time>2022-04-25T13:57:01.883Z</time>
      </trkpt>
      <trkpt lat="41.62788" lon="20.60714">
        <ele>745.991427</ele>
        <time>2022-04-25T13:57:03.871Z</time>
      </trkpt>
      <trkpt lat="41.62778" lon="20.60723">
        <ele>745.743718</ele>
        <time>2022-04-25T13:57:05.880Z</time>
      </trkpt>
      <trkpt lat="41.62767" lon="20.60734">
        <ele>745.475092</ele>
        <time>2022-04-25T13:57:07.912Z</time>
      </trkpt>
      <trkpt lat="41.62755" lon="20.60744">
        <ele>745.18991</ele>
        <time>2022-04-25T13:57:09.882Z</time>
      </trkpt>
      <trkpt lat="41.62742" lon="20.60757">
        <ele>744.880182</ele>
        <time>2022-04-25T13:57:11.875Z</time>
      </trkpt>
      <trkpt lat="41.62729" lon="20.60768">
        <ele>744.569121</ele>
        <time>2022-04-25T13:57:13.877Z</time>
      </trkpt>
      <trkpt lat="41.62715" lon="20.60778">
        <ele>744.240064</ele>
        <time>2022-04-25T13:57:15.897Z</time>
      </trkpt>
      <trkpt lat="41.62699" lon="20.60787">
        <ele>743.820457</ele>
        <time>2022-04-25T13:57:17.882Z</time>
      </trkpt>
      <trkpt lat="41.62681" lon="20.60789">
        <ele>743.349665</ele>
        <time>2022-04-25T13:57:19.873Z</time>
      </trkpt>
      <trkpt lat="41.62671" lon="20.60788">
        <ele>743.09682</ele>
        <time>2022-04-25T13:57:20.890Z</time>
      </trkpt>
      <trkpt lat="41.62662" lon="20.60785">
        <ele>742.846586</ele>
        <time>2022-04-25T13:57:21.876Z</time>
      </trkpt>
      <trkpt lat="41.62652" lon="20.60781">
        <ele>742.597444</ele>
        <time>2022-04-25T13:57:22.890Z</time>
      </trkpt>
      <trkpt lat="41.62643" lon="20.60778">
        <ele>742.346754</ele>
        <time>2022-04-25T13:57:23.892Z</time>
      </trkpt>
      <trkpt lat="41.62633" lon="20.60776">
        <ele>742.097424</ele>
        <time>2022-04-25T13:57:24.910Z</time>
      </trkpt>
      <trkpt lat="41.62624" lon="20.60776">
        <ele>741.843545</ele>
        <time>2022-04-25T13:57:25.913Z</time>
      </trkpt>
      <trkpt lat="41.62613" lon="20.60776">
        <ele>741.566451</ele>
        <time>2022-04-25T13:57:26.972Z</time>
      </trkpt>
      <trkpt lat="41.62602" lon="20.60777">
        <ele>741.276121</ele>
        <time>2022-04-25T13:57:27.874Z</time>
      </trkpt>
      <trkpt lat="41.6259" lon="20.60777">
        <ele>740.985875</ele>
        <time>2022-04-25T13:57:28.871Z</time>
      </trkpt>
      <trkpt lat="41.62579" lon="20.60778">
        <ele>740.69317</ele>
        <time>2022-04-25T13:57:29.874Z</time>
      </trkpt>
      <trkpt lat="41.62568" lon="20.60778">
        <ele>740.395332</ele>
        <time>2022-04-25T13:57:30.876Z</time>
      </trkpt>
      <trkpt lat="41.62556" lon="20.60778">
        <ele>740.097525</ele>
        <time>2022-04-25T13:57:31.893Z</time>
      </trkpt>
      <trkpt lat="41.62545" lon="20.60777">
        <ele>739.80735</ele>
        <time>2022-04-25T13:57:32.868Z</time>
      </trkpt>
      <trkpt lat="41.62534" lon="20.60776">
        <ele>739.521229</ele>
        <time>2022-04-25T13:57:33.878Z</time>
      </trkpt>
      <trkpt lat="41.62523" lon="20.60774">
        <ele>739.086937</ele>
        <time>2022-04-25T13:57:34.884Z</time>
      </trkpt>
      <trkpt lat="41.62512" lon="20.60771">
        <ele>738.632944</ele>
        <time>2022-04-25T13:57:35.898Z</time>
      </trkpt>
      <trkpt lat="41.62502" lon="20.60768">
        <ele>738.190216</ele>
        <time>2022-04-25T13:57:36.933Z</time>
      </trkpt>
      <trkpt lat="41.62492" lon="20.60764">
        <ele>737.761855</ele>
        <time>2022-04-25T13:57:37.883Z</time>
      </trkpt>
      <trkpt lat="41.62483" lon="20.60759">
        <ele>737.346952</ele>
        <time>2022-04-25T13:57:38.877Z</time>
      </trkpt>
      <trkpt lat="41.62474" lon="20.60752">
        <ele>736.955272</ele>
        <time>2022-04-25T13:57:39.868Z</time>
      </trkpt>
      <trkpt lat="41.62467" lon="20.60745">
        <ele>736.576481</ele>
        <time>2022-04-25T13:57:40.881Z</time>
      </trkpt>
      <trkpt lat="41.62453" lon="20.6073">
        <ele>735.844751</ele>
        <time>2022-04-25T13:57:42.955Z</time>
      </trkpt>
      <trkpt lat="41.62443" lon="20.60714">
        <ele>735.190961</ele>
        <time>2022-04-25T13:57:44.884Z</time>
      </trkpt>
      <trkpt lat="41.62436" lon="20.60699">
        <ele>734.628957</ele>
        <time>2022-04-25T13:57:46.893Z</time>
      </trkpt>
      <trkpt lat="41.62428" lon="20.60685">
        <ele>734.087741</ele>
        <time>2022-04-25T13:57:48.870Z</time>
      </trkpt>
      <trkpt lat="41.62418" lon="20.60674">
        <ele>733.572499</ele>
        <time>2022-04-25T13:57:50.884Z</time>
      </trkpt>
      <trkpt lat="41.62407" lon="20.60666">
        <ele>733.045778</ele>
        <time>2022-04-25T13:57:52.882Z</time>
      </trkpt>
      <trkpt lat="41.62396" lon="20.60661">
        <ele>732.540971</ele>
        <time>2022-04-25T13:57:54.874Z</time>
      </trkpt>
      <trkpt lat="41.62385" lon="20.60659">
        <ele>732.07886</ele>
        <time>2022-04-25T13:57:56.896Z</time>
      </trkpt>
      <trkpt lat="41.62372" lon="20.6066">
        <ele>732.022357</ele>
        <time>2022-04-25T13:57:58.877Z</time>
      </trkpt>
      <trkpt lat="41.6236" lon="20.60662">
        <ele>732.022357</ele>
        <time>2022-04-25T13:58:00.887Z</time>
      </trkpt>
      <trkpt lat="41.62348" lon="20.60664">
        <ele>732.022357</ele>
        <time>2022-04-25T13:58:02.907Z</time>
      </trkpt>
      <trkpt lat="41.62339" lon="20.60664">
        <ele>732.022357</ele>
        <time>2022-04-25T13:58:04.954Z</time>
      </trkpt>
      <trkpt lat="41.62331" lon="20.60673">
        <ele>732.022357</ele>
        <time>2022-04-25T13:58:08.858Z</time>
      </trkpt>
      <trkpt lat="41.62322" lon="20.60684">
        <ele>732.022357</ele>
        <time>2022-04-25T13:58:31.903Z</time>
      </trkpt>
      <trkpt lat="41.62313" lon="20.60689">
        <ele>732.022357</ele>
        <time>2022-04-25T13:58:43.876Z</time>
      </trkpt>
      <trkpt lat="41.62304" lon="20.60694">
        <ele>732.022357</ele>
        <time>2022-04-25T13:58:52.885Z</time>
      </trkpt>
      <trkpt lat="41.62294" lon="20.60696">
        <ele>732.022357</ele>
        <time>2022-04-25T13:59:01.868Z</time>
      </trkpt>
      <trkpt lat="41.62285" lon="20.60699">
        <ele>732.022357</ele>
        <time>2022-04-25T13:59:11.904Z</time>
      </trkpt>
      <trkpt lat="41.62276" lon="20.60702">
        <ele>732.022357</ele>
        <time>2022-04-25T13:59:20.894Z</time>
      </trkpt>
      <trkpt lat="41.62267" lon="20.60706">
        <ele>732.022357</ele>
        <time>2022-04-25T13:59:30.864Z</time>
      </trkpt>
      <trkpt lat="41.6226" lon="20.60716">
        <ele>732.022357</ele>
        <time>2022-04-25T13:59:40.922Z</time>
      </trkpt>
      <trkpt lat="41.62256" lon="20.60719">
        <ele>732.022357</ele>
        <time>2022-04-25T14:01:29.802Z</time>
      </trkpt>
    </trkseg>
  </trk>
</gpx>